<?xml version="1.0" encoding="UTF-8" standalone="no" ?>
<gpx xmlns="http://www.topografix.com/GPX/1/1" xmlns:xsi="http://www.w3.org/2001/XMLSchema-instance" xsi:schemaLocation="http://www.topografix.com/GPX/1/1 http://www.topografix.com/GPX/1/1/gpx.xsd" version="1.1" creator="VisuGPX - https://www.visugpx.com">
  <metadata>
    <name>ski de rando traverse des aiguilles de l'argentiere</name>
    <desc><![CDATA[
]]></desc>
  </metadata>
  <trk>
    <name><![CDATA[ski de rando traverse des aiguilles de l'argentiere]]></name>
    <trkseg>
      <trkpt lat="45.25178" lon="6.18227">
        <ele>1631.8000488281</ele>
        <time>2012-05-17T06:51:42.000Z</time>
      </trkpt>
      <trkpt lat="45.25175" lon="6.18229">
        <ele>1631</ele>
        <time>2012-05-17T06:52:05.000Z</time>
      </trkpt>
      <trkpt lat="45.25172" lon="6.18228">
        <ele>1631.4000244141</ele>
        <time>2012-05-17T06:52:21.000Z</time>
      </trkpt>
      <trkpt lat="45.25168" lon="6.18224">
        <ele>1631.5999755859</ele>
        <time>2012-05-17T06:52:25.000Z</time>
      </trkpt>
      <trkpt lat="45.2516" lon="6.18219">
        <ele>1632.1999511719</ele>
        <time>2012-05-17T06:52:33.000Z</time>
      </trkpt>
      <trkpt lat="45.25157" lon="6.18219">
        <ele>1632.8000488281</ele>
        <time>2012-05-17T06:52:38.000Z</time>
      </trkpt>
      <trkpt lat="45.25149" lon="6.1822">
        <ele>1633.8000488281</ele>
        <time>2012-05-17T06:52:47.000Z</time>
      </trkpt>
      <trkpt lat="45.25145" lon="6.1822">
        <ele>1633.5999755859</ele>
        <time>2012-05-17T06:52:51.000Z</time>
      </trkpt>
      <trkpt lat="45.25141" lon="6.18219">
        <ele>1633.8000488281</ele>
        <time>2012-05-17T06:52:55.000Z</time>
      </trkpt>
      <trkpt lat="45.25136" lon="6.1821">
        <ele>1634.1999511719</ele>
        <time>2012-05-17T06:53:02.000Z</time>
      </trkpt>
      <trkpt lat="45.25134" lon="6.18205">
        <ele>1634.4000244141</ele>
        <time>2012-05-17T06:53:06.000Z</time>
      </trkpt>
      <trkpt lat="45.25124" lon="6.1819">
        <ele>1634.1999511719</ele>
        <time>2012-05-17T06:53:16.000Z</time>
      </trkpt>
      <trkpt lat="45.25108" lon="6.18179">
        <ele>1634.8000488281</ele>
        <time>2012-05-17T06:53:27.000Z</time>
      </trkpt>
      <trkpt lat="45.25099" lon="6.18172">
        <ele>1635.4000244141</ele>
        <time>2012-05-17T06:53:33.000Z</time>
      </trkpt>
      <trkpt lat="45.25087" lon="6.1817">
        <ele>1636.1999511719</ele>
        <time>2012-05-17T06:53:40.000Z</time>
      </trkpt>
      <trkpt lat="45.25079" lon="6.18164">
        <ele>1636.5999755859</ele>
        <time>2012-05-17T06:53:47.000Z</time>
      </trkpt>
      <trkpt lat="45.25074" lon="6.18157">
        <ele>1637.1999511719</ele>
        <time>2012-05-17T06:53:52.000Z</time>
      </trkpt>
      <trkpt lat="45.25073" lon="6.18155">
        <ele>1637.4000244141</ele>
        <time>2012-05-17T06:53:54.000Z</time>
      </trkpt>
      <trkpt lat="45.25066" lon="6.1814">
        <ele>1638</ele>
        <time>2012-05-17T06:54:01.000Z</time>
      </trkpt>
      <trkpt lat="45.25061" lon="6.18128">
        <ele>1638.8000488281</ele>
        <time>2012-05-17T06:54:07.000Z</time>
      </trkpt>
      <trkpt lat="45.25059" lon="6.18124">
        <ele>1639.4000244141</ele>
        <time>2012-05-17T06:54:09.000Z</time>
      </trkpt>
      <trkpt lat="45.25051" lon="6.18112">
        <ele>1639.8000488281</ele>
        <time>2012-05-17T06:54:17.000Z</time>
      </trkpt>
      <trkpt lat="45.25048" lon="6.18105">
        <ele>1640.8000488281</ele>
        <time>2012-05-17T06:54:23.000Z</time>
      </trkpt>
      <trkpt lat="45.25042" lon="6.18092">
        <ele>1641.8000488281</ele>
        <time>2012-05-17T06:54:32.000Z</time>
      </trkpt>
      <trkpt lat="45.25033" lon="6.18078">
        <ele>1643</ele>
        <time>2012-05-17T06:54:43.000Z</time>
      </trkpt>
      <trkpt lat="45.2503" lon="6.18071">
        <ele>1643.8000488281</ele>
        <time>2012-05-17T06:54:48.000Z</time>
      </trkpt>
      <trkpt lat="45.25025" lon="6.18057">
        <ele>1644.1999511719</ele>
        <time>2012-05-17T06:54:58.000Z</time>
      </trkpt>
      <trkpt lat="45.25015" lon="6.18045">
        <ele>1645.4000244141</ele>
        <time>2012-05-17T06:55:07.000Z</time>
      </trkpt>
      <trkpt lat="45.25007" lon="6.1804">
        <ele>1646.1999511719</ele>
        <time>2012-05-17T06:55:13.000Z</time>
      </trkpt>
      <trkpt lat="45.25001" lon="6.18031">
        <ele>1646.8000488281</ele>
        <time>2012-05-17T06:55:20.000Z</time>
      </trkpt>
      <trkpt lat="45.24994" lon="6.18023">
        <ele>1647.1999511719</ele>
        <time>2012-05-17T06:55:26.000Z</time>
      </trkpt>
      <trkpt lat="45.24982" lon="6.18014">
        <ele>1648.1999511719</ele>
        <time>2012-05-17T06:55:34.000Z</time>
      </trkpt>
      <trkpt lat="45.24977" lon="6.18004">
        <ele>1649</ele>
        <time>2012-05-17T06:55:42.000Z</time>
      </trkpt>
      <trkpt lat="45.24973" lon="6.17989">
        <ele>1650</ele>
        <time>2012-05-17T06:55:50.000Z</time>
      </trkpt>
      <trkpt lat="45.24967" lon="6.17978">
        <ele>1650.8000488281</ele>
        <time>2012-05-17T06:55:56.000Z</time>
      </trkpt>
      <trkpt lat="45.24959" lon="6.17964">
        <ele>1651.8000488281</ele>
        <time>2012-05-17T06:56:04.000Z</time>
      </trkpt>
      <trkpt lat="45.24953" lon="6.17955">
        <ele>1652.4000244141</ele>
        <time>2012-05-17T06:56:11.000Z</time>
      </trkpt>
      <trkpt lat="45.24952" lon="6.1795">
        <ele>1652.5999755859</ele>
        <time>2012-05-17T06:56:14.000Z</time>
      </trkpt>
      <trkpt lat="45.24949" lon="6.17939">
        <ele>1653.4000244141</ele>
        <time>2012-05-17T06:56:20.000Z</time>
      </trkpt>
      <trkpt lat="45.24947" lon="6.1793">
        <ele>1653.8000488281</ele>
        <time>2012-05-17T06:56:26.000Z</time>
      </trkpt>
      <trkpt lat="45.24945" lon="6.17916">
        <ele>1654.5999755859</ele>
        <time>2012-05-17T06:56:35.000Z</time>
      </trkpt>
      <trkpt lat="45.2494" lon="6.17906">
        <ele>1655.1999511719</ele>
        <time>2012-05-17T06:56:42.000Z</time>
      </trkpt>
      <trkpt lat="45.24937" lon="6.17894">
        <ele>1655.8000488281</ele>
        <time>2012-05-17T06:56:49.000Z</time>
      </trkpt>
      <trkpt lat="45.24932" lon="6.17881">
        <ele>1656</ele>
        <time>2012-05-17T06:56:57.000Z</time>
      </trkpt>
      <trkpt lat="45.24926" lon="6.17871">
        <ele>1656.5999755859</ele>
        <time>2012-05-17T06:57:04.000Z</time>
      </trkpt>
      <trkpt lat="45.24918" lon="6.17865">
        <ele>1657</ele>
        <time>2012-05-17T06:57:12.000Z</time>
      </trkpt>
      <trkpt lat="45.24907" lon="6.17856">
        <ele>1658</ele>
        <time>2012-05-17T06:57:22.000Z</time>
      </trkpt>
      <trkpt lat="45.24899" lon="6.17849">
        <ele>1659</ele>
        <time>2012-05-17T06:57:30.000Z</time>
      </trkpt>
      <trkpt lat="45.24891" lon="6.17842">
        <ele>1659.5999755859</ele>
        <time>2012-05-17T06:57:37.000Z</time>
      </trkpt>
      <trkpt lat="45.24882" lon="6.17837">
        <ele>1660.4000244141</ele>
        <time>2012-05-17T06:57:46.000Z</time>
      </trkpt>
      <trkpt lat="45.24871" lon="6.17832">
        <ele>1661.4000244141</ele>
        <time>2012-05-17T06:57:55.000Z</time>
      </trkpt>
      <trkpt lat="45.24861" lon="6.17824">
        <ele>1662.1999511719</ele>
        <time>2012-05-17T06:58:04.000Z</time>
      </trkpt>
      <trkpt lat="45.24853" lon="6.17818">
        <ele>1663</ele>
        <time>2012-05-17T06:58:12.000Z</time>
      </trkpt>
      <trkpt lat="45.24848" lon="6.17813">
        <ele>1663.5999755859</ele>
        <time>2012-05-17T06:58:19.000Z</time>
      </trkpt>
      <trkpt lat="45.24841" lon="6.17807">
        <ele>1664.5999755859</ele>
        <time>2012-05-17T06:58:25.000Z</time>
      </trkpt>
      <trkpt lat="45.24837" lon="6.17802">
        <ele>1664.5999755859</ele>
        <time>2012-05-17T06:58:31.000Z</time>
      </trkpt>
      <trkpt lat="45.24832" lon="6.17795">
        <ele>1665.5999755859</ele>
        <time>2012-05-17T06:58:37.000Z</time>
      </trkpt>
      <trkpt lat="45.24828" lon="6.17788">
        <ele>1666.4000244141</ele>
        <time>2012-05-17T06:58:44.000Z</time>
      </trkpt>
      <trkpt lat="45.24822" lon="6.17777">
        <ele>1667</ele>
        <time>2012-05-17T06:58:51.000Z</time>
      </trkpt>
      <trkpt lat="45.24817" lon="6.17765">
        <ele>1668</ele>
        <time>2012-05-17T06:58:58.000Z</time>
      </trkpt>
      <trkpt lat="45.24813" lon="6.17756">
        <ele>1668.8000488281</ele>
        <time>2012-05-17T06:59:05.000Z</time>
      </trkpt>
      <trkpt lat="45.2481" lon="6.17751">
        <ele>1669.5999755859</ele>
        <time>2012-05-17T06:59:11.000Z</time>
      </trkpt>
      <trkpt lat="45.24806" lon="6.17737">
        <ele>1670.8000488281</ele>
        <time>2012-05-17T06:59:20.000Z</time>
      </trkpt>
      <trkpt lat="45.24802" lon="6.17727">
        <ele>1671.1999511719</ele>
        <time>2012-05-17T06:59:26.000Z</time>
      </trkpt>
      <trkpt lat="45.24798" lon="6.17718">
        <ele>1672</ele>
        <time>2012-05-17T06:59:32.000Z</time>
      </trkpt>
      <trkpt lat="45.24792" lon="6.1771">
        <ele>1673</ele>
        <time>2012-05-17T06:59:39.000Z</time>
      </trkpt>
      <trkpt lat="45.24788" lon="6.17697">
        <ele>1674.1999511719</ele>
        <time>2012-05-17T06:59:48.000Z</time>
      </trkpt>
      <trkpt lat="45.24783" lon="6.17689">
        <ele>1675.1999511719</ele>
        <time>2012-05-17T06:59:55.000Z</time>
      </trkpt>
      <trkpt lat="45.24779" lon="6.1768">
        <ele>1676</ele>
        <time>2012-05-17T07:00:01.000Z</time>
      </trkpt>
      <trkpt lat="45.24774" lon="6.17672">
        <ele>1676.5999755859</ele>
        <time>2012-05-17T07:00:07.000Z</time>
      </trkpt>
      <trkpt lat="45.24767" lon="6.17666">
        <ele>1677.5999755859</ele>
        <time>2012-05-17T07:00:14.000Z</time>
      </trkpt>
      <trkpt lat="45.24759" lon="6.17657">
        <ele>1678.8000488281</ele>
        <time>2012-05-17T07:00:23.000Z</time>
      </trkpt>
      <trkpt lat="45.24753" lon="6.17649">
        <ele>1679.4000244141</ele>
        <time>2012-05-17T07:00:30.000Z</time>
      </trkpt>
      <trkpt lat="45.24745" lon="6.17641">
        <ele>1680.5999755859</ele>
        <time>2012-05-17T07:00:39.000Z</time>
      </trkpt>
      <trkpt lat="45.24737" lon="6.17634">
        <ele>1681.8000488281</ele>
        <time>2012-05-17T07:00:47.000Z</time>
      </trkpt>
      <trkpt lat="45.24732" lon="6.17625">
        <ele>1682.5999755859</ele>
        <time>2012-05-17T07:00:53.000Z</time>
      </trkpt>
      <trkpt lat="45.24726" lon="6.17618">
        <ele>1683.5999755859</ele>
        <time>2012-05-17T07:01:00.000Z</time>
      </trkpt>
      <trkpt lat="45.2472" lon="6.17607">
        <ele>1685</ele>
        <time>2012-05-17T07:01:09.000Z</time>
      </trkpt>
      <trkpt lat="45.24713" lon="6.17599">
        <ele>1686.1999511719</ele>
        <time>2012-05-17T07:01:16.000Z</time>
      </trkpt>
      <trkpt lat="45.24705" lon="6.17591">
        <ele>1687.1999511719</ele>
        <time>2012-05-17T07:01:24.000Z</time>
      </trkpt>
      <trkpt lat="45.24693" lon="6.17585">
        <ele>1688.5999755859</ele>
        <time>2012-05-17T07:01:34.000Z</time>
      </trkpt>
      <trkpt lat="45.24684" lon="6.17583">
        <ele>1690</ele>
        <time>2012-05-17T07:01:42.000Z</time>
      </trkpt>
      <trkpt lat="45.24676" lon="6.17577">
        <ele>1691</ele>
        <time>2012-05-17T07:01:51.000Z</time>
      </trkpt>
      <trkpt lat="45.24667" lon="6.1757">
        <ele>1692</ele>
        <time>2012-05-17T07:02:00.000Z</time>
      </trkpt>
      <trkpt lat="45.24661" lon="6.17568">
        <ele>1693.1999511719</ele>
        <time>2012-05-17T07:02:07.000Z</time>
      </trkpt>
      <trkpt lat="45.24652" lon="6.1756">
        <ele>1694.4000244141</ele>
        <time>2012-05-17T07:02:16.000Z</time>
      </trkpt>
      <trkpt lat="45.24642" lon="6.17553">
        <ele>1695.1999511719</ele>
        <time>2012-05-17T07:02:25.000Z</time>
      </trkpt>
      <trkpt lat="45.24635" lon="6.17551">
        <ele>1696.4000244141</ele>
        <time>2012-05-17T07:02:32.000Z</time>
      </trkpt>
      <trkpt lat="45.24633" lon="6.17552">
        <ele>1696.8000488281</ele>
        <time>2012-05-17T07:02:34.000Z</time>
      </trkpt>
      <trkpt lat="45.24629" lon="6.17553">
        <ele>1697.4000244141</ele>
        <time>2012-05-17T07:02:38.000Z</time>
      </trkpt>
      <trkpt lat="45.24624" lon="6.17552">
        <ele>1697.8000488281</ele>
        <time>2012-05-17T07:02:43.000Z</time>
      </trkpt>
      <trkpt lat="45.24618" lon="6.17551">
        <ele>1698.4000244141</ele>
        <time>2012-05-17T07:02:49.000Z</time>
      </trkpt>
      <trkpt lat="45.24616" lon="6.17551">
        <ele>1698.8000488281</ele>
        <time>2012-05-17T07:02:51.000Z</time>
      </trkpt>
      <trkpt lat="45.24611" lon="6.17548">
        <ele>1699.1999511719</ele>
        <time>2012-05-17T07:02:55.000Z</time>
      </trkpt>
      <trkpt lat="45.24604" lon="6.17545">
        <ele>1700.4000244141</ele>
        <time>2012-05-17T07:03:03.000Z</time>
      </trkpt>
      <trkpt lat="45.24599" lon="6.17541">
        <ele>1700.8000488281</ele>
        <time>2012-05-17T07:03:10.000Z</time>
      </trkpt>
      <trkpt lat="45.24594" lon="6.17536">
        <ele>1701.4000244141</ele>
        <time>2012-05-17T07:03:17.000Z</time>
      </trkpt>
      <trkpt lat="45.24593" lon="6.17535">
        <ele>1701.4000244141</ele>
        <time>2012-05-17T07:03:19.000Z</time>
      </trkpt>
      <trkpt lat="45.24589" lon="6.17536">
        <ele>1701.1999511719</ele>
        <time>2012-05-17T07:03:30.000Z</time>
      </trkpt>
      <trkpt lat="45.24589" lon="6.17536">
        <ele>1701.1999511719</ele>
        <time>2012-05-17T07:03:31.000Z</time>
      </trkpt>
      <trkpt lat="45.24584" lon="6.17535">
        <ele>1700.1999511719</ele>
        <time>2012-05-17T07:03:40.000Z</time>
      </trkpt>
      <trkpt lat="45.24585" lon="6.17531">
        <ele>1700.8000488281</ele>
        <time>2012-05-17T07:03:45.000Z</time>
      </trkpt>
      <trkpt lat="45.24582" lon="6.17521">
        <ele>1701.1999511719</ele>
        <time>2012-05-17T07:03:52.000Z</time>
      </trkpt>
      <trkpt lat="45.24577" lon="6.17516">
        <ele>1701.5999755859</ele>
        <time>2012-05-17T07:03:59.000Z</time>
      </trkpt>
      <trkpt lat="45.24573" lon="6.17505">
        <ele>1702</ele>
        <time>2012-05-17T07:04:07.000Z</time>
      </trkpt>
      <trkpt lat="45.24568" lon="6.17497">
        <ele>1702.5999755859</ele>
        <time>2012-05-17T07:04:15.000Z</time>
      </trkpt>
      <trkpt lat="45.24565" lon="6.17496">
        <ele>1703.4000244141</ele>
        <time>2012-05-17T07:04:21.000Z</time>
      </trkpt>
      <trkpt lat="45.24558" lon="6.17493">
        <ele>1704.1999511719</ele>
        <time>2012-05-17T07:04:29.000Z</time>
      </trkpt>
      <trkpt lat="45.24555" lon="6.17491">
        <ele>1703.5999755859</ele>
        <time>2012-05-17T07:04:34.000Z</time>
      </trkpt>
      <trkpt lat="45.24552" lon="6.17485">
        <ele>1703.4000244141</ele>
        <time>2012-05-17T07:04:41.000Z</time>
      </trkpt>
      <trkpt lat="45.24553" lon="6.17485">
        <ele>1703.4000244141</ele>
        <time>2012-05-17T07:04:43.000Z</time>
      </trkpt>
      <trkpt lat="45.24545" lon="6.17477">
        <ele>1704.1999511719</ele>
        <time>2012-05-17T07:05:05.000Z</time>
      </trkpt>
      <trkpt lat="45.24542" lon="6.17479">
        <ele>1704.8000488281</ele>
        <time>2012-05-17T07:05:13.000Z</time>
      </trkpt>
      <trkpt lat="45.24538" lon="6.17482">
        <ele>1706.4000244141</ele>
        <time>2012-05-17T07:05:19.000Z</time>
      </trkpt>
      <trkpt lat="45.24535" lon="6.17483">
        <ele>1707.4000244141</ele>
        <time>2012-05-17T07:05:25.000Z</time>
      </trkpt>
      <trkpt lat="45.24535" lon="6.17483">
        <ele>1707.4000244141</ele>
        <time>2012-05-17T07:05:27.000Z</time>
      </trkpt>
      <trkpt lat="45.24534" lon="6.17474">
        <ele>1705.5999755859</ele>
        <time>2012-05-17T07:05:52.000Z</time>
      </trkpt>
      <trkpt lat="45.24531" lon="6.17468">
        <ele>1706.1999511719</ele>
        <time>2012-05-17T07:06:00.000Z</time>
      </trkpt>
      <trkpt lat="45.2453" lon="6.17467">
        <ele>1706.1999511719</ele>
        <time>2012-05-17T07:06:02.000Z</time>
      </trkpt>
      <trkpt lat="45.24529" lon="6.17463">
        <ele>1706</ele>
        <time>2012-05-17T07:06:16.000Z</time>
      </trkpt>
      <trkpt lat="45.24524" lon="6.17459">
        <ele>1706.5999755859</ele>
        <time>2012-05-17T07:06:25.000Z</time>
      </trkpt>
      <trkpt lat="45.24521" lon="6.17455">
        <ele>1706.8000488281</ele>
        <time>2012-05-17T07:06:30.000Z</time>
      </trkpt>
      <trkpt lat="45.24519" lon="6.17454">
        <ele>1706.5999755859</ele>
        <time>2012-05-17T07:06:35.000Z</time>
      </trkpt>
      <trkpt lat="45.24518" lon="6.17452">
        <ele>1706.4000244141</ele>
        <time>2012-05-17T07:06:37.000Z</time>
      </trkpt>
      <trkpt lat="45.24511" lon="6.17443">
        <ele>1706.8000488281</ele>
        <time>2012-05-17T07:06:44.000Z</time>
      </trkpt>
      <trkpt lat="45.24502" lon="6.17433">
        <ele>1707.1999511719</ele>
        <time>2012-05-17T07:06:51.000Z</time>
      </trkpt>
      <trkpt lat="45.24498" lon="6.1743">
        <ele>1706.5999755859</ele>
        <time>2012-05-17T07:06:57.000Z</time>
      </trkpt>
      <trkpt lat="45.24497" lon="6.1743">
        <ele>1706.5999755859</ele>
        <time>2012-05-17T07:06:58.000Z</time>
      </trkpt>
      <trkpt lat="45.24492" lon="6.17424">
        <ele>1706.4000244141</ele>
        <time>2012-05-17T07:07:04.000Z</time>
      </trkpt>
      <trkpt lat="45.24486" lon="6.17419">
        <ele>1706</ele>
        <time>2012-05-17T07:07:10.000Z</time>
      </trkpt>
      <trkpt lat="45.24482" lon="6.17416">
        <ele>1707.4000244141</ele>
        <time>2012-05-17T07:07:16.000Z</time>
      </trkpt>
      <trkpt lat="45.24477" lon="6.17415">
        <ele>1708.5999755859</ele>
        <time>2012-05-17T07:07:24.000Z</time>
      </trkpt>
      <trkpt lat="45.24478" lon="6.17415">
        <ele>1708.8000488281</ele>
        <time>2012-05-17T07:07:25.000Z</time>
      </trkpt>
      <trkpt lat="45.24475" lon="6.17408">
        <ele>1708.1999511719</ele>
        <time>2012-05-17T07:07:34.000Z</time>
      </trkpt>
      <trkpt lat="45.24474" lon="6.17404">
        <ele>1708.5999755859</ele>
        <time>2012-05-17T07:07:39.000Z</time>
      </trkpt>
      <trkpt lat="45.24472" lon="6.17399">
        <ele>1709</ele>
        <time>2012-05-17T07:07:46.000Z</time>
      </trkpt>
      <trkpt lat="45.24471" lon="6.17393">
        <ele>1708.1999511719</ele>
        <time>2012-05-17T07:07:52.000Z</time>
      </trkpt>
      <trkpt lat="45.24468" lon="6.17391">
        <ele>1708.8000488281</ele>
        <time>2012-05-17T07:07:59.000Z</time>
      </trkpt>
      <trkpt lat="45.24468" lon="6.17388">
        <ele>1709.5999755859</ele>
        <time>2012-05-17T07:08:02.000Z</time>
      </trkpt>
      <trkpt lat="45.24462" lon="6.17384">
        <ele>1710.5999755859</ele>
        <time>2012-05-17T07:08:11.000Z</time>
      </trkpt>
      <trkpt lat="45.2446" lon="6.17382">
        <ele>1712</ele>
        <time>2012-05-17T07:08:19.000Z</time>
      </trkpt>
      <trkpt lat="45.24457" lon="6.1738">
        <ele>1712.8000488281</ele>
        <time>2012-05-17T07:08:23.000Z</time>
      </trkpt>
      <trkpt lat="45.24455" lon="6.17379">
        <ele>1713.1999511719</ele>
        <time>2012-05-17T07:08:25.000Z</time>
      </trkpt>
      <trkpt lat="45.2445" lon="6.17374">
        <ele>1714.1999511719</ele>
        <time>2012-05-17T07:08:33.000Z</time>
      </trkpt>
      <trkpt lat="45.24447" lon="6.17372">
        <ele>1715.1999511719</ele>
        <time>2012-05-17T07:08:38.000Z</time>
      </trkpt>
      <trkpt lat="45.24444" lon="6.17362">
        <ele>1716.4000244141</ele>
        <time>2012-05-17T07:08:49.000Z</time>
      </trkpt>
      <trkpt lat="45.24444" lon="6.1736">
        <ele>1717</ele>
        <time>2012-05-17T07:08:53.000Z</time>
      </trkpt>
      <trkpt lat="45.24438" lon="6.17357">
        <ele>1716.8000488281</ele>
        <time>2012-05-17T07:17:35.000Z</time>
      </trkpt>
      <trkpt lat="45.24436" lon="6.17355">
        <ele>1717.8000488281</ele>
        <time>2012-05-17T07:17:40.000Z</time>
      </trkpt>
      <trkpt lat="45.24435" lon="6.17353">
        <ele>1718.4000244141</ele>
        <time>2012-05-17T07:17:43.000Z</time>
      </trkpt>
      <trkpt lat="45.24432" lon="6.17349">
        <ele>1719.8000488281</ele>
        <time>2012-05-17T07:17:50.000Z</time>
      </trkpt>
      <trkpt lat="45.24428" lon="6.17345">
        <ele>1721.5999755859</ele>
        <time>2012-05-17T07:17:58.000Z</time>
      </trkpt>
      <trkpt lat="45.24426" lon="6.17345">
        <ele>1722.8000488281</ele>
        <time>2012-05-17T07:18:04.000Z</time>
      </trkpt>
      <trkpt lat="45.24422" lon="6.17345">
        <ele>1724.1999511719</ele>
        <time>2012-05-17T07:18:10.000Z</time>
      </trkpt>
      <trkpt lat="45.24418" lon="6.17344">
        <ele>1725</ele>
        <time>2012-05-17T07:18:15.000Z</time>
      </trkpt>
      <trkpt lat="45.24413" lon="6.17343">
        <ele>1727</ele>
        <time>2012-05-17T07:18:23.000Z</time>
      </trkpt>
      <trkpt lat="45.24412" lon="6.17344">
        <ele>1728.1999511719</ele>
        <time>2012-05-17T07:18:26.000Z</time>
      </trkpt>
      <trkpt lat="45.24407" lon="6.1734">
        <ele>1729.8000488281</ele>
        <time>2012-05-17T07:18:33.000Z</time>
      </trkpt>
      <trkpt lat="45.24405" lon="6.17337">
        <ele>1730.5999755859</ele>
        <time>2012-05-17T07:18:38.000Z</time>
      </trkpt>
      <trkpt lat="45.24404" lon="6.17336">
        <ele>1730.8000488281</ele>
        <time>2012-05-17T07:18:39.000Z</time>
      </trkpt>
      <trkpt lat="45.24403" lon="6.17335">
        <ele>1731.4000244141</ele>
        <time>2012-05-17T07:18:41.000Z</time>
      </trkpt>
      <trkpt lat="45.24401" lon="6.17333">
        <ele>1732.4000244141</ele>
        <time>2012-05-17T07:18:47.000Z</time>
      </trkpt>
      <trkpt lat="45.24399" lon="6.1733">
        <ele>1733.4000244141</ele>
        <time>2012-05-17T07:18:53.000Z</time>
      </trkpt>
      <trkpt lat="45.24396" lon="6.17328">
        <ele>1734.4000244141</ele>
        <time>2012-05-17T07:18:58.000Z</time>
      </trkpt>
      <trkpt lat="45.24394" lon="6.17327">
        <ele>1735.4000244141</ele>
        <time>2012-05-17T07:19:03.000Z</time>
      </trkpt>
      <trkpt lat="45.24391" lon="6.17323">
        <ele>1736.4000244141</ele>
        <time>2012-05-17T07:19:08.000Z</time>
      </trkpt>
      <trkpt lat="45.2439" lon="6.17321">
        <ele>1736.8000488281</ele>
        <time>2012-05-17T07:19:10.000Z</time>
      </trkpt>
      <trkpt lat="45.24384" lon="6.17314">
        <ele>1738.5999755859</ele>
        <time>2012-05-17T07:19:19.000Z</time>
      </trkpt>
      <trkpt lat="45.24378" lon="6.17308">
        <ele>1740.1999511719</ele>
        <time>2012-05-17T07:19:26.000Z</time>
      </trkpt>
      <trkpt lat="45.24374" lon="6.17304">
        <ele>1741.8000488281</ele>
        <time>2012-05-17T07:19:33.000Z</time>
      </trkpt>
      <trkpt lat="45.24369" lon="6.17296">
        <ele>1743.5999755859</ele>
        <time>2012-05-17T07:19:40.000Z</time>
      </trkpt>
      <trkpt lat="45.24368" lon="6.17293">
        <ele>1744.5999755859</ele>
        <time>2012-05-17T07:19:46.000Z</time>
      </trkpt>
      <trkpt lat="45.24365" lon="6.17287">
        <ele>1746.1999511719</ele>
        <time>2012-05-17T07:19:54.000Z</time>
      </trkpt>
      <trkpt lat="45.24361" lon="6.17286">
        <ele>1747.4000244141</ele>
        <time>2012-05-17T07:20:02.000Z</time>
      </trkpt>
      <trkpt lat="45.24358" lon="6.17283">
        <ele>1748.1999511719</ele>
        <time>2012-05-17T07:20:08.000Z</time>
      </trkpt>
      <trkpt lat="45.24353" lon="6.17278">
        <ele>1749.5999755859</ele>
        <time>2012-05-17T07:20:16.000Z</time>
      </trkpt>
      <trkpt lat="45.24348" lon="6.17272">
        <ele>1751</ele>
        <time>2012-05-17T07:20:25.000Z</time>
      </trkpt>
      <trkpt lat="45.24341" lon="6.17264">
        <ele>1752.8000488281</ele>
        <time>2012-05-17T07:20:35.000Z</time>
      </trkpt>
      <trkpt lat="45.24335" lon="6.17258">
        <ele>1753.5999755859</ele>
        <time>2012-05-17T07:20:42.000Z</time>
      </trkpt>
      <trkpt lat="45.2433" lon="6.17253">
        <ele>1754.5999755859</ele>
        <time>2012-05-17T07:20:47.000Z</time>
      </trkpt>
      <trkpt lat="45.24322" lon="6.17249">
        <ele>1756</ele>
        <time>2012-05-17T07:20:56.000Z</time>
      </trkpt>
      <trkpt lat="45.24318" lon="6.17246">
        <ele>1756.4000244141</ele>
        <time>2012-05-17T07:21:03.000Z</time>
      </trkpt>
      <trkpt lat="45.24316" lon="6.1724">
        <ele>1756.4000244141</ele>
        <time>2012-05-17T07:21:10.000Z</time>
      </trkpt>
      <trkpt lat="45.24313" lon="6.17234">
        <ele>1757.4000244141</ele>
        <time>2012-05-17T07:21:18.000Z</time>
      </trkpt>
      <trkpt lat="45.24309" lon="6.17227">
        <ele>1757.1999511719</ele>
        <time>2012-05-17T07:21:26.000Z</time>
      </trkpt>
      <trkpt lat="45.24306" lon="6.1722">
        <ele>1757.5999755859</ele>
        <time>2012-05-17T07:21:34.000Z</time>
      </trkpt>
      <trkpt lat="45.24304" lon="6.17214">
        <ele>1758</ele>
        <time>2012-05-17T07:21:40.000Z</time>
      </trkpt>
      <trkpt lat="45.24302" lon="6.17206">
        <ele>1758.5999755859</ele>
        <time>2012-05-17T07:21:47.000Z</time>
      </trkpt>
      <trkpt lat="45.243" lon="6.17196">
        <ele>1759.5999755859</ele>
        <time>2012-05-17T07:21:54.000Z</time>
      </trkpt>
      <trkpt lat="45.243" lon="6.17193">
        <ele>1760.1999511719</ele>
        <time>2012-05-17T07:21:57.000Z</time>
      </trkpt>
      <trkpt lat="45.24298" lon="6.17182">
        <ele>1761</ele>
        <time>2012-05-17T07:22:05.000Z</time>
      </trkpt>
      <trkpt lat="45.24298" lon="6.17181">
        <ele>1761.1999511719</ele>
        <time>2012-05-17T07:22:06.000Z</time>
      </trkpt>
      <trkpt lat="45.24296" lon="6.1718">
        <ele>1761.4000244141</ele>
        <time>2012-05-17T07:22:08.000Z</time>
      </trkpt>
      <trkpt lat="45.24295" lon="6.17178">
        <ele>1761.8000488281</ele>
        <time>2012-05-17T07:22:10.000Z</time>
      </trkpt>
      <trkpt lat="45.24296" lon="6.17168">
        <ele>1762.5999755859</ele>
        <time>2012-05-17T07:22:18.000Z</time>
      </trkpt>
      <trkpt lat="45.24295" lon="6.17158">
        <ele>1763.5999755859</ele>
        <time>2012-05-17T07:22:26.000Z</time>
      </trkpt>
      <trkpt lat="45.24293" lon="6.17148">
        <ele>1764</ele>
        <time>2012-05-17T07:22:34.000Z</time>
      </trkpt>
      <trkpt lat="45.24293" lon="6.17137">
        <ele>1764.5999755859</ele>
        <time>2012-05-17T07:22:42.000Z</time>
      </trkpt>
      <trkpt lat="45.24296" lon="6.17129">
        <ele>1765</ele>
        <time>2012-05-17T07:22:50.000Z</time>
      </trkpt>
      <trkpt lat="45.24297" lon="6.17121">
        <ele>1766.5999755859</ele>
        <time>2012-05-17T07:22:57.000Z</time>
      </trkpt>
      <trkpt lat="45.24299" lon="6.17115">
        <ele>1768.1999511719</ele>
        <time>2012-05-17T07:23:05.000Z</time>
      </trkpt>
      <trkpt lat="45.24301" lon="6.17112">
        <ele>1769</ele>
        <time>2012-05-17T07:23:10.000Z</time>
      </trkpt>
      <trkpt lat="45.24303" lon="6.17108">
        <ele>1770.4000244141</ele>
        <time>2012-05-17T07:23:17.000Z</time>
      </trkpt>
      <trkpt lat="45.24303" lon="6.17108">
        <ele>1770.8000488281</ele>
        <time>2012-05-17T07:23:19.000Z</time>
      </trkpt>
      <trkpt lat="45.24302" lon="6.17104">
        <ele>1771.5999755859</ele>
        <time>2012-05-17T07:23:30.000Z</time>
      </trkpt>
      <trkpt lat="45.24301" lon="6.17103">
        <ele>1771.8000488281</ele>
        <time>2012-05-17T07:23:31.000Z</time>
      </trkpt>
      <trkpt lat="45.24297" lon="6.17095">
        <ele>1773.1999511719</ele>
        <time>2012-05-17T07:23:40.000Z</time>
      </trkpt>
      <trkpt lat="45.24295" lon="6.17088">
        <ele>1774.4000244141</ele>
        <time>2012-05-17T07:23:47.000Z</time>
      </trkpt>
      <trkpt lat="45.24295" lon="6.1708">
        <ele>1775.5999755859</ele>
        <time>2012-05-17T07:23:56.000Z</time>
      </trkpt>
      <trkpt lat="45.24295" lon="6.17072">
        <ele>1776.5999755859</ele>
        <time>2012-05-17T07:24:04.000Z</time>
      </trkpt>
      <trkpt lat="45.24295" lon="6.17065">
        <ele>1777.8000488281</ele>
        <time>2012-05-17T07:24:11.000Z</time>
      </trkpt>
      <trkpt lat="45.24297" lon="6.1706">
        <ele>1778.5999755859</ele>
        <time>2012-05-17T07:24:17.000Z</time>
      </trkpt>
      <trkpt lat="45.24297" lon="6.17055">
        <ele>1779.1999511719</ele>
        <time>2012-05-17T07:24:22.000Z</time>
      </trkpt>
      <trkpt lat="45.243" lon="6.17045">
        <ele>1780.4000244141</ele>
        <time>2012-05-17T07:24:30.000Z</time>
      </trkpt>
      <trkpt lat="45.24303" lon="6.17034">
        <ele>1782</ele>
        <time>2012-05-17T07:24:40.000Z</time>
      </trkpt>
      <trkpt lat="45.24303" lon="6.17034">
        <ele>1782.1999511719</ele>
        <time>2012-05-17T07:24:41.000Z</time>
      </trkpt>
      <trkpt lat="45.24304" lon="6.17031">
        <ele>1782.5999755859</ele>
        <time>2012-05-17T07:24:44.000Z</time>
      </trkpt>
      <trkpt lat="45.24308" lon="6.17021">
        <ele>1784.4000244141</ele>
        <time>2012-05-17T07:24:54.000Z</time>
      </trkpt>
      <trkpt lat="45.24312" lon="6.17018">
        <ele>1785</ele>
        <time>2012-05-17T07:25:01.000Z</time>
      </trkpt>
      <trkpt lat="45.24315" lon="6.17016">
        <ele>1785.1999511719</ele>
        <time>2012-05-17T07:25:06.000Z</time>
      </trkpt>
      <trkpt lat="45.24315" lon="6.17011">
        <ele>1785.5999755859</ele>
        <time>2012-05-17T07:25:12.000Z</time>
      </trkpt>
      <trkpt lat="45.24314" lon="6.17007">
        <ele>1786.1999511719</ele>
        <time>2012-05-17T07:25:16.000Z</time>
      </trkpt>
      <trkpt lat="45.24312" lon="6.17">
        <ele>1787.5999755859</ele>
        <time>2012-05-17T07:25:24.000Z</time>
      </trkpt>
      <trkpt lat="45.24307" lon="6.16995">
        <ele>1788.8000488281</ele>
        <time>2012-05-17T07:25:31.000Z</time>
      </trkpt>
      <trkpt lat="45.24304" lon="6.16992">
        <ele>1789.5999755859</ele>
        <time>2012-05-17T07:25:36.000Z</time>
      </trkpt>
      <trkpt lat="45.24303" lon="6.16992">
        <ele>1789.8000488281</ele>
        <time>2012-05-17T07:25:38.000Z</time>
      </trkpt>
      <trkpt lat="45.24294" lon="6.16987">
        <ele>1791.5999755859</ele>
        <time>2012-05-17T07:25:48.000Z</time>
      </trkpt>
      <trkpt lat="45.24289" lon="6.16983">
        <ele>1792.8000488281</ele>
        <time>2012-05-17T07:25:55.000Z</time>
      </trkpt>
      <trkpt lat="45.24285" lon="6.16979">
        <ele>1793.5999755859</ele>
        <time>2012-05-17T07:26:02.000Z</time>
      </trkpt>
      <trkpt lat="45.24282" lon="6.16976">
        <ele>1794.4000244141</ele>
        <time>2012-05-17T07:26:06.000Z</time>
      </trkpt>
      <trkpt lat="45.24279" lon="6.16971">
        <ele>1794.8000488281</ele>
        <time>2012-05-17T07:26:15.000Z</time>
      </trkpt>
      <trkpt lat="45.24275" lon="6.16966">
        <ele>1795.5999755859</ele>
        <time>2012-05-17T07:26:23.000Z</time>
      </trkpt>
      <trkpt lat="45.24271" lon="6.16961">
        <ele>1797</ele>
        <time>2012-05-17T07:26:31.000Z</time>
      </trkpt>
      <trkpt lat="45.24269" lon="6.16957">
        <ele>1797.8000488281</ele>
        <time>2012-05-17T07:26:37.000Z</time>
      </trkpt>
      <trkpt lat="45.24267" lon="6.16955">
        <ele>1798.8000488281</ele>
        <time>2012-05-17T07:26:42.000Z</time>
      </trkpt>
      <trkpt lat="45.24267" lon="6.16955">
        <ele>1799.4000244141</ele>
        <time>2012-05-17T07:26:44.000Z</time>
      </trkpt>
      <trkpt lat="45.24267" lon="6.16954">
        <ele>1799.5999755859</ele>
        <time>2012-05-17T07:27:04.000Z</time>
      </trkpt>
      <trkpt lat="45.24263" lon="6.16949">
        <ele>1800.8000488281</ele>
        <time>2012-05-17T07:28:01.000Z</time>
      </trkpt>
      <trkpt lat="45.24258" lon="6.16943">
        <ele>1802.4000244141</ele>
        <time>2012-05-17T07:28:09.000Z</time>
      </trkpt>
      <trkpt lat="45.24253" lon="6.16938">
        <ele>1804.1999511719</ele>
        <time>2012-05-17T07:28:17.000Z</time>
      </trkpt>
      <trkpt lat="45.24248" lon="6.16933">
        <ele>1805.5999755859</ele>
        <time>2012-05-17T07:28:24.000Z</time>
      </trkpt>
      <trkpt lat="45.24245" lon="6.16927">
        <ele>1807.8000488281</ele>
        <time>2012-05-17T07:28:33.000Z</time>
      </trkpt>
      <trkpt lat="45.24243" lon="6.16921">
        <ele>1809.1999511719</ele>
        <time>2012-05-17T07:28:40.000Z</time>
      </trkpt>
      <trkpt lat="45.24242" lon="6.16916">
        <ele>1810.8000488281</ele>
        <time>2012-05-17T07:28:47.000Z</time>
      </trkpt>
      <trkpt lat="45.2424" lon="6.16911">
        <ele>1812.8000488281</ele>
        <time>2012-05-17T07:28:55.000Z</time>
      </trkpt>
      <trkpt lat="45.24237" lon="6.16904">
        <ele>1814.8000488281</ele>
        <time>2012-05-17T07:29:04.000Z</time>
      </trkpt>
      <trkpt lat="45.24235" lon="6.169">
        <ele>1816.1999511719</ele>
        <time>2012-05-17T07:29:11.000Z</time>
      </trkpt>
      <trkpt lat="45.24233" lon="6.16894">
        <ele>1818</ele>
        <time>2012-05-17T07:29:19.000Z</time>
      </trkpt>
      <trkpt lat="45.24231" lon="6.16889">
        <ele>1819.4000244141</ele>
        <time>2012-05-17T07:29:26.000Z</time>
      </trkpt>
      <trkpt lat="45.24229" lon="6.16883">
        <ele>1821.5999755859</ele>
        <time>2012-05-17T07:29:35.000Z</time>
      </trkpt>
      <trkpt lat="45.24227" lon="6.16878">
        <ele>1823</ele>
        <time>2012-05-17T07:29:42.000Z</time>
      </trkpt>
      <trkpt lat="45.24223" lon="6.16874">
        <ele>1824.8000488281</ele>
        <time>2012-05-17T07:29:50.000Z</time>
      </trkpt>
      <trkpt lat="45.24219" lon="6.16869">
        <ele>1826.1999511719</ele>
        <time>2012-05-17T07:29:58.000Z</time>
      </trkpt>
      <trkpt lat="45.24215" lon="6.16865">
        <ele>1828</ele>
        <time>2012-05-17T07:30:06.000Z</time>
      </trkpt>
      <trkpt lat="45.24212" lon="6.16858">
        <ele>1829.5999755859</ele>
        <time>2012-05-17T07:30:14.000Z</time>
      </trkpt>
      <trkpt lat="45.24211" lon="6.16852">
        <ele>1831</ele>
        <time>2012-05-17T07:30:21.000Z</time>
      </trkpt>
      <trkpt lat="45.24209" lon="6.16846">
        <ele>1832.8000488281</ele>
        <time>2012-05-17T07:30:29.000Z</time>
      </trkpt>
      <trkpt lat="45.24208" lon="6.16839">
        <ele>1834.4000244141</ele>
        <time>2012-05-17T07:30:37.000Z</time>
      </trkpt>
      <trkpt lat="45.24204" lon="6.16833">
        <ele>1836.5999755859</ele>
        <time>2012-05-17T07:30:46.000Z</time>
      </trkpt>
      <trkpt lat="45.24204" lon="6.16824">
        <ele>1838.8000488281</ele>
        <time>2012-05-17T07:30:55.000Z</time>
      </trkpt>
      <trkpt lat="45.24205" lon="6.16823">
        <ele>1839</ele>
        <time>2012-05-17T07:30:56.000Z</time>
      </trkpt>
      <trkpt lat="45.24208" lon="6.16814">
        <ele>1840.5999755859</ele>
        <time>2012-05-17T07:31:05.000Z</time>
      </trkpt>
      <trkpt lat="45.24205" lon="6.16813">
        <ele>1841.5999755859</ele>
        <time>2012-05-17T07:31:10.000Z</time>
      </trkpt>
      <trkpt lat="45.242" lon="6.16811">
        <ele>1842.8000488281</ele>
        <time>2012-05-17T07:31:17.000Z</time>
      </trkpt>
      <trkpt lat="45.24197" lon="6.1681">
        <ele>1844</ele>
        <time>2012-05-17T07:31:23.000Z</time>
      </trkpt>
      <trkpt lat="45.24194" lon="6.16811">
        <ele>1845</ele>
        <time>2012-05-17T07:31:28.000Z</time>
      </trkpt>
      <trkpt lat="45.24195" lon="6.16808">
        <ele>1846</ele>
        <time>2012-05-17T07:31:35.000Z</time>
      </trkpt>
      <trkpt lat="45.24195" lon="6.16801">
        <ele>1846.8000488281</ele>
        <time>2012-05-17T07:31:42.000Z</time>
      </trkpt>
      <trkpt lat="45.24196" lon="6.168">
        <ele>1847.4000244141</ele>
        <time>2012-05-17T07:31:44.000Z</time>
      </trkpt>
      <trkpt lat="45.242" lon="6.16794">
        <ele>1848.8000488281</ele>
        <time>2012-05-17T07:31:52.000Z</time>
      </trkpt>
      <trkpt lat="45.242" lon="6.16788">
        <ele>1849.8000488281</ele>
        <time>2012-05-17T07:31:58.000Z</time>
      </trkpt>
      <trkpt lat="45.24203" lon="6.16784">
        <ele>1851.1999511719</ele>
        <time>2012-05-17T07:32:05.000Z</time>
      </trkpt>
      <trkpt lat="45.24203" lon="6.16782">
        <ele>1852.4000244141</ele>
        <time>2012-05-17T07:32:10.000Z</time>
      </trkpt>
      <trkpt lat="45.24198" lon="6.16784">
        <ele>1853.8000488281</ele>
        <time>2012-05-17T07:32:19.000Z</time>
      </trkpt>
      <trkpt lat="45.24196" lon="6.16784">
        <ele>1854.8000488281</ele>
        <time>2012-05-17T07:32:24.000Z</time>
      </trkpt>
      <trkpt lat="45.24195" lon="6.16783">
        <ele>1856</ele>
        <time>2012-05-17T07:32:29.000Z</time>
      </trkpt>
      <trkpt lat="45.24196" lon="6.16778">
        <ele>1856.8000488281</ele>
        <time>2012-05-17T07:32:35.000Z</time>
      </trkpt>
      <trkpt lat="45.24196" lon="6.16768">
        <ele>1858.8000488281</ele>
        <time>2012-05-17T07:32:44.000Z</time>
      </trkpt>
      <trkpt lat="45.24198" lon="6.16762">
        <ele>1860.4000244141</ele>
        <time>2012-05-17T07:32:54.000Z</time>
      </trkpt>
      <trkpt lat="45.24198" lon="6.16761">
        <ele>1860.8000488281</ele>
        <time>2012-05-17T07:32:56.000Z</time>
      </trkpt>
      <trkpt lat="45.24193" lon="6.16757">
        <ele>1862.5999755859</ele>
        <time>2012-05-17T07:33:04.000Z</time>
      </trkpt>
      <trkpt lat="45.24187" lon="6.16761">
        <ele>1864.4000244141</ele>
        <time>2012-05-17T07:33:13.000Z</time>
      </trkpt>
      <trkpt lat="45.24185" lon="6.16762">
        <ele>1865.1999511719</ele>
        <time>2012-05-17T07:33:18.000Z</time>
      </trkpt>
      <trkpt lat="45.24184" lon="6.16762">
        <ele>1865.8000488281</ele>
        <time>2012-05-17T07:33:21.000Z</time>
      </trkpt>
      <trkpt lat="45.24185" lon="6.16758">
        <ele>1866.5999755859</ele>
        <time>2012-05-17T07:33:29.000Z</time>
      </trkpt>
      <trkpt lat="45.24186" lon="6.16754">
        <ele>1867.5999755859</ele>
        <time>2012-05-17T07:33:35.000Z</time>
      </trkpt>
      <trkpt lat="45.24187" lon="6.1675">
        <ele>1868</ele>
        <time>2012-05-17T07:33:40.000Z</time>
      </trkpt>
      <trkpt lat="45.24188" lon="6.16744">
        <ele>1869.1999511719</ele>
        <time>2012-05-17T07:33:47.000Z</time>
      </trkpt>
      <trkpt lat="45.24189" lon="6.16739">
        <ele>1870.5999755859</ele>
        <time>2012-05-17T07:33:54.000Z</time>
      </trkpt>
      <trkpt lat="45.24189" lon="6.16736">
        <ele>1872</ele>
        <time>2012-05-17T07:34:01.000Z</time>
      </trkpt>
      <trkpt lat="45.24186" lon="6.16734">
        <ele>1873.4000244141</ele>
        <time>2012-05-17T07:34:08.000Z</time>
      </trkpt>
      <trkpt lat="45.24184" lon="6.16733">
        <ele>1874.4000244141</ele>
        <time>2012-05-17T07:34:13.000Z</time>
      </trkpt>
      <trkpt lat="45.2418" lon="6.16731">
        <ele>1875.8000488281</ele>
        <time>2012-05-17T07:34:19.000Z</time>
      </trkpt>
      <trkpt lat="45.24179" lon="6.16727">
        <ele>1877.1999511719</ele>
        <time>2012-05-17T07:34:25.000Z</time>
      </trkpt>
      <trkpt lat="45.24181" lon="6.1672">
        <ele>1878.5999755859</ele>
        <time>2012-05-17T07:34:33.000Z</time>
      </trkpt>
      <trkpt lat="45.24182" lon="6.16713">
        <ele>1880.1999511719</ele>
        <time>2012-05-17T07:34:41.000Z</time>
      </trkpt>
      <trkpt lat="45.2418" lon="6.16709">
        <ele>1881.4000244141</ele>
        <time>2012-05-17T07:34:47.000Z</time>
      </trkpt>
      <trkpt lat="45.24174" lon="6.16711">
        <ele>1883.1999511719</ele>
        <time>2012-05-17T07:34:55.000Z</time>
      </trkpt>
      <trkpt lat="45.24168" lon="6.16714">
        <ele>1884.4000244141</ele>
        <time>2012-05-17T07:35:03.000Z</time>
      </trkpt>
      <trkpt lat="45.24165" lon="6.16713">
        <ele>1885.8000488281</ele>
        <time>2012-05-17T07:35:09.000Z</time>
      </trkpt>
      <trkpt lat="45.24165" lon="6.16713">
        <ele>1886.1999511719</ele>
        <time>2012-05-17T07:35:10.000Z</time>
      </trkpt>
      <trkpt lat="45.24164" lon="6.16704">
        <ele>1887.4000244141</ele>
        <time>2012-05-17T07:35:18.000Z</time>
      </trkpt>
      <trkpt lat="45.24165" lon="6.16694">
        <ele>1889.5999755859</ele>
        <time>2012-05-17T07:35:28.000Z</time>
      </trkpt>
      <trkpt lat="45.24167" lon="6.16687">
        <ele>1891.1999511719</ele>
        <time>2012-05-17T07:35:37.000Z</time>
      </trkpt>
      <trkpt lat="45.24166" lon="6.16685">
        <ele>1892.8000488281</ele>
        <time>2012-05-17T07:35:44.000Z</time>
      </trkpt>
      <trkpt lat="45.24166" lon="6.16685">
        <ele>1893.1999511719</ele>
        <time>2012-05-17T07:35:45.000Z</time>
      </trkpt>
      <trkpt lat="45.24166" lon="6.16682">
        <ele>1894.4000244141</ele>
        <time>2012-05-17T07:36:04.000Z</time>
      </trkpt>
      <trkpt lat="45.24167" lon="6.16677">
        <ele>1895.5999755859</ele>
        <time>2012-05-17T07:36:10.000Z</time>
      </trkpt>
      <trkpt lat="45.24168" lon="6.1667">
        <ele>1897.4000244141</ele>
        <time>2012-05-17T07:36:18.000Z</time>
      </trkpt>
      <trkpt lat="45.24165" lon="6.16665">
        <ele>1899.1999511719</ele>
        <time>2012-05-17T07:36:25.000Z</time>
      </trkpt>
      <trkpt lat="45.24159" lon="6.1666">
        <ele>1901.4000244141</ele>
        <time>2012-05-17T07:36:34.000Z</time>
      </trkpt>
      <trkpt lat="45.2416" lon="6.16654">
        <ele>1903.1999511719</ele>
        <time>2012-05-17T07:36:42.000Z</time>
      </trkpt>
      <trkpt lat="45.24162" lon="6.16648">
        <ele>1904.4000244141</ele>
        <time>2012-05-17T07:36:49.000Z</time>
      </trkpt>
      <trkpt lat="45.24162" lon="6.16647">
        <ele>1904.5999755859</ele>
        <time>2012-05-17T07:36:50.000Z</time>
      </trkpt>
      <trkpt lat="45.24166" lon="6.16641">
        <ele>1907</ele>
        <time>2012-05-17T07:36:59.000Z</time>
      </trkpt>
      <trkpt lat="45.24163" lon="6.16636">
        <ele>1908.4000244141</ele>
        <time>2012-05-17T07:37:07.000Z</time>
      </trkpt>
      <trkpt lat="45.24157" lon="6.1663">
        <ele>1910.5999755859</ele>
        <time>2012-05-17T07:37:18.000Z</time>
      </trkpt>
      <trkpt lat="45.24156" lon="6.16629">
        <ele>1911</ele>
        <time>2012-05-17T07:37:20.000Z</time>
      </trkpt>
      <trkpt lat="45.24154" lon="6.16624">
        <ele>1912.8000488281</ele>
        <time>2012-05-17T07:37:27.000Z</time>
      </trkpt>
      <trkpt lat="45.24155" lon="6.16617">
        <ele>1914.4000244141</ele>
        <time>2012-05-17T07:37:36.000Z</time>
      </trkpt>
      <trkpt lat="45.24158" lon="6.16612">
        <ele>1916</ele>
        <time>2012-05-17T07:37:45.000Z</time>
      </trkpt>
      <trkpt lat="45.24163" lon="6.16606">
        <ele>1917.8000488281</ele>
        <time>2012-05-17T07:37:54.000Z</time>
      </trkpt>
      <trkpt lat="45.24165" lon="6.16601">
        <ele>1919.1999511719</ele>
        <time>2012-05-17T07:38:01.000Z</time>
      </trkpt>
      <trkpt lat="45.24161" lon="6.16595">
        <ele>1921.4000244141</ele>
        <time>2012-05-17T07:38:11.000Z</time>
      </trkpt>
      <trkpt lat="45.24159" lon="6.16592">
        <ele>1923</ele>
        <time>2012-05-17T07:38:18.000Z</time>
      </trkpt>
      <trkpt lat="45.24154" lon="6.16588">
        <ele>1924.8000488281</ele>
        <time>2012-05-17T07:38:26.000Z</time>
      </trkpt>
      <trkpt lat="45.2415" lon="6.16585">
        <ele>1926.5999755859</ele>
        <time>2012-05-17T07:38:34.000Z</time>
      </trkpt>
      <trkpt lat="45.24145" lon="6.16583">
        <ele>1928</ele>
        <time>2012-05-17T07:38:42.000Z</time>
      </trkpt>
      <trkpt lat="45.24142" lon="6.1658">
        <ele>1929.5999755859</ele>
        <time>2012-05-17T07:38:49.000Z</time>
      </trkpt>
      <trkpt lat="45.2414" lon="6.16574">
        <ele>1931.1999511719</ele>
        <time>2012-05-17T07:38:56.000Z</time>
      </trkpt>
      <trkpt lat="45.24141" lon="6.16564">
        <ele>1933.4000244141</ele>
        <time>2012-05-17T07:39:06.000Z</time>
      </trkpt>
      <trkpt lat="45.2414" lon="6.1656">
        <ele>1935</ele>
        <time>2012-05-17T07:39:12.000Z</time>
      </trkpt>
      <trkpt lat="45.24135" lon="6.16555">
        <ele>1937.1999511719</ele>
        <time>2012-05-17T07:39:20.000Z</time>
      </trkpt>
      <trkpt lat="45.24133" lon="6.16552">
        <ele>1939</ele>
        <time>2012-05-17T07:39:27.000Z</time>
      </trkpt>
      <trkpt lat="45.24135" lon="6.16543">
        <ele>1940.5999755859</ele>
        <time>2012-05-17T07:39:36.000Z</time>
      </trkpt>
      <trkpt lat="45.24135" lon="6.16535">
        <ele>1942</ele>
        <time>2012-05-17T07:39:43.000Z</time>
      </trkpt>
      <trkpt lat="45.24136" lon="6.16528">
        <ele>1943.5999755859</ele>
        <time>2012-05-17T07:39:50.000Z</time>
      </trkpt>
      <trkpt lat="45.24137" lon="6.16522">
        <ele>1945</ele>
        <time>2012-05-17T07:39:57.000Z</time>
      </trkpt>
      <trkpt lat="45.24139" lon="6.16514">
        <ele>1947.1999511719</ele>
        <time>2012-05-17T07:40:06.000Z</time>
      </trkpt>
      <trkpt lat="45.24139" lon="6.16507">
        <ele>1949</ele>
        <time>2012-05-17T07:40:14.000Z</time>
      </trkpt>
      <trkpt lat="45.24141" lon="6.16501">
        <ele>1950.5999755859</ele>
        <time>2012-05-17T07:40:20.000Z</time>
      </trkpt>
      <trkpt lat="45.24143" lon="6.16495">
        <ele>1952.4000244141</ele>
        <time>2012-05-17T07:40:28.000Z</time>
      </trkpt>
      <trkpt lat="45.2414" lon="6.1649">
        <ele>1954.1999511719</ele>
        <time>2012-05-17T07:40:36.000Z</time>
      </trkpt>
      <trkpt lat="45.24135" lon="6.16485">
        <ele>1956.4000244141</ele>
        <time>2012-05-17T07:40:45.000Z</time>
      </trkpt>
      <trkpt lat="45.24131" lon="6.16481">
        <ele>1957.8000488281</ele>
        <time>2012-05-17T07:40:52.000Z</time>
      </trkpt>
      <trkpt lat="45.2413" lon="6.16477">
        <ele>1959.8000488281</ele>
        <time>2012-05-17T07:40:59.000Z</time>
      </trkpt>
      <trkpt lat="45.24131" lon="6.16471">
        <ele>1961.1999511719</ele>
        <time>2012-05-17T07:41:07.000Z</time>
      </trkpt>
      <trkpt lat="45.24133" lon="6.16465">
        <ele>1963</ele>
        <time>2012-05-17T07:41:14.000Z</time>
      </trkpt>
      <trkpt lat="45.24136" lon="6.1646">
        <ele>1964.1999511719</ele>
        <time>2012-05-17T07:41:21.000Z</time>
      </trkpt>
      <trkpt lat="45.24139" lon="6.16454">
        <ele>1966</ele>
        <time>2012-05-17T07:41:29.000Z</time>
      </trkpt>
      <trkpt lat="45.2414" lon="6.1645">
        <ele>1967.4000244141</ele>
        <time>2012-05-17T07:41:35.000Z</time>
      </trkpt>
      <trkpt lat="45.24136" lon="6.16445">
        <ele>1969</ele>
        <time>2012-05-17T07:41:43.000Z</time>
      </trkpt>
      <trkpt lat="45.24133" lon="6.16441">
        <ele>1970.5999755859</ele>
        <time>2012-05-17T07:41:50.000Z</time>
      </trkpt>
      <trkpt lat="45.24128" lon="6.16439">
        <ele>1972</ele>
        <time>2012-05-17T07:41:58.000Z</time>
      </trkpt>
      <trkpt lat="45.24126" lon="6.16437">
        <ele>1973.4000244141</ele>
        <time>2012-05-17T07:42:05.000Z</time>
      </trkpt>
      <trkpt lat="45.2413" lon="6.16431">
        <ele>1974.8000488281</ele>
        <time>2012-05-17T07:42:15.000Z</time>
      </trkpt>
      <trkpt lat="45.24133" lon="6.16424">
        <ele>1976.8000488281</ele>
        <time>2012-05-17T07:42:24.000Z</time>
      </trkpt>
      <trkpt lat="45.24137" lon="6.16423">
        <ele>1978.1999511719</ele>
        <time>2012-05-17T07:42:31.000Z</time>
      </trkpt>
      <trkpt lat="45.24141" lon="6.16424">
        <ele>1979.4000244141</ele>
        <time>2012-05-17T07:42:37.000Z</time>
      </trkpt>
      <trkpt lat="45.24139" lon="6.16421">
        <ele>1980.4000244141</ele>
        <time>2012-05-17T07:42:48.000Z</time>
      </trkpt>
      <trkpt lat="45.24139" lon="6.1642">
        <ele>1980.5999755859</ele>
        <time>2012-05-17T07:42:49.000Z</time>
      </trkpt>
      <trkpt lat="45.24137" lon="6.16418">
        <ele>1981.4000244141</ele>
        <time>2012-05-17T07:42:54.000Z</time>
      </trkpt>
      <trkpt lat="45.24131" lon="6.16413">
        <ele>1983</ele>
        <time>2012-05-17T07:43:03.000Z</time>
      </trkpt>
      <trkpt lat="45.24126" lon="6.1641">
        <ele>1984.5999755859</ele>
        <time>2012-05-17T07:43:11.000Z</time>
      </trkpt>
      <trkpt lat="45.24122" lon="6.16408">
        <ele>1986</ele>
        <time>2012-05-17T07:43:17.000Z</time>
      </trkpt>
      <trkpt lat="45.24117" lon="6.16406">
        <ele>1987.5999755859</ele>
        <time>2012-05-17T07:43:25.000Z</time>
      </trkpt>
      <trkpt lat="45.24112" lon="6.16403">
        <ele>1990</ele>
        <time>2012-05-17T07:43:34.000Z</time>
      </trkpt>
      <trkpt lat="45.24107" lon="6.16399">
        <ele>1991.1999511719</ele>
        <time>2012-05-17T07:43:41.000Z</time>
      </trkpt>
      <trkpt lat="45.24107" lon="6.16393">
        <ele>1993.1999511719</ele>
        <time>2012-05-17T07:43:49.000Z</time>
      </trkpt>
      <trkpt lat="45.24108" lon="6.16387">
        <ele>1994.5999755859</ele>
        <time>2012-05-17T07:43:57.000Z</time>
      </trkpt>
      <trkpt lat="45.24109" lon="6.16379">
        <ele>1996.4000244141</ele>
        <time>2012-05-17T07:44:05.000Z</time>
      </trkpt>
      <trkpt lat="45.24109" lon="6.1637">
        <ele>1998</ele>
        <time>2012-05-17T07:44:14.000Z</time>
      </trkpt>
      <trkpt lat="45.2411" lon="6.16366">
        <ele>1999.1999511719</ele>
        <time>2012-05-17T07:44:22.000Z</time>
      </trkpt>
      <trkpt lat="45.24113" lon="6.16363">
        <ele>2000.5999755859</ele>
        <time>2012-05-17T07:44:30.000Z</time>
      </trkpt>
      <trkpt lat="45.24113" lon="6.16363">
        <ele>2001</ele>
        <time>2012-05-17T07:44:32.000Z</time>
      </trkpt>
      <trkpt lat="45.24109" lon="6.16362">
        <ele>2001.5999755859</ele>
        <time>2012-05-17T07:45:23.000Z</time>
      </trkpt>
      <trkpt lat="45.24108" lon="6.16361">
        <ele>2002.4000244141</ele>
        <time>2012-05-17T07:45:27.000Z</time>
      </trkpt>
      <trkpt lat="45.24107" lon="6.16358">
        <ele>2002.8000488281</ele>
        <time>2012-05-17T07:45:33.000Z</time>
      </trkpt>
      <trkpt lat="45.24106" lon="6.16352">
        <ele>2004</ele>
        <time>2012-05-17T07:45:40.000Z</time>
      </trkpt>
      <trkpt lat="45.24104" lon="6.16348">
        <ele>2005</ele>
        <time>2012-05-17T07:45:46.000Z</time>
      </trkpt>
      <trkpt lat="45.24103" lon="6.16342">
        <ele>2006.1999511719</ele>
        <time>2012-05-17T07:45:54.000Z</time>
      </trkpt>
      <trkpt lat="45.24101" lon="6.16336">
        <ele>2007.4000244141</ele>
        <time>2012-05-17T07:46:01.000Z</time>
      </trkpt>
      <trkpt lat="45.24101" lon="6.16331">
        <ele>2008.8000488281</ele>
        <time>2012-05-17T07:46:08.000Z</time>
      </trkpt>
      <trkpt lat="45.241" lon="6.16327">
        <ele>2010</ele>
        <time>2012-05-17T07:46:14.000Z</time>
      </trkpt>
      <trkpt lat="45.24099" lon="6.16321">
        <ele>2011.1999511719</ele>
        <time>2012-05-17T07:46:21.000Z</time>
      </trkpt>
      <trkpt lat="45.24098" lon="6.16314">
        <ele>2013</ele>
        <time>2012-05-17T07:46:31.000Z</time>
      </trkpt>
      <trkpt lat="45.24098" lon="6.16307">
        <ele>2014.4000244141</ele>
        <time>2012-05-17T07:46:39.000Z</time>
      </trkpt>
      <trkpt lat="45.24097" lon="6.163">
        <ele>2016.1999511719</ele>
        <time>2012-05-17T07:46:48.000Z</time>
      </trkpt>
      <trkpt lat="45.24096" lon="6.16293">
        <ele>2017.8000488281</ele>
        <time>2012-05-17T07:46:57.000Z</time>
      </trkpt>
      <trkpt lat="45.24096" lon="6.16287">
        <ele>2019.1999511719</ele>
        <time>2012-05-17T07:47:05.000Z</time>
      </trkpt>
      <trkpt lat="45.24097" lon="6.16283">
        <ele>2020.5999755859</ele>
        <time>2012-05-17T07:47:11.000Z</time>
      </trkpt>
      <trkpt lat="45.24097" lon="6.16274">
        <ele>2022.5999755859</ele>
        <time>2012-05-17T07:47:21.000Z</time>
      </trkpt>
      <trkpt lat="45.24096" lon="6.16269">
        <ele>2024.1999511719</ele>
        <time>2012-05-17T07:47:29.000Z</time>
      </trkpt>
      <trkpt lat="45.24095" lon="6.16264">
        <ele>2025.5999755859</ele>
        <time>2012-05-17T07:47:36.000Z</time>
      </trkpt>
      <trkpt lat="45.24094" lon="6.16259">
        <ele>2027</ele>
        <time>2012-05-17T07:47:43.000Z</time>
      </trkpt>
      <trkpt lat="45.24092" lon="6.16253">
        <ele>2028.1999511719</ele>
        <time>2012-05-17T07:47:51.000Z</time>
      </trkpt>
      <trkpt lat="45.24091" lon="6.16246">
        <ele>2029.8000488281</ele>
        <time>2012-05-17T07:47:59.000Z</time>
      </trkpt>
      <trkpt lat="45.24091" lon="6.16243">
        <ele>2030.8000488281</ele>
        <time>2012-05-17T07:48:04.000Z</time>
      </trkpt>
      <trkpt lat="45.2409" lon="6.16238">
        <ele>2031.5999755859</ele>
        <time>2012-05-17T07:48:10.000Z</time>
      </trkpt>
      <trkpt lat="45.2409" lon="6.1623">
        <ele>2033</ele>
        <time>2012-05-17T07:48:19.000Z</time>
      </trkpt>
      <trkpt lat="45.2409" lon="6.16224">
        <ele>2034.1999511719</ele>
        <time>2012-05-17T07:48:26.000Z</time>
      </trkpt>
      <trkpt lat="45.2409" lon="6.16217">
        <ele>2035.5999755859</ele>
        <time>2012-05-17T07:48:34.000Z</time>
      </trkpt>
      <trkpt lat="45.24091" lon="6.1621">
        <ele>2036.8000488281</ele>
        <time>2012-05-17T07:48:42.000Z</time>
      </trkpt>
      <trkpt lat="45.24093" lon="6.16204">
        <ele>2038</ele>
        <time>2012-05-17T07:48:50.000Z</time>
      </trkpt>
      <trkpt lat="45.24094" lon="6.162">
        <ele>2039.1999511719</ele>
        <time>2012-05-17T07:48:57.000Z</time>
      </trkpt>
      <trkpt lat="45.24095" lon="6.16196">
        <ele>2040.8000488281</ele>
        <time>2012-05-17T07:49:03.000Z</time>
      </trkpt>
      <trkpt lat="45.24092" lon="6.16192">
        <ele>2042.4000244141</ele>
        <time>2012-05-17T07:49:11.000Z</time>
      </trkpt>
      <trkpt lat="45.24087" lon="6.16189">
        <ele>2044.1999511719</ele>
        <time>2012-05-17T07:49:20.000Z</time>
      </trkpt>
      <trkpt lat="45.24081" lon="6.16186">
        <ele>2045.5999755859</ele>
        <time>2012-05-17T07:49:29.000Z</time>
      </trkpt>
      <trkpt lat="45.24077" lon="6.16181">
        <ele>2047.1999511719</ele>
        <time>2012-05-17T07:49:38.000Z</time>
      </trkpt>
      <trkpt lat="45.24077" lon="6.1618">
        <ele>2047.5999755859</ele>
        <time>2012-05-17T07:49:41.000Z</time>
      </trkpt>
      <trkpt lat="45.24077" lon="6.16178">
        <ele>2048.3999023438</ele>
        <time>2012-05-17T07:51:44.000Z</time>
      </trkpt>
      <trkpt lat="45.24078" lon="6.16174">
        <ele>2049.6000976562</ele>
        <time>2012-05-17T07:51:51.000Z</time>
      </trkpt>
      <trkpt lat="45.24082" lon="6.16171">
        <ele>2051</ele>
        <time>2012-05-17T07:51:58.000Z</time>
      </trkpt>
      <trkpt lat="45.24087" lon="6.16168">
        <ele>2052.8000488281</ele>
        <time>2012-05-17T07:52:07.000Z</time>
      </trkpt>
      <trkpt lat="45.24091" lon="6.16165">
        <ele>2054.1999511719</ele>
        <time>2012-05-17T07:52:15.000Z</time>
      </trkpt>
      <trkpt lat="45.24095" lon="6.16161">
        <ele>2056</ele>
        <time>2012-05-17T07:52:23.000Z</time>
      </trkpt>
      <trkpt lat="45.241" lon="6.16157">
        <ele>2057.6000976562</ele>
        <time>2012-05-17T07:52:33.000Z</time>
      </trkpt>
      <trkpt lat="45.24102" lon="6.16157">
        <ele>2058.1999511719</ele>
        <time>2012-05-17T07:52:36.000Z</time>
      </trkpt>
      <trkpt lat="45.24107" lon="6.16154">
        <ele>2059.6000976562</ele>
        <time>2012-05-17T07:52:45.000Z</time>
      </trkpt>
      <trkpt lat="45.24111" lon="6.16152">
        <ele>2061.1999511719</ele>
        <time>2012-05-17T07:52:53.000Z</time>
      </trkpt>
      <trkpt lat="45.24111" lon="6.16152">
        <ele>2061.3999023438</ele>
        <time>2012-05-17T07:52:54.000Z</time>
      </trkpt>
      <trkpt lat="45.24116" lon="6.16151">
        <ele>2062.8000488281</ele>
        <time>2012-05-17T07:53:04.000Z</time>
      </trkpt>
      <trkpt lat="45.2412" lon="6.1615">
        <ele>2064.1999511719</ele>
        <time>2012-05-17T07:53:12.000Z</time>
      </trkpt>
      <trkpt lat="45.24125" lon="6.16148">
        <ele>2065.3999023438</ele>
        <time>2012-05-17T07:53:19.000Z</time>
      </trkpt>
      <trkpt lat="45.24129" lon="6.16146">
        <ele>2066.6000976562</ele>
        <time>2012-05-17T07:53:27.000Z</time>
      </trkpt>
      <trkpt lat="45.24134" lon="6.16144">
        <ele>2067.8000488281</ele>
        <time>2012-05-17T07:53:34.000Z</time>
      </trkpt>
      <trkpt lat="45.24139" lon="6.16142">
        <ele>2069</ele>
        <time>2012-05-17T07:53:42.000Z</time>
      </trkpt>
      <trkpt lat="45.24146" lon="6.1614">
        <ele>2070.3999023438</ele>
        <time>2012-05-17T07:53:53.000Z</time>
      </trkpt>
      <trkpt lat="45.24152" lon="6.16138">
        <ele>2071.6000976562</ele>
        <time>2012-05-17T07:54:01.000Z</time>
      </trkpt>
      <trkpt lat="45.24156" lon="6.16137">
        <ele>2072.8000488281</ele>
        <time>2012-05-17T07:54:09.000Z</time>
      </trkpt>
      <trkpt lat="45.24161" lon="6.16136">
        <ele>2074</ele>
        <time>2012-05-17T07:54:17.000Z</time>
      </trkpt>
      <trkpt lat="45.24165" lon="6.16135">
        <ele>2075.1999511719</ele>
        <time>2012-05-17T07:54:25.000Z</time>
      </trkpt>
      <trkpt lat="45.2417" lon="6.16135">
        <ele>2076.6000976562</ele>
        <time>2012-05-17T07:54:33.000Z</time>
      </trkpt>
      <trkpt lat="45.24175" lon="6.16133">
        <ele>2077.8000488281</ele>
        <time>2012-05-17T07:54:42.000Z</time>
      </trkpt>
      <trkpt lat="45.24179" lon="6.1613">
        <ele>2079.1999511719</ele>
        <time>2012-05-17T07:54:50.000Z</time>
      </trkpt>
      <trkpt lat="45.24182" lon="6.16127">
        <ele>2080.1999511719</ele>
        <time>2012-05-17T07:54:56.000Z</time>
      </trkpt>
      <trkpt lat="45.24186" lon="6.16122">
        <ele>2081.6000976562</ele>
        <time>2012-05-17T07:55:06.000Z</time>
      </trkpt>
      <trkpt lat="45.24189" lon="6.16117">
        <ele>2083</ele>
        <time>2012-05-17T07:55:14.000Z</time>
      </trkpt>
      <trkpt lat="45.24192" lon="6.16111">
        <ele>2084.6000976562</ele>
        <time>2012-05-17T07:55:23.000Z</time>
      </trkpt>
      <trkpt lat="45.24194" lon="6.16103">
        <ele>2086</ele>
        <time>2012-05-17T07:55:31.000Z</time>
      </trkpt>
      <trkpt lat="45.24196" lon="6.16093">
        <ele>2088</ele>
        <time>2012-05-17T07:55:40.000Z</time>
      </trkpt>
      <trkpt lat="45.24196" lon="6.16087">
        <ele>2089.1999511719</ele>
        <time>2012-05-17T07:55:47.000Z</time>
      </trkpt>
      <trkpt lat="45.24197" lon="6.16083">
        <ele>2090.1999511719</ele>
        <time>2012-05-17T07:55:53.000Z</time>
      </trkpt>
      <trkpt lat="45.24198" lon="6.16077">
        <ele>2091.8000488281</ele>
        <time>2012-05-17T07:56:01.000Z</time>
      </trkpt>
      <trkpt lat="45.242" lon="6.16071">
        <ele>2093.1999511719</ele>
        <time>2012-05-17T07:56:09.000Z</time>
      </trkpt>
      <trkpt lat="45.24202" lon="6.16068">
        <ele>2094.8000488281</ele>
        <time>2012-05-17T07:56:17.000Z</time>
      </trkpt>
      <trkpt lat="45.24205" lon="6.16066">
        <ele>2096</ele>
        <time>2012-05-17T07:56:23.000Z</time>
      </trkpt>
      <trkpt lat="45.24207" lon="6.16059">
        <ele>2098</ele>
        <time>2012-05-17T07:56:33.000Z</time>
      </trkpt>
      <trkpt lat="45.24207" lon="6.16053">
        <ele>2099.8000488281</ele>
        <time>2012-05-17T07:56:40.000Z</time>
      </trkpt>
      <trkpt lat="45.24206" lon="6.16046">
        <ele>2101.6000976562</ele>
        <time>2012-05-17T07:56:48.000Z</time>
      </trkpt>
      <trkpt lat="45.24204" lon="6.16039">
        <ele>2103.3999023438</ele>
        <time>2012-05-17T07:56:56.000Z</time>
      </trkpt>
      <trkpt lat="45.242" lon="6.16033">
        <ele>2105</ele>
        <time>2012-05-17T07:57:04.000Z</time>
      </trkpt>
      <trkpt lat="45.24197" lon="6.16027">
        <ele>2106.8000488281</ele>
        <time>2012-05-17T07:57:13.000Z</time>
      </trkpt>
      <trkpt lat="45.24194" lon="6.16022">
        <ele>2108</ele>
        <time>2012-05-17T07:57:19.000Z</time>
      </trkpt>
      <trkpt lat="45.24191" lon="6.16017">
        <ele>2109.6000976562</ele>
        <time>2012-05-17T07:57:26.000Z</time>
      </trkpt>
      <trkpt lat="45.24187" lon="6.16012">
        <ele>2111.1999511719</ele>
        <time>2012-05-17T07:57:34.000Z</time>
      </trkpt>
      <trkpt lat="45.24185" lon="6.16009">
        <ele>2112.3999023438</ele>
        <time>2012-05-17T07:57:39.000Z</time>
      </trkpt>
      <trkpt lat="45.24181" lon="6.16005">
        <ele>2113.8000488281</ele>
        <time>2012-05-17T07:57:46.000Z</time>
      </trkpt>
      <trkpt lat="45.24177" lon="6.16">
        <ele>2115.6000976562</ele>
        <time>2012-05-17T07:57:54.000Z</time>
      </trkpt>
      <trkpt lat="45.24173" lon="6.15997">
        <ele>2117.1999511719</ele>
        <time>2012-05-17T07:58:01.000Z</time>
      </trkpt>
      <trkpt lat="45.24171" lon="6.15998">
        <ele>2119</ele>
        <time>2012-05-17T07:58:08.000Z</time>
      </trkpt>
      <trkpt lat="45.2417" lon="6.15998">
        <ele>2119.6000976562</ele>
        <time>2012-05-17T07:58:10.000Z</time>
      </trkpt>
      <trkpt lat="45.2417" lon="6.16">
        <ele>2120.6000976562</ele>
        <time>2012-05-17T07:59:03.000Z</time>
      </trkpt>
      <trkpt lat="45.24168" lon="6.15998">
        <ele>2121.3999023438</ele>
        <time>2012-05-17T07:59:06.000Z</time>
      </trkpt>
      <trkpt lat="45.24166" lon="6.15989">
        <ele>2123.3999023438</ele>
        <time>2012-05-17T07:59:15.000Z</time>
      </trkpt>
      <trkpt lat="45.24166" lon="6.15982">
        <ele>2125.3999023438</ele>
        <time>2012-05-17T07:59:23.000Z</time>
      </trkpt>
      <trkpt lat="45.24167" lon="6.15971">
        <ele>2128</ele>
        <time>2012-05-17T07:59:34.000Z</time>
      </trkpt>
      <trkpt lat="45.24167" lon="6.15966">
        <ele>2129.6000976562</ele>
        <time>2012-05-17T07:59:41.000Z</time>
      </trkpt>
      <trkpt lat="45.24169" lon="6.15958">
        <ele>2131.6000976562</ele>
        <time>2012-05-17T07:59:50.000Z</time>
      </trkpt>
      <trkpt lat="45.24171" lon="6.15949">
        <ele>2134</ele>
        <time>2012-05-17T08:00:00.000Z</time>
      </trkpt>
      <trkpt lat="45.24173" lon="6.15939">
        <ele>2135.8000488281</ele>
        <time>2012-05-17T08:00:10.000Z</time>
      </trkpt>
      <trkpt lat="45.24175" lon="6.15933">
        <ele>2137.3999023438</ele>
        <time>2012-05-17T08:00:18.000Z</time>
      </trkpt>
      <trkpt lat="45.24178" lon="6.15928">
        <ele>2139.3999023438</ele>
        <time>2012-05-17T08:00:27.000Z</time>
      </trkpt>
      <trkpt lat="45.24181" lon="6.15924">
        <ele>2141</ele>
        <time>2012-05-17T08:00:35.000Z</time>
      </trkpt>
      <trkpt lat="45.24184" lon="6.15922">
        <ele>2142</ele>
        <time>2012-05-17T08:00:41.000Z</time>
      </trkpt>
      <trkpt lat="45.24187" lon="6.15918">
        <ele>2143.1999511719</ele>
        <time>2012-05-17T08:00:48.000Z</time>
      </trkpt>
      <trkpt lat="45.24186" lon="6.15916">
        <ele>2144</ele>
        <time>2012-05-17T08:00:50.000Z</time>
      </trkpt>
      <trkpt lat="45.24183" lon="6.15914">
        <ele>2145</ele>
        <time>2012-05-17T08:00:56.000Z</time>
      </trkpt>
      <trkpt lat="45.24177" lon="6.15912">
        <ele>2146.3999023438</ele>
        <time>2012-05-17T08:01:04.000Z</time>
      </trkpt>
      <trkpt lat="45.2417" lon="6.15909">
        <ele>2148.1999511719</ele>
        <time>2012-05-17T08:01:15.000Z</time>
      </trkpt>
      <trkpt lat="45.24166" lon="6.15907">
        <ele>2149.8000488281</ele>
        <time>2012-05-17T08:01:22.000Z</time>
      </trkpt>
      <trkpt lat="45.24161" lon="6.15902">
        <ele>2151.1999511719</ele>
        <time>2012-05-17T08:01:31.000Z</time>
      </trkpt>
      <trkpt lat="45.24157" lon="6.15896">
        <ele>2153.1999511719</ele>
        <time>2012-05-17T08:01:41.000Z</time>
      </trkpt>
      <trkpt lat="45.24154" lon="6.15891">
        <ele>2155</ele>
        <time>2012-05-17T08:01:50.000Z</time>
      </trkpt>
      <trkpt lat="45.24152" lon="6.15888">
        <ele>2156.3999023438</ele>
        <time>2012-05-17T08:01:58.000Z</time>
      </trkpt>
      <trkpt lat="45.24149" lon="6.15883">
        <ele>2158.1999511719</ele>
        <time>2012-05-17T08:02:07.000Z</time>
      </trkpt>
      <trkpt lat="45.24147" lon="6.15877">
        <ele>2160</ele>
        <time>2012-05-17T08:02:17.000Z</time>
      </trkpt>
      <trkpt lat="45.24144" lon="6.15872">
        <ele>2161.1999511719</ele>
        <time>2012-05-17T08:02:25.000Z</time>
      </trkpt>
      <trkpt lat="45.24142" lon="6.15867">
        <ele>2162.6000976562</ele>
        <time>2012-05-17T08:02:32.000Z</time>
      </trkpt>
      <trkpt lat="45.24138" lon="6.1586">
        <ele>2164.3999023438</ele>
        <time>2012-05-17T08:02:43.000Z</time>
      </trkpt>
      <trkpt lat="45.24136" lon="6.15854">
        <ele>2165.8000488281</ele>
        <time>2012-05-17T08:02:51.000Z</time>
      </trkpt>
      <trkpt lat="45.24136" lon="6.15853">
        <ele>2166.1999511719</ele>
        <time>2012-05-17T08:02:53.000Z</time>
      </trkpt>
      <trkpt lat="45.2414" lon="6.15852">
        <ele>2167</ele>
        <time>2012-05-17T08:02:59.000Z</time>
      </trkpt>
      <trkpt lat="45.24145" lon="6.15851">
        <ele>2169</ele>
        <time>2012-05-17T08:03:07.000Z</time>
      </trkpt>
      <trkpt lat="45.24149" lon="6.1585">
        <ele>2170.3999023438</ele>
        <time>2012-05-17T08:03:15.000Z</time>
      </trkpt>
      <trkpt lat="45.24153" lon="6.15847">
        <ele>2172</ele>
        <time>2012-05-17T08:03:23.000Z</time>
      </trkpt>
      <trkpt lat="45.24157" lon="6.15842">
        <ele>2174</ele>
        <time>2012-05-17T08:03:32.000Z</time>
      </trkpt>
      <trkpt lat="45.2416" lon="6.15839">
        <ele>2175.3999023438</ele>
        <time>2012-05-17T08:03:42.000Z</time>
      </trkpt>
      <trkpt lat="45.24163" lon="6.15835">
        <ele>2177.3999023438</ele>
        <time>2012-05-17T08:03:52.000Z</time>
      </trkpt>
      <trkpt lat="45.24162" lon="6.15833">
        <ele>2178</ele>
        <time>2012-05-17T08:03:55.000Z</time>
      </trkpt>
      <trkpt lat="45.24161" lon="6.1583">
        <ele>2178.8000488281</ele>
        <time>2012-05-17T08:04:03.000Z</time>
      </trkpt>
      <trkpt lat="45.24159" lon="6.15823">
        <ele>2181</ele>
        <time>2012-05-17T08:04:12.000Z</time>
      </trkpt>
      <trkpt lat="45.24158" lon="6.15816">
        <ele>2182.3999023438</ele>
        <time>2012-05-17T08:04:20.000Z</time>
      </trkpt>
      <trkpt lat="45.2416" lon="6.15813">
        <ele>2183.6000976562</ele>
        <time>2012-05-17T08:04:26.000Z</time>
      </trkpt>
      <trkpt lat="45.24165" lon="6.1581">
        <ele>2185.8000488281</ele>
        <time>2012-05-17T08:04:36.000Z</time>
      </trkpt>
      <trkpt lat="45.24168" lon="6.15804">
        <ele>2188</ele>
        <time>2012-05-17T08:04:45.000Z</time>
      </trkpt>
      <trkpt lat="45.24167" lon="6.15798">
        <ele>2189.6000976562</ele>
        <time>2012-05-17T08:04:52.000Z</time>
      </trkpt>
      <trkpt lat="45.24165" lon="6.1579">
        <ele>2191.3999023438</ele>
        <time>2012-05-17T08:05:00.000Z</time>
      </trkpt>
      <trkpt lat="45.24163" lon="6.15781">
        <ele>2193</ele>
        <time>2012-05-17T08:05:09.000Z</time>
      </trkpt>
      <trkpt lat="45.24163" lon="6.1578">
        <ele>2193</ele>
        <time>2012-05-17T08:05:10.000Z</time>
      </trkpt>
      <trkpt lat="45.24164" lon="6.1577">
        <ele>2194.6000976562</ele>
        <time>2012-05-17T08:05:20.000Z</time>
      </trkpt>
      <trkpt lat="45.24165" lon="6.15767">
        <ele>2195.3999023438</ele>
        <time>2012-05-17T08:05:25.000Z</time>
      </trkpt>
      <trkpt lat="45.24167" lon="6.15766">
        <ele>2195.6000976562</ele>
        <time>2012-05-17T08:05:33.000Z</time>
      </trkpt>
      <trkpt lat="45.24168" lon="6.15765">
        <ele>2195.6000976562</ele>
        <time>2012-05-17T08:05:34.000Z</time>
      </trkpt>
      <trkpt lat="45.2417" lon="6.15765">
        <ele>2196.1999511719</ele>
        <time>2012-05-17T08:05:39.000Z</time>
      </trkpt>
      <trkpt lat="45.24174" lon="6.15764">
        <ele>2196.6000976562</ele>
        <time>2012-05-17T08:06:18.000Z</time>
      </trkpt>
      <trkpt lat="45.24173" lon="6.15757">
        <ele>2197.8000488281</ele>
        <time>2012-05-17T08:06:24.000Z</time>
      </trkpt>
      <trkpt lat="45.24174" lon="6.15747">
        <ele>2199.1999511719</ele>
        <time>2012-05-17T08:06:33.000Z</time>
      </trkpt>
      <trkpt lat="45.24175" lon="6.15738">
        <ele>2201.1999511719</ele>
        <time>2012-05-17T08:06:42.000Z</time>
      </trkpt>
      <trkpt lat="45.24176" lon="6.15731">
        <ele>2203</ele>
        <time>2012-05-17T08:06:50.000Z</time>
      </trkpt>
      <trkpt lat="45.24179" lon="6.15724">
        <ele>2204.8000488281</ele>
        <time>2012-05-17T08:06:58.000Z</time>
      </trkpt>
      <trkpt lat="45.24181" lon="6.1572">
        <ele>2206.3999023438</ele>
        <time>2012-05-17T08:07:05.000Z</time>
      </trkpt>
      <trkpt lat="45.24183" lon="6.15716">
        <ele>2207.3999023438</ele>
        <time>2012-05-17T08:07:11.000Z</time>
      </trkpt>
      <trkpt lat="45.24186" lon="6.15711">
        <ele>2209.1999511719</ele>
        <time>2012-05-17T08:07:20.000Z</time>
      </trkpt>
      <trkpt lat="45.24188" lon="6.15707">
        <ele>2210.3999023438</ele>
        <time>2012-05-17T08:07:28.000Z</time>
      </trkpt>
      <trkpt lat="45.24189" lon="6.15706">
        <ele>2211</ele>
        <time>2012-05-17T08:07:30.000Z</time>
      </trkpt>
      <trkpt lat="45.24192" lon="6.15702">
        <ele>2212.6000976562</ele>
        <time>2012-05-17T08:07:39.000Z</time>
      </trkpt>
      <trkpt lat="45.24194" lon="6.15699">
        <ele>2213.8000488281</ele>
        <time>2012-05-17T08:07:44.000Z</time>
      </trkpt>
      <trkpt lat="45.24195" lon="6.15697">
        <ele>2214.6000976562</ele>
        <time>2012-05-17T08:07:49.000Z</time>
      </trkpt>
      <trkpt lat="45.24198" lon="6.15694">
        <ele>2215.8000488281</ele>
        <time>2012-05-17T08:07:56.000Z</time>
      </trkpt>
      <trkpt lat="45.242" lon="6.15694">
        <ele>2216.6000976562</ele>
        <time>2012-05-17T08:08:01.000Z</time>
      </trkpt>
      <trkpt lat="45.24203" lon="6.15692">
        <ele>2217.8000488281</ele>
        <time>2012-05-17T08:08:08.000Z</time>
      </trkpt>
      <trkpt lat="45.24206" lon="6.15691">
        <ele>2218.8000488281</ele>
        <time>2012-05-17T08:08:14.000Z</time>
      </trkpt>
      <trkpt lat="45.24208" lon="6.15689">
        <ele>2220.1999511719</ele>
        <time>2012-05-17T08:08:19.000Z</time>
      </trkpt>
      <trkpt lat="45.24208" lon="6.15685">
        <ele>2220.8000488281</ele>
        <time>2012-05-17T08:08:27.000Z</time>
      </trkpt>
      <trkpt lat="45.24206" lon="6.15679">
        <ele>2222.1999511719</ele>
        <time>2012-05-17T08:08:34.000Z</time>
      </trkpt>
      <trkpt lat="45.24203" lon="6.15672">
        <ele>2224</ele>
        <time>2012-05-17T08:08:42.000Z</time>
      </trkpt>
      <trkpt lat="45.24201" lon="6.15666">
        <ele>2225.1999511719</ele>
        <time>2012-05-17T08:08:50.000Z</time>
      </trkpt>
      <trkpt lat="45.24199" lon="6.15661">
        <ele>2226.6000976562</ele>
        <time>2012-05-17T08:08:57.000Z</time>
      </trkpt>
      <trkpt lat="45.24195" lon="6.15654">
        <ele>2228.3999023438</ele>
        <time>2012-05-17T08:09:06.000Z</time>
      </trkpt>
      <trkpt lat="45.24192" lon="6.15649">
        <ele>2230</ele>
        <time>2012-05-17T08:09:13.000Z</time>
      </trkpt>
      <trkpt lat="45.24189" lon="6.15645">
        <ele>2231.1999511719</ele>
        <time>2012-05-17T08:09:19.000Z</time>
      </trkpt>
      <trkpt lat="45.24186" lon="6.1564">
        <ele>2232.6000976562</ele>
        <time>2012-05-17T08:09:27.000Z</time>
      </trkpt>
      <trkpt lat="45.24184" lon="6.15636">
        <ele>2234</ele>
        <time>2012-05-17T08:09:34.000Z</time>
      </trkpt>
      <trkpt lat="45.24181" lon="6.15632">
        <ele>2235</ele>
        <time>2012-05-17T08:09:41.000Z</time>
      </trkpt>
      <trkpt lat="45.2418" lon="6.15631">
        <ele>2235.6000976562</ele>
        <time>2012-05-17T08:09:45.000Z</time>
      </trkpt>
      <trkpt lat="45.24184" lon="6.1563">
        <ele>2236</ele>
        <time>2012-05-17T08:09:54.000Z</time>
      </trkpt>
      <trkpt lat="45.24189" lon="6.15628">
        <ele>2237.1999511719</ele>
        <time>2012-05-17T08:10:01.000Z</time>
      </trkpt>
      <trkpt lat="45.24192" lon="6.15626">
        <ele>2238</ele>
        <time>2012-05-17T08:10:07.000Z</time>
      </trkpt>
      <trkpt lat="45.24195" lon="6.15621">
        <ele>2239</ele>
        <time>2012-05-17T08:10:14.000Z</time>
      </trkpt>
      <trkpt lat="45.24194" lon="6.15617">
        <ele>2240.3999023438</ele>
        <time>2012-05-17T08:10:19.000Z</time>
      </trkpt>
      <trkpt lat="45.2419" lon="6.15611">
        <ele>2242.3999023438</ele>
        <time>2012-05-17T08:10:27.000Z</time>
      </trkpt>
      <trkpt lat="45.24188" lon="6.15606">
        <ele>2243.6000976562</ele>
        <time>2012-05-17T08:10:33.000Z</time>
      </trkpt>
      <trkpt lat="45.24186" lon="6.15601">
        <ele>2244.6000976562</ele>
        <time>2012-05-17T08:10:39.000Z</time>
      </trkpt>
      <trkpt lat="45.24184" lon="6.15596">
        <ele>2246.1999511719</ele>
        <time>2012-05-17T08:10:46.000Z</time>
      </trkpt>
      <trkpt lat="45.24183" lon="6.15591">
        <ele>2247.8000488281</ele>
        <time>2012-05-17T08:10:54.000Z</time>
      </trkpt>
      <trkpt lat="45.24182" lon="6.15586">
        <ele>2248.8000488281</ele>
        <time>2012-05-17T08:11:00.000Z</time>
      </trkpt>
      <trkpt lat="45.24182" lon="6.15581">
        <ele>2250.1999511719</ele>
        <time>2012-05-17T08:11:08.000Z</time>
      </trkpt>
      <trkpt lat="45.24183" lon="6.1558">
        <ele>2250.8000488281</ele>
        <time>2012-05-17T08:11:10.000Z</time>
      </trkpt>
      <trkpt lat="45.24186" lon="6.15579">
        <ele>2251.3999023438</ele>
        <time>2012-05-17T08:11:17.000Z</time>
      </trkpt>
      <trkpt lat="45.24189" lon="6.15579">
        <ele>2252.1999511719</ele>
        <time>2012-05-17T08:11:23.000Z</time>
      </trkpt>
      <trkpt lat="45.24193" lon="6.15579">
        <ele>2253.3999023438</ele>
        <time>2012-05-17T08:11:29.000Z</time>
      </trkpt>
      <trkpt lat="45.24198" lon="6.1558">
        <ele>2254.6000976562</ele>
        <time>2012-05-17T08:11:37.000Z</time>
      </trkpt>
      <trkpt lat="45.24201" lon="6.15581">
        <ele>2255.8000488281</ele>
        <time>2012-05-17T08:11:45.000Z</time>
      </trkpt>
      <trkpt lat="45.24205" lon="6.15582">
        <ele>2257</ele>
        <time>2012-05-17T08:11:52.000Z</time>
      </trkpt>
      <trkpt lat="45.2421" lon="6.15582">
        <ele>2258.3999023438</ele>
        <time>2012-05-17T08:12:00.000Z</time>
      </trkpt>
      <trkpt lat="45.24214" lon="6.15582">
        <ele>2259.6000976562</ele>
        <time>2012-05-17T08:12:07.000Z</time>
      </trkpt>
      <trkpt lat="45.24215" lon="6.1558">
        <ele>2260.1999511719</ele>
        <time>2012-05-17T08:12:12.000Z</time>
      </trkpt>
      <trkpt lat="45.24214" lon="6.15574">
        <ele>2261.6000976562</ele>
        <time>2012-05-17T08:12:23.000Z</time>
      </trkpt>
      <trkpt lat="45.24211" lon="6.15568">
        <ele>2262.6000976562</ele>
        <time>2012-05-17T08:12:31.000Z</time>
      </trkpt>
      <trkpt lat="45.24208" lon="6.15564">
        <ele>2263.8000488281</ele>
        <time>2012-05-17T08:12:38.000Z</time>
      </trkpt>
      <trkpt lat="45.24206" lon="6.15559">
        <ele>2264.8000488281</ele>
        <time>2012-05-17T08:12:44.000Z</time>
      </trkpt>
      <trkpt lat="45.24205" lon="6.15555">
        <ele>2265.8000488281</ele>
        <time>2012-05-17T08:12:50.000Z</time>
      </trkpt>
      <trkpt lat="45.24205" lon="6.1555">
        <ele>2266.8000488281</ele>
        <time>2012-05-17T08:12:57.000Z</time>
      </trkpt>
      <trkpt lat="45.24204" lon="6.15547">
        <ele>2267.8000488281</ele>
        <time>2012-05-17T08:13:03.000Z</time>
      </trkpt>
      <trkpt lat="45.24202" lon="6.1554">
        <ele>2269.3999023438</ele>
        <time>2012-05-17T08:13:16.000Z</time>
      </trkpt>
      <trkpt lat="45.24201" lon="6.15535">
        <ele>2270.3999023438</ele>
        <time>2012-05-17T08:13:24.000Z</time>
      </trkpt>
      <trkpt lat="45.24201" lon="6.15529">
        <ele>2271.6000976562</ele>
        <time>2012-05-17T08:13:31.000Z</time>
      </trkpt>
      <trkpt lat="45.242" lon="6.15524">
        <ele>2272.8000488281</ele>
        <time>2012-05-17T08:13:39.000Z</time>
      </trkpt>
      <trkpt lat="45.242" lon="6.15523">
        <ele>2273.1999511719</ele>
        <time>2012-05-17T08:13:40.000Z</time>
      </trkpt>
      <trkpt lat="45.24203" lon="6.15524">
        <ele>2273.6000976562</ele>
        <time>2012-05-17T08:13:53.000Z</time>
      </trkpt>
      <trkpt lat="45.24205" lon="6.15525">
        <ele>2274</ele>
        <time>2012-05-17T08:13:57.000Z</time>
      </trkpt>
      <trkpt lat="45.24209" lon="6.15525">
        <ele>2275</ele>
        <time>2012-05-17T08:14:04.000Z</time>
      </trkpt>
      <trkpt lat="45.24213" lon="6.15524">
        <ele>2276.1999511719</ele>
        <time>2012-05-17T08:14:10.000Z</time>
      </trkpt>
      <trkpt lat="45.24216" lon="6.15519">
        <ele>2278.1999511719</ele>
        <time>2012-05-17T08:14:17.000Z</time>
      </trkpt>
      <trkpt lat="45.24218" lon="6.15512">
        <ele>2279.6000976562</ele>
        <time>2012-05-17T08:14:24.000Z</time>
      </trkpt>
      <trkpt lat="45.2422" lon="6.15505">
        <ele>2281.1999511719</ele>
        <time>2012-05-17T08:14:32.000Z</time>
      </trkpt>
      <trkpt lat="45.24223" lon="6.15499">
        <ele>2282.6000976562</ele>
        <time>2012-05-17T08:14:40.000Z</time>
      </trkpt>
      <trkpt lat="45.24226" lon="6.15495">
        <ele>2283.3999023438</ele>
        <time>2012-05-17T08:14:47.000Z</time>
      </trkpt>
      <trkpt lat="45.24225" lon="6.15488">
        <ele>2284.8000488281</ele>
        <time>2012-05-17T08:19:36.000Z</time>
      </trkpt>
      <trkpt lat="45.24227" lon="6.15485">
        <ele>2285.8000488281</ele>
        <time>2012-05-17T08:19:42.000Z</time>
      </trkpt>
      <trkpt lat="45.24227" lon="6.15483">
        <ele>2286</ele>
        <time>2012-05-17T08:19:54.000Z</time>
      </trkpt>
      <trkpt lat="45.2423" lon="6.15475">
        <ele>2287.3999023438</ele>
        <time>2012-05-17T08:20:03.000Z</time>
      </trkpt>
      <trkpt lat="45.2423" lon="6.15474">
        <ele>2287.3999023438</ele>
        <time>2012-05-17T08:20:04.000Z</time>
      </trkpt>
      <trkpt lat="45.24233" lon="6.15466">
        <ele>2289</ele>
        <time>2012-05-17T08:20:13.000Z</time>
      </trkpt>
      <trkpt lat="45.24235" lon="6.1546">
        <ele>2290.1999511719</ele>
        <time>2012-05-17T08:20:21.000Z</time>
      </trkpt>
      <trkpt lat="45.24238" lon="6.15453">
        <ele>2291.8000488281</ele>
        <time>2012-05-17T08:20:29.000Z</time>
      </trkpt>
      <trkpt lat="45.2424" lon="6.15445">
        <ele>2293.1999511719</ele>
        <time>2012-05-17T08:20:38.000Z</time>
      </trkpt>
      <trkpt lat="45.24242" lon="6.15439">
        <ele>2294.8000488281</ele>
        <time>2012-05-17T08:20:46.000Z</time>
      </trkpt>
      <trkpt lat="45.24245" lon="6.15432">
        <ele>2296.1999511719</ele>
        <time>2012-05-17T08:20:55.000Z</time>
      </trkpt>
      <trkpt lat="45.24247" lon="6.15427">
        <ele>2297.3999023438</ele>
        <time>2012-05-17T08:21:02.000Z</time>
      </trkpt>
      <trkpt lat="45.2425" lon="6.1542">
        <ele>2299</ele>
        <time>2012-05-17T08:21:11.000Z</time>
      </trkpt>
      <trkpt lat="45.24254" lon="6.15416">
        <ele>2300.6000976562</ele>
        <time>2012-05-17T08:21:19.000Z</time>
      </trkpt>
      <trkpt lat="45.24258" lon="6.15414">
        <ele>2302.3999023438</ele>
        <time>2012-05-17T08:21:28.000Z</time>
      </trkpt>
      <trkpt lat="45.24263" lon="6.15412">
        <ele>2304</ele>
        <time>2012-05-17T08:21:36.000Z</time>
      </trkpt>
      <trkpt lat="45.24265" lon="6.15406">
        <ele>2306</ele>
        <time>2012-05-17T08:21:44.000Z</time>
      </trkpt>
      <trkpt lat="45.24266" lon="6.15399">
        <ele>2307.3999023438</ele>
        <time>2012-05-17T08:21:52.000Z</time>
      </trkpt>
      <trkpt lat="45.24268" lon="6.15392">
        <ele>2309.3999023438</ele>
        <time>2012-05-17T08:22:00.000Z</time>
      </trkpt>
      <trkpt lat="45.2427" lon="6.15384">
        <ele>2310.1999511719</ele>
        <time>2012-05-17T08:22:08.000Z</time>
      </trkpt>
      <trkpt lat="45.24274" lon="6.15377">
        <ele>2311.3999023438</ele>
        <time>2012-05-17T08:22:17.000Z</time>
      </trkpt>
      <trkpt lat="45.24277" lon="6.15375">
        <ele>2312.3999023438</ele>
        <time>2012-05-17T08:22:24.000Z</time>
      </trkpt>
      <trkpt lat="45.24282" lon="6.15373">
        <ele>2313.8000488281</ele>
        <time>2012-05-17T08:22:32.000Z</time>
      </trkpt>
      <trkpt lat="45.24286" lon="6.15371">
        <ele>2315.1999511719</ele>
        <time>2012-05-17T08:22:39.000Z</time>
      </trkpt>
      <trkpt lat="45.2429" lon="6.15367">
        <ele>2316.3999023438</ele>
        <time>2012-05-17T08:22:46.000Z</time>
      </trkpt>
      <trkpt lat="45.24293" lon="6.1536">
        <ele>2318.3999023438</ele>
        <time>2012-05-17T08:22:55.000Z</time>
      </trkpt>
      <trkpt lat="45.24293" lon="6.15354">
        <ele>2319.8000488281</ele>
        <time>2012-05-17T08:23:02.000Z</time>
      </trkpt>
      <trkpt lat="45.24293" lon="6.15347">
        <ele>2321.1999511719</ele>
        <time>2012-05-17T08:23:11.000Z</time>
      </trkpt>
      <trkpt lat="45.24294" lon="6.1534">
        <ele>2322.8000488281</ele>
        <time>2012-05-17T08:23:20.000Z</time>
      </trkpt>
      <trkpt lat="45.24294" lon="6.15332">
        <ele>2324.6000976562</ele>
        <time>2012-05-17T08:23:29.000Z</time>
      </trkpt>
      <trkpt lat="45.24294" lon="6.15325">
        <ele>2325.8000488281</ele>
        <time>2012-05-17T08:23:37.000Z</time>
      </trkpt>
      <trkpt lat="45.24294" lon="6.15319">
        <ele>2327.1999511719</ele>
        <time>2012-05-17T08:23:45.000Z</time>
      </trkpt>
      <trkpt lat="45.24294" lon="6.15313">
        <ele>2328.6000976562</ele>
        <time>2012-05-17T08:23:53.000Z</time>
      </trkpt>
      <trkpt lat="45.24294" lon="6.15306">
        <ele>2330.1999511719</ele>
        <time>2012-05-17T08:24:01.000Z</time>
      </trkpt>
      <trkpt lat="45.24295" lon="6.153">
        <ele>2331.8000488281</ele>
        <time>2012-05-17T08:24:09.000Z</time>
      </trkpt>
      <trkpt lat="45.24295" lon="6.15292">
        <ele>2333.6000976562</ele>
        <time>2012-05-17T08:24:18.000Z</time>
      </trkpt>
      <trkpt lat="45.24294" lon="6.15286">
        <ele>2335.1999511719</ele>
        <time>2012-05-17T08:24:26.000Z</time>
      </trkpt>
      <trkpt lat="45.24293" lon="6.15279">
        <ele>2337</ele>
        <time>2012-05-17T08:24:35.000Z</time>
      </trkpt>
      <trkpt lat="45.24292" lon="6.15273">
        <ele>2338.8000488281</ele>
        <time>2012-05-17T08:24:43.000Z</time>
      </trkpt>
      <trkpt lat="45.24291" lon="6.15268">
        <ele>2340</ele>
        <time>2012-05-17T08:24:50.000Z</time>
      </trkpt>
      <trkpt lat="45.2429" lon="6.15262">
        <ele>2341.6000976562</ele>
        <time>2012-05-17T08:24:57.000Z</time>
      </trkpt>
      <trkpt lat="45.24289" lon="6.15256">
        <ele>2343.3999023438</ele>
        <time>2012-05-17T08:25:05.000Z</time>
      </trkpt>
      <trkpt lat="45.24289" lon="6.1525">
        <ele>2345</ele>
        <time>2012-05-17T08:25:13.000Z</time>
      </trkpt>
      <trkpt lat="45.24289" lon="6.15245">
        <ele>2346.3999023438</ele>
        <time>2012-05-17T08:25:20.000Z</time>
      </trkpt>
      <trkpt lat="45.24291" lon="6.15242">
        <ele>2347.6000976562</ele>
        <time>2012-05-17T08:25:26.000Z</time>
      </trkpt>
      <trkpt lat="45.24295" lon="6.15239">
        <ele>2349.3999023438</ele>
        <time>2012-05-17T08:25:35.000Z</time>
      </trkpt>
      <trkpt lat="45.243" lon="6.15235">
        <ele>2351</ele>
        <time>2012-05-17T08:25:43.000Z</time>
      </trkpt>
      <trkpt lat="45.24304" lon="6.15231">
        <ele>2352.8000488281</ele>
        <time>2012-05-17T08:25:51.000Z</time>
      </trkpt>
      <trkpt lat="45.24308" lon="6.15226">
        <ele>2354.1999511719</ele>
        <time>2012-05-17T08:25:59.000Z</time>
      </trkpt>
      <trkpt lat="45.24311" lon="6.15219">
        <ele>2355.6000976562</ele>
        <time>2012-05-17T08:26:07.000Z</time>
      </trkpt>
      <trkpt lat="45.24314" lon="6.15212">
        <ele>2357.1999511719</ele>
        <time>2012-05-17T08:26:15.000Z</time>
      </trkpt>
      <trkpt lat="45.24315" lon="6.15209">
        <ele>2357.8000488281</ele>
        <time>2012-05-17T08:26:21.000Z</time>
      </trkpt>
      <trkpt lat="45.24316" lon="6.15206">
        <ele>2358.1999511719</ele>
        <time>2012-05-17T08:26:28.000Z</time>
      </trkpt>
      <trkpt lat="45.24319" lon="6.15198">
        <ele>2359.1999511719</ele>
        <time>2012-05-17T08:26:36.000Z</time>
      </trkpt>
      <trkpt lat="45.24322" lon="6.15189">
        <ele>2360.6000976562</ele>
        <time>2012-05-17T08:26:46.000Z</time>
      </trkpt>
      <trkpt lat="45.24325" lon="6.15182">
        <ele>2361.6000976562</ele>
        <time>2012-05-17T08:26:54.000Z</time>
      </trkpt>
      <trkpt lat="45.24327" lon="6.15175">
        <ele>2363</ele>
        <time>2012-05-17T08:27:02.000Z</time>
      </trkpt>
      <trkpt lat="45.2433" lon="6.15165">
        <ele>2364.8000488281</ele>
        <time>2012-05-17T08:27:12.000Z</time>
      </trkpt>
      <trkpt lat="45.24332" lon="6.15158">
        <ele>2366</ele>
        <time>2012-05-17T08:27:20.000Z</time>
      </trkpt>
      <trkpt lat="45.24334" lon="6.15152">
        <ele>2367.8000488281</ele>
        <time>2012-05-17T08:27:29.000Z</time>
      </trkpt>
      <trkpt lat="45.24335" lon="6.15145">
        <ele>2369.3999023438</ele>
        <time>2012-05-17T08:27:37.000Z</time>
      </trkpt>
      <trkpt lat="45.24336" lon="6.15138">
        <ele>2371.3999023438</ele>
        <time>2012-05-17T08:27:46.000Z</time>
      </trkpt>
      <trkpt lat="45.24336" lon="6.15131">
        <ele>2373.1999511719</ele>
        <time>2012-05-17T08:27:55.000Z</time>
      </trkpt>
      <trkpt lat="45.24336" lon="6.15124">
        <ele>2375</ele>
        <time>2012-05-17T08:28:03.000Z</time>
      </trkpt>
      <trkpt lat="45.24336" lon="6.15118">
        <ele>2376.3999023438</ele>
        <time>2012-05-17T08:28:11.000Z</time>
      </trkpt>
      <trkpt lat="45.24337" lon="6.15112">
        <ele>2378</ele>
        <time>2012-05-17T08:28:18.000Z</time>
      </trkpt>
      <trkpt lat="45.2434" lon="6.15108">
        <ele>2379.1999511719</ele>
        <time>2012-05-17T08:28:25.000Z</time>
      </trkpt>
      <trkpt lat="45.24344" lon="6.15105">
        <ele>2380.3999023438</ele>
        <time>2012-05-17T08:28:32.000Z</time>
      </trkpt>
      <trkpt lat="45.24349" lon="6.15102">
        <ele>2381.8000488281</ele>
        <time>2012-05-17T08:28:40.000Z</time>
      </trkpt>
      <trkpt lat="45.24353" lon="6.15098">
        <ele>2383.1999511719</ele>
        <time>2012-05-17T08:28:48.000Z</time>
      </trkpt>
      <trkpt lat="45.24357" lon="6.15095">
        <ele>2384.1999511719</ele>
        <time>2012-05-17T08:28:55.000Z</time>
      </trkpt>
      <trkpt lat="45.2436" lon="6.1509">
        <ele>2386</ele>
        <time>2012-05-17T08:29:03.000Z</time>
      </trkpt>
      <trkpt lat="45.24362" lon="6.15084">
        <ele>2387.3999023438</ele>
        <time>2012-05-17T08:29:11.000Z</time>
      </trkpt>
      <trkpt lat="45.24363" lon="6.1508">
        <ele>2388.6000976562</ele>
        <time>2012-05-17T08:29:17.000Z</time>
      </trkpt>
      <trkpt lat="45.24364" lon="6.15074">
        <ele>2389.8000488281</ele>
        <time>2012-05-17T08:29:24.000Z</time>
      </trkpt>
      <trkpt lat="45.24365" lon="6.1507">
        <ele>2391</ele>
        <time>2012-05-17T08:29:30.000Z</time>
      </trkpt>
      <trkpt lat="45.24365" lon="6.15066">
        <ele>2392.1999511719</ele>
        <time>2012-05-17T08:29:36.000Z</time>
      </trkpt>
      <trkpt lat="45.24367" lon="6.1506">
        <ele>2394</ele>
        <time>2012-05-17T08:29:45.000Z</time>
      </trkpt>
      <trkpt lat="45.24369" lon="6.15054">
        <ele>2395.3999023438</ele>
        <time>2012-05-17T08:29:52.000Z</time>
      </trkpt>
      <trkpt lat="45.24372" lon="6.15049">
        <ele>2396.6000976562</ele>
        <time>2012-05-17T08:30:00.000Z</time>
      </trkpt>
      <trkpt lat="45.24376" lon="6.15042">
        <ele>2398.3999023438</ele>
        <time>2012-05-17T08:30:10.000Z</time>
      </trkpt>
      <trkpt lat="45.24379" lon="6.15035">
        <ele>2399.6000976562</ele>
        <time>2012-05-17T08:30:19.000Z</time>
      </trkpt>
      <trkpt lat="45.24382" lon="6.15028">
        <ele>2401</ele>
        <time>2012-05-17T08:30:28.000Z</time>
      </trkpt>
      <trkpt lat="45.24384" lon="6.15022">
        <ele>2402.1999511719</ele>
        <time>2012-05-17T08:30:36.000Z</time>
      </trkpt>
      <trkpt lat="45.24386" lon="6.15016">
        <ele>2403.6000976562</ele>
        <time>2012-05-17T08:30:43.000Z</time>
      </trkpt>
      <trkpt lat="45.24389" lon="6.15008">
        <ele>2405.6000976562</ele>
        <time>2012-05-17T08:30:53.000Z</time>
      </trkpt>
      <trkpt lat="45.24391" lon="6.15001">
        <ele>2407</ele>
        <time>2012-05-17T08:31:01.000Z</time>
      </trkpt>
      <trkpt lat="45.24394" lon="6.14993">
        <ele>2408.3999023438</ele>
        <time>2012-05-17T08:31:10.000Z</time>
      </trkpt>
      <trkpt lat="45.24396" lon="6.14987">
        <ele>2409.8000488281</ele>
        <time>2012-05-17T08:31:18.000Z</time>
      </trkpt>
      <trkpt lat="45.24398" lon="6.1498">
        <ele>2411</ele>
        <time>2012-05-17T08:31:26.000Z</time>
      </trkpt>
      <trkpt lat="45.244" lon="6.14974">
        <ele>2412.3999023438</ele>
        <time>2012-05-17T08:31:34.000Z</time>
      </trkpt>
      <trkpt lat="45.24403" lon="6.14968">
        <ele>2414</ele>
        <time>2012-05-17T08:31:43.000Z</time>
      </trkpt>
      <trkpt lat="45.24405" lon="6.14965">
        <ele>2415</ele>
        <time>2012-05-17T08:31:49.000Z</time>
      </trkpt>
      <trkpt lat="45.24408" lon="6.14962">
        <ele>2416.1999511719</ele>
        <time>2012-05-17T08:31:56.000Z</time>
      </trkpt>
      <trkpt lat="45.24412" lon="6.14959">
        <ele>2417.8000488281</ele>
        <time>2012-05-17T08:32:05.000Z</time>
      </trkpt>
      <trkpt lat="45.24416" lon="6.14956">
        <ele>2419.3999023438</ele>
        <time>2012-05-17T08:32:13.000Z</time>
      </trkpt>
      <trkpt lat="45.24421" lon="6.14954">
        <ele>2421</ele>
        <time>2012-05-17T08:32:21.000Z</time>
      </trkpt>
      <trkpt lat="45.24425" lon="6.1495">
        <ele>2423</ele>
        <time>2012-05-17T08:32:31.000Z</time>
      </trkpt>
      <trkpt lat="45.24426" lon="6.14945">
        <ele>2424.3999023438</ele>
        <time>2012-05-17T08:32:38.000Z</time>
      </trkpt>
      <trkpt lat="45.24426" lon="6.1494">
        <ele>2425.8000488281</ele>
        <time>2012-05-17T08:32:45.000Z</time>
      </trkpt>
      <trkpt lat="45.24426" lon="6.14934">
        <ele>2427.1999511719</ele>
        <time>2012-05-17T08:32:52.000Z</time>
      </trkpt>
      <trkpt lat="45.24427" lon="6.14929">
        <ele>2428.3999023438</ele>
        <time>2012-05-17T08:32:59.000Z</time>
      </trkpt>
      <trkpt lat="45.24428" lon="6.14924">
        <ele>2429.3999023438</ele>
        <time>2012-05-17T08:33:05.000Z</time>
      </trkpt>
      <trkpt lat="45.24431" lon="6.14919">
        <ele>2431.1999511719</ele>
        <time>2012-05-17T08:33:13.000Z</time>
      </trkpt>
      <trkpt lat="45.24433" lon="6.14913">
        <ele>2432.8000488281</ele>
        <time>2012-05-17T08:33:21.000Z</time>
      </trkpt>
      <trkpt lat="45.24436" lon="6.14908">
        <ele>2434</ele>
        <time>2012-05-17T08:33:29.000Z</time>
      </trkpt>
      <trkpt lat="45.24441" lon="6.14903">
        <ele>2435.1999511719</ele>
        <time>2012-05-17T08:33:38.000Z</time>
      </trkpt>
      <trkpt lat="45.24446" lon="6.14897">
        <ele>2436.8000488281</ele>
        <time>2012-05-17T08:33:47.000Z</time>
      </trkpt>
      <trkpt lat="45.24448" lon="6.14895">
        <ele>2437.1999511719</ele>
        <time>2012-05-17T08:33:50.000Z</time>
      </trkpt>
      <trkpt lat="45.24454" lon="6.14889">
        <ele>2438.3999023438</ele>
        <time>2012-05-17T08:33:59.000Z</time>
      </trkpt>
      <trkpt lat="45.24459" lon="6.14883">
        <ele>2439.6000976562</ele>
        <time>2012-05-17T08:34:08.000Z</time>
      </trkpt>
      <trkpt lat="45.24464" lon="6.14879">
        <ele>2441.1999511719</ele>
        <time>2012-05-17T08:34:17.000Z</time>
      </trkpt>
      <trkpt lat="45.24467" lon="6.14875">
        <ele>2442.6000976562</ele>
        <time>2012-05-17T08:34:24.000Z</time>
      </trkpt>
      <trkpt lat="45.2447" lon="6.14871">
        <ele>2443.6000976562</ele>
        <time>2012-05-17T08:34:31.000Z</time>
      </trkpt>
      <trkpt lat="45.24472" lon="6.14868">
        <ele>2444.6000976562</ele>
        <time>2012-05-17T08:34:37.000Z</time>
      </trkpt>
      <trkpt lat="45.24475" lon="6.14863">
        <ele>2446</ele>
        <time>2012-05-17T08:34:45.000Z</time>
      </trkpt>
      <trkpt lat="45.24477" lon="6.14859">
        <ele>2447.3999023438</ele>
        <time>2012-05-17T08:34:51.000Z</time>
      </trkpt>
      <trkpt lat="45.24475" lon="6.14855">
        <ele>2448.3999023438</ele>
        <time>2012-05-17T08:34:57.000Z</time>
      </trkpt>
      <trkpt lat="45.24474" lon="6.14848">
        <ele>2450.1999511719</ele>
        <time>2012-05-17T08:35:06.000Z</time>
      </trkpt>
      <trkpt lat="45.24473" lon="6.14844">
        <ele>2451.1999511719</ele>
        <time>2012-05-17T08:35:12.000Z</time>
      </trkpt>
      <trkpt lat="45.24472" lon="6.1484">
        <ele>2452</ele>
        <time>2012-05-17T08:35:18.000Z</time>
      </trkpt>
      <trkpt lat="45.24472" lon="6.14834">
        <ele>2453.6000976562</ele>
        <time>2012-05-17T08:35:26.000Z</time>
      </trkpt>
      <trkpt lat="45.24471" lon="6.14827">
        <ele>2455.3999023438</ele>
        <time>2012-05-17T08:35:36.000Z</time>
      </trkpt>
      <trkpt lat="45.24471" lon="6.14823">
        <ele>2456.3999023438</ele>
        <time>2012-05-17T08:35:42.000Z</time>
      </trkpt>
      <trkpt lat="45.2447" lon="6.14818">
        <ele>2457.6000976562</ele>
        <time>2012-05-17T08:35:49.000Z</time>
      </trkpt>
      <trkpt lat="45.24469" lon="6.14813">
        <ele>2458.6000976562</ele>
        <time>2012-05-17T08:35:56.000Z</time>
      </trkpt>
      <trkpt lat="45.24469" lon="6.14807">
        <ele>2459.8000488281</ele>
        <time>2012-05-17T08:36:03.000Z</time>
      </trkpt>
      <trkpt lat="45.24469" lon="6.14802">
        <ele>2461.1999511719</ele>
        <time>2012-05-17T08:36:11.000Z</time>
      </trkpt>
      <trkpt lat="45.24469" lon="6.14797">
        <ele>2462.1999511719</ele>
        <time>2012-05-17T08:36:19.000Z</time>
      </trkpt>
      <trkpt lat="45.24469" lon="6.1479">
        <ele>2463.3999023438</ele>
        <time>2012-05-17T08:37:03.000Z</time>
      </trkpt>
      <trkpt lat="45.2447" lon="6.14785">
        <ele>2465</ele>
        <time>2012-05-17T08:37:10.000Z</time>
      </trkpt>
      <trkpt lat="45.24471" lon="6.14778">
        <ele>2466.6000976562</ele>
        <time>2012-05-17T08:37:18.000Z</time>
      </trkpt>
      <trkpt lat="45.24474" lon="6.14772">
        <ele>2468.1999511719</ele>
        <time>2012-05-17T08:37:26.000Z</time>
      </trkpt>
      <trkpt lat="45.24479" lon="6.14768">
        <ele>2469.8000488281</ele>
        <time>2012-05-17T08:37:35.000Z</time>
      </trkpt>
      <trkpt lat="45.24479" lon="6.14767">
        <ele>2470.1999511719</ele>
        <time>2012-05-17T08:37:37.000Z</time>
      </trkpt>
      <trkpt lat="45.24482" lon="6.14763">
        <ele>2471</ele>
        <time>2012-05-17T08:37:44.000Z</time>
      </trkpt>
      <trkpt lat="45.24484" lon="6.14757">
        <ele>2472.8000488281</ele>
        <time>2012-05-17T08:37:52.000Z</time>
      </trkpt>
      <trkpt lat="45.24485" lon="6.14752">
        <ele>2474</ele>
        <time>2012-05-17T08:37:59.000Z</time>
      </trkpt>
      <trkpt lat="45.24487" lon="6.14746">
        <ele>2475.6000976562</ele>
        <time>2012-05-17T08:38:07.000Z</time>
      </trkpt>
      <trkpt lat="45.24487" lon="6.14738">
        <ele>2477</ele>
        <time>2012-05-17T08:38:15.000Z</time>
      </trkpt>
      <trkpt lat="45.24485" lon="6.14729">
        <ele>2478.6000976562</ele>
        <time>2012-05-17T08:38:25.000Z</time>
      </trkpt>
      <trkpt lat="45.24486" lon="6.14723">
        <ele>2479.6000976562</ele>
        <time>2012-05-17T08:38:32.000Z</time>
      </trkpt>
      <trkpt lat="45.24486" lon="6.14718">
        <ele>2480.8000488281</ele>
        <time>2012-05-17T08:38:39.000Z</time>
      </trkpt>
      <trkpt lat="45.24485" lon="6.14713">
        <ele>2481.6000976562</ele>
        <time>2012-05-17T08:39:00.000Z</time>
      </trkpt>
      <trkpt lat="45.24484" lon="6.14706">
        <ele>2483</ele>
        <time>2012-05-17T08:39:08.000Z</time>
      </trkpt>
      <trkpt lat="45.24483" lon="6.14699">
        <ele>2484.3999023438</ele>
        <time>2012-05-17T08:39:16.000Z</time>
      </trkpt>
      <trkpt lat="45.24482" lon="6.14692">
        <ele>2485.8000488281</ele>
        <time>2012-05-17T08:39:24.000Z</time>
      </trkpt>
      <trkpt lat="45.24485" lon="6.1469">
        <ele>2487.1999511719</ele>
        <time>2012-05-17T08:39:30.000Z</time>
      </trkpt>
      <trkpt lat="45.2449" lon="6.1469">
        <ele>2488.3999023438</ele>
        <time>2012-05-17T08:39:37.000Z</time>
      </trkpt>
      <trkpt lat="45.24496" lon="6.14693">
        <ele>2490</ele>
        <time>2012-05-17T08:39:46.000Z</time>
      </trkpt>
      <trkpt lat="45.24502" lon="6.14693">
        <ele>2491.6000976562</ele>
        <time>2012-05-17T08:39:55.000Z</time>
      </trkpt>
      <trkpt lat="45.24506" lon="6.14694">
        <ele>2493</ele>
        <time>2012-05-17T08:40:02.000Z</time>
      </trkpt>
      <trkpt lat="45.2451" lon="6.14693">
        <ele>2494.3999023438</ele>
        <time>2012-05-17T08:40:10.000Z</time>
      </trkpt>
      <trkpt lat="45.24512" lon="6.14688">
        <ele>2495.8000488281</ele>
        <time>2012-05-17T08:40:16.000Z</time>
      </trkpt>
      <trkpt lat="45.24512" lon="6.14682">
        <ele>2497</ele>
        <time>2012-05-17T08:40:23.000Z</time>
      </trkpt>
      <trkpt lat="45.24514" lon="6.14675">
        <ele>2498.8000488281</ele>
        <time>2012-05-17T08:40:32.000Z</time>
      </trkpt>
      <trkpt lat="45.24517" lon="6.14669">
        <ele>2500.3999023438</ele>
        <time>2012-05-17T08:40:40.000Z</time>
      </trkpt>
      <trkpt lat="45.24521" lon="6.14665">
        <ele>2501.8000488281</ele>
        <time>2012-05-17T08:40:49.000Z</time>
      </trkpt>
      <trkpt lat="45.24523" lon="6.14668">
        <ele>2502.8000488281</ele>
        <time>2012-05-17T08:40:54.000Z</time>
      </trkpt>
      <trkpt lat="45.24527" lon="6.14676">
        <ele>2504.1999511719</ele>
        <time>2012-05-17T08:41:03.000Z</time>
      </trkpt>
      <trkpt lat="45.24529" lon="6.14681">
        <ele>2505.6000976562</ele>
        <time>2012-05-17T08:41:11.000Z</time>
      </trkpt>
      <trkpt lat="45.24532" lon="6.14684">
        <ele>2506.8000488281</ele>
        <time>2012-05-17T08:41:17.000Z</time>
      </trkpt>
      <trkpt lat="45.24533" lon="6.14682">
        <ele>2507.3999023438</ele>
        <time>2012-05-17T08:41:21.000Z</time>
      </trkpt>
      <trkpt lat="45.24536" lon="6.14675">
        <ele>2508.6000976562</ele>
        <time>2012-05-17T08:41:29.000Z</time>
      </trkpt>
      <trkpt lat="45.24539" lon="6.14669">
        <ele>2510.3999023438</ele>
        <time>2012-05-17T08:41:38.000Z</time>
      </trkpt>
      <trkpt lat="45.24541" lon="6.14665">
        <ele>2511.8000488281</ele>
        <time>2012-05-17T08:41:45.000Z</time>
      </trkpt>
      <trkpt lat="45.24542" lon="6.14663">
        <ele>2512.3999023438</ele>
        <time>2012-05-17T08:41:49.000Z</time>
      </trkpt>
      <trkpt lat="45.24545" lon="6.14667">
        <ele>2513.1999511719</ele>
        <time>2012-05-17T08:41:56.000Z</time>
      </trkpt>
      <trkpt lat="45.24549" lon="6.14673">
        <ele>2514.6000976562</ele>
        <time>2012-05-17T08:42:05.000Z</time>
      </trkpt>
      <trkpt lat="45.24554" lon="6.14678">
        <ele>2515.8000488281</ele>
        <time>2012-05-17T08:42:14.000Z</time>
      </trkpt>
      <trkpt lat="45.24559" lon="6.14682">
        <ele>2517</ele>
        <time>2012-05-17T08:42:23.000Z</time>
      </trkpt>
      <trkpt lat="45.24563" lon="6.14685">
        <ele>2518</ele>
        <time>2012-05-17T08:42:30.000Z</time>
      </trkpt>
      <trkpt lat="45.24568" lon="6.14687">
        <ele>2519.3999023438</ele>
        <time>2012-05-17T08:42:39.000Z</time>
      </trkpt>
      <trkpt lat="45.24573" lon="6.14688">
        <ele>2520.8000488281</ele>
        <time>2012-05-17T08:42:47.000Z</time>
      </trkpt>
      <trkpt lat="45.24578" lon="6.14688">
        <ele>2522.6000976562</ele>
        <time>2012-05-17T08:42:56.000Z</time>
      </trkpt>
      <trkpt lat="45.24581" lon="6.14687">
        <ele>2523.6000976562</ele>
        <time>2012-05-17T08:43:02.000Z</time>
      </trkpt>
      <trkpt lat="45.24582" lon="6.14686">
        <ele>2524</ele>
        <time>2012-05-17T08:43:05.000Z</time>
      </trkpt>
      <trkpt lat="45.24584" lon="6.14682">
        <ele>2525.3999023438</ele>
        <time>2012-05-17T08:43:12.000Z</time>
      </trkpt>
      <trkpt lat="45.24587" lon="6.14677">
        <ele>2527.1999511719</ele>
        <time>2012-05-17T08:43:20.000Z</time>
      </trkpt>
      <trkpt lat="45.2459" lon="6.14673">
        <ele>2528.3999023438</ele>
        <time>2012-05-17T08:43:27.000Z</time>
      </trkpt>
      <trkpt lat="45.24592" lon="6.14668">
        <ele>2530</ele>
        <time>2012-05-17T08:43:35.000Z</time>
      </trkpt>
      <trkpt lat="45.24594" lon="6.14664">
        <ele>2531.6000976562</ele>
        <time>2012-05-17T08:43:41.000Z</time>
      </trkpt>
      <trkpt lat="45.24596" lon="6.14661">
        <ele>2532.8000488281</ele>
        <time>2012-05-17T08:43:47.000Z</time>
      </trkpt>
      <trkpt lat="45.24599" lon="6.14657">
        <ele>2534.1999511719</ele>
        <time>2012-05-17T08:43:54.000Z</time>
      </trkpt>
      <trkpt lat="45.24604" lon="6.14652">
        <ele>2536.1999511719</ele>
        <time>2012-05-17T08:44:04.000Z</time>
      </trkpt>
      <trkpt lat="45.24608" lon="6.14649">
        <ele>2537.3999023438</ele>
        <time>2012-05-17T08:44:11.000Z</time>
      </trkpt>
      <trkpt lat="45.2461" lon="6.14647">
        <ele>2538</ele>
        <time>2012-05-17T08:44:16.000Z</time>
      </trkpt>
      <trkpt lat="45.24612" lon="6.14646">
        <ele>2538.3999023438</ele>
        <time>2012-05-17T08:44:24.000Z</time>
      </trkpt>
      <trkpt lat="45.24615" lon="6.14644">
        <ele>2538.8000488281</ele>
        <time>2012-05-17T08:44:30.000Z</time>
      </trkpt>
      <trkpt lat="45.24621" lon="6.14638">
        <ele>2540.1999511719</ele>
        <time>2012-05-17T08:44:39.000Z</time>
      </trkpt>
      <trkpt lat="45.24625" lon="6.14633">
        <ele>2541.3999023438</ele>
        <time>2012-05-17T08:44:47.000Z</time>
      </trkpt>
      <trkpt lat="45.24629" lon="6.14626">
        <ele>2542.8000488281</ele>
        <time>2012-05-17T08:44:55.000Z</time>
      </trkpt>
      <trkpt lat="45.24633" lon="6.1462">
        <ele>2543.6000976562</ele>
        <time>2012-05-17T08:45:03.000Z</time>
      </trkpt>
      <trkpt lat="45.24636" lon="6.14615">
        <ele>2544.3999023438</ele>
        <time>2012-05-17T08:45:10.000Z</time>
      </trkpt>
      <trkpt lat="45.24638" lon="6.1461">
        <ele>2545.1999511719</ele>
        <time>2012-05-17T08:45:16.000Z</time>
      </trkpt>
      <trkpt lat="45.24642" lon="6.14601">
        <ele>2546.3999023438</ele>
        <time>2012-05-17T08:45:26.000Z</time>
      </trkpt>
      <trkpt lat="45.24645" lon="6.14592">
        <ele>2547.6000976562</ele>
        <time>2012-05-17T08:45:35.000Z</time>
      </trkpt>
      <trkpt lat="45.24647" lon="6.14585">
        <ele>2549.3999023438</ele>
        <time>2012-05-17T08:45:44.000Z</time>
      </trkpt>
      <trkpt lat="45.24649" lon="6.14577">
        <ele>2550.6000976562</ele>
        <time>2012-05-17T08:45:52.000Z</time>
      </trkpt>
      <trkpt lat="45.2465" lon="6.1457">
        <ele>2552</ele>
        <time>2012-05-17T08:46:00.000Z</time>
      </trkpt>
      <trkpt lat="45.2465" lon="6.14564">
        <ele>2553.1999511719</ele>
        <time>2012-05-17T08:46:07.000Z</time>
      </trkpt>
      <trkpt lat="45.24652" lon="6.14558">
        <ele>2554.6000976562</ele>
        <time>2012-05-17T08:46:15.000Z</time>
      </trkpt>
      <trkpt lat="45.24653" lon="6.14551">
        <ele>2556.1999511719</ele>
        <time>2012-05-17T08:46:24.000Z</time>
      </trkpt>
      <trkpt lat="45.24654" lon="6.14546">
        <ele>2557</ele>
        <time>2012-05-17T08:46:30.000Z</time>
      </trkpt>
      <trkpt lat="45.24655" lon="6.1454">
        <ele>2558.3999023438</ele>
        <time>2012-05-17T08:46:38.000Z</time>
      </trkpt>
      <trkpt lat="45.24655" lon="6.14532">
        <ele>2560.1999511719</ele>
        <time>2012-05-17T08:46:48.000Z</time>
      </trkpt>
      <trkpt lat="45.24655" lon="6.14526">
        <ele>2561.8000488281</ele>
        <time>2012-05-17T08:46:56.000Z</time>
      </trkpt>
      <trkpt lat="45.24655" lon="6.14521">
        <ele>2563</ele>
        <time>2012-05-17T08:47:03.000Z</time>
      </trkpt>
      <trkpt lat="45.24654" lon="6.14514">
        <ele>2565</ele>
        <time>2012-05-17T08:47:12.000Z</time>
      </trkpt>
      <trkpt lat="45.24654" lon="6.1451">
        <ele>2566</ele>
        <time>2012-05-17T08:47:17.000Z</time>
      </trkpt>
      <trkpt lat="45.24654" lon="6.14502">
        <ele>2568</ele>
        <time>2012-05-17T08:47:27.000Z</time>
      </trkpt>
      <trkpt lat="45.24653" lon="6.14496">
        <ele>2569.3999023438</ele>
        <time>2012-05-17T08:47:35.000Z</time>
      </trkpt>
      <trkpt lat="45.24652" lon="6.14491">
        <ele>2570.6000976562</ele>
        <time>2012-05-17T08:47:42.000Z</time>
      </trkpt>
      <trkpt lat="45.2465" lon="6.14487">
        <ele>2572</ele>
        <time>2012-05-17T08:47:49.000Z</time>
      </trkpt>
      <trkpt lat="45.24648" lon="6.14487">
        <ele>2572.8000488281</ele>
        <time>2012-05-17T08:47:53.000Z</time>
      </trkpt>
      <trkpt lat="45.24626" lon="6.14508">
        <ele>2578.1999511719</ele>
        <time>2012-05-17T08:48:21.000Z</time>
      </trkpt>
      <trkpt lat="45.24619" lon="6.14514">
        <ele>2579.3999023438</ele>
        <time>2012-05-17T08:48:27.000Z</time>
      </trkpt>
      <trkpt lat="45.24614" lon="6.14494">
        <ele>2584.1999511719</ele>
        <time>2012-05-17T08:48:51.000Z</time>
      </trkpt>
      <trkpt lat="45.24614" lon="6.14488">
        <ele>2585.3999023438</ele>
        <time>2012-05-17T08:48:56.000Z</time>
      </trkpt>
      <trkpt lat="45.24609" lon="6.14489">
        <ele>2586.6000976562</ele>
        <time>2012-05-17T08:49:03.000Z</time>
      </trkpt>
      <trkpt lat="45.24606" lon="6.1449">
        <ele>2587.1999511719</ele>
        <time>2012-05-17T08:49:06.000Z</time>
      </trkpt>
      <trkpt lat="45.24599" lon="6.14498">
        <ele>2588.8000488281</ele>
        <time>2012-05-17T08:49:13.000Z</time>
      </trkpt>
      <trkpt lat="45.24599" lon="6.14498">
        <ele>2589.3999023438</ele>
        <time>2012-05-17T08:49:19.000Z</time>
      </trkpt>
      <trkpt lat="45.246" lon="6.14497">
        <ele>2589.8000488281</ele>
        <time>2012-05-17T08:49:20.000Z</time>
      </trkpt>
      <trkpt lat="45.24603" lon="6.14495">
        <ele>2591</ele>
        <time>2012-05-17T08:49:26.000Z</time>
      </trkpt>
      <trkpt lat="45.24604" lon="6.14496">
        <ele>2591.8000488281</ele>
        <time>2012-05-17T08:49:31.000Z</time>
      </trkpt>
      <trkpt lat="45.24605" lon="6.14499">
        <ele>2593.1999511719</ele>
        <time>2012-05-17T08:49:38.000Z</time>
      </trkpt>
      <trkpt lat="45.24607" lon="6.14504">
        <ele>2594.6000976562</ele>
        <time>2012-05-17T08:49:45.000Z</time>
      </trkpt>
      <trkpt lat="45.24613" lon="6.14499">
        <ele>2595.8000488281</ele>
        <time>2012-05-17T08:49:51.000Z</time>
      </trkpt>
      <trkpt lat="45.24623" lon="6.14489">
        <ele>2597.8000488281</ele>
        <time>2012-05-17T08:50:00.000Z</time>
      </trkpt>
      <trkpt lat="45.24625" lon="6.14493">
        <ele>2598.8000488281</ele>
        <time>2012-05-17T08:50:06.000Z</time>
      </trkpt>
      <trkpt lat="45.24632" lon="6.14484">
        <ele>2599.6000976562</ele>
        <time>2012-05-17T08:50:11.000Z</time>
      </trkpt>
      <trkpt lat="45.24637" lon="6.14486">
        <ele>2601</ele>
        <time>2012-05-17T08:50:18.000Z</time>
      </trkpt>
      <trkpt lat="45.24643" lon="6.14484">
        <ele>2602.6000976562</ele>
        <time>2012-05-17T08:50:26.000Z</time>
      </trkpt>
      <trkpt lat="45.24647" lon="6.14485">
        <ele>2603.8000488281</ele>
        <time>2012-05-17T08:50:33.000Z</time>
      </trkpt>
      <trkpt lat="45.24647" lon="6.14491">
        <ele>2604.6000976562</ele>
        <time>2012-05-17T08:50:39.000Z</time>
      </trkpt>
      <trkpt lat="45.24648" lon="6.14495">
        <ele>2605.3999023438</ele>
        <time>2012-05-17T08:50:44.000Z</time>
      </trkpt>
      <trkpt lat="45.24648" lon="6.14489">
        <ele>2606.1999511719</ele>
        <time>2012-05-17T08:50:51.000Z</time>
      </trkpt>
      <trkpt lat="45.24648" lon="6.14488">
        <ele>2606.1999511719</ele>
        <time>2012-05-17T08:50:52.000Z</time>
      </trkpt>
      <trkpt lat="45.24648" lon="6.14478">
        <ele>2607.1999511719</ele>
        <time>2012-05-17T08:50:58.000Z</time>
      </trkpt>
      <trkpt lat="45.24647" lon="6.14469">
        <ele>2608.6000976562</ele>
        <time>2012-05-17T08:51:05.000Z</time>
      </trkpt>
      <trkpt lat="45.24646" lon="6.14466">
        <ele>2610</ele>
        <time>2012-05-17T08:51:12.000Z</time>
      </trkpt>
      <trkpt lat="45.24645" lon="6.14462">
        <ele>2611.3999023438</ele>
        <time>2012-05-17T08:51:18.000Z</time>
      </trkpt>
      <trkpt lat="45.24647" lon="6.14453">
        <ele>2613</ele>
        <time>2012-05-17T08:51:25.000Z</time>
      </trkpt>
      <trkpt lat="45.24655" lon="6.14447">
        <ele>2614.6000976562</ele>
        <time>2012-05-17T08:51:37.000Z</time>
      </trkpt>
      <trkpt lat="45.24659" lon="6.14444">
        <ele>2615.8000488281</ele>
        <time>2012-05-17T08:51:43.000Z</time>
      </trkpt>
      <trkpt lat="45.24662" lon="6.14445">
        <ele>2617</ele>
        <time>2012-05-17T08:51:50.000Z</time>
      </trkpt>
      <trkpt lat="45.24664" lon="6.14441">
        <ele>2618</ele>
        <time>2012-05-17T08:51:54.000Z</time>
      </trkpt>
      <trkpt lat="45.24669" lon="6.14426">
        <ele>2619</ele>
        <time>2012-05-17T08:52:05.000Z</time>
      </trkpt>
      <trkpt lat="45.2467" lon="6.1442">
        <ele>2619.6000976562</ele>
        <time>2012-05-17T08:52:09.000Z</time>
      </trkpt>
      <trkpt lat="45.2467" lon="6.14413">
        <ele>2620.3999023438</ele>
        <time>2012-05-17T08:52:14.000Z</time>
      </trkpt>
      <trkpt lat="45.24668" lon="6.14405">
        <ele>2621.8000488281</ele>
        <time>2012-05-17T08:52:21.000Z</time>
      </trkpt>
      <trkpt lat="45.24669" lon="6.14393">
        <ele>2623</ele>
        <time>2012-05-17T08:52:27.000Z</time>
      </trkpt>
      <trkpt lat="45.24666" lon="6.14392">
        <ele>2624.6000976562</ele>
        <time>2012-05-17T08:52:34.000Z</time>
      </trkpt>
      <trkpt lat="45.24663" lon="6.14395">
        <ele>2625.1999511719</ele>
        <time>2012-05-17T08:52:39.000Z</time>
      </trkpt>
      <trkpt lat="45.24666" lon="6.14395">
        <ele>2626.3999023438</ele>
        <time>2012-05-17T08:52:52.000Z</time>
      </trkpt>
      <trkpt lat="45.2467" lon="6.14394">
        <ele>2627.1999511719</ele>
        <time>2012-05-17T08:52:58.000Z</time>
      </trkpt>
      <trkpt lat="45.24674" lon="6.1439">
        <ele>2628.3999023438</ele>
        <time>2012-05-17T08:53:05.000Z</time>
      </trkpt>
      <trkpt lat="45.24674" lon="6.1439">
        <ele>2628.3999023438</ele>
        <time>2012-05-17T08:53:06.000Z</time>
      </trkpt>
      <trkpt lat="45.24665" lon="6.14383">
        <ele>2630.8000488281</ele>
        <time>2012-05-17T08:53:22.000Z</time>
      </trkpt>
      <trkpt lat="45.24665" lon="6.14383">
        <ele>2631.1999511719</ele>
        <time>2012-05-17T08:53:23.000Z</time>
      </trkpt>
      <trkpt lat="45.24669" lon="6.14382">
        <ele>2632.8000488281</ele>
        <time>2012-05-17T08:53:41.000Z</time>
      </trkpt>
      <trkpt lat="45.24672" lon="6.14379">
        <ele>2633.6000976562</ele>
        <time>2012-05-17T08:53:45.000Z</time>
      </trkpt>
      <trkpt lat="45.24672" lon="6.14379">
        <ele>2634</ele>
        <time>2012-05-17T08:53:49.000Z</time>
      </trkpt>
      <trkpt lat="45.24674" lon="6.14369">
        <ele>2634.8000488281</ele>
        <time>2012-05-17T08:54:00.000Z</time>
      </trkpt>
      <trkpt lat="45.24673" lon="6.14368">
        <ele>2635</ele>
        <time>2012-05-17T08:54:01.000Z</time>
      </trkpt>
      <trkpt lat="45.24671" lon="6.14365">
        <ele>2636</ele>
        <time>2012-05-17T08:54:09.000Z</time>
      </trkpt>
      <trkpt lat="45.24672" lon="6.14377">
        <ele>2636.3999023438</ele>
        <time>2012-05-17T08:54:19.000Z</time>
      </trkpt>
      <trkpt lat="45.24677" lon="6.14363">
        <ele>2639.1999511719</ele>
        <time>2012-05-17T08:54:58.000Z</time>
      </trkpt>
      <trkpt lat="45.24676" lon="6.14372">
        <ele>2639.1999511719</ele>
        <time>2012-05-17T08:55:09.000Z</time>
      </trkpt>
      <trkpt lat="45.24677" lon="6.14371">
        <ele>2639</ele>
        <time>2012-05-17T08:55:12.000Z</time>
      </trkpt>
      <trkpt lat="45.24691" lon="6.14359">
        <ele>2639.1999511719</ele>
        <time>2012-05-17T08:55:45.000Z</time>
      </trkpt>
      <trkpt lat="45.24699" lon="6.14359">
        <ele>2639.8000488281</ele>
        <time>2012-05-17T08:56:13.000Z</time>
      </trkpt>
      <trkpt lat="45.24699" lon="6.14357">
        <ele>2640.1999511719</ele>
        <time>2012-05-17T08:56:19.000Z</time>
      </trkpt>
      <trkpt lat="45.24699" lon="6.14356">
        <ele>2640.6000976562</ele>
        <time>2012-05-17T08:56:30.000Z</time>
      </trkpt>
      <trkpt lat="45.24705" lon="6.14357">
        <ele>2640.6000976562</ele>
        <time>2012-05-17T08:56:43.000Z</time>
      </trkpt>
      <trkpt lat="45.24695" lon="6.14365">
        <ele>2640.3999023438</ele>
        <time>2012-05-17T08:57:03.000Z</time>
      </trkpt>
      <trkpt lat="45.24693" lon="6.1437">
        <ele>2641.1999511719</ele>
        <time>2012-05-17T08:57:16.000Z</time>
      </trkpt>
      <trkpt lat="45.24706" lon="6.14355">
        <ele>2641.8000488281</ele>
        <time>2012-05-17T08:57:22.000Z</time>
      </trkpt>
      <trkpt lat="45.24699" lon="6.14362">
        <ele>2641.8000488281</ele>
        <time>2012-05-17T08:57:29.000Z</time>
      </trkpt>
      <trkpt lat="45.24696" lon="6.14362">
        <ele>2642</ele>
        <time>2012-05-17T08:57:44.000Z</time>
      </trkpt>
      <trkpt lat="45.24693" lon="6.14363">
        <ele>2642.1999511719</ele>
        <time>2012-05-17T08:57:49.000Z</time>
      </trkpt>
      <trkpt lat="45.24694" lon="6.14358">
        <ele>2642.8000488281</ele>
        <time>2012-05-17T08:57:55.000Z</time>
      </trkpt>
      <trkpt lat="45.24691" lon="6.14364">
        <ele>2643</ele>
        <time>2012-05-17T08:58:00.000Z</time>
      </trkpt>
      <trkpt lat="45.24686" lon="6.14366">
        <ele>2646.3999023438</ele>
        <time>2012-05-17T08:58:18.000Z</time>
      </trkpt>
      <trkpt lat="45.2468" lon="6.1436">
        <ele>2649</ele>
        <time>2012-05-17T08:58:33.000Z</time>
      </trkpt>
      <trkpt lat="45.24684" lon="6.14356">
        <ele>2649.6000976562</ele>
        <time>2012-05-17T08:58:37.000Z</time>
      </trkpt>
      <trkpt lat="45.24681" lon="6.14335">
        <ele>2667.3999023438</ele>
        <time>2012-05-17T09:00:59.000Z</time>
      </trkpt>
      <trkpt lat="45.24681" lon="6.14334">
        <ele>2667.3999023438</ele>
        <time>2012-05-17T09:01:00.000Z</time>
      </trkpt>
      <trkpt lat="45.24676" lon="6.14318">
        <ele>2677.1999511719</ele>
        <time>2012-05-17T09:04:04.000Z</time>
      </trkpt>
      <trkpt lat="45.24677" lon="6.14318">
        <ele>2677.6000976562</ele>
        <time>2012-05-17T09:04:05.000Z</time>
      </trkpt>
      <trkpt lat="45.2468" lon="6.14311">
        <ele>2681.6000976562</ele>
        <time>2012-05-17T09:04:41.000Z</time>
      </trkpt>
      <trkpt lat="45.2468" lon="6.14311">
        <ele>2682</ele>
        <time>2012-05-17T09:04:43.000Z</time>
      </trkpt>
      <trkpt lat="45.24678" lon="6.14306">
        <ele>2679</ele>
        <time>2012-05-17T09:15:22.000Z</time>
      </trkpt>
      <trkpt lat="45.24676" lon="6.14299">
        <ele>2680.6000976562</ele>
        <time>2012-05-17T09:15:31.000Z</time>
      </trkpt>
      <trkpt lat="45.24676" lon="6.14299">
        <ele>2680.8000488281</ele>
        <time>2012-05-17T09:15:32.000Z</time>
      </trkpt>
      <trkpt lat="45.24673" lon="6.14294">
        <ele>2682</ele>
        <time>2012-05-17T09:15:42.000Z</time>
      </trkpt>
      <trkpt lat="45.24672" lon="6.14287">
        <ele>2683.3999023438</ele>
        <time>2012-05-17T09:15:50.000Z</time>
      </trkpt>
      <trkpt lat="45.2467" lon="6.14279">
        <ele>2685</ele>
        <time>2012-05-17T09:15:59.000Z</time>
      </trkpt>
      <trkpt lat="45.24669" lon="6.14273">
        <ele>2686</ele>
        <time>2012-05-17T09:16:06.000Z</time>
      </trkpt>
      <trkpt lat="45.24668" lon="6.14266">
        <ele>2687.3999023438</ele>
        <time>2012-05-17T09:16:14.000Z</time>
      </trkpt>
      <trkpt lat="45.24667" lon="6.14259">
        <ele>2688.8000488281</ele>
        <time>2012-05-17T09:16:22.000Z</time>
      </trkpt>
      <trkpt lat="45.24667" lon="6.14253">
        <ele>2690</ele>
        <time>2012-05-17T09:16:30.000Z</time>
      </trkpt>
      <trkpt lat="45.24668" lon="6.14246">
        <ele>2691.8000488281</ele>
        <time>2012-05-17T09:16:39.000Z</time>
      </trkpt>
      <trkpt lat="45.24669" lon="6.1424">
        <ele>2693.1999511719</ele>
        <time>2012-05-17T09:16:47.000Z</time>
      </trkpt>
      <trkpt lat="45.2467" lon="6.14233">
        <ele>2694.1999511719</ele>
        <time>2012-05-17T09:16:55.000Z</time>
      </trkpt>
      <trkpt lat="45.2467" lon="6.14228">
        <ele>2695.3999023438</ele>
        <time>2012-05-17T09:17:02.000Z</time>
      </trkpt>
      <trkpt lat="45.24669" lon="6.14225">
        <ele>2696.3999023438</ele>
        <time>2012-05-17T09:17:07.000Z</time>
      </trkpt>
      <trkpt lat="45.24668" lon="6.14221">
        <ele>2697.6000976562</ele>
        <time>2012-05-17T09:17:27.000Z</time>
      </trkpt>
      <trkpt lat="45.24668" lon="6.1422">
        <ele>2697.8000488281</ele>
        <time>2012-05-17T09:17:28.000Z</time>
      </trkpt>
      <trkpt lat="45.24666" lon="6.1421">
        <ele>2699.3999023438</ele>
        <time>2012-05-17T09:17:38.000Z</time>
      </trkpt>
      <trkpt lat="45.24664" lon="6.14201">
        <ele>2701</ele>
        <time>2012-05-17T09:17:48.000Z</time>
      </trkpt>
      <trkpt lat="45.24662" lon="6.14193">
        <ele>2702.1999511719</ele>
        <time>2012-05-17T09:17:57.000Z</time>
      </trkpt>
      <trkpt lat="45.24662" lon="6.14186">
        <ele>2703.6000976562</ele>
        <time>2012-05-17T09:18:05.000Z</time>
      </trkpt>
      <trkpt lat="45.24661" lon="6.14178">
        <ele>2705</ele>
        <time>2012-05-17T09:18:14.000Z</time>
      </trkpt>
      <trkpt lat="45.2466" lon="6.1417">
        <ele>2706.6000976562</ele>
        <time>2012-05-17T09:18:22.000Z</time>
      </trkpt>
      <trkpt lat="45.2466" lon="6.14163">
        <ele>2707.6000976562</ele>
        <time>2012-05-17T09:18:30.000Z</time>
      </trkpt>
      <trkpt lat="45.24659" lon="6.14156">
        <ele>2709</ele>
        <time>2012-05-17T09:18:38.000Z</time>
      </trkpt>
      <trkpt lat="45.24659" lon="6.14153">
        <ele>2709.3999023438</ele>
        <time>2012-05-17T09:18:43.000Z</time>
      </trkpt>
      <trkpt lat="45.24661" lon="6.14151">
        <ele>2710.3999023438</ele>
        <time>2012-05-17T09:18:59.000Z</time>
      </trkpt>
      <trkpt lat="45.24661" lon="6.14143">
        <ele>2711.8000488281</ele>
        <time>2012-05-17T09:19:07.000Z</time>
      </trkpt>
      <trkpt lat="45.2466" lon="6.14135">
        <ele>2713</ele>
        <time>2012-05-17T09:19:14.000Z</time>
      </trkpt>
      <trkpt lat="45.24659" lon="6.14127">
        <ele>2714.1999511719</ele>
        <time>2012-05-17T09:19:22.000Z</time>
      </trkpt>
      <trkpt lat="45.24658" lon="6.14119">
        <ele>2715.6000976562</ele>
        <time>2012-05-17T09:19:31.000Z</time>
      </trkpt>
      <trkpt lat="45.24658" lon="6.14115">
        <ele>2716.1999511719</ele>
        <time>2012-05-17T09:19:36.000Z</time>
      </trkpt>
      <trkpt lat="45.24656" lon="6.14103">
        <ele>2718</ele>
        <time>2012-05-17T09:19:50.000Z</time>
      </trkpt>
      <trkpt lat="45.24655" lon="6.14095">
        <ele>2719</ele>
        <time>2012-05-17T09:19:58.000Z</time>
      </trkpt>
      <trkpt lat="45.24654" lon="6.14087">
        <ele>2720.1999511719</ele>
        <time>2012-05-17T09:20:06.000Z</time>
      </trkpt>
      <trkpt lat="45.24652" lon="6.14077">
        <ele>2721.8000488281</ele>
        <time>2012-05-17T09:20:16.000Z</time>
      </trkpt>
      <trkpt lat="45.24651" lon="6.1407">
        <ele>2723</ele>
        <time>2012-05-17T09:20:24.000Z</time>
      </trkpt>
      <trkpt lat="45.24651" lon="6.14061">
        <ele>2724.1999511719</ele>
        <time>2012-05-17T09:20:33.000Z</time>
      </trkpt>
      <trkpt lat="45.24651" lon="6.14054">
        <ele>2725.6000976562</ele>
        <time>2012-05-17T09:20:41.000Z</time>
      </trkpt>
      <trkpt lat="45.24651" lon="6.14045">
        <ele>2727</ele>
        <time>2012-05-17T09:20:49.000Z</time>
      </trkpt>
      <trkpt lat="45.24652" lon="6.14037">
        <ele>2728.1999511719</ele>
        <time>2012-05-17T09:20:57.000Z</time>
      </trkpt>
      <trkpt lat="45.24653" lon="6.14029">
        <ele>2729.8000488281</ele>
        <time>2012-05-17T09:21:05.000Z</time>
      </trkpt>
      <trkpt lat="45.24654" lon="6.14023">
        <ele>2730.8000488281</ele>
        <time>2012-05-17T09:21:12.000Z</time>
      </trkpt>
      <trkpt lat="45.24655" lon="6.14014">
        <ele>2732.6000976562</ele>
        <time>2012-05-17T09:21:21.000Z</time>
      </trkpt>
      <trkpt lat="45.24656" lon="6.14006">
        <ele>2733.8000488281</ele>
        <time>2012-05-17T09:21:29.000Z</time>
      </trkpt>
      <trkpt lat="45.24657" lon="6.14">
        <ele>2735.1999511719</ele>
        <time>2012-05-17T09:21:36.000Z</time>
      </trkpt>
      <trkpt lat="45.24658" lon="6.13995">
        <ele>2736.1999511719</ele>
        <time>2012-05-17T09:21:42.000Z</time>
      </trkpt>
      <trkpt lat="45.2466" lon="6.13988">
        <ele>2737.8000488281</ele>
        <time>2012-05-17T09:21:50.000Z</time>
      </trkpt>
      <trkpt lat="45.24662" lon="6.13983">
        <ele>2739</ele>
        <time>2012-05-17T09:21:57.000Z</time>
      </trkpt>
      <trkpt lat="45.24664" lon="6.13977">
        <ele>2740.6000976562</ele>
        <time>2012-05-17T09:22:05.000Z</time>
      </trkpt>
      <trkpt lat="45.24668" lon="6.13971">
        <ele>2741.8000488281</ele>
        <time>2012-05-17T09:22:13.000Z</time>
      </trkpt>
      <trkpt lat="45.24672" lon="6.13966">
        <ele>2743</ele>
        <time>2012-05-17T09:22:21.000Z</time>
      </trkpt>
      <trkpt lat="45.24675" lon="6.13963">
        <ele>2744.3999023438</ele>
        <time>2012-05-17T09:22:28.000Z</time>
      </trkpt>
      <trkpt lat="45.2468" lon="6.13959">
        <ele>2745.3999023438</ele>
        <time>2012-05-17T09:22:36.000Z</time>
      </trkpt>
      <trkpt lat="45.24683" lon="6.13958">
        <ele>2746.6000976562</ele>
        <time>2012-05-17T09:22:42.000Z</time>
      </trkpt>
      <trkpt lat="45.24685" lon="6.13958">
        <ele>2747.1999511719</ele>
        <time>2012-05-17T09:22:46.000Z</time>
      </trkpt>
      <trkpt lat="45.24682" lon="6.13955">
        <ele>2748</ele>
        <time>2012-05-17T09:22:54.000Z</time>
      </trkpt>
      <trkpt lat="45.24678" lon="6.13952">
        <ele>2749.1999511719</ele>
        <time>2012-05-17T09:23:02.000Z</time>
      </trkpt>
      <trkpt lat="45.24676" lon="6.13952">
        <ele>2750</ele>
        <time>2012-05-17T09:23:07.000Z</time>
      </trkpt>
      <trkpt lat="45.24674" lon="6.13952">
        <ele>2750.8000488281</ele>
        <time>2012-05-17T09:23:30.000Z</time>
      </trkpt>
      <trkpt lat="45.24669" lon="6.13951">
        <ele>2752.1999511719</ele>
        <time>2012-05-17T09:23:38.000Z</time>
      </trkpt>
      <trkpt lat="45.24665" lon="6.13951">
        <ele>2753.3999023438</ele>
        <time>2012-05-17T09:23:45.000Z</time>
      </trkpt>
      <trkpt lat="45.24665" lon="6.13951">
        <ele>2753.6000976562</ele>
        <time>2012-05-17T09:23:46.000Z</time>
      </trkpt>
      <trkpt lat="45.24669" lon="6.13946">
        <ele>2755</ele>
        <time>2012-05-17T09:23:59.000Z</time>
      </trkpt>
      <trkpt lat="45.2467" lon="6.13945">
        <ele>2755.1999511719</ele>
        <time>2012-05-17T09:24:01.000Z</time>
      </trkpt>
      <trkpt lat="45.24672" lon="6.13942">
        <ele>2756.1999511719</ele>
        <time>2012-05-17T09:24:08.000Z</time>
      </trkpt>
      <trkpt lat="45.24671" lon="6.13941">
        <ele>2758.1999511719</ele>
        <time>2012-05-17T09:24:36.000Z</time>
      </trkpt>
      <trkpt lat="45.24669" lon="6.13941">
        <ele>2759</ele>
        <time>2012-05-17T09:24:42.000Z</time>
      </trkpt>
      <trkpt lat="45.24666" lon="6.13941">
        <ele>2759.8000488281</ele>
        <time>2012-05-17T09:24:48.000Z</time>
      </trkpt>
      <trkpt lat="45.24663" lon="6.13941">
        <ele>2760.8000488281</ele>
        <time>2012-05-17T09:24:54.000Z</time>
      </trkpt>
      <trkpt lat="45.24661" lon="6.13942">
        <ele>2761.6000976562</ele>
        <time>2012-05-17T09:24:58.000Z</time>
      </trkpt>
      <trkpt lat="45.24658" lon="6.13941">
        <ele>2762.3999023438</ele>
        <time>2012-05-17T09:25:18.000Z</time>
      </trkpt>
      <trkpt lat="45.24655" lon="6.13941">
        <ele>2763.6000976562</ele>
        <time>2012-05-17T09:25:24.000Z</time>
      </trkpt>
      <trkpt lat="45.24655" lon="6.13941">
        <ele>2764</ele>
        <time>2012-05-17T09:25:26.000Z</time>
      </trkpt>
      <trkpt lat="45.24658" lon="6.13936">
        <ele>2765.3999023438</ele>
        <time>2012-05-17T09:25:45.000Z</time>
      </trkpt>
      <trkpt lat="45.24659" lon="6.13935">
        <ele>2765.6000976562</ele>
        <time>2012-05-17T09:25:48.000Z</time>
      </trkpt>
      <trkpt lat="45.24663" lon="6.1393">
        <ele>2766.6000976562</ele>
        <time>2012-05-17T09:25:58.000Z</time>
      </trkpt>
      <trkpt lat="45.24665" lon="6.13928">
        <ele>2767.1999511719</ele>
        <time>2012-05-17T09:26:03.000Z</time>
      </trkpt>
      <trkpt lat="45.24667" lon="6.13927">
        <ele>2767.3999023438</ele>
        <time>2012-05-17T09:26:07.000Z</time>
      </trkpt>
      <trkpt lat="45.24666" lon="6.13924">
        <ele>2769</ele>
        <time>2012-05-17T09:26:36.000Z</time>
      </trkpt>
      <trkpt lat="45.24663" lon="6.13924">
        <ele>2770</ele>
        <time>2012-05-17T09:26:43.000Z</time>
      </trkpt>
      <trkpt lat="45.24662" lon="6.13924">
        <ele>2770.1999511719</ele>
        <time>2012-05-17T09:26:46.000Z</time>
      </trkpt>
      <trkpt lat="45.24664" lon="6.13922">
        <ele>2771</ele>
        <time>2012-05-17T09:26:58.000Z</time>
      </trkpt>
      <trkpt lat="45.24667" lon="6.1392">
        <ele>2771.8000488281</ele>
        <time>2012-05-17T09:27:04.000Z</time>
      </trkpt>
      <trkpt lat="45.24671" lon="6.13918">
        <ele>2773.1999511719</ele>
        <time>2012-05-17T09:27:13.000Z</time>
      </trkpt>
      <trkpt lat="45.24674" lon="6.13916">
        <ele>2774</ele>
        <time>2012-05-17T09:27:18.000Z</time>
      </trkpt>
      <trkpt lat="45.24675" lon="6.13915">
        <ele>2774.6000976562</ele>
        <time>2012-05-17T09:27:22.000Z</time>
      </trkpt>
      <trkpt lat="45.24677" lon="6.13915">
        <ele>2775.1999511719</ele>
        <time>2012-05-17T09:27:27.000Z</time>
      </trkpt>
      <trkpt lat="45.24677" lon="6.13914">
        <ele>2775.3999023438</ele>
        <time>2012-05-17T09:27:28.000Z</time>
      </trkpt>
      <trkpt lat="45.24678" lon="6.13912">
        <ele>2778</ele>
        <time>2012-05-17T09:28:14.000Z</time>
      </trkpt>
      <trkpt lat="45.24675" lon="6.13912">
        <ele>2779.3999023438</ele>
        <time>2012-05-17T09:28:23.000Z</time>
      </trkpt>
      <trkpt lat="45.24677" lon="6.13914">
        <ele>2780.8000488281</ele>
        <time>2012-05-17T09:28:49.000Z</time>
      </trkpt>
      <trkpt lat="45.24679" lon="6.13911">
        <ele>2781.3999023438</ele>
        <time>2012-05-17T09:28:54.000Z</time>
      </trkpt>
      <trkpt lat="45.24682" lon="6.13909">
        <ele>2782</ele>
        <time>2012-05-17T09:28:59.000Z</time>
      </trkpt>
      <trkpt lat="45.24684" lon="6.13907">
        <ele>2783</ele>
        <time>2012-05-17T09:29:04.000Z</time>
      </trkpt>
      <trkpt lat="45.24686" lon="6.13906">
        <ele>2784</ele>
        <time>2012-05-17T09:29:09.000Z</time>
      </trkpt>
      <trkpt lat="45.24684" lon="6.13903">
        <ele>2785.3999023438</ele>
        <time>2012-05-17T09:29:28.000Z</time>
      </trkpt>
      <trkpt lat="45.24683" lon="6.13903">
        <ele>2785.8000488281</ele>
        <time>2012-05-17T09:29:30.000Z</time>
      </trkpt>
      <trkpt lat="45.24687" lon="6.13898">
        <ele>2787.8000488281</ele>
        <time>2012-05-17T09:31:05.000Z</time>
      </trkpt>
      <trkpt lat="45.24687" lon="6.13898">
        <ele>2787.6000976562</ele>
        <time>2012-05-17T09:31:06.000Z</time>
      </trkpt>
      <trkpt lat="45.24688" lon="6.13898">
        <ele>2787</ele>
        <time>2012-05-17T09:31:45.000Z</time>
      </trkpt>
      <trkpt lat="45.24688" lon="6.13889">
        <ele>2785</ele>
        <time>2012-05-17T09:41:14.000Z</time>
      </trkpt>
      <trkpt lat="45.24689" lon="6.13887">
        <ele>2783.1999511719</ele>
        <time>2012-05-17T09:41:19.000Z</time>
      </trkpt>
      <trkpt lat="45.2469" lon="6.13884">
        <ele>2780.8000488281</ele>
        <time>2012-05-17T09:41:25.000Z</time>
      </trkpt>
      <trkpt lat="45.2469" lon="6.1388">
        <ele>2779.3999023438</ele>
        <time>2012-05-17T09:41:31.000Z</time>
      </trkpt>
      <trkpt lat="45.24694" lon="6.13872">
        <ele>2773</ele>
        <time>2012-05-17T09:41:54.000Z</time>
      </trkpt>
      <trkpt lat="45.24694" lon="6.13868">
        <ele>2771.1999511719</ele>
        <time>2012-05-17T09:41:59.000Z</time>
      </trkpt>
      <trkpt lat="45.24693" lon="6.13859">
        <ele>2767.1999511719</ele>
        <time>2012-05-17T09:42:07.000Z</time>
      </trkpt>
      <trkpt lat="45.24692" lon="6.13854">
        <ele>2765.1999511719</ele>
        <time>2012-05-17T09:42:11.000Z</time>
      </trkpt>
      <trkpt lat="45.24692" lon="6.13854">
        <ele>2764.3999023438</ele>
        <time>2012-05-17T09:42:12.000Z</time>
      </trkpt>
      <trkpt lat="45.2469" lon="6.13847">
        <ele>2761.6000976562</ele>
        <time>2012-05-17T09:42:20.000Z</time>
      </trkpt>
      <trkpt lat="45.24691" lon="6.13845">
        <ele>2760.6000976562</ele>
        <time>2012-05-17T09:42:22.000Z</time>
      </trkpt>
      <trkpt lat="45.2469" lon="6.13837">
        <ele>2758</ele>
        <time>2012-05-17T09:42:26.000Z</time>
      </trkpt>
      <trkpt lat="45.24686" lon="6.13825">
        <ele>2754.6000976562</ele>
        <time>2012-05-17T09:42:31.000Z</time>
      </trkpt>
      <trkpt lat="45.24692" lon="6.13821">
        <ele>2751.3999023438</ele>
        <time>2012-05-17T09:42:34.000Z</time>
      </trkpt>
      <trkpt lat="45.24697" lon="6.13813">
        <ele>2748.8000488281</ele>
        <time>2012-05-17T09:42:36.000Z</time>
      </trkpt>
      <trkpt lat="45.24708" lon="6.13802">
        <ele>2740.6000976562</ele>
        <time>2012-05-17T09:42:41.000Z</time>
      </trkpt>
      <trkpt lat="45.24707" lon="6.13793">
        <ele>2735.1999511719</ele>
        <time>2012-05-17T09:42:44.000Z</time>
      </trkpt>
      <trkpt lat="45.24712" lon="6.13792">
        <ele>2732.1999511719</ele>
        <time>2012-05-17T09:42:48.000Z</time>
      </trkpt>
      <trkpt lat="45.24721" lon="6.13801">
        <ele>2729.3999023438</ele>
        <time>2012-05-17T09:42:52.000Z</time>
      </trkpt>
      <trkpt lat="45.24727" lon="6.13786">
        <ele>2724</ele>
        <time>2012-05-17T09:42:56.000Z</time>
      </trkpt>
      <trkpt lat="45.24722" lon="6.1376">
        <ele>2718.1999511719</ele>
        <time>2012-05-17T09:43:01.000Z</time>
      </trkpt>
      <trkpt lat="45.24716" lon="6.13755">
        <ele>2717</ele>
        <time>2012-05-17T09:43:07.000Z</time>
      </trkpt>
      <trkpt lat="45.24707" lon="6.13753">
        <ele>2716.8000488281</ele>
        <time>2012-05-17T09:43:12.000Z</time>
      </trkpt>
      <trkpt lat="45.24702" lon="6.13753">
        <ele>2716.3999023438</ele>
        <time>2012-05-17T09:43:13.000Z</time>
      </trkpt>
      <trkpt lat="45.24685" lon="6.1374">
        <ele>2713.6000976562</ele>
        <time>2012-05-17T09:43:18.000Z</time>
      </trkpt>
      <trkpt lat="45.2468" lon="6.13732">
        <ele>2712.6000976562</ele>
        <time>2012-05-17T09:43:23.000Z</time>
      </trkpt>
      <trkpt lat="45.24676" lon="6.13723">
        <ele>2711.8000488281</ele>
        <time>2012-05-17T09:43:28.000Z</time>
      </trkpt>
      <trkpt lat="45.24671" lon="6.13704">
        <ele>2710.3999023438</ele>
        <time>2012-05-17T09:43:33.000Z</time>
      </trkpt>
      <trkpt lat="45.24666" lon="6.13674">
        <ele>2708.1999511719</ele>
        <time>2012-05-17T09:43:39.000Z</time>
      </trkpt>
      <trkpt lat="45.24664" lon="6.13666">
        <ele>2707.3999023438</ele>
        <time>2012-05-17T09:43:43.000Z</time>
      </trkpt>
      <trkpt lat="45.24664" lon="6.13666">
        <ele>2707.1999511719</ele>
        <time>2012-05-17T09:43:44.000Z</time>
      </trkpt>
      <trkpt lat="45.24665" lon="6.13667">
        <ele>2706.8000488281</ele>
        <time>2012-05-17T09:45:20.000Z</time>
      </trkpt>
      <trkpt lat="45.24667" lon="6.1366">
        <ele>2707.1999511719</ele>
        <time>2012-05-17T09:46:54.000Z</time>
      </trkpt>
      <trkpt lat="45.24665" lon="6.13648">
        <ele>2706.1999511719</ele>
        <time>2012-05-17T09:46:59.000Z</time>
      </trkpt>
      <trkpt lat="45.24664" lon="6.13641">
        <ele>2705.8000488281</ele>
        <time>2012-05-17T09:47:05.000Z</time>
      </trkpt>
      <trkpt lat="45.24663" lon="6.13637">
        <ele>2705.6000976562</ele>
        <time>2012-05-17T09:47:09.000Z</time>
      </trkpt>
      <trkpt lat="45.24661" lon="6.1363">
        <ele>2705.6000976562</ele>
        <time>2012-05-17T09:47:19.000Z</time>
      </trkpt>
      <trkpt lat="45.24657" lon="6.13609">
        <ele>2704.3999023438</ele>
        <time>2012-05-17T09:47:25.000Z</time>
      </trkpt>
      <trkpt lat="45.24651" lon="6.13586">
        <ele>2702.8000488281</ele>
        <time>2012-05-17T09:47:31.000Z</time>
      </trkpt>
      <trkpt lat="45.24649" lon="6.13578">
        <ele>2702.3999023438</ele>
        <time>2012-05-17T09:47:37.000Z</time>
      </trkpt>
      <trkpt lat="45.24648" lon="6.13571">
        <ele>2702.1999511719</ele>
        <time>2012-05-17T09:47:53.000Z</time>
      </trkpt>
      <trkpt lat="45.24647" lon="6.13567">
        <ele>2701.8000488281</ele>
        <time>2012-05-17T09:47:59.000Z</time>
      </trkpt>
      <trkpt lat="45.24647" lon="6.13567">
        <ele>2701.8000488281</ele>
        <time>2012-05-17T09:48:00.000Z</time>
      </trkpt>
      <trkpt lat="45.24646" lon="6.13561">
        <ele>2702</ele>
        <time>2012-05-17T09:48:14.000Z</time>
      </trkpt>
      <trkpt lat="45.24645" lon="6.13551">
        <ele>2701.6000976562</ele>
        <time>2012-05-17T09:48:34.000Z</time>
      </trkpt>
      <trkpt lat="45.24643" lon="6.13534">
        <ele>2700.8000488281</ele>
        <time>2012-05-17T09:48:41.000Z</time>
      </trkpt>
      <trkpt lat="45.2464" lon="6.1351">
        <ele>2700</ele>
        <time>2012-05-17T09:48:48.000Z</time>
      </trkpt>
      <trkpt lat="45.24637" lon="6.13475">
        <ele>2698.1999511719</ele>
        <time>2012-05-17T09:48:57.000Z</time>
      </trkpt>
      <trkpt lat="45.24634" lon="6.13458">
        <ele>2697</ele>
        <time>2012-05-17T09:49:03.000Z</time>
      </trkpt>
      <trkpt lat="45.24635" lon="6.13437">
        <ele>2695.6000976562</ele>
        <time>2012-05-17T09:49:08.000Z</time>
      </trkpt>
      <trkpt lat="45.24646" lon="6.13429">
        <ele>2692.3999023438</ele>
        <time>2012-05-17T09:49:11.000Z</time>
      </trkpt>
      <trkpt lat="45.24661" lon="6.1342">
        <ele>2684.8000488281</ele>
        <time>2012-05-17T09:49:14.000Z</time>
      </trkpt>
      <trkpt lat="45.24666" lon="6.13416">
        <ele>2681.8000488281</ele>
        <time>2012-05-17T09:49:15.000Z</time>
      </trkpt>
      <trkpt lat="45.24689" lon="6.134">
        <ele>2670.8000488281</ele>
        <time>2012-05-17T09:49:19.000Z</time>
      </trkpt>
      <trkpt lat="45.247" lon="6.13388">
        <ele>2666.3999023438</ele>
        <time>2012-05-17T09:49:21.000Z</time>
      </trkpt>
      <trkpt lat="45.24717" lon="6.1335">
        <ele>2657</ele>
        <time>2012-05-17T09:49:26.000Z</time>
      </trkpt>
      <trkpt lat="45.24722" lon="6.13346">
        <ele>2655</ele>
        <time>2012-05-17T09:49:27.000Z</time>
      </trkpt>
      <trkpt lat="45.24744" lon="6.1333">
        <ele>2647.6000976562</ele>
        <time>2012-05-17T09:49:31.000Z</time>
      </trkpt>
      <trkpt lat="45.24744" lon="6.13325">
        <ele>2646</ele>
        <time>2012-05-17T09:49:32.000Z</time>
      </trkpt>
      <trkpt lat="45.24745" lon="6.1332">
        <ele>2644.3999023438</ele>
        <time>2012-05-17T09:49:36.000Z</time>
      </trkpt>
      <trkpt lat="45.2474" lon="6.13319">
        <ele>2644</ele>
        <time>2012-05-17T09:50:14.000Z</time>
      </trkpt>
      <trkpt lat="45.2474" lon="6.13319">
        <ele>2643.6000976562</ele>
        <time>2012-05-17T09:50:15.000Z</time>
      </trkpt>
      <trkpt lat="45.24745" lon="6.13322">
        <ele>2644.3999023438</ele>
        <time>2012-05-17T09:55:01.000Z</time>
      </trkpt>
      <trkpt lat="45.24746" lon="6.13315">
        <ele>2645.8000488281</ele>
        <time>2012-05-17T09:55:45.000Z</time>
      </trkpt>
      <trkpt lat="45.24747" lon="6.13306">
        <ele>2647</ele>
        <time>2012-05-17T09:55:53.000Z</time>
      </trkpt>
      <trkpt lat="45.24749" lon="6.133">
        <ele>2648.1999511719</ele>
        <time>2012-05-17T09:56:00.000Z</time>
      </trkpt>
      <trkpt lat="45.24752" lon="6.13295">
        <ele>2649.3999023438</ele>
        <time>2012-05-17T09:56:07.000Z</time>
      </trkpt>
      <trkpt lat="45.24751" lon="6.13293">
        <ele>2650.1999511719</ele>
        <time>2012-05-17T09:56:12.000Z</time>
      </trkpt>
      <trkpt lat="45.24748" lon="6.13291">
        <ele>2651.3999023438</ele>
        <time>2012-05-17T09:56:18.000Z</time>
      </trkpt>
      <trkpt lat="45.24743" lon="6.13289">
        <ele>2652.6000976562</ele>
        <time>2012-05-17T09:56:26.000Z</time>
      </trkpt>
      <trkpt lat="45.24739" lon="6.13288">
        <ele>2653.6000976562</ele>
        <time>2012-05-17T09:56:32.000Z</time>
      </trkpt>
      <trkpt lat="45.24734" lon="6.13286">
        <ele>2655</ele>
        <time>2012-05-17T09:56:40.000Z</time>
      </trkpt>
      <trkpt lat="45.24731" lon="6.13284">
        <ele>2656</ele>
        <time>2012-05-17T09:56:46.000Z</time>
      </trkpt>
      <trkpt lat="45.24726" lon="6.13283">
        <ele>2657.3999023438</ele>
        <time>2012-05-17T09:56:55.000Z</time>
      </trkpt>
      <trkpt lat="45.24726" lon="6.13283">
        <ele>2657.6000976562</ele>
        <time>2012-05-17T09:56:57.000Z</time>
      </trkpt>
      <trkpt lat="45.24725" lon="6.13281">
        <ele>2658.3999023438</ele>
        <time>2012-05-17T09:57:06.000Z</time>
      </trkpt>
      <trkpt lat="45.24726" lon="6.13273">
        <ele>2659.6000976562</ele>
        <time>2012-05-17T09:57:15.000Z</time>
      </trkpt>
      <trkpt lat="45.24728" lon="6.13265">
        <ele>2661</ele>
        <time>2012-05-17T09:57:24.000Z</time>
      </trkpt>
      <trkpt lat="45.24729" lon="6.13258">
        <ele>2662.3999023438</ele>
        <time>2012-05-17T09:57:32.000Z</time>
      </trkpt>
      <trkpt lat="45.2473" lon="6.13253">
        <ele>2663.6000976562</ele>
        <time>2012-05-17T09:57:38.000Z</time>
      </trkpt>
      <trkpt lat="45.2473" lon="6.13251">
        <ele>2664</ele>
        <time>2012-05-17T09:57:42.000Z</time>
      </trkpt>
      <trkpt lat="45.24731" lon="6.13247">
        <ele>2664.8000488281</ele>
        <time>2012-05-17T09:57:49.000Z</time>
      </trkpt>
      <trkpt lat="45.24733" lon="6.13242">
        <ele>2666</ele>
        <time>2012-05-17T09:57:56.000Z</time>
      </trkpt>
      <trkpt lat="45.24733" lon="6.13241">
        <ele>2666.1999511719</ele>
        <time>2012-05-17T09:57:58.000Z</time>
      </trkpt>
      <trkpt lat="45.24734" lon="6.13236">
        <ele>2667.3999023438</ele>
        <time>2012-05-17T09:58:06.000Z</time>
      </trkpt>
      <trkpt lat="45.24736" lon="6.13232">
        <ele>2668.6000976562</ele>
        <time>2012-05-17T09:58:13.000Z</time>
      </trkpt>
      <trkpt lat="45.24739" lon="6.13228">
        <ele>2669.8000488281</ele>
        <time>2012-05-17T09:58:19.000Z</time>
      </trkpt>
      <trkpt lat="45.2474" lon="6.13223">
        <ele>2671</ele>
        <time>2012-05-17T09:58:26.000Z</time>
      </trkpt>
      <trkpt lat="45.24739" lon="6.13219">
        <ele>2672.1999511719</ele>
        <time>2012-05-17T09:58:32.000Z</time>
      </trkpt>
      <trkpt lat="45.24737" lon="6.13215">
        <ele>2673</ele>
        <time>2012-05-17T09:58:39.000Z</time>
      </trkpt>
      <trkpt lat="45.24734" lon="6.13211">
        <ele>2673.6000976562</ele>
        <time>2012-05-17T09:58:45.000Z</time>
      </trkpt>
      <trkpt lat="45.24731" lon="6.13205">
        <ele>2675</ele>
        <time>2012-05-17T09:58:53.000Z</time>
      </trkpt>
      <trkpt lat="45.24727" lon="6.13201">
        <ele>2676.1999511719</ele>
        <time>2012-05-17T09:59:01.000Z</time>
      </trkpt>
      <trkpt lat="45.24723" lon="6.13196">
        <ele>2677.3999023438</ele>
        <time>2012-05-17T09:59:09.000Z</time>
      </trkpt>
      <trkpt lat="45.24719" lon="6.13191">
        <ele>2678.6000976562</ele>
        <time>2012-05-17T09:59:17.000Z</time>
      </trkpt>
      <trkpt lat="45.24715" lon="6.13186">
        <ele>2679.8000488281</ele>
        <time>2012-05-17T09:59:25.000Z</time>
      </trkpt>
      <trkpt lat="45.2471" lon="6.13183">
        <ele>2681.1999511719</ele>
        <time>2012-05-17T09:59:33.000Z</time>
      </trkpt>
      <trkpt lat="45.24705" lon="6.13182">
        <ele>2682.6000976562</ele>
        <time>2012-05-17T09:59:41.000Z</time>
      </trkpt>
      <trkpt lat="45.24701" lon="6.13182">
        <ele>2683.8000488281</ele>
        <time>2012-05-17T09:59:48.000Z</time>
      </trkpt>
      <trkpt lat="45.247" lon="6.1318">
        <ele>2684.6000976562</ele>
        <time>2012-05-17T09:59:53.000Z</time>
      </trkpt>
      <trkpt lat="45.24702" lon="6.13169">
        <ele>2686.1999511719</ele>
        <time>2012-05-17T10:00:03.000Z</time>
      </trkpt>
      <trkpt lat="45.24704" lon="6.1316">
        <ele>2688</ele>
        <time>2012-05-17T10:00:13.000Z</time>
      </trkpt>
      <trkpt lat="45.24705" lon="6.13152">
        <ele>2689.6000976562</ele>
        <time>2012-05-17T10:00:21.000Z</time>
      </trkpt>
      <trkpt lat="45.24708" lon="6.13144">
        <ele>2691.1999511719</ele>
        <time>2012-05-17T10:00:30.000Z</time>
      </trkpt>
      <trkpt lat="45.24709" lon="6.13137">
        <ele>2692.8000488281</ele>
        <time>2012-05-17T10:00:38.000Z</time>
      </trkpt>
      <trkpt lat="45.2471" lon="6.1313">
        <ele>2694.1999511719</ele>
        <time>2012-05-17T10:00:46.000Z</time>
      </trkpt>
      <trkpt lat="45.24711" lon="6.13122">
        <ele>2695.6000976562</ele>
        <time>2012-05-17T10:00:54.000Z</time>
      </trkpt>
      <trkpt lat="45.24713" lon="6.13114">
        <ele>2697.3999023438</ele>
        <time>2012-05-17T10:01:02.000Z</time>
      </trkpt>
      <trkpt lat="45.24714" lon="6.13108">
        <ele>2698.8000488281</ele>
        <time>2012-05-17T10:01:09.000Z</time>
      </trkpt>
      <trkpt lat="45.24718" lon="6.131">
        <ele>2700.3999023438</ele>
        <time>2012-05-17T10:01:18.000Z</time>
      </trkpt>
      <trkpt lat="45.2472" lon="6.13093">
        <ele>2701.8000488281</ele>
        <time>2012-05-17T10:01:26.000Z</time>
      </trkpt>
      <trkpt lat="45.24724" lon="6.13087">
        <ele>2703.6000976562</ele>
        <time>2012-05-17T10:01:35.000Z</time>
      </trkpt>
      <trkpt lat="45.24728" lon="6.13082">
        <ele>2705</ele>
        <time>2012-05-17T10:01:43.000Z</time>
      </trkpt>
      <trkpt lat="45.2473" lon="6.13078">
        <ele>2706.1999511719</ele>
        <time>2012-05-17T10:01:49.000Z</time>
      </trkpt>
      <trkpt lat="45.24733" lon="6.13073">
        <ele>2707.6000976562</ele>
        <time>2012-05-17T10:01:57.000Z</time>
      </trkpt>
      <trkpt lat="45.24736" lon="6.13067">
        <ele>2709</ele>
        <time>2012-05-17T10:02:05.000Z</time>
      </trkpt>
      <trkpt lat="45.24734" lon="6.13065">
        <ele>2710.3999023438</ele>
        <time>2012-05-17T10:02:11.000Z</time>
      </trkpt>
      <trkpt lat="45.24729" lon="6.13064">
        <ele>2711.6000976562</ele>
        <time>2012-05-17T10:02:18.000Z</time>
      </trkpt>
      <trkpt lat="45.24724" lon="6.13062">
        <ele>2713</ele>
        <time>2012-05-17T10:02:25.000Z</time>
      </trkpt>
      <trkpt lat="45.24719" lon="6.13061">
        <ele>2714.8000488281</ele>
        <time>2012-05-17T10:02:33.000Z</time>
      </trkpt>
      <trkpt lat="45.24714" lon="6.13058">
        <ele>2716.3999023438</ele>
        <time>2012-05-17T10:02:41.000Z</time>
      </trkpt>
      <trkpt lat="45.24709" lon="6.13056">
        <ele>2717.8000488281</ele>
        <time>2012-05-17T10:02:49.000Z</time>
      </trkpt>
      <trkpt lat="45.24705" lon="6.13053">
        <ele>2719</ele>
        <time>2012-05-17T10:02:56.000Z</time>
      </trkpt>
      <trkpt lat="45.24701" lon="6.13049">
        <ele>2719.8000488281</ele>
        <time>2012-05-17T10:03:04.000Z</time>
      </trkpt>
      <trkpt lat="45.24698" lon="6.13043">
        <ele>2721</ele>
        <time>2012-05-17T10:03:12.000Z</time>
      </trkpt>
      <trkpt lat="45.24694" lon="6.13036">
        <ele>2721.6000976562</ele>
        <time>2012-05-17T10:03:21.000Z</time>
      </trkpt>
      <trkpt lat="45.24692" lon="6.13033">
        <ele>2721.8000488281</ele>
        <time>2012-05-17T10:03:27.000Z</time>
      </trkpt>
      <trkpt lat="45.24693" lon="6.13036">
        <ele>2720.3999023438</ele>
        <time>2012-05-17T10:06:00.000Z</time>
      </trkpt>
      <trkpt lat="45.24694" lon="6.13039">
        <ele>2720.6000976562</ele>
        <time>2012-05-17T10:08:40.000Z</time>
      </trkpt>
      <trkpt lat="45.24694" lon="6.1304">
        <ele>2720.8000488281</ele>
        <time>2012-05-17T10:08:43.000Z</time>
      </trkpt>
      <trkpt lat="45.24695" lon="6.13035">
        <ele>2720.6000976562</ele>
        <time>2012-05-17T10:09:10.000Z</time>
      </trkpt>
      <trkpt lat="45.24696" lon="6.13032">
        <ele>2720.6000976562</ele>
        <time>2012-05-17T10:09:16.000Z</time>
      </trkpt>
      <trkpt lat="45.24702" lon="6.13032">
        <ele>2720.1999511719</ele>
        <time>2012-05-17T10:10:08.000Z</time>
      </trkpt>
      <trkpt lat="45.24701" lon="6.13032">
        <ele>2720.1999511719</ele>
        <time>2012-05-17T10:10:10.000Z</time>
      </trkpt>
      <trkpt lat="45.24697" lon="6.13027">
        <ele>2720.3999023438</ele>
        <time>2012-05-17T10:11:05.000Z</time>
      </trkpt>
      <trkpt lat="45.24694" lon="6.13031">
        <ele>2721</ele>
        <time>2012-05-17T10:11:53.000Z</time>
      </trkpt>
      <trkpt lat="45.24696" lon="6.13035">
        <ele>2721.1999511719</ele>
        <time>2012-05-17T10:12:28.000Z</time>
      </trkpt>
      <trkpt lat="45.24695" lon="6.13032">
        <ele>2721</ele>
        <time>2012-05-17T10:16:15.000Z</time>
      </trkpt>
      <trkpt lat="45.24694" lon="6.13024">
        <ele>2717</ele>
        <time>2012-05-17T10:17:11.000Z</time>
      </trkpt>
      <trkpt lat="45.247" lon="6.13016">
        <ele>2713.6000976562</ele>
        <time>2012-05-17T10:17:18.000Z</time>
      </trkpt>
      <trkpt lat="45.24703" lon="6.1301">
        <ele>2709.8000488281</ele>
        <time>2012-05-17T10:17:24.000Z</time>
      </trkpt>
      <trkpt lat="45.24705" lon="6.13006">
        <ele>2708.1999511719</ele>
        <time>2012-05-17T10:17:32.000Z</time>
      </trkpt>
      <trkpt lat="45.24703" lon="6.13005">
        <ele>2707</ele>
        <time>2012-05-17T10:17:35.000Z</time>
      </trkpt>
      <trkpt lat="45.24697" lon="6.12999">
        <ele>2702.6000976562</ele>
        <time>2012-05-17T10:17:51.000Z</time>
      </trkpt>
      <trkpt lat="45.24696" lon="6.12997">
        <ele>2700.8000488281</ele>
        <time>2012-05-17T10:17:56.000Z</time>
      </trkpt>
      <trkpt lat="45.24695" lon="6.1299">
        <ele>2695.8000488281</ele>
        <time>2012-05-17T10:18:31.000Z</time>
      </trkpt>
      <trkpt lat="45.24695" lon="6.12989">
        <ele>2695.1999511719</ele>
        <time>2012-05-17T10:18:32.000Z</time>
      </trkpt>
      <trkpt lat="45.24703" lon="6.12982">
        <ele>2692</ele>
        <time>2012-05-17T10:18:53.000Z</time>
      </trkpt>
      <trkpt lat="45.24711" lon="6.12974">
        <ele>2689.6000976562</ele>
        <time>2012-05-17T10:19:01.000Z</time>
      </trkpt>
      <trkpt lat="45.24714" lon="6.12972">
        <ele>2688.3999023438</ele>
        <time>2012-05-17T10:19:06.000Z</time>
      </trkpt>
      <trkpt lat="45.24716" lon="6.12967">
        <ele>2687.3999023438</ele>
        <time>2012-05-17T10:19:14.000Z</time>
      </trkpt>
      <trkpt lat="45.24717" lon="6.12965">
        <ele>2685.3999023438</ele>
        <time>2012-05-17T10:19:17.000Z</time>
      </trkpt>
      <trkpt lat="45.24719" lon="6.1296">
        <ele>2683.6000976562</ele>
        <time>2012-05-17T10:19:21.000Z</time>
      </trkpt>
      <trkpt lat="45.24724" lon="6.12951">
        <ele>2678.6000976562</ele>
        <time>2012-05-17T10:19:29.000Z</time>
      </trkpt>
      <trkpt lat="45.24723" lon="6.12951">
        <ele>2677.8000488281</ele>
        <time>2012-05-17T10:19:30.000Z</time>
      </trkpt>
      <trkpt lat="45.24727" lon="6.12946">
        <ele>2675.6000976562</ele>
        <time>2012-05-17T10:19:37.000Z</time>
      </trkpt>
      <trkpt lat="45.24736" lon="6.12941">
        <ele>2673.8000488281</ele>
        <time>2012-05-17T10:19:40.000Z</time>
      </trkpt>
      <trkpt lat="45.24751" lon="6.12935">
        <ele>2673.1999511719</ele>
        <time>2012-05-17T10:19:44.000Z</time>
      </trkpt>
      <trkpt lat="45.24769" lon="6.12927">
        <ele>2669.6000976562</ele>
        <time>2012-05-17T10:19:49.000Z</time>
      </trkpt>
      <trkpt lat="45.24779" lon="6.12915">
        <ele>2663.6000976562</ele>
        <time>2012-05-17T10:19:57.000Z</time>
      </trkpt>
      <trkpt lat="45.24781" lon="6.12903">
        <ele>2660.8000488281</ele>
        <time>2012-05-17T10:20:01.000Z</time>
      </trkpt>
      <trkpt lat="45.2478" lon="6.12902">
        <ele>2659.6000976562</ele>
        <time>2012-05-17T10:20:03.000Z</time>
      </trkpt>
      <trkpt lat="45.24764" lon="6.12902">
        <ele>2657.1999511719</ele>
        <time>2012-05-17T10:20:15.000Z</time>
      </trkpt>
      <trkpt lat="45.2476" lon="6.12895">
        <ele>2654.6000976562</ele>
        <time>2012-05-17T10:20:18.000Z</time>
      </trkpt>
      <trkpt lat="45.2476" lon="6.12892">
        <ele>2652.6000976562</ele>
        <time>2012-05-17T10:20:20.000Z</time>
      </trkpt>
      <trkpt lat="45.24757" lon="6.12891">
        <ele>2651.3999023438</ele>
        <time>2012-05-17T10:20:22.000Z</time>
      </trkpt>
      <trkpt lat="45.24749" lon="6.12888">
        <ele>2650.1999511719</ele>
        <time>2012-05-17T10:20:25.000Z</time>
      </trkpt>
      <trkpt lat="45.24746" lon="6.12886">
        <ele>2648</ele>
        <time>2012-05-17T10:20:27.000Z</time>
      </trkpt>
      <trkpt lat="45.2474" lon="6.12874">
        <ele>2643</ele>
        <time>2012-05-17T10:20:35.000Z</time>
      </trkpt>
      <trkpt lat="45.24733" lon="6.12871">
        <ele>2641.6000976562</ele>
        <time>2012-05-17T10:20:38.000Z</time>
      </trkpt>
      <trkpt lat="45.2473" lon="6.12865">
        <ele>2637.8000488281</ele>
        <time>2012-05-17T10:20:42.000Z</time>
      </trkpt>
      <trkpt lat="45.2473" lon="6.1286">
        <ele>2634.8000488281</ele>
        <time>2012-05-17T10:20:45.000Z</time>
      </trkpt>
      <trkpt lat="45.24726" lon="6.12861">
        <ele>2632.8000488281</ele>
        <time>2012-05-17T10:20:47.000Z</time>
      </trkpt>
      <trkpt lat="45.24726" lon="6.12861">
        <ele>2632.3999023438</ele>
        <time>2012-05-17T10:20:48.000Z</time>
      </trkpt>
      <trkpt lat="45.24724" lon="6.12851">
        <ele>2629.3999023438</ele>
        <time>2012-05-17T10:20:53.000Z</time>
      </trkpt>
      <trkpt lat="45.24719" lon="6.12845">
        <ele>2626</ele>
        <time>2012-05-17T10:20:56.000Z</time>
      </trkpt>
      <trkpt lat="45.24716" lon="6.12844">
        <ele>2625</ele>
        <time>2012-05-17T10:20:57.000Z</time>
      </trkpt>
      <trkpt lat="45.24714" lon="6.12839">
        <ele>2620.6000976562</ele>
        <time>2012-05-17T10:21:02.000Z</time>
      </trkpt>
      <trkpt lat="45.24708" lon="6.12831">
        <ele>2618.6000976562</ele>
        <time>2012-05-17T10:21:04.000Z</time>
      </trkpt>
      <trkpt lat="45.247" lon="6.12829">
        <ele>2615.1999511719</ele>
        <time>2012-05-17T10:21:07.000Z</time>
      </trkpt>
      <trkpt lat="45.24688" lon="6.12825">
        <ele>2612.6000976562</ele>
        <time>2012-05-17T10:21:12.000Z</time>
      </trkpt>
      <trkpt lat="45.24686" lon="6.12824">
        <ele>2612.3999023438</ele>
        <time>2012-05-17T10:21:13.000Z</time>
      </trkpt>
      <trkpt lat="45.24673" lon="6.12809">
        <ele>2607.8000488281</ele>
        <time>2012-05-17T10:21:19.000Z</time>
      </trkpt>
      <trkpt lat="45.24663" lon="6.12799">
        <ele>2604.8000488281</ele>
        <time>2012-05-17T10:21:24.000Z</time>
      </trkpt>
      <trkpt lat="45.2465" lon="6.1278">
        <ele>2600.6000976562</ele>
        <time>2012-05-17T10:21:30.000Z</time>
      </trkpt>
      <trkpt lat="45.24645" lon="6.12769">
        <ele>2599.1999511719</ele>
        <time>2012-05-17T10:21:33.000Z</time>
      </trkpt>
      <trkpt lat="45.24651" lon="6.12761">
        <ele>2596</ele>
        <time>2012-05-17T10:21:36.000Z</time>
      </trkpt>
      <trkpt lat="45.24659" lon="6.12749">
        <ele>2591.1999511719</ele>
        <time>2012-05-17T10:21:39.000Z</time>
      </trkpt>
      <trkpt lat="45.24667" lon="6.12739">
        <ele>2587</ele>
        <time>2012-05-17T10:21:41.000Z</time>
      </trkpt>
      <trkpt lat="45.24672" lon="6.12726">
        <ele>2583.1999511719</ele>
        <time>2012-05-17T10:21:43.000Z</time>
      </trkpt>
      <trkpt lat="45.24676" lon="6.12703">
        <ele>2573.8000488281</ele>
        <time>2012-05-17T10:21:47.000Z</time>
      </trkpt>
      <trkpt lat="45.24691" lon="6.12687">
        <ele>2567</ele>
        <time>2012-05-17T10:21:51.000Z</time>
      </trkpt>
      <trkpt lat="45.24697" lon="6.12673">
        <ele>2563.6000976562</ele>
        <time>2012-05-17T10:21:53.000Z</time>
      </trkpt>
      <trkpt lat="45.24704" lon="6.12655">
        <ele>2556</ele>
        <time>2012-05-17T10:21:56.000Z</time>
      </trkpt>
      <trkpt lat="45.24711" lon="6.12631">
        <ele>2550.8000488281</ele>
        <time>2012-05-17T10:21:59.000Z</time>
      </trkpt>
      <trkpt lat="45.24712" lon="6.12609">
        <ele>2546.6000976562</ele>
        <time>2012-05-17T10:22:02.000Z</time>
      </trkpt>
      <trkpt lat="45.24713" lon="6.12601">
        <ele>2545.1999511719</ele>
        <time>2012-05-17T10:22:05.000Z</time>
      </trkpt>
      <trkpt lat="45.24705" lon="6.126">
        <ele>2545</ele>
        <time>2012-05-17T10:22:06.000Z</time>
      </trkpt>
      <trkpt lat="45.24704" lon="6.12576">
        <ele>2542.8000488281</ele>
        <time>2012-05-17T10:22:12.000Z</time>
      </trkpt>
      <trkpt lat="45.24705" lon="6.12569">
        <ele>2542.3999023438</ele>
        <time>2012-05-17T10:22:13.000Z</time>
      </trkpt>
      <trkpt lat="45.24716" lon="6.12544">
        <ele>2538.1999511719</ele>
        <time>2012-05-17T10:22:18.000Z</time>
      </trkpt>
      <trkpt lat="45.24727" lon="6.12534">
        <ele>2535</ele>
        <time>2012-05-17T10:22:23.000Z</time>
      </trkpt>
      <trkpt lat="45.24735" lon="6.12528">
        <ele>2533.8000488281</ele>
        <time>2012-05-17T10:22:29.000Z</time>
      </trkpt>
      <trkpt lat="45.24741" lon="6.1252">
        <ele>2533.8000488281</ele>
        <time>2012-05-17T10:22:37.000Z</time>
      </trkpt>
      <trkpt lat="45.24745" lon="6.12514">
        <ele>2533.8000488281</ele>
        <time>2012-05-17T10:22:42.000Z</time>
      </trkpt>
      <trkpt lat="45.24753" lon="6.12502">
        <ele>2533.3999023438</ele>
        <time>2012-05-17T10:22:49.000Z</time>
      </trkpt>
      <trkpt lat="45.24763" lon="6.12488">
        <ele>2531.6000976562</ele>
        <time>2012-05-17T10:22:53.000Z</time>
      </trkpt>
      <trkpt lat="45.24777" lon="6.12475">
        <ele>2530.3999023438</ele>
        <time>2012-05-17T10:23:00.000Z</time>
      </trkpt>
      <trkpt lat="45.24788" lon="6.12467">
        <ele>2529.6000976562</ele>
        <time>2012-05-17T10:23:06.000Z</time>
      </trkpt>
      <trkpt lat="45.24793" lon="6.1246">
        <ele>2530.1999511719</ele>
        <time>2012-05-17T10:23:14.000Z</time>
      </trkpt>
      <trkpt lat="45.24794" lon="6.12452">
        <ele>2530.8000488281</ele>
        <time>2012-05-17T10:23:22.000Z</time>
      </trkpt>
      <trkpt lat="45.24794" lon="6.12449">
        <ele>2531</ele>
        <time>2012-05-17T10:23:25.000Z</time>
      </trkpt>
      <trkpt lat="45.24793" lon="6.12438">
        <ele>2531</ele>
        <time>2012-05-17T10:23:34.000Z</time>
      </trkpt>
      <trkpt lat="45.24793" lon="6.12428">
        <ele>2531</ele>
        <time>2012-05-17T10:23:43.000Z</time>
      </trkpt>
      <trkpt lat="45.24792" lon="6.12418">
        <ele>2531.1999511719</ele>
        <time>2012-05-17T10:23:52.000Z</time>
      </trkpt>
      <trkpt lat="45.24793" lon="6.12412">
        <ele>2531.1999511719</ele>
        <time>2012-05-17T10:23:59.000Z</time>
      </trkpt>
      <trkpt lat="45.24792" lon="6.12405">
        <ele>2530.3999023438</ele>
        <time>2012-05-17T10:27:05.000Z</time>
      </trkpt>
      <trkpt lat="45.24792" lon="6.12397">
        <ele>2531.1999511719</ele>
        <time>2012-05-17T10:27:13.000Z</time>
      </trkpt>
      <trkpt lat="45.24793" lon="6.1239">
        <ele>2532</ele>
        <time>2012-05-17T10:27:20.000Z</time>
      </trkpt>
      <trkpt lat="45.24793" lon="6.12388">
        <ele>2532.1999511719</ele>
        <time>2012-05-17T10:27:22.000Z</time>
      </trkpt>
      <trkpt lat="45.24795" lon="6.12378">
        <ele>2533.8000488281</ele>
        <time>2012-05-17T10:27:31.000Z</time>
      </trkpt>
      <trkpt lat="45.24796" lon="6.1237">
        <ele>2535.6000976562</ele>
        <time>2012-05-17T10:27:39.000Z</time>
      </trkpt>
      <trkpt lat="45.24796" lon="6.12365">
        <ele>2536.1999511719</ele>
        <time>2012-05-17T10:27:46.000Z</time>
      </trkpt>
      <trkpt lat="45.24796" lon="6.12365">
        <ele>2535</ele>
        <time>2012-05-17T10:27:53.000Z</time>
      </trkpt>
      <trkpt lat="45.24793" lon="6.12362">
        <ele>2536</ele>
        <time>2012-05-17T10:28:08.000Z</time>
      </trkpt>
      <trkpt lat="45.24792" lon="6.12354">
        <ele>2536.6000976562</ele>
        <time>2012-05-17T10:28:34.000Z</time>
      </trkpt>
      <trkpt lat="45.24792" lon="6.12346">
        <ele>2537.8000488281</ele>
        <time>2012-05-17T10:28:42.000Z</time>
      </trkpt>
      <trkpt lat="45.24792" lon="6.1234">
        <ele>2538.3999023438</ele>
        <time>2012-05-17T10:28:48.000Z</time>
      </trkpt>
      <trkpt lat="45.24792" lon="6.12333">
        <ele>2539.1999511719</ele>
        <time>2012-05-17T10:28:56.000Z</time>
      </trkpt>
      <trkpt lat="45.24792" lon="6.12332">
        <ele>2539.3999023438</ele>
        <time>2012-05-17T10:28:58.000Z</time>
      </trkpt>
      <trkpt lat="45.24792" lon="6.12327">
        <ele>2540</ele>
        <time>2012-05-17T10:29:14.000Z</time>
      </trkpt>
      <trkpt lat="45.24791" lon="6.12318">
        <ele>2541</ele>
        <time>2012-05-17T10:29:23.000Z</time>
      </trkpt>
      <trkpt lat="45.2479" lon="6.1231">
        <ele>2542.3999023438</ele>
        <time>2012-05-17T10:29:32.000Z</time>
      </trkpt>
      <trkpt lat="45.24789" lon="6.12304">
        <ele>2543.3999023438</ele>
        <time>2012-05-17T10:29:38.000Z</time>
      </trkpt>
      <trkpt lat="45.24788" lon="6.12297">
        <ele>2544</ele>
        <time>2012-05-17T10:29:45.000Z</time>
      </trkpt>
      <trkpt lat="45.24786" lon="6.12289">
        <ele>2545</ele>
        <time>2012-05-17T10:29:53.000Z</time>
      </trkpt>
      <trkpt lat="45.24785" lon="6.12282">
        <ele>2545.3999023438</ele>
        <time>2012-05-17T10:30:01.000Z</time>
      </trkpt>
      <trkpt lat="45.24785" lon="6.12281">
        <ele>2545.3999023438</ele>
        <time>2012-05-17T10:30:02.000Z</time>
      </trkpt>
      <trkpt lat="45.24783" lon="6.12274">
        <ele>2546</ele>
        <time>2012-05-17T10:30:24.000Z</time>
      </trkpt>
      <trkpt lat="45.24778" lon="6.12266">
        <ele>2546.6000976562</ele>
        <time>2012-05-17T10:30:31.000Z</time>
      </trkpt>
      <trkpt lat="45.24774" lon="6.12256">
        <ele>2547.1999511719</ele>
        <time>2012-05-17T10:30:40.000Z</time>
      </trkpt>
      <trkpt lat="45.24773" lon="6.12252">
        <ele>2547.1999511719</ele>
        <time>2012-05-17T10:30:43.000Z</time>
      </trkpt>
      <trkpt lat="45.2477" lon="6.12244">
        <ele>2547.3999023438</ele>
        <time>2012-05-17T10:30:51.000Z</time>
      </trkpt>
      <trkpt lat="45.24768" lon="6.12236">
        <ele>2548</ele>
        <time>2012-05-17T10:30:59.000Z</time>
      </trkpt>
      <trkpt lat="45.24766" lon="6.1223">
        <ele>2548.6000976562</ele>
        <time>2012-05-17T10:31:05.000Z</time>
      </trkpt>
      <trkpt lat="45.24764" lon="6.12224">
        <ele>2548.8000488281</ele>
        <time>2012-05-17T10:31:10.000Z</time>
      </trkpt>
      <trkpt lat="45.24762" lon="6.12218">
        <ele>2549.3999023438</ele>
        <time>2012-05-17T10:31:15.000Z</time>
      </trkpt>
      <trkpt lat="45.2476" lon="6.12215">
        <ele>2549.6000976562</ele>
        <time>2012-05-17T10:31:18.000Z</time>
      </trkpt>
      <trkpt lat="45.24758" lon="6.1221">
        <ele>2550.1999511719</ele>
        <time>2012-05-17T10:31:23.000Z</time>
      </trkpt>
      <trkpt lat="45.24753" lon="6.12199">
        <ele>2551</ele>
        <time>2012-05-17T10:31:32.000Z</time>
      </trkpt>
      <trkpt lat="45.2475" lon="6.12186">
        <ele>2551.3999023438</ele>
        <time>2012-05-17T10:31:42.000Z</time>
      </trkpt>
      <trkpt lat="45.24747" lon="6.12175">
        <ele>2552</ele>
        <time>2012-05-17T10:31:51.000Z</time>
      </trkpt>
      <trkpt lat="45.24743" lon="6.12166">
        <ele>2552.6000976562</ele>
        <time>2012-05-17T10:31:59.000Z</time>
      </trkpt>
      <trkpt lat="45.24741" lon="6.12162">
        <ele>2553.1999511719</ele>
        <time>2012-05-17T10:32:03.000Z</time>
      </trkpt>
      <trkpt lat="45.24739" lon="6.12157">
        <ele>2553.8000488281</ele>
        <time>2012-05-17T10:32:08.000Z</time>
      </trkpt>
      <trkpt lat="45.24736" lon="6.12152">
        <ele>2554</ele>
        <time>2012-05-17T10:32:13.000Z</time>
      </trkpt>
      <trkpt lat="45.24734" lon="6.12148">
        <ele>2554.6000976562</ele>
        <time>2012-05-17T10:32:17.000Z</time>
      </trkpt>
      <trkpt lat="45.24731" lon="6.12141">
        <ele>2554.8000488281</ele>
        <time>2012-05-17T10:32:25.000Z</time>
      </trkpt>
      <trkpt lat="45.24729" lon="6.12136">
        <ele>2555.1999511719</ele>
        <time>2012-05-17T10:32:30.000Z</time>
      </trkpt>
      <trkpt lat="45.24728" lon="6.12134">
        <ele>2555.3999023438</ele>
        <time>2012-05-17T10:32:32.000Z</time>
      </trkpt>
      <trkpt lat="45.24726" lon="6.12127">
        <ele>2556</ele>
        <time>2012-05-17T10:32:39.000Z</time>
      </trkpt>
      <trkpt lat="45.24724" lon="6.12122">
        <ele>2556.6000976562</ele>
        <time>2012-05-17T10:32:44.000Z</time>
      </trkpt>
      <trkpt lat="45.24722" lon="6.12117">
        <ele>2557</ele>
        <time>2012-05-17T10:32:49.000Z</time>
      </trkpt>
      <trkpt lat="45.24721" lon="6.12111">
        <ele>2557.6000976562</ele>
        <time>2012-05-17T10:32:55.000Z</time>
      </trkpt>
      <trkpt lat="45.2472" lon="6.12108">
        <ele>2557.8000488281</ele>
        <time>2012-05-17T10:32:58.000Z</time>
      </trkpt>
      <trkpt lat="45.24718" lon="6.12103">
        <ele>2558.3999023438</ele>
        <time>2012-05-17T10:33:05.000Z</time>
      </trkpt>
      <trkpt lat="45.24717" lon="6.12099">
        <ele>2558.8000488281</ele>
        <time>2012-05-17T10:33:09.000Z</time>
      </trkpt>
      <trkpt lat="45.24717" lon="6.12097">
        <ele>2559</ele>
        <time>2012-05-17T10:33:11.000Z</time>
      </trkpt>
      <trkpt lat="45.24715" lon="6.12091">
        <ele>2559.1999511719</ele>
        <time>2012-05-17T10:33:16.000Z</time>
      </trkpt>
      <trkpt lat="45.24714" lon="6.12087">
        <ele>2559.6000976562</ele>
        <time>2012-05-17T10:33:20.000Z</time>
      </trkpt>
      <trkpt lat="45.24712" lon="6.12081">
        <ele>2560.1999511719</ele>
        <time>2012-05-17T10:33:25.000Z</time>
      </trkpt>
      <trkpt lat="45.2471" lon="6.12075">
        <ele>2561.3999023438</ele>
        <time>2012-05-17T10:33:32.000Z</time>
      </trkpt>
      <trkpt lat="45.24709" lon="6.1207">
        <ele>2562.8000488281</ele>
        <time>2012-05-17T10:33:40.000Z</time>
      </trkpt>
      <trkpt lat="45.24713" lon="6.1206">
        <ele>2564.6000976562</ele>
        <time>2012-05-17T10:33:58.000Z</time>
      </trkpt>
      <trkpt lat="45.24716" lon="6.12048">
        <ele>2566.1999511719</ele>
        <time>2012-05-17T10:34:08.000Z</time>
      </trkpt>
      <trkpt lat="45.24715" lon="6.12038">
        <ele>2567.1999511719</ele>
        <time>2012-05-17T10:34:17.000Z</time>
      </trkpt>
      <trkpt lat="45.24714" lon="6.12029">
        <ele>2568.8000488281</ele>
        <time>2012-05-17T10:34:26.000Z</time>
      </trkpt>
      <trkpt lat="45.24711" lon="6.12024">
        <ele>2570.3999023438</ele>
        <time>2012-05-17T10:34:34.000Z</time>
      </trkpt>
      <trkpt lat="45.24709" lon="6.12027">
        <ele>2571.3999023438</ele>
        <time>2012-05-17T10:34:39.000Z</time>
      </trkpt>
      <trkpt lat="45.24706" lon="6.12032">
        <ele>2572.6000976562</ele>
        <time>2012-05-17T10:34:47.000Z</time>
      </trkpt>
      <trkpt lat="45.24703" lon="6.12037">
        <ele>2574.3999023438</ele>
        <time>2012-05-17T10:34:56.000Z</time>
      </trkpt>
      <trkpt lat="45.24702" lon="6.12037">
        <ele>2575.3999023438</ele>
        <time>2012-05-17T10:34:58.000Z</time>
      </trkpt>
      <trkpt lat="45.24701" lon="6.12032">
        <ele>2576.3999023438</ele>
        <time>2012-05-17T10:35:06.000Z</time>
      </trkpt>
      <trkpt lat="45.24699" lon="6.12025">
        <ele>2577.8000488281</ele>
        <time>2012-05-17T10:35:14.000Z</time>
      </trkpt>
      <trkpt lat="45.24697" lon="6.12016">
        <ele>2579.3999023438</ele>
        <time>2012-05-17T10:35:24.000Z</time>
      </trkpt>
      <trkpt lat="45.24695" lon="6.12007">
        <ele>2581.1999511719</ele>
        <time>2012-05-17T10:35:34.000Z</time>
      </trkpt>
      <trkpt lat="45.24694" lon="6.11999">
        <ele>2582.3999023438</ele>
        <time>2012-05-17T10:35:43.000Z</time>
      </trkpt>
      <trkpt lat="45.24693" lon="6.11996">
        <ele>2583.1999511719</ele>
        <time>2012-05-17T10:35:47.000Z</time>
      </trkpt>
      <trkpt lat="45.24692" lon="6.11991">
        <ele>2583.3999023438</ele>
        <time>2012-05-17T10:36:29.000Z</time>
      </trkpt>
      <trkpt lat="45.2469" lon="6.11981">
        <ele>2585.1999511719</ele>
        <time>2012-05-17T10:36:38.000Z</time>
      </trkpt>
      <trkpt lat="45.24688" lon="6.11973">
        <ele>2586.8000488281</ele>
        <time>2012-05-17T10:36:46.000Z</time>
      </trkpt>
      <trkpt lat="45.24687" lon="6.11969">
        <ele>2588</ele>
        <time>2012-05-17T10:36:51.000Z</time>
      </trkpt>
      <trkpt lat="45.24684" lon="6.11964">
        <ele>2590</ele>
        <time>2012-05-17T10:36:59.000Z</time>
      </trkpt>
      <trkpt lat="45.24679" lon="6.11959">
        <ele>2592.1999511719</ele>
        <time>2012-05-17T10:37:08.000Z</time>
      </trkpt>
      <trkpt lat="45.24676" lon="6.11955">
        <ele>2593.6000976562</ele>
        <time>2012-05-17T10:37:15.000Z</time>
      </trkpt>
      <trkpt lat="45.24673" lon="6.1195">
        <ele>2595.3999023438</ele>
        <time>2012-05-17T10:37:23.000Z</time>
      </trkpt>
      <trkpt lat="45.24671" lon="6.11945">
        <ele>2596.6000976562</ele>
        <time>2012-05-17T10:37:30.000Z</time>
      </trkpt>
      <trkpt lat="45.24668" lon="6.1194">
        <ele>2598.3999023438</ele>
        <time>2012-05-17T10:37:38.000Z</time>
      </trkpt>
      <trkpt lat="45.24665" lon="6.11935">
        <ele>2600</ele>
        <time>2012-05-17T10:37:46.000Z</time>
      </trkpt>
      <trkpt lat="45.24662" lon="6.1193">
        <ele>2601.1999511719</ele>
        <time>2012-05-17T10:37:53.000Z</time>
      </trkpt>
      <trkpt lat="45.2466" lon="6.11927">
        <ele>2602.6000976562</ele>
        <time>2012-05-17T10:37:59.000Z</time>
      </trkpt>
      <trkpt lat="45.24655" lon="6.11923">
        <ele>2604.3999023438</ele>
        <time>2012-05-17T10:38:07.000Z</time>
      </trkpt>
      <trkpt lat="45.24651" lon="6.11919">
        <ele>2606</ele>
        <time>2012-05-17T10:38:15.000Z</time>
      </trkpt>
      <trkpt lat="45.24646" lon="6.11916">
        <ele>2607.6000976562</ele>
        <time>2012-05-17T10:38:23.000Z</time>
      </trkpt>
      <trkpt lat="45.24641" lon="6.11913">
        <ele>2609.3999023438</ele>
        <time>2012-05-17T10:38:31.000Z</time>
      </trkpt>
      <trkpt lat="45.24637" lon="6.1191">
        <ele>2611.1999511719</ele>
        <time>2012-05-17T10:38:39.000Z</time>
      </trkpt>
      <trkpt lat="45.24633" lon="6.11907">
        <ele>2612.6000976562</ele>
        <time>2012-05-17T10:38:46.000Z</time>
      </trkpt>
      <trkpt lat="45.24629" lon="6.11904">
        <ele>2613.8000488281</ele>
        <time>2012-05-17T10:38:53.000Z</time>
      </trkpt>
      <trkpt lat="45.24624" lon="6.11899">
        <ele>2615.6000976562</ele>
        <time>2012-05-17T10:39:02.000Z</time>
      </trkpt>
      <trkpt lat="45.2462" lon="6.11895">
        <ele>2617.1999511719</ele>
        <time>2012-05-17T10:39:10.000Z</time>
      </trkpt>
      <trkpt lat="45.24616" lon="6.11891">
        <ele>2618.6000976562</ele>
        <time>2012-05-17T10:39:17.000Z</time>
      </trkpt>
      <trkpt lat="45.24612" lon="6.11887">
        <ele>2619.3999023438</ele>
        <time>2012-05-17T10:39:24.000Z</time>
      </trkpt>
      <trkpt lat="45.24607" lon="6.11881">
        <ele>2621.3999023438</ele>
        <time>2012-05-17T10:39:33.000Z</time>
      </trkpt>
      <trkpt lat="45.24602" lon="6.11875">
        <ele>2622.8000488281</ele>
        <time>2012-05-17T10:39:42.000Z</time>
      </trkpt>
      <trkpt lat="45.246" lon="6.11873">
        <ele>2623.1999511719</ele>
        <time>2012-05-17T10:39:45.000Z</time>
      </trkpt>
      <trkpt lat="45.24595" lon="6.11865">
        <ele>2624.8000488281</ele>
        <time>2012-05-17T10:39:55.000Z</time>
      </trkpt>
      <trkpt lat="45.2459" lon="6.11858">
        <ele>2626</ele>
        <time>2012-05-17T10:40:04.000Z</time>
      </trkpt>
      <trkpt lat="45.24584" lon="6.11851">
        <ele>2627.3999023438</ele>
        <time>2012-05-17T10:40:14.000Z</time>
      </trkpt>
      <trkpt lat="45.24579" lon="6.11845">
        <ele>2628.8000488281</ele>
        <time>2012-05-17T10:40:23.000Z</time>
      </trkpt>
      <trkpt lat="45.24575" lon="6.1184">
        <ele>2630.3999023438</ele>
        <time>2012-05-17T10:40:31.000Z</time>
      </trkpt>
      <trkpt lat="45.24571" lon="6.11835">
        <ele>2632.3999023438</ele>
        <time>2012-05-17T10:40:40.000Z</time>
      </trkpt>
      <trkpt lat="45.24567" lon="6.1183">
        <ele>2633.8000488281</ele>
        <time>2012-05-17T10:40:48.000Z</time>
      </trkpt>
      <trkpt lat="45.24564" lon="6.11825">
        <ele>2635.1999511719</ele>
        <time>2012-05-17T10:40:55.000Z</time>
      </trkpt>
      <trkpt lat="45.2456" lon="6.1182">
        <ele>2637</ele>
        <time>2012-05-17T10:41:03.000Z</time>
      </trkpt>
      <trkpt lat="45.24557" lon="6.11816">
        <ele>2638.3999023438</ele>
        <time>2012-05-17T10:41:10.000Z</time>
      </trkpt>
      <trkpt lat="45.24554" lon="6.11811">
        <ele>2640</ele>
        <time>2012-05-17T10:41:18.000Z</time>
      </trkpt>
      <trkpt lat="45.24551" lon="6.11806">
        <ele>2641.3999023438</ele>
        <time>2012-05-17T10:41:27.000Z</time>
      </trkpt>
      <trkpt lat="45.24547" lon="6.11802">
        <ele>2643.1999511719</ele>
        <time>2012-05-17T10:41:34.000Z</time>
      </trkpt>
      <trkpt lat="45.24544" lon="6.11797">
        <ele>2644.8000488281</ele>
        <time>2012-05-17T10:41:42.000Z</time>
      </trkpt>
      <trkpt lat="45.24541" lon="6.11793">
        <ele>2646</ele>
        <time>2012-05-17T10:41:49.000Z</time>
      </trkpt>
      <trkpt lat="45.24538" lon="6.11788">
        <ele>2647.8000488281</ele>
        <time>2012-05-17T10:41:57.000Z</time>
      </trkpt>
      <trkpt lat="45.24536" lon="6.11783">
        <ele>2649.3999023438</ele>
        <time>2012-05-17T10:42:04.000Z</time>
      </trkpt>
      <trkpt lat="45.24532" lon="6.11777">
        <ele>2651</ele>
        <time>2012-05-17T10:42:12.000Z</time>
      </trkpt>
      <trkpt lat="45.24529" lon="6.1177">
        <ele>2652.6000976562</ele>
        <time>2012-05-17T10:42:21.000Z</time>
      </trkpt>
      <trkpt lat="45.24525" lon="6.11763">
        <ele>2654.6000976562</ele>
        <time>2012-05-17T10:42:30.000Z</time>
      </trkpt>
      <trkpt lat="45.24522" lon="6.11758">
        <ele>2655.8000488281</ele>
        <time>2012-05-17T10:42:37.000Z</time>
      </trkpt>
      <trkpt lat="45.24518" lon="6.11752">
        <ele>2657.6000976562</ele>
        <time>2012-05-17T10:42:46.000Z</time>
      </trkpt>
      <trkpt lat="45.24513" lon="6.11745">
        <ele>2659.3999023438</ele>
        <time>2012-05-17T10:42:56.000Z</time>
      </trkpt>
      <trkpt lat="45.2451" lon="6.11739">
        <ele>2661</ele>
        <time>2012-05-17T10:43:04.000Z</time>
      </trkpt>
      <trkpt lat="45.24506" lon="6.11734">
        <ele>2662.3999023438</ele>
        <time>2012-05-17T10:43:12.000Z</time>
      </trkpt>
      <trkpt lat="45.24502" lon="6.11728">
        <ele>2664.1999511719</ele>
        <time>2012-05-17T10:43:21.000Z</time>
      </trkpt>
      <trkpt lat="45.24498" lon="6.11722">
        <ele>2665.6000976562</ele>
        <time>2012-05-17T10:43:29.000Z</time>
      </trkpt>
      <trkpt lat="45.24495" lon="6.11718">
        <ele>2666.8000488281</ele>
        <time>2012-05-17T10:43:37.000Z</time>
      </trkpt>
      <trkpt lat="45.24491" lon="6.11713">
        <ele>2668.6000976562</ele>
        <time>2012-05-17T10:43:45.000Z</time>
      </trkpt>
      <trkpt lat="45.24487" lon="6.11709">
        <ele>2670.3999023438</ele>
        <time>2012-05-17T10:43:53.000Z</time>
      </trkpt>
      <trkpt lat="45.24483" lon="6.11704">
        <ele>2672</ele>
        <time>2012-05-17T10:44:01.000Z</time>
      </trkpt>
      <trkpt lat="45.2448" lon="6.117">
        <ele>2673.6000976562</ele>
        <time>2012-05-17T10:44:09.000Z</time>
      </trkpt>
      <trkpt lat="45.24476" lon="6.11696">
        <ele>2675.1999511719</ele>
        <time>2012-05-17T10:44:17.000Z</time>
      </trkpt>
      <trkpt lat="45.24473" lon="6.11692">
        <ele>2677</ele>
        <time>2012-05-17T10:44:25.000Z</time>
      </trkpt>
      <trkpt lat="45.2447" lon="6.11689">
        <ele>2678.3999023438</ele>
        <time>2012-05-17T10:44:32.000Z</time>
      </trkpt>
      <trkpt lat="45.24467" lon="6.11684">
        <ele>2680</ele>
        <time>2012-05-17T10:44:40.000Z</time>
      </trkpt>
      <trkpt lat="45.24464" lon="6.11681">
        <ele>2681.1999511719</ele>
        <time>2012-05-17T10:44:47.000Z</time>
      </trkpt>
      <trkpt lat="45.24461" lon="6.11677">
        <ele>2683</ele>
        <time>2012-05-17T10:44:55.000Z</time>
      </trkpt>
      <trkpt lat="45.24458" lon="6.11673">
        <ele>2684.1999511719</ele>
        <time>2012-05-17T10:45:02.000Z</time>
      </trkpt>
      <trkpt lat="45.24455" lon="6.11669">
        <ele>2686</ele>
        <time>2012-05-17T10:45:10.000Z</time>
      </trkpt>
      <trkpt lat="45.24452" lon="6.11665">
        <ele>2688</ele>
        <time>2012-05-17T10:45:18.000Z</time>
      </trkpt>
      <trkpt lat="45.24449" lon="6.11662">
        <ele>2689.3999023438</ele>
        <time>2012-05-17T10:45:25.000Z</time>
      </trkpt>
      <trkpt lat="45.24446" lon="6.11657">
        <ele>2690.8000488281</ele>
        <time>2012-05-17T10:45:33.000Z</time>
      </trkpt>
      <trkpt lat="45.24446" lon="6.11657">
        <ele>2690.6000976562</ele>
        <time>2012-05-17T10:45:34.000Z</time>
      </trkpt>
      <trkpt lat="45.24443" lon="6.11651">
        <ele>2692.8000488281</ele>
        <time>2012-05-17T10:45:48.000Z</time>
      </trkpt>
      <trkpt lat="45.2444" lon="6.11647">
        <ele>2694</ele>
        <time>2012-05-17T10:45:55.000Z</time>
      </trkpt>
      <trkpt lat="45.24438" lon="6.11641">
        <ele>2695.8000488281</ele>
        <time>2012-05-17T10:46:03.000Z</time>
      </trkpt>
      <trkpt lat="45.24435" lon="6.11636">
        <ele>2697.1999511719</ele>
        <time>2012-05-17T10:46:10.000Z</time>
      </trkpt>
      <trkpt lat="45.24432" lon="6.1163">
        <ele>2698.8000488281</ele>
        <time>2012-05-17T10:46:18.000Z</time>
      </trkpt>
      <trkpt lat="45.24429" lon="6.11624">
        <ele>2700</ele>
        <time>2012-05-17T10:46:26.000Z</time>
      </trkpt>
      <trkpt lat="45.24427" lon="6.11619">
        <ele>2701.3999023438</ele>
        <time>2012-05-17T10:46:33.000Z</time>
      </trkpt>
      <trkpt lat="45.24423" lon="6.11612">
        <ele>2702.8000488281</ele>
        <time>2012-05-17T10:46:42.000Z</time>
      </trkpt>
      <trkpt lat="45.2442" lon="6.11605">
        <ele>2704.6000976562</ele>
        <time>2012-05-17T10:46:50.000Z</time>
      </trkpt>
      <trkpt lat="45.24417" lon="6.11598">
        <ele>2706.3999023438</ele>
        <time>2012-05-17T10:46:59.000Z</time>
      </trkpt>
      <trkpt lat="45.24413" lon="6.11591">
        <ele>2708.1999511719</ele>
        <time>2012-05-17T10:47:08.000Z</time>
      </trkpt>
      <trkpt lat="45.2441" lon="6.11586">
        <ele>2709.6000976562</ele>
        <time>2012-05-17T10:47:16.000Z</time>
      </trkpt>
      <trkpt lat="45.24408" lon="6.11579">
        <ele>2711.1999511719</ele>
        <time>2012-05-17T10:47:24.000Z</time>
      </trkpt>
      <trkpt lat="45.24406" lon="6.11572">
        <ele>2712.6000976562</ele>
        <time>2012-05-17T10:47:32.000Z</time>
      </trkpt>
      <trkpt lat="45.24404" lon="6.11566">
        <ele>2714.1999511719</ele>
        <time>2012-05-17T10:47:40.000Z</time>
      </trkpt>
      <trkpt lat="45.24402" lon="6.11559">
        <ele>2716.1999511719</ele>
        <time>2012-05-17T10:47:48.000Z</time>
      </trkpt>
      <trkpt lat="45.244" lon="6.11553">
        <ele>2717.6000976562</ele>
        <time>2012-05-17T10:47:55.000Z</time>
      </trkpt>
      <trkpt lat="45.24399" lon="6.11549">
        <ele>2718.8000488281</ele>
        <time>2012-05-17T10:48:02.000Z</time>
      </trkpt>
      <trkpt lat="45.24397" lon="6.11545">
        <ele>2720.1999511719</ele>
        <time>2012-05-17T10:49:14.000Z</time>
      </trkpt>
      <trkpt lat="45.24396" lon="6.11542">
        <ele>2720.8000488281</ele>
        <time>2012-05-17T10:49:18.000Z</time>
      </trkpt>
      <trkpt lat="45.24395" lon="6.11537">
        <ele>2722</ele>
        <time>2012-05-17T10:49:25.000Z</time>
      </trkpt>
      <trkpt lat="45.24393" lon="6.11532">
        <ele>2723</ele>
        <time>2012-05-17T10:49:32.000Z</time>
      </trkpt>
      <trkpt lat="45.24391" lon="6.11526">
        <ele>2724.1999511719</ele>
        <time>2012-05-17T10:49:39.000Z</time>
      </trkpt>
      <trkpt lat="45.24389" lon="6.11521">
        <ele>2725.3999023438</ele>
        <time>2012-05-17T10:49:47.000Z</time>
      </trkpt>
      <trkpt lat="45.24388" lon="6.11514">
        <ele>2726.8000488281</ele>
        <time>2012-05-17T10:49:55.000Z</time>
      </trkpt>
      <trkpt lat="45.24386" lon="6.11509">
        <ele>2727.8000488281</ele>
        <time>2012-05-17T10:50:02.000Z</time>
      </trkpt>
      <trkpt lat="45.24384" lon="6.11503">
        <ele>2729.6000976562</ele>
        <time>2012-05-17T10:50:11.000Z</time>
      </trkpt>
      <trkpt lat="45.24384" lon="6.11499">
        <ele>2730.3999023438</ele>
        <time>2012-05-17T10:50:17.000Z</time>
      </trkpt>
      <trkpt lat="45.24382" lon="6.11491">
        <ele>2732.3999023438</ele>
        <time>2012-05-17T10:50:27.000Z</time>
      </trkpt>
      <trkpt lat="45.24381" lon="6.11486">
        <ele>2733.6000976562</ele>
        <time>2012-05-17T10:50:34.000Z</time>
      </trkpt>
      <trkpt lat="45.24379" lon="6.11481">
        <ele>2735</ele>
        <time>2012-05-17T10:50:42.000Z</time>
      </trkpt>
      <trkpt lat="45.24378" lon="6.11476">
        <ele>2736.1999511719</ele>
        <time>2012-05-17T10:50:49.000Z</time>
      </trkpt>
      <trkpt lat="45.24376" lon="6.11471">
        <ele>2737.8000488281</ele>
        <time>2012-05-17T10:50:57.000Z</time>
      </trkpt>
      <trkpt lat="45.24374" lon="6.11466">
        <ele>2739</ele>
        <time>2012-05-17T10:51:04.000Z</time>
      </trkpt>
      <trkpt lat="45.24372" lon="6.1146">
        <ele>2740.6000976562</ele>
        <time>2012-05-17T10:51:13.000Z</time>
      </trkpt>
      <trkpt lat="45.2437" lon="6.11455">
        <ele>2742</ele>
        <time>2012-05-17T10:51:20.000Z</time>
      </trkpt>
      <trkpt lat="45.24368" lon="6.1145">
        <ele>2743.1999511719</ele>
        <time>2012-05-17T10:51:27.000Z</time>
      </trkpt>
      <trkpt lat="45.24367" lon="6.11446">
        <ele>2744.1999511719</ele>
        <time>2012-05-17T10:51:33.000Z</time>
      </trkpt>
      <trkpt lat="45.24364" lon="6.11438">
        <ele>2746</ele>
        <time>2012-05-17T10:51:44.000Z</time>
      </trkpt>
      <trkpt lat="45.24362" lon="6.11434">
        <ele>2747.1999511719</ele>
        <time>2012-05-17T10:51:50.000Z</time>
      </trkpt>
      <trkpt lat="45.2436" lon="6.11428">
        <ele>2748.8000488281</ele>
        <time>2012-05-17T10:51:59.000Z</time>
      </trkpt>
      <trkpt lat="45.24357" lon="6.11422">
        <ele>2750.8000488281</ele>
        <time>2012-05-17T10:52:09.000Z</time>
      </trkpt>
      <trkpt lat="45.24355" lon="6.11418">
        <ele>2752.1999511719</ele>
        <time>2012-05-17T10:52:16.000Z</time>
      </trkpt>
      <trkpt lat="45.24353" lon="6.11413">
        <ele>2754</ele>
        <time>2012-05-17T10:52:25.000Z</time>
      </trkpt>
      <trkpt lat="45.24351" lon="6.11408">
        <ele>2755.1999511719</ele>
        <time>2012-05-17T10:52:32.000Z</time>
      </trkpt>
      <trkpt lat="45.2435" lon="6.11404">
        <ele>2756.3999023438</ele>
        <time>2012-05-17T10:52:39.000Z</time>
      </trkpt>
      <trkpt lat="45.24348" lon="6.11398">
        <ele>2758</ele>
        <time>2012-05-17T10:52:48.000Z</time>
      </trkpt>
      <trkpt lat="45.24347" lon="6.11394">
        <ele>2759</ele>
        <time>2012-05-17T10:52:54.000Z</time>
      </trkpt>
      <trkpt lat="45.24346" lon="6.11389">
        <ele>2760.3999023438</ele>
        <time>2012-05-17T10:53:01.000Z</time>
      </trkpt>
      <trkpt lat="45.24344" lon="6.11383">
        <ele>2762</ele>
        <time>2012-05-17T10:53:10.000Z</time>
      </trkpt>
      <trkpt lat="45.24343" lon="6.11377">
        <ele>2763.8000488281</ele>
        <time>2012-05-17T10:53:19.000Z</time>
      </trkpt>
      <trkpt lat="45.24342" lon="6.11373">
        <ele>2765</ele>
        <time>2012-05-17T10:53:26.000Z</time>
      </trkpt>
      <trkpt lat="45.24341" lon="6.11369">
        <ele>2766.3999023438</ele>
        <time>2012-05-17T10:53:32.000Z</time>
      </trkpt>
      <trkpt lat="45.2434" lon="6.11365">
        <ele>2767.3999023438</ele>
        <time>2012-05-17T10:53:38.000Z</time>
      </trkpt>
      <trkpt lat="45.24339" lon="6.11363">
        <ele>2768.6000976562</ele>
        <time>2012-05-17T10:53:43.000Z</time>
      </trkpt>
      <trkpt lat="45.24338" lon="6.11358">
        <ele>2770.3999023438</ele>
        <time>2012-05-17T10:53:51.000Z</time>
      </trkpt>
      <trkpt lat="45.24336" lon="6.11352">
        <ele>2772.1999511719</ele>
        <time>2012-05-17T10:54:02.000Z</time>
      </trkpt>
      <trkpt lat="45.24334" lon="6.11347">
        <ele>2773.6000976562</ele>
        <time>2012-05-17T10:54:10.000Z</time>
      </trkpt>
      <trkpt lat="45.24333" lon="6.11342">
        <ele>2775.1999511719</ele>
        <time>2012-05-17T10:54:18.000Z</time>
      </trkpt>
      <trkpt lat="45.24331" lon="6.11337">
        <ele>2776.1999511719</ele>
        <time>2012-05-17T10:54:25.000Z</time>
      </trkpt>
      <trkpt lat="45.24329" lon="6.1133">
        <ele>2778</ele>
        <time>2012-05-17T10:54:36.000Z</time>
      </trkpt>
      <trkpt lat="45.24327" lon="6.11324">
        <ele>2779.8000488281</ele>
        <time>2012-05-17T10:54:45.000Z</time>
      </trkpt>
      <trkpt lat="45.24326" lon="6.11319">
        <ele>2781</ele>
        <time>2012-05-17T10:54:52.000Z</time>
      </trkpt>
      <trkpt lat="45.24327" lon="6.11315">
        <ele>2782.1999511719</ele>
        <time>2012-05-17T10:54:58.000Z</time>
      </trkpt>
      <trkpt lat="45.2433" lon="6.11308">
        <ele>2784</ele>
        <time>2012-05-17T10:55:09.000Z</time>
      </trkpt>
      <trkpt lat="45.24331" lon="6.11302">
        <ele>2785.1999511719</ele>
        <time>2012-05-17T10:55:17.000Z</time>
      </trkpt>
      <trkpt lat="45.24331" lon="6.11299">
        <ele>2786.1999511719</ele>
        <time>2012-05-17T10:55:22.000Z</time>
      </trkpt>
      <trkpt lat="45.2433" lon="6.11295">
        <ele>2786.8000488281</ele>
        <time>2012-05-17T10:55:37.000Z</time>
      </trkpt>
      <trkpt lat="45.24329" lon="6.11287">
        <ele>2788</ele>
        <time>2012-05-17T10:55:45.000Z</time>
      </trkpt>
      <trkpt lat="45.24327" lon="6.11279">
        <ele>2789.6000976562</ele>
        <time>2012-05-17T10:55:54.000Z</time>
      </trkpt>
      <trkpt lat="45.24326" lon="6.1127">
        <ele>2791</ele>
        <time>2012-05-17T10:56:03.000Z</time>
      </trkpt>
      <trkpt lat="45.24324" lon="6.11263">
        <ele>2792.6000976562</ele>
        <time>2012-05-17T10:56:12.000Z</time>
      </trkpt>
      <trkpt lat="45.24323" lon="6.11256">
        <ele>2794.1999511719</ele>
        <time>2012-05-17T10:56:20.000Z</time>
      </trkpt>
      <trkpt lat="45.24323" lon="6.1125">
        <ele>2795.1999511719</ele>
        <time>2012-05-17T10:56:27.000Z</time>
      </trkpt>
      <trkpt lat="45.24321" lon="6.11244">
        <ele>2797</ele>
        <time>2012-05-17T10:56:35.000Z</time>
      </trkpt>
      <trkpt lat="45.2432" lon="6.11237">
        <ele>2798.8000488281</ele>
        <time>2012-05-17T10:56:44.000Z</time>
      </trkpt>
      <trkpt lat="45.24318" lon="6.1123">
        <ele>2800.3999023438</ele>
        <time>2012-05-17T10:56:54.000Z</time>
      </trkpt>
      <trkpt lat="45.24317" lon="6.11223">
        <ele>2802</ele>
        <time>2012-05-17T10:57:03.000Z</time>
      </trkpt>
      <trkpt lat="45.24315" lon="6.11217">
        <ele>2803.3999023438</ele>
        <time>2012-05-17T10:57:12.000Z</time>
      </trkpt>
      <trkpt lat="45.24314" lon="6.11212">
        <ele>2804.8000488281</ele>
        <time>2012-05-17T10:57:19.000Z</time>
      </trkpt>
      <trkpt lat="45.24313" lon="6.11206">
        <ele>2806.1999511719</ele>
        <time>2012-05-17T10:57:27.000Z</time>
      </trkpt>
      <trkpt lat="45.24313" lon="6.11201">
        <ele>2807</ele>
        <time>2012-05-17T10:57:33.000Z</time>
      </trkpt>
      <trkpt lat="45.24312" lon="6.11196">
        <ele>2808.3999023438</ele>
        <time>2012-05-17T10:57:40.000Z</time>
      </trkpt>
      <trkpt lat="45.2431" lon="6.11188">
        <ele>2810.1999511719</ele>
        <time>2012-05-17T10:57:50.000Z</time>
      </trkpt>
      <trkpt lat="45.24309" lon="6.11182">
        <ele>2811.6000976562</ele>
        <time>2012-05-17T10:57:58.000Z</time>
      </trkpt>
      <trkpt lat="45.24307" lon="6.11177">
        <ele>2813.1999511719</ele>
        <time>2012-05-17T10:58:06.000Z</time>
      </trkpt>
      <trkpt lat="45.24305" lon="6.11172">
        <ele>2814.6000976562</ele>
        <time>2012-05-17T10:58:13.000Z</time>
      </trkpt>
      <trkpt lat="45.24303" lon="6.11167">
        <ele>2816</ele>
        <time>2012-05-17T10:58:21.000Z</time>
      </trkpt>
      <trkpt lat="45.243" lon="6.11159">
        <ele>2818.1999511719</ele>
        <time>2012-05-17T10:58:32.000Z</time>
      </trkpt>
      <trkpt lat="45.24299" lon="6.11155">
        <ele>2819.3999023438</ele>
        <time>2012-05-17T10:58:39.000Z</time>
      </trkpt>
      <trkpt lat="45.24298" lon="6.11148">
        <ele>2821</ele>
        <time>2012-05-17T10:59:09.000Z</time>
      </trkpt>
      <trkpt lat="45.24297" lon="6.11141">
        <ele>2823</ele>
        <time>2012-05-17T10:59:18.000Z</time>
      </trkpt>
      <trkpt lat="45.24296" lon="6.11132">
        <ele>2825.1999511719</ele>
        <time>2012-05-17T10:59:29.000Z</time>
      </trkpt>
      <trkpt lat="45.24295" lon="6.11125">
        <ele>2826.6000976562</ele>
        <time>2012-05-17T10:59:37.000Z</time>
      </trkpt>
      <trkpt lat="45.24294" lon="6.11119">
        <ele>2828.1999511719</ele>
        <time>2012-05-17T10:59:45.000Z</time>
      </trkpt>
      <trkpt lat="45.24294" lon="6.11113">
        <ele>2829.8000488281</ele>
        <time>2012-05-17T10:59:53.000Z</time>
      </trkpt>
      <trkpt lat="45.24293" lon="6.11107">
        <ele>2831.1999511719</ele>
        <time>2012-05-17T11:00:01.000Z</time>
      </trkpt>
      <trkpt lat="45.24292" lon="6.11101">
        <ele>2832.6000976562</ele>
        <time>2012-05-17T11:00:09.000Z</time>
      </trkpt>
      <trkpt lat="45.24291" lon="6.11095">
        <ele>2834.1999511719</ele>
        <time>2012-05-17T11:00:17.000Z</time>
      </trkpt>
      <trkpt lat="45.2429" lon="6.11089">
        <ele>2835.3999023438</ele>
        <time>2012-05-17T11:00:25.000Z</time>
      </trkpt>
      <trkpt lat="45.2429" lon="6.11084">
        <ele>2836.8000488281</ele>
        <time>2012-05-17T11:00:32.000Z</time>
      </trkpt>
      <trkpt lat="45.24289" lon="6.11077">
        <ele>2838.1999511719</ele>
        <time>2012-05-17T11:00:40.000Z</time>
      </trkpt>
      <trkpt lat="45.24288" lon="6.11071">
        <ele>2839.6000976562</ele>
        <time>2012-05-17T11:00:48.000Z</time>
      </trkpt>
      <trkpt lat="45.24286" lon="6.11064">
        <ele>2841</ele>
        <time>2012-05-17T11:00:56.000Z</time>
      </trkpt>
      <trkpt lat="45.24285" lon="6.11058">
        <ele>2842.3999023438</ele>
        <time>2012-05-17T11:01:04.000Z</time>
      </trkpt>
      <trkpt lat="45.24283" lon="6.11051">
        <ele>2843.6000976562</ele>
        <time>2012-05-17T11:01:12.000Z</time>
      </trkpt>
      <trkpt lat="45.24281" lon="6.11044">
        <ele>2844.8000488281</ele>
        <time>2012-05-17T11:01:20.000Z</time>
      </trkpt>
      <trkpt lat="45.24279" lon="6.11038">
        <ele>2846.1999511719</ele>
        <time>2012-05-17T11:01:28.000Z</time>
      </trkpt>
      <trkpt lat="45.24277" lon="6.11032">
        <ele>2847.6000976562</ele>
        <time>2012-05-17T11:01:36.000Z</time>
      </trkpt>
      <trkpt lat="45.24275" lon="6.11026">
        <ele>2849</ele>
        <time>2012-05-17T11:01:44.000Z</time>
      </trkpt>
      <trkpt lat="45.24273" lon="6.11022">
        <ele>2850.3999023438</ele>
        <time>2012-05-17T11:01:51.000Z</time>
      </trkpt>
      <trkpt lat="45.24269" lon="6.11017">
        <ele>2852</ele>
        <time>2012-05-17T11:02:00.000Z</time>
      </trkpt>
      <trkpt lat="45.24266" lon="6.11012">
        <ele>2853.1999511719</ele>
        <time>2012-05-17T11:02:08.000Z</time>
      </trkpt>
      <trkpt lat="45.24264" lon="6.11008">
        <ele>2855</ele>
        <time>2012-05-17T11:02:16.000Z</time>
      </trkpt>
      <trkpt lat="45.24261" lon="6.11003">
        <ele>2856.3999023438</ele>
        <time>2012-05-17T11:02:24.000Z</time>
      </trkpt>
      <trkpt lat="45.2426" lon="6.10997">
        <ele>2857.8000488281</ele>
        <time>2012-05-17T11:02:32.000Z</time>
      </trkpt>
      <trkpt lat="45.24262" lon="6.10989">
        <ele>2859</ele>
        <time>2012-05-17T11:02:41.000Z</time>
      </trkpt>
      <trkpt lat="45.24265" lon="6.10982">
        <ele>2860.3999023438</ele>
        <time>2012-05-17T11:02:50.000Z</time>
      </trkpt>
      <trkpt lat="45.24267" lon="6.10975">
        <ele>2861.8000488281</ele>
        <time>2012-05-17T11:02:59.000Z</time>
      </trkpt>
      <trkpt lat="45.24269" lon="6.10969">
        <ele>2863.6000976562</ele>
        <time>2012-05-17T11:03:08.000Z</time>
      </trkpt>
      <trkpt lat="45.2427" lon="6.10963">
        <ele>2864.8000488281</ele>
        <time>2012-05-17T11:03:16.000Z</time>
      </trkpt>
      <trkpt lat="45.24271" lon="6.10958">
        <ele>2866.3999023438</ele>
        <time>2012-05-17T11:03:24.000Z</time>
      </trkpt>
      <trkpt lat="45.24272" lon="6.10953">
        <ele>2867.8000488281</ele>
        <time>2012-05-17T11:03:32.000Z</time>
      </trkpt>
      <trkpt lat="45.2427" lon="6.1095">
        <ele>2869</ele>
        <time>2012-05-17T11:03:37.000Z</time>
      </trkpt>
      <trkpt lat="45.24268" lon="6.10948">
        <ele>2870.1999511719</ele>
        <time>2012-05-17T11:03:43.000Z</time>
      </trkpt>
      <trkpt lat="45.24263" lon="6.10945">
        <ele>2871.6000976562</ele>
        <time>2012-05-17T11:03:53.000Z</time>
      </trkpt>
      <trkpt lat="45.24264" lon="6.10945">
        <ele>2871.8000488281</ele>
        <time>2012-05-17T11:03:55.000Z</time>
      </trkpt>
      <trkpt lat="45.2426" lon="6.10942">
        <ele>2873.1999511719</ele>
        <time>2012-05-17T11:04:07.000Z</time>
      </trkpt>
      <trkpt lat="45.24255" lon="6.1094">
        <ele>2874.8000488281</ele>
        <time>2012-05-17T11:04:16.000Z</time>
      </trkpt>
      <trkpt lat="45.24251" lon="6.10939">
        <ele>2876</ele>
        <time>2012-05-17T11:04:23.000Z</time>
      </trkpt>
      <trkpt lat="45.24247" lon="6.10938">
        <ele>2877.3999023438</ele>
        <time>2012-05-17T11:04:31.000Z</time>
      </trkpt>
      <trkpt lat="45.24245" lon="6.10938">
        <ele>2878.1999511719</ele>
        <time>2012-05-17T11:04:35.000Z</time>
      </trkpt>
      <trkpt lat="45.24243" lon="6.10938">
        <ele>2879.1999511719</ele>
        <time>2012-05-17T11:04:40.000Z</time>
      </trkpt>
      <trkpt lat="45.24239" lon="6.10939">
        <ele>2880.3999023438</ele>
        <time>2012-05-17T11:04:48.000Z</time>
      </trkpt>
      <trkpt lat="45.24236" lon="6.1094">
        <ele>2881.6000976562</ele>
        <time>2012-05-17T11:04:56.000Z</time>
      </trkpt>
      <trkpt lat="45.24236" lon="6.10939">
        <ele>2881.6000976562</ele>
        <time>2012-05-17T11:04:59.000Z</time>
      </trkpt>
      <trkpt lat="45.24236" lon="6.10939">
        <ele>2881.6000976562</ele>
        <time>2012-05-17T11:05:00.000Z</time>
      </trkpt>
      <trkpt lat="45.24239" lon="6.10933">
        <ele>2882.8000488281</ele>
        <time>2012-05-17T11:05:10.000Z</time>
      </trkpt>
      <trkpt lat="45.24241" lon="6.10928">
        <ele>2884</ele>
        <time>2012-05-17T11:05:17.000Z</time>
      </trkpt>
      <trkpt lat="45.24243" lon="6.10921">
        <ele>2886</ele>
        <time>2012-05-17T11:05:26.000Z</time>
      </trkpt>
      <trkpt lat="45.24245" lon="6.10915">
        <ele>2888</ele>
        <time>2012-05-17T11:05:36.000Z</time>
      </trkpt>
      <trkpt lat="45.24246" lon="6.10911">
        <ele>2889</ele>
        <time>2012-05-17T11:05:42.000Z</time>
      </trkpt>
      <trkpt lat="45.24247" lon="6.10904">
        <ele>2890.6000976562</ele>
        <time>2012-05-17T11:05:51.000Z</time>
      </trkpt>
      <trkpt lat="45.24248" lon="6.10899">
        <ele>2892</ele>
        <time>2012-05-17T11:05:58.000Z</time>
      </trkpt>
      <trkpt lat="45.24248" lon="6.10894">
        <ele>2893</ele>
        <time>2012-05-17T11:06:05.000Z</time>
      </trkpt>
      <trkpt lat="45.24246" lon="6.10893">
        <ele>2893.8000488281</ele>
        <time>2012-05-17T11:06:10.000Z</time>
      </trkpt>
      <trkpt lat="45.2424" lon="6.10896">
        <ele>2895</ele>
        <time>2012-05-17T11:06:19.000Z</time>
      </trkpt>
      <trkpt lat="45.24236" lon="6.10897">
        <ele>2896</ele>
        <time>2012-05-17T11:06:26.000Z</time>
      </trkpt>
      <trkpt lat="45.24232" lon="6.10899">
        <ele>2897.1999511719</ele>
        <time>2012-05-17T11:06:34.000Z</time>
      </trkpt>
      <trkpt lat="45.24228" lon="6.109">
        <ele>2898.1999511719</ele>
        <time>2012-05-17T11:06:41.000Z</time>
      </trkpt>
      <trkpt lat="45.24222" lon="6.10901">
        <ele>2900</ele>
        <time>2012-05-17T11:06:51.000Z</time>
      </trkpt>
      <trkpt lat="45.24219" lon="6.10901">
        <ele>2900.8000488281</ele>
        <time>2012-05-17T11:06:57.000Z</time>
      </trkpt>
      <trkpt lat="45.24214" lon="6.109">
        <ele>2902.8000488281</ele>
        <time>2012-05-17T11:07:07.000Z</time>
      </trkpt>
      <trkpt lat="45.24209" lon="6.10897">
        <ele>2904.1999511719</ele>
        <time>2012-05-17T11:07:16.000Z</time>
      </trkpt>
      <trkpt lat="45.24208" lon="6.10895">
        <ele>2905.1999511719</ele>
        <time>2012-05-17T11:07:21.000Z</time>
      </trkpt>
      <trkpt lat="45.24208" lon="6.10895">
        <ele>2905.1999511719</ele>
        <time>2012-05-17T11:07:22.000Z</time>
      </trkpt>
      <trkpt lat="45.2421" lon="6.1089">
        <ele>2906.8000488281</ele>
        <time>2012-05-17T11:07:30.000Z</time>
      </trkpt>
      <trkpt lat="45.24212" lon="6.10884">
        <ele>2908.8000488281</ele>
        <time>2012-05-17T11:07:39.000Z</time>
      </trkpt>
      <trkpt lat="45.24214" lon="6.10877">
        <ele>2910.6000976562</ele>
        <time>2012-05-17T11:07:48.000Z</time>
      </trkpt>
      <trkpt lat="45.24215" lon="6.10869">
        <ele>2911.6000976562</ele>
        <time>2012-05-17T11:07:57.000Z</time>
      </trkpt>
      <trkpt lat="45.24213" lon="6.10863">
        <ele>2912.6000976562</ele>
        <time>2012-05-17T11:08:05.000Z</time>
      </trkpt>
      <trkpt lat="45.24208" lon="6.10863">
        <ele>2913.8000488281</ele>
        <time>2012-05-17T11:08:13.000Z</time>
      </trkpt>
      <trkpt lat="45.24202" lon="6.10863">
        <ele>2915.3999023438</ele>
        <time>2012-05-17T11:08:23.000Z</time>
      </trkpt>
      <trkpt lat="45.24197" lon="6.10863">
        <ele>2916.8000488281</ele>
        <time>2012-05-17T11:08:32.000Z</time>
      </trkpt>
      <trkpt lat="45.24192" lon="6.10862">
        <ele>2917.8000488281</ele>
        <time>2012-05-17T11:08:40.000Z</time>
      </trkpt>
      <trkpt lat="45.24191" lon="6.10861">
        <ele>2918.8000488281</ele>
        <time>2012-05-17T11:08:45.000Z</time>
      </trkpt>
      <trkpt lat="45.24194" lon="6.10856">
        <ele>2919.8000488281</ele>
        <time>2012-05-17T11:08:54.000Z</time>
      </trkpt>
      <trkpt lat="45.24194" lon="6.10856">
        <ele>2920</ele>
        <time>2012-05-17T11:08:55.000Z</time>
      </trkpt>
      <trkpt lat="45.24196" lon="6.10851">
        <ele>2920.6000976562</ele>
        <time>2012-05-17T11:09:37.000Z</time>
      </trkpt>
      <trkpt lat="45.24198" lon="6.10848">
        <ele>2921.3999023438</ele>
        <time>2012-05-17T11:09:44.000Z</time>
      </trkpt>
      <trkpt lat="45.24198" lon="6.10848">
        <ele>2921.6000976562</ele>
        <time>2012-05-17T11:09:45.000Z</time>
      </trkpt>
      <trkpt lat="45.24198" lon="6.10843">
        <ele>2922.6000976562</ele>
        <time>2012-05-17T11:09:51.000Z</time>
      </trkpt>
      <trkpt lat="45.24194" lon="6.10842">
        <ele>2923.8000488281</ele>
        <time>2012-05-17T11:09:57.000Z</time>
      </trkpt>
      <trkpt lat="45.24189" lon="6.10842">
        <ele>2925.3999023438</ele>
        <time>2012-05-17T11:10:05.000Z</time>
      </trkpt>
      <trkpt lat="45.24185" lon="6.10841">
        <ele>2926.8000488281</ele>
        <time>2012-05-17T11:10:12.000Z</time>
      </trkpt>
      <trkpt lat="45.24181" lon="6.1084">
        <ele>2928</ele>
        <time>2012-05-17T11:10:19.000Z</time>
      </trkpt>
      <trkpt lat="45.24177" lon="6.10837">
        <ele>2929.6000976562</ele>
        <time>2012-05-17T11:10:28.000Z</time>
      </trkpt>
      <trkpt lat="45.24175" lon="6.10833">
        <ele>2931.1999511719</ele>
        <time>2012-05-17T11:10:36.000Z</time>
      </trkpt>
      <trkpt lat="45.24174" lon="6.10829">
        <ele>2933</ele>
        <time>2012-05-17T11:10:42.000Z</time>
      </trkpt>
      <trkpt lat="45.24174" lon="6.10825">
        <ele>2934.1999511719</ele>
        <time>2012-05-17T11:10:48.000Z</time>
      </trkpt>
      <trkpt lat="45.24174" lon="6.10824">
        <ele>2934.3999023438</ele>
        <time>2012-05-17T11:10:49.000Z</time>
      </trkpt>
      <trkpt lat="45.24173" lon="6.10817">
        <ele>2935.3999023438</ele>
        <time>2012-05-17T11:11:00.000Z</time>
      </trkpt>
      <trkpt lat="45.24171" lon="6.1081">
        <ele>2937</ele>
        <time>2012-05-17T11:11:09.000Z</time>
      </trkpt>
      <trkpt lat="45.24169" lon="6.10804">
        <ele>2938.8000488281</ele>
        <time>2012-05-17T11:11:18.000Z</time>
      </trkpt>
      <trkpt lat="45.24166" lon="6.10799">
        <ele>2939.8000488281</ele>
        <time>2012-05-17T11:11:26.000Z</time>
      </trkpt>
      <trkpt lat="45.24162" lon="6.10793">
        <ele>2941</ele>
        <time>2012-05-17T11:11:34.000Z</time>
      </trkpt>
      <trkpt lat="45.24156" lon="6.10783">
        <ele>2941.3999023438</ele>
        <time>2012-05-17T11:11:46.000Z</time>
      </trkpt>
      <trkpt lat="45.24155" lon="6.10778">
        <ele>2943.1999511719</ele>
        <time>2012-05-17T11:11:53.000Z</time>
      </trkpt>
      <trkpt lat="45.24153" lon="6.10774">
        <ele>2944.3999023438</ele>
        <time>2012-05-17T11:12:00.000Z</time>
      </trkpt>
      <trkpt lat="45.2415" lon="6.10772">
        <ele>2946.3999023438</ele>
        <time>2012-05-17T11:12:08.000Z</time>
      </trkpt>
      <trkpt lat="45.24149" lon="6.10767">
        <ele>2947.8000488281</ele>
        <time>2012-05-17T11:12:14.000Z</time>
      </trkpt>
      <trkpt lat="45.24147" lon="6.10761">
        <ele>2948.8000488281</ele>
        <time>2012-05-17T11:12:23.000Z</time>
      </trkpt>
      <trkpt lat="45.24147" lon="6.1076">
        <ele>2948.8000488281</ele>
        <time>2012-05-17T11:12:24.000Z</time>
      </trkpt>
      <trkpt lat="45.24146" lon="6.10762">
        <ele>2948.6000976562</ele>
        <time>2012-05-17T11:18:48.000Z</time>
      </trkpt>
      <trkpt lat="45.24147" lon="6.10758">
        <ele>2949</ele>
        <time>2012-05-17T11:23:11.000Z</time>
      </trkpt>
      <trkpt lat="45.24148" lon="6.10759">
        <ele>2949</ele>
        <time>2012-05-17T11:23:58.000Z</time>
      </trkpt>
      <trkpt lat="45.24148" lon="6.1076">
        <ele>2949</ele>
        <time>2012-05-17T11:24:02.000Z</time>
      </trkpt>
      <trkpt lat="45.24149" lon="6.10759">
        <ele>2949.1999511719</ele>
        <time>2012-05-17T11:28:34.000Z</time>
      </trkpt>
      <trkpt lat="45.24149" lon="6.10766">
        <ele>2948.8000488281</ele>
        <time>2012-05-17T11:28:57.000Z</time>
      </trkpt>
      <trkpt lat="45.24149" lon="6.10766">
        <ele>2948.6000976562</ele>
        <time>2012-05-17T11:28:58.000Z</time>
      </trkpt>
      <trkpt lat="45.24155" lon="6.10778">
        <ele>2946.3999023438</ele>
        <time>2012-05-17T11:29:05.000Z</time>
      </trkpt>
      <trkpt lat="45.24161" lon="6.10787">
        <ele>2944</ele>
        <time>2012-05-17T11:29:07.000Z</time>
      </trkpt>
      <trkpt lat="45.24171" lon="6.10808">
        <ele>2940.3999023438</ele>
        <time>2012-05-17T11:29:12.000Z</time>
      </trkpt>
      <trkpt lat="45.24179" lon="6.10823">
        <ele>2937.3999023438</ele>
        <time>2012-05-17T11:29:15.000Z</time>
      </trkpt>
      <trkpt lat="45.24185" lon="6.10828">
        <ele>2934.8000488281</ele>
        <time>2012-05-17T11:29:17.000Z</time>
      </trkpt>
      <trkpt lat="45.24195" lon="6.10847">
        <ele>2927</ele>
        <time>2012-05-17T11:29:22.000Z</time>
      </trkpt>
      <trkpt lat="45.242" lon="6.10859">
        <ele>2922.3999023438</ele>
        <time>2012-05-17T11:29:25.000Z</time>
      </trkpt>
      <trkpt lat="45.24213" lon="6.10871">
        <ele>2915.1999511719</ele>
        <time>2012-05-17T11:29:29.000Z</time>
      </trkpt>
      <trkpt lat="45.24208" lon="6.10886">
        <ele>2911.6000976562</ele>
        <time>2012-05-17T11:29:32.000Z</time>
      </trkpt>
      <trkpt lat="45.24212" lon="6.10897">
        <ele>2908.6000976562</ele>
        <time>2012-05-17T11:29:34.000Z</time>
      </trkpt>
      <trkpt lat="45.2422" lon="6.10909">
        <ele>2903.3999023438</ele>
        <time>2012-05-17T11:29:37.000Z</time>
      </trkpt>
      <trkpt lat="45.24224" lon="6.10916">
        <ele>2899.3999023438</ele>
        <time>2012-05-17T11:29:39.000Z</time>
      </trkpt>
      <trkpt lat="45.24227" lon="6.10927">
        <ele>2896.3999023438</ele>
        <time>2012-05-17T11:29:41.000Z</time>
      </trkpt>
      <trkpt lat="45.24221" lon="6.10952">
        <ele>2890</ele>
        <time>2012-05-17T11:29:44.000Z</time>
      </trkpt>
      <trkpt lat="45.24229" lon="6.10957">
        <ele>2886</ele>
        <time>2012-05-17T11:29:46.000Z</time>
      </trkpt>
      <trkpt lat="45.24231" lon="6.10974">
        <ele>2880.8000488281</ele>
        <time>2012-05-17T11:29:48.000Z</time>
      </trkpt>
      <trkpt lat="45.24236" lon="6.11001">
        <ele>2874.3999023438</ele>
        <time>2012-05-17T11:29:51.000Z</time>
      </trkpt>
      <trkpt lat="45.24239" lon="6.11019">
        <ele>2869</ele>
        <time>2012-05-17T11:29:53.000Z</time>
      </trkpt>
      <trkpt lat="45.24246" lon="6.11023">
        <ele>2864.8000488281</ele>
        <time>2012-05-17T11:29:55.000Z</time>
      </trkpt>
      <trkpt lat="45.24252" lon="6.11034">
        <ele>2860.1999511719</ele>
        <time>2012-05-17T11:29:57.000Z</time>
      </trkpt>
      <trkpt lat="45.24263" lon="6.11042">
        <ele>2855</ele>
        <time>2012-05-17T11:30:00.000Z</time>
      </trkpt>
      <trkpt lat="45.24276" lon="6.11037">
        <ele>2851</ele>
        <time>2012-05-17T11:30:02.000Z</time>
      </trkpt>
      <trkpt lat="45.24288" lon="6.11051">
        <ele>2846.8000488281</ele>
        <time>2012-05-17T11:30:05.000Z</time>
      </trkpt>
      <trkpt lat="45.243" lon="6.11058">
        <ele>2843.8000488281</ele>
        <time>2012-05-17T11:30:08.000Z</time>
      </trkpt>
      <trkpt lat="45.24303" lon="6.11055">
        <ele>2842.6000976562</ele>
        <time>2012-05-17T11:30:10.000Z</time>
      </trkpt>
      <trkpt lat="45.24304" lon="6.11054">
        <ele>2841.8000488281</ele>
        <time>2012-05-17T11:30:13.000Z</time>
      </trkpt>
      <trkpt lat="45.24305" lon="6.11057">
        <ele>2841.6000976562</ele>
        <time>2012-05-17T11:30:19.000Z</time>
      </trkpt>
      <trkpt lat="45.24302" lon="6.11073">
        <ele>2840.8000488281</ele>
        <time>2012-05-17T11:30:32.000Z</time>
      </trkpt>
      <trkpt lat="45.243" lon="6.11079">
        <ele>2840.1999511719</ele>
        <time>2012-05-17T11:30:33.000Z</time>
      </trkpt>
      <trkpt lat="45.2429" lon="6.11112">
        <ele>2835.8000488281</ele>
        <time>2012-05-17T11:30:37.000Z</time>
      </trkpt>
      <trkpt lat="45.24279" lon="6.11145">
        <ele>2830.8000488281</ele>
        <time>2012-05-17T11:30:40.000Z</time>
      </trkpt>
      <trkpt lat="45.24276" lon="6.11153">
        <ele>2829</ele>
        <time>2012-05-17T11:30:41.000Z</time>
      </trkpt>
      <trkpt lat="45.24266" lon="6.11193">
        <ele>2825.8000488281</ele>
        <time>2012-05-17T11:30:48.000Z</time>
      </trkpt>
      <trkpt lat="45.24264" lon="6.112">
        <ele>2825.1999511719</ele>
        <time>2012-05-17T11:30:49.000Z</time>
      </trkpt>
      <trkpt lat="45.2427" lon="6.11209">
        <ele>2823.3999023438</ele>
        <time>2012-05-17T11:30:52.000Z</time>
      </trkpt>
      <trkpt lat="45.24273" lon="6.11218">
        <ele>2821.3999023438</ele>
        <time>2012-05-17T11:30:54.000Z</time>
      </trkpt>
      <trkpt lat="45.24271" lon="6.11224">
        <ele>2819.8000488281</ele>
        <time>2012-05-17T11:30:55.000Z</time>
      </trkpt>
      <trkpt lat="45.24273" lon="6.11245">
        <ele>2815.8000488281</ele>
        <time>2012-05-17T11:30:59.000Z</time>
      </trkpt>
      <trkpt lat="45.24275" lon="6.11259">
        <ele>2813.1999511719</ele>
        <time>2012-05-17T11:31:01.000Z</time>
      </trkpt>
      <trkpt lat="45.24283" lon="6.11272">
        <ele>2810</ele>
        <time>2012-05-17T11:31:04.000Z</time>
      </trkpt>
      <trkpt lat="45.24287" lon="6.11289">
        <ele>2806.6000976562</ele>
        <time>2012-05-17T11:31:06.000Z</time>
      </trkpt>
      <trkpt lat="45.24286" lon="6.11304">
        <ele>2802.6000976562</ele>
        <time>2012-05-17T11:31:08.000Z</time>
      </trkpt>
      <trkpt lat="45.24283" lon="6.11317">
        <ele>2800.8000488281</ele>
        <time>2012-05-17T11:31:10.000Z</time>
      </trkpt>
      <trkpt lat="45.24283" lon="6.11345">
        <ele>2797.8000488281</ele>
        <time>2012-05-17T11:31:14.000Z</time>
      </trkpt>
      <trkpt lat="45.24289" lon="6.11343">
        <ele>2795</ele>
        <time>2012-05-17T11:31:17.000Z</time>
      </trkpt>
      <trkpt lat="45.24293" lon="6.11348">
        <ele>2792.6000976562</ele>
        <time>2012-05-17T11:31:19.000Z</time>
      </trkpt>
      <trkpt lat="45.24298" lon="6.11351">
        <ele>2790.8000488281</ele>
        <time>2012-05-17T11:31:21.000Z</time>
      </trkpt>
      <trkpt lat="45.24309" lon="6.11343">
        <ele>2786.6000976562</ele>
        <time>2012-05-17T11:31:24.000Z</time>
      </trkpt>
      <trkpt lat="45.24311" lon="6.11356">
        <ele>2783.8000488281</ele>
        <time>2012-05-17T11:31:26.000Z</time>
      </trkpt>
      <trkpt lat="45.2431" lon="6.11364">
        <ele>2782.1999511719</ele>
        <time>2012-05-17T11:31:27.000Z</time>
      </trkpt>
      <trkpt lat="45.24317" lon="6.11388">
        <ele>2777</ele>
        <time>2012-05-17T11:31:31.000Z</time>
      </trkpt>
      <trkpt lat="45.24318" lon="6.11396">
        <ele>2775.1999511719</ele>
        <time>2012-05-17T11:31:32.000Z</time>
      </trkpt>
      <trkpt lat="45.2432" lon="6.11427">
        <ele>2769</ele>
        <time>2012-05-17T11:31:36.000Z</time>
      </trkpt>
      <trkpt lat="45.2433" lon="6.11429">
        <ele>2765.8000488281</ele>
        <time>2012-05-17T11:31:39.000Z</time>
      </trkpt>
      <trkpt lat="45.24338" lon="6.11436">
        <ele>2762</ele>
        <time>2012-05-17T11:31:41.000Z</time>
      </trkpt>
      <trkpt lat="45.24339" lon="6.11449">
        <ele>2757.3999023438</ele>
        <time>2012-05-17T11:31:44.000Z</time>
      </trkpt>
      <trkpt lat="45.24338" lon="6.11449">
        <ele>2756.3999023438</ele>
        <time>2012-05-17T11:31:46.000Z</time>
      </trkpt>
      <trkpt lat="45.24349" lon="6.11446">
        <ele>2754.8000488281</ele>
        <time>2012-05-17T11:32:13.000Z</time>
      </trkpt>
      <trkpt lat="45.24353" lon="6.11441">
        <ele>2754.1999511719</ele>
        <time>2012-05-17T11:32:14.000Z</time>
      </trkpt>
      <trkpt lat="45.2437" lon="6.11443">
        <ele>2749.6000976562</ele>
        <time>2012-05-17T11:32:17.000Z</time>
      </trkpt>
      <trkpt lat="45.24389" lon="6.11445">
        <ele>2745.3999023438</ele>
        <time>2012-05-17T11:32:20.000Z</time>
      </trkpt>
      <trkpt lat="45.24403" lon="6.1145">
        <ele>2741.8000488281</ele>
        <time>2012-05-17T11:32:23.000Z</time>
      </trkpt>
      <trkpt lat="45.24414" lon="6.11462">
        <ele>2738.6000976562</ele>
        <time>2012-05-17T11:32:26.000Z</time>
      </trkpt>
      <trkpt lat="45.24425" lon="6.11475">
        <ele>2735.6000976562</ele>
        <time>2012-05-17T11:32:29.000Z</time>
      </trkpt>
      <trkpt lat="45.24433" lon="6.11509">
        <ele>2729</ele>
        <time>2012-05-17T11:32:34.000Z</time>
      </trkpt>
      <trkpt lat="45.24438" lon="6.11533">
        <ele>2724</ele>
        <time>2012-05-17T11:32:37.000Z</time>
      </trkpt>
      <trkpt lat="45.24449" lon="6.11551">
        <ele>2720.1999511719</ele>
        <time>2012-05-17T11:32:40.000Z</time>
      </trkpt>
      <trkpt lat="45.24457" lon="6.11561">
        <ele>2716.8000488281</ele>
        <time>2012-05-17T11:32:42.000Z</time>
      </trkpt>
      <trkpt lat="45.24464" lon="6.11571">
        <ele>2714.6000976562</ele>
        <time>2012-05-17T11:32:44.000Z</time>
      </trkpt>
      <trkpt lat="45.24466" lon="6.11586">
        <ele>2711</ele>
        <time>2012-05-17T11:32:46.000Z</time>
      </trkpt>
      <trkpt lat="45.24464" lon="6.11602">
        <ele>2707.1999511719</ele>
        <time>2012-05-17T11:32:49.000Z</time>
      </trkpt>
      <trkpt lat="45.24465" lon="6.11608">
        <ele>2706.1999511719</ele>
        <time>2012-05-17T11:32:50.000Z</time>
      </trkpt>
      <trkpt lat="45.24468" lon="6.11637">
        <ele>2699</ele>
        <time>2012-05-17T11:32:55.000Z</time>
      </trkpt>
      <trkpt lat="45.24476" lon="6.11658">
        <ele>2691.1999511719</ele>
        <time>2012-05-17T11:32:59.000Z</time>
      </trkpt>
      <trkpt lat="45.24486" lon="6.11665">
        <ele>2688.1999511719</ele>
        <time>2012-05-17T11:33:01.000Z</time>
      </trkpt>
      <trkpt lat="45.24485" lon="6.11679">
        <ele>2683.3999023438</ele>
        <time>2012-05-17T11:33:03.000Z</time>
      </trkpt>
      <trkpt lat="45.24491" lon="6.11688">
        <ele>2679.8000488281</ele>
        <time>2012-05-17T11:33:05.000Z</time>
      </trkpt>
      <trkpt lat="45.24497" lon="6.117">
        <ele>2675.6000976562</ele>
        <time>2012-05-17T11:33:07.000Z</time>
      </trkpt>
      <trkpt lat="45.24502" lon="6.11722">
        <ele>2671</ele>
        <time>2012-05-17T11:33:10.000Z</time>
      </trkpt>
      <trkpt lat="45.24516" lon="6.11736">
        <ele>2666.3999023438</ele>
        <time>2012-05-17T11:33:13.000Z</time>
      </trkpt>
      <trkpt lat="45.24514" lon="6.11749">
        <ele>2664.1999511719</ele>
        <time>2012-05-17T11:33:15.000Z</time>
      </trkpt>
      <trkpt lat="45.24518" lon="6.11755">
        <ele>2661.6000976562</ele>
        <time>2012-05-17T11:33:17.000Z</time>
      </trkpt>
      <trkpt lat="45.24519" lon="6.11761">
        <ele>2660</ele>
        <time>2012-05-17T11:33:19.000Z</time>
      </trkpt>
      <trkpt lat="45.24522" lon="6.11767">
        <ele>2657.6000976562</ele>
        <time>2012-05-17T11:33:24.000Z</time>
      </trkpt>
      <trkpt lat="45.24529" lon="6.11765">
        <ele>2656.1999511719</ele>
        <time>2012-05-17T11:33:28.000Z</time>
      </trkpt>
      <trkpt lat="45.24529" lon="6.11765">
        <ele>2656</ele>
        <time>2012-05-17T11:33:29.000Z</time>
      </trkpt>
      <trkpt lat="45.24534" lon="6.11776">
        <ele>2655</ele>
        <time>2012-05-17T11:33:59.000Z</time>
      </trkpt>
      <trkpt lat="45.24542" lon="6.11792">
        <ele>2651.6000976562</ele>
        <time>2012-05-17T11:34:02.000Z</time>
      </trkpt>
      <trkpt lat="45.24553" lon="6.11807">
        <ele>2647.3999023438</ele>
        <time>2012-05-17T11:34:05.000Z</time>
      </trkpt>
      <trkpt lat="45.24557" lon="6.11811">
        <ele>2645.6000976562</ele>
        <time>2012-05-17T11:34:06.000Z</time>
      </trkpt>
      <trkpt lat="45.24582" lon="6.1183">
        <ele>2638.1999511719</ele>
        <time>2012-05-17T11:34:11.000Z</time>
      </trkpt>
      <trkpt lat="45.24593" lon="6.11855">
        <ele>2633</ele>
        <time>2012-05-17T11:34:14.000Z</time>
      </trkpt>
      <trkpt lat="45.24606" lon="6.11866">
        <ele>2629.1999511719</ele>
        <time>2012-05-17T11:34:16.000Z</time>
      </trkpt>
      <trkpt lat="45.24625" lon="6.11891">
        <ele>2623.1999511719</ele>
        <time>2012-05-17T11:34:20.000Z</time>
      </trkpt>
      <trkpt lat="45.2463" lon="6.11896">
        <ele>2621.3999023438</ele>
        <time>2012-05-17T11:34:21.000Z</time>
      </trkpt>
      <trkpt lat="45.24645" lon="6.11908">
        <ele>2615.6000976562</ele>
        <time>2012-05-17T11:34:24.000Z</time>
      </trkpt>
      <trkpt lat="45.24651" lon="6.11922">
        <ele>2612.6000976562</ele>
        <time>2012-05-17T11:34:26.000Z</time>
      </trkpt>
      <trkpt lat="45.24658" lon="6.11933">
        <ele>2608.6000976562</ele>
        <time>2012-05-17T11:34:28.000Z</time>
      </trkpt>
      <trkpt lat="45.24671" lon="6.1195">
        <ele>2603.6000976562</ele>
        <time>2012-05-17T11:34:31.000Z</time>
      </trkpt>
      <trkpt lat="45.24676" lon="6.11968">
        <ele>2599.3999023438</ele>
        <time>2012-05-17T11:34:33.000Z</time>
      </trkpt>
      <trkpt lat="45.24678" lon="6.11982">
        <ele>2596.6000976562</ele>
        <time>2012-05-17T11:34:35.000Z</time>
      </trkpt>
      <trkpt lat="45.24684" lon="6.11995">
        <ele>2590.1999511719</ele>
        <time>2012-05-17T11:34:39.000Z</time>
      </trkpt>
      <trkpt lat="45.24684" lon="6.11995">
        <ele>2589.1999511719</ele>
        <time>2012-05-17T11:34:41.000Z</time>
      </trkpt>
      <trkpt lat="45.24687" lon="6.12008">
        <ele>2587.8000488281</ele>
        <time>2012-05-17T11:35:43.000Z</time>
      </trkpt>
      <trkpt lat="45.24702" lon="6.12029">
        <ele>2581.1999511719</ele>
        <time>2012-05-17T11:35:48.000Z</time>
      </trkpt>
      <trkpt lat="45.24712" lon="6.12046">
        <ele>2575.8000488281</ele>
        <time>2012-05-17T11:35:51.000Z</time>
      </trkpt>
      <trkpt lat="45.24719" lon="6.12046">
        <ele>2571</ele>
        <time>2012-05-17T11:35:53.000Z</time>
      </trkpt>
      <trkpt lat="45.24731" lon="6.1204">
        <ele>2565</ele>
        <time>2012-05-17T11:35:56.000Z</time>
      </trkpt>
      <trkpt lat="45.24737" lon="6.12052">
        <ele>2560.1999511719</ele>
        <time>2012-05-17T11:35:58.000Z</time>
      </trkpt>
      <trkpt lat="45.24746" lon="6.1205">
        <ele>2556</ele>
        <time>2012-05-17T11:36:00.000Z</time>
      </trkpt>
      <trkpt lat="45.24753" lon="6.12064">
        <ele>2549.8000488281</ele>
        <time>2012-05-17T11:36:02.000Z</time>
      </trkpt>
      <trkpt lat="45.24768" lon="6.12075">
        <ele>2542.1999511719</ele>
        <time>2012-05-17T11:36:05.000Z</time>
      </trkpt>
      <trkpt lat="45.24794" lon="6.1208">
        <ele>2532.1999511719</ele>
        <time>2012-05-17T11:36:10.000Z</time>
      </trkpt>
      <trkpt lat="45.24809" lon="6.12099">
        <ele>2528</ele>
        <time>2012-05-17T11:36:14.000Z</time>
      </trkpt>
      <trkpt lat="45.24823" lon="6.1213">
        <ele>2523.1999511719</ele>
        <time>2012-05-17T11:36:19.000Z</time>
      </trkpt>
      <trkpt lat="45.24827" lon="6.12135">
        <ele>2522.8000488281</ele>
        <time>2012-05-17T11:36:20.000Z</time>
      </trkpt>
      <trkpt lat="45.2485" lon="6.12167">
        <ele>2514.8000488281</ele>
        <time>2012-05-17T11:36:26.000Z</time>
      </trkpt>
      <trkpt lat="45.2488" lon="6.122">
        <ele>2504.1999511719</ele>
        <time>2012-05-17T11:36:32.000Z</time>
      </trkpt>
      <trkpt lat="45.24891" lon="6.1221">
        <ele>2501.1999511719</ele>
        <time>2012-05-17T11:36:34.000Z</time>
      </trkpt>
      <trkpt lat="45.24911" lon="6.12233">
        <ele>2494.3999023438</ele>
        <time>2012-05-17T11:36:39.000Z</time>
      </trkpt>
      <trkpt lat="45.24919" lon="6.12251">
        <ele>2490.3999023438</ele>
        <time>2012-05-17T11:36:42.000Z</time>
      </trkpt>
      <trkpt lat="45.24922" lon="6.12256">
        <ele>2489.1999511719</ele>
        <time>2012-05-17T11:36:43.000Z</time>
      </trkpt>
      <trkpt lat="45.24934" lon="6.12266">
        <ele>2484.8000488281</ele>
        <time>2012-05-17T11:36:47.000Z</time>
      </trkpt>
      <trkpt lat="45.24938" lon="6.12262">
        <ele>2483.6000976562</ele>
        <time>2012-05-17T11:36:48.000Z</time>
      </trkpt>
      <trkpt lat="45.24953" lon="6.1226">
        <ele>2479.8000488281</ele>
        <time>2012-05-17T11:36:52.000Z</time>
      </trkpt>
      <trkpt lat="45.24961" lon="6.12275">
        <ele>2476.6000976562</ele>
        <time>2012-05-17T11:36:56.000Z</time>
      </trkpt>
      <trkpt lat="45.24965" lon="6.12284">
        <ele>2473.8000488281</ele>
        <time>2012-05-17T11:36:58.000Z</time>
      </trkpt>
      <trkpt lat="45.24973" lon="6.12298">
        <ele>2470.3999023438</ele>
        <time>2012-05-17T11:37:01.000Z</time>
      </trkpt>
      <trkpt lat="45.24979" lon="6.12316">
        <ele>2466.6000976562</ele>
        <time>2012-05-17T11:37:04.000Z</time>
      </trkpt>
      <trkpt lat="45.24984" lon="6.12329">
        <ele>2462.3999023438</ele>
        <time>2012-05-17T11:37:06.000Z</time>
      </trkpt>
      <trkpt lat="45.24994" lon="6.12349">
        <ele>2457.3999023438</ele>
        <time>2012-05-17T11:37:09.000Z</time>
      </trkpt>
      <trkpt lat="45.24995" lon="6.12357">
        <ele>2455.6000976562</ele>
        <time>2012-05-17T11:37:10.000Z</time>
      </trkpt>
      <trkpt lat="45.25008" lon="6.12399">
        <ele>2446.8000488281</ele>
        <time>2012-05-17T11:37:16.000Z</time>
      </trkpt>
      <trkpt lat="45.25018" lon="6.12419">
        <ele>2443.3999023438</ele>
        <time>2012-05-17T11:37:21.000Z</time>
      </trkpt>
      <trkpt lat="45.25032" lon="6.12434">
        <ele>2441.6000976562</ele>
        <time>2012-05-17T11:37:28.000Z</time>
      </trkpt>
      <trkpt lat="45.25049" lon="6.12453">
        <ele>2437.8000488281</ele>
        <time>2012-05-17T11:37:34.000Z</time>
      </trkpt>
      <trkpt lat="45.2507" lon="6.12479">
        <ele>2430.8000488281</ele>
        <time>2012-05-17T11:37:39.000Z</time>
      </trkpt>
      <trkpt lat="45.25079" lon="6.12491">
        <ele>2427.8000488281</ele>
        <time>2012-05-17T11:37:41.000Z</time>
      </trkpt>
      <trkpt lat="45.25095" lon="6.12523">
        <ele>2420.8000488281</ele>
        <time>2012-05-17T11:37:46.000Z</time>
      </trkpt>
      <trkpt lat="45.25115" lon="6.12555">
        <ele>2415.3999023438</ele>
        <time>2012-05-17T11:37:52.000Z</time>
      </trkpt>
      <trkpt lat="45.2512" lon="6.12565">
        <ele>2414.3999023438</ele>
        <time>2012-05-17T11:37:54.000Z</time>
      </trkpt>
      <trkpt lat="45.25127" lon="6.1258">
        <ele>2412</ele>
        <time>2012-05-17T11:37:57.000Z</time>
      </trkpt>
      <trkpt lat="45.2513" lon="6.12592">
        <ele>2410.3999023438</ele>
        <time>2012-05-17T11:37:59.000Z</time>
      </trkpt>
      <trkpt lat="45.25141" lon="6.12612">
        <ele>2405.1999511719</ele>
        <time>2012-05-17T11:38:03.000Z</time>
      </trkpt>
      <trkpt lat="45.25146" lon="6.1262">
        <ele>2401.1999511719</ele>
        <time>2012-05-17T11:38:06.000Z</time>
      </trkpt>
      <trkpt lat="45.25147" lon="6.1262">
        <ele>2399.3999023438</ele>
        <time>2012-05-17T11:38:09.000Z</time>
      </trkpt>
      <trkpt lat="45.25152" lon="6.12636">
        <ele>2396.8000488281</ele>
        <time>2012-05-17T11:38:26.000Z</time>
      </trkpt>
      <trkpt lat="45.25154" lon="6.12642">
        <ele>2395</ele>
        <time>2012-05-17T11:38:27.000Z</time>
      </trkpt>
      <trkpt lat="45.25166" lon="6.12659">
        <ele>2387.3999023438</ele>
        <time>2012-05-17T11:38:31.000Z</time>
      </trkpt>
      <trkpt lat="45.25176" lon="6.12671">
        <ele>2381.6000976562</ele>
        <time>2012-05-17T11:38:34.000Z</time>
      </trkpt>
      <trkpt lat="45.25184" lon="6.12675">
        <ele>2376.8000488281</ele>
        <time>2012-05-17T11:38:36.000Z</time>
      </trkpt>
      <trkpt lat="45.25192" lon="6.12689">
        <ele>2370.8000488281</ele>
        <time>2012-05-17T11:38:40.000Z</time>
      </trkpt>
      <trkpt lat="45.25198" lon="6.12699">
        <ele>2366.3999023438</ele>
        <time>2012-05-17T11:38:42.000Z</time>
      </trkpt>
      <trkpt lat="45.25198" lon="6.12706">
        <ele>2363.8000488281</ele>
        <time>2012-05-17T11:38:43.000Z</time>
      </trkpt>
      <trkpt lat="45.25192" lon="6.12727">
        <ele>2358.6000976562</ele>
        <time>2012-05-17T11:38:46.000Z</time>
      </trkpt>
      <trkpt lat="45.25195" lon="6.12746">
        <ele>2354.1999511719</ele>
        <time>2012-05-17T11:38:50.000Z</time>
      </trkpt>
      <trkpt lat="45.25199" lon="6.12757">
        <ele>2350.6000976562</ele>
        <time>2012-05-17T11:38:52.000Z</time>
      </trkpt>
      <trkpt lat="45.25208" lon="6.12764">
        <ele>2347.1999511719</ele>
        <time>2012-05-17T11:38:54.000Z</time>
      </trkpt>
      <trkpt lat="45.25217" lon="6.12778">
        <ele>2339.6000976562</ele>
        <time>2012-05-17T11:38:57.000Z</time>
      </trkpt>
      <trkpt lat="45.25211" lon="6.12796">
        <ele>2335</ele>
        <time>2012-05-17T11:39:00.000Z</time>
      </trkpt>
      <trkpt lat="45.25206" lon="6.12822">
        <ele>2331</ele>
        <time>2012-05-17T11:39:04.000Z</time>
      </trkpt>
      <trkpt lat="45.2521" lon="6.12853">
        <ele>2325</ele>
        <time>2012-05-17T11:39:09.000Z</time>
      </trkpt>
      <trkpt lat="45.25215" lon="6.12863">
        <ele>2323.6000976562</ele>
        <time>2012-05-17T11:39:11.000Z</time>
      </trkpt>
      <trkpt lat="45.25236" lon="6.12899">
        <ele>2318.3999023438</ele>
        <time>2012-05-17T11:39:17.000Z</time>
      </trkpt>
      <trkpt lat="45.25253" lon="6.12923">
        <ele>2314.1999511719</ele>
        <time>2012-05-17T11:39:22.000Z</time>
      </trkpt>
      <trkpt lat="45.25257" lon="6.12928">
        <ele>2313.3999023438</ele>
        <time>2012-05-17T11:39:23.000Z</time>
      </trkpt>
      <trkpt lat="45.25285" lon="6.12951">
        <ele>2308.1999511719</ele>
        <time>2012-05-17T11:39:29.000Z</time>
      </trkpt>
      <trkpt lat="45.25324" lon="6.12972">
        <ele>2299.6000976562</ele>
        <time>2012-05-17T11:39:37.000Z</time>
      </trkpt>
      <trkpt lat="45.25344" lon="6.12976">
        <ele>2295.6000976562</ele>
        <time>2012-05-17T11:39:42.000Z</time>
      </trkpt>
      <trkpt lat="45.25362" lon="6.12978">
        <ele>2292.3999023438</ele>
        <time>2012-05-17T11:39:48.000Z</time>
      </trkpt>
      <trkpt lat="45.25363" lon="6.12978">
        <ele>2291.8000488281</ele>
        <time>2012-05-17T11:39:51.000Z</time>
      </trkpt>
      <trkpt lat="45.25368" lon="6.12978">
        <ele>2291.3999023438</ele>
        <time>2012-05-17T11:39:56.000Z</time>
      </trkpt>
      <trkpt lat="45.25382" lon="6.12982">
        <ele>2289.8000488281</ele>
        <time>2012-05-17T11:40:01.000Z</time>
      </trkpt>
      <trkpt lat="45.25396" lon="6.12987">
        <ele>2288.1999511719</ele>
        <time>2012-05-17T11:40:07.000Z</time>
      </trkpt>
      <trkpt lat="45.25405" lon="6.12993">
        <ele>2287</ele>
        <time>2012-05-17T11:40:12.000Z</time>
      </trkpt>
      <trkpt lat="45.25414" lon="6.12999">
        <ele>2286</ele>
        <time>2012-05-17T11:40:18.000Z</time>
      </trkpt>
      <trkpt lat="45.25415" lon="6.13">
        <ele>2285.6000976562</ele>
        <time>2012-05-17T11:40:23.000Z</time>
      </trkpt>
      <trkpt lat="45.25416" lon="6.13002">
        <ele>2285.8000488281</ele>
        <time>2012-05-17T11:40:28.000Z</time>
      </trkpt>
      <trkpt lat="45.25418" lon="6.13005">
        <ele>2285.8000488281</ele>
        <time>2012-05-17T11:40:33.000Z</time>
      </trkpt>
      <trkpt lat="45.25419" lon="6.13007">
        <ele>2286</ele>
        <time>2012-05-17T11:40:38.000Z</time>
      </trkpt>
      <trkpt lat="45.25419" lon="6.13008">
        <ele>2285.8000488281</ele>
        <time>2012-05-17T11:40:41.000Z</time>
      </trkpt>
      <trkpt lat="45.25422" lon="6.13011">
        <ele>2285.1999511719</ele>
        <time>2012-05-17T11:40:51.000Z</time>
      </trkpt>
      <trkpt lat="45.25424" lon="6.13013">
        <ele>2284.6000976562</ele>
        <time>2012-05-17T11:40:57.000Z</time>
      </trkpt>
      <trkpt lat="45.25426" lon="6.13015">
        <ele>2284.6000976562</ele>
        <time>2012-05-17T11:41:02.000Z</time>
      </trkpt>
      <trkpt lat="45.25429" lon="6.13018">
        <ele>2284.3999023438</ele>
        <time>2012-05-17T11:41:07.000Z</time>
      </trkpt>
      <trkpt lat="45.2544" lon="6.13029">
        <ele>2283</ele>
        <time>2012-05-17T11:41:13.000Z</time>
      </trkpt>
      <trkpt lat="45.25451" lon="6.1304">
        <ele>2280.8000488281</ele>
        <time>2012-05-17T11:41:19.000Z</time>
      </trkpt>
      <trkpt lat="45.25453" lon="6.13042">
        <ele>2280.6000976562</ele>
        <time>2012-05-17T11:41:20.000Z</time>
      </trkpt>
      <trkpt lat="45.25456" lon="6.13044">
        <ele>2278.8000488281</ele>
        <time>2012-05-17T11:41:24.000Z</time>
      </trkpt>
      <trkpt lat="45.25457" lon="6.13044">
        <ele>2278.8000488281</ele>
        <time>2012-05-17T11:41:25.000Z</time>
      </trkpt>
      <trkpt lat="45.25468" lon="6.13048">
        <ele>2277.6000976562</ele>
        <time>2012-05-17T11:41:31.000Z</time>
      </trkpt>
      <trkpt lat="45.25479" lon="6.13051">
        <ele>2276.3999023438</ele>
        <time>2012-05-17T11:41:36.000Z</time>
      </trkpt>
      <trkpt lat="45.25501" lon="6.13053">
        <ele>2273.8000488281</ele>
        <time>2012-05-17T11:41:43.000Z</time>
      </trkpt>
      <trkpt lat="45.2552" lon="6.13054">
        <ele>2271.6000976562</ele>
        <time>2012-05-17T11:41:49.000Z</time>
      </trkpt>
      <trkpt lat="45.25534" lon="6.13059">
        <ele>2269</ele>
        <time>2012-05-17T11:41:54.000Z</time>
      </trkpt>
      <trkpt lat="45.2555" lon="6.13064">
        <ele>2266.6000976562</ele>
        <time>2012-05-17T11:42:00.000Z</time>
      </trkpt>
      <trkpt lat="45.25569" lon="6.13074">
        <ele>2263.8000488281</ele>
        <time>2012-05-17T11:42:08.000Z</time>
      </trkpt>
      <trkpt lat="45.25594" lon="6.13089">
        <ele>2260.1999511719</ele>
        <time>2012-05-17T11:42:17.000Z</time>
      </trkpt>
      <trkpt lat="45.256" lon="6.13093">
        <ele>2259.1999511719</ele>
        <time>2012-05-17T11:42:19.000Z</time>
      </trkpt>
      <trkpt lat="45.25614" lon="6.131">
        <ele>2257.3999023438</ele>
        <time>2012-05-17T11:42:25.000Z</time>
      </trkpt>
      <trkpt lat="45.2563" lon="6.13103">
        <ele>2255.1999511719</ele>
        <time>2012-05-17T11:42:30.000Z</time>
      </trkpt>
      <trkpt lat="45.25651" lon="6.13104">
        <ele>2251.1999511719</ele>
        <time>2012-05-17T11:42:36.000Z</time>
      </trkpt>
      <trkpt lat="45.25655" lon="6.13103">
        <ele>2250.3999023438</ele>
        <time>2012-05-17T11:42:38.000Z</time>
      </trkpt>
      <trkpt lat="45.25665" lon="6.13103">
        <ele>2249.3999023438</ele>
        <time>2012-05-17T11:42:43.000Z</time>
      </trkpt>
      <trkpt lat="45.25678" lon="6.13107">
        <ele>2248</ele>
        <time>2012-05-17T11:42:50.000Z</time>
      </trkpt>
      <trkpt lat="45.2569" lon="6.13111">
        <ele>2247</ele>
        <time>2012-05-17T11:42:57.000Z</time>
      </trkpt>
      <trkpt lat="45.25698" lon="6.13114">
        <ele>2246</ele>
        <time>2012-05-17T11:43:02.000Z</time>
      </trkpt>
      <trkpt lat="45.25708" lon="6.13117">
        <ele>2245.1999511719</ele>
        <time>2012-05-17T11:43:08.000Z</time>
      </trkpt>
      <trkpt lat="45.25717" lon="6.13123">
        <ele>2243.8000488281</ele>
        <time>2012-05-17T11:43:13.000Z</time>
      </trkpt>
      <trkpt lat="45.25726" lon="6.13129">
        <ele>2242.6000976562</ele>
        <time>2012-05-17T11:43:18.000Z</time>
      </trkpt>
      <trkpt lat="45.25744" lon="6.13136">
        <ele>2240.8000488281</ele>
        <time>2012-05-17T11:43:26.000Z</time>
      </trkpt>
      <trkpt lat="45.25762" lon="6.13138">
        <ele>2239</ele>
        <time>2012-05-17T11:43:34.000Z</time>
      </trkpt>
      <trkpt lat="45.25784" lon="6.13139">
        <ele>2237.3999023438</ele>
        <time>2012-05-17T11:43:43.000Z</time>
      </trkpt>
      <trkpt lat="45.25798" lon="6.13138">
        <ele>2236.3999023438</ele>
        <time>2012-05-17T11:43:50.000Z</time>
      </trkpt>
      <trkpt lat="45.25802" lon="6.13138">
        <ele>2235.6000976562</ele>
        <time>2012-05-17T11:43:55.000Z</time>
      </trkpt>
      <trkpt lat="45.25801" lon="6.13139">
        <ele>2234.3999023438</ele>
        <time>2012-05-17T11:45:07.000Z</time>
      </trkpt>
      <trkpt lat="45.258" lon="6.13146">
        <ele>2235</ele>
        <time>2012-05-17T11:50:02.000Z</time>
      </trkpt>
      <trkpt lat="45.25799" lon="6.13145">
        <ele>2234.8000488281</ele>
        <time>2012-05-17T11:50:07.000Z</time>
      </trkpt>
      <trkpt lat="45.25799" lon="6.13145">
        <ele>2235</ele>
        <time>2012-05-17T11:50:09.000Z</time>
      </trkpt>
      <trkpt lat="45.25796" lon="6.13143">
        <ele>2235</ele>
        <time>2012-05-17T11:50:30.000Z</time>
      </trkpt>
      <trkpt lat="45.25795" lon="6.13143">
        <ele>2235</ele>
        <time>2012-05-17T11:50:34.000Z</time>
      </trkpt>
      <trkpt lat="45.25792" lon="6.13143">
        <ele>2235.1999511719</ele>
        <time>2012-05-17T11:50:39.000Z</time>
      </trkpt>
      <trkpt lat="45.25792" lon="6.13142">
        <ele>2235.3999023438</ele>
        <time>2012-05-17T11:50:42.000Z</time>
      </trkpt>
      <trkpt lat="45.2579" lon="6.13142">
        <ele>2235.6000976562</ele>
        <time>2012-05-17T11:50:45.000Z</time>
      </trkpt>
      <trkpt lat="45.25786" lon="6.13142">
        <ele>2236.1999511719</ele>
        <time>2012-05-17T11:50:53.000Z</time>
      </trkpt>
      <trkpt lat="45.25785" lon="6.13142">
        <ele>2236.1999511719</ele>
        <time>2012-05-17T11:50:55.000Z</time>
      </trkpt>
      <trkpt lat="45.25789" lon="6.13144">
        <ele>2238.1999511719</ele>
        <time>2012-05-17T11:51:24.000Z</time>
      </trkpt>
      <trkpt lat="45.25792" lon="6.13145">
        <ele>2239</ele>
        <time>2012-05-17T11:51:30.000Z</time>
      </trkpt>
      <trkpt lat="45.25795" lon="6.13146">
        <ele>2239.6000976562</ele>
        <time>2012-05-17T11:51:36.000Z</time>
      </trkpt>
      <trkpt lat="45.25798" lon="6.13147">
        <ele>2240.3999023438</ele>
        <time>2012-05-17T11:51:42.000Z</time>
      </trkpt>
      <trkpt lat="45.25799" lon="6.13148">
        <ele>2240.8000488281</ele>
        <time>2012-05-17T11:51:45.000Z</time>
      </trkpt>
      <trkpt lat="45.25804" lon="6.13151">
        <ele>2242.1999511719</ele>
        <time>2012-05-17T11:51:55.000Z</time>
      </trkpt>
      <trkpt lat="45.25806" lon="6.13153">
        <ele>2243.1999511719</ele>
        <time>2012-05-17T11:52:02.000Z</time>
      </trkpt>
      <trkpt lat="45.25808" lon="6.13158">
        <ele>2244</ele>
        <time>2012-05-17T11:52:08.000Z</time>
      </trkpt>
      <trkpt lat="45.25808" lon="6.13159">
        <ele>2244.1999511719</ele>
        <time>2012-05-17T11:52:09.000Z</time>
      </trkpt>
      <trkpt lat="45.2581" lon="6.13165">
        <ele>2245.1999511719</ele>
        <time>2012-05-17T11:53:16.000Z</time>
      </trkpt>
      <trkpt lat="45.2581" lon="6.13168">
        <ele>2245.8000488281</ele>
        <time>2012-05-17T11:53:19.000Z</time>
      </trkpt>
      <trkpt lat="45.2581" lon="6.13176">
        <ele>2246.6000976562</ele>
        <time>2012-05-17T11:53:28.000Z</time>
      </trkpt>
      <trkpt lat="45.25811" lon="6.13183">
        <ele>2248</ele>
        <time>2012-05-17T11:53:36.000Z</time>
      </trkpt>
      <trkpt lat="45.25813" lon="6.13189">
        <ele>2249.1999511719</ele>
        <time>2012-05-17T11:53:44.000Z</time>
      </trkpt>
      <trkpt lat="45.25815" lon="6.13194">
        <ele>2250.3999023438</ele>
        <time>2012-05-17T11:53:52.000Z</time>
      </trkpt>
      <trkpt lat="45.25815" lon="6.13195">
        <ele>2251</ele>
        <time>2012-05-17T11:53:56.000Z</time>
      </trkpt>
      <trkpt lat="45.25816" lon="6.13199">
        <ele>2251.8000488281</ele>
        <time>2012-05-17T11:54:05.000Z</time>
      </trkpt>
      <trkpt lat="45.25818" lon="6.13204">
        <ele>2253</ele>
        <time>2012-05-17T11:54:12.000Z</time>
      </trkpt>
      <trkpt lat="45.25821" lon="6.1321">
        <ele>2254.6000976562</ele>
        <time>2012-05-17T11:54:21.000Z</time>
      </trkpt>
      <trkpt lat="45.25823" lon="6.13214">
        <ele>2255.6000976562</ele>
        <time>2012-05-17T11:54:28.000Z</time>
      </trkpt>
      <trkpt lat="45.25826" lon="6.13219">
        <ele>2257</ele>
        <time>2012-05-17T11:54:36.000Z</time>
      </trkpt>
      <trkpt lat="45.25829" lon="6.13224">
        <ele>2258.3999023438</ele>
        <time>2012-05-17T11:54:45.000Z</time>
      </trkpt>
      <trkpt lat="45.25832" lon="6.13228">
        <ele>2259.6000976562</ele>
        <time>2012-05-17T11:54:53.000Z</time>
      </trkpt>
      <trkpt lat="45.25835" lon="6.13232">
        <ele>2260.8000488281</ele>
        <time>2012-05-17T11:55:01.000Z</time>
      </trkpt>
      <trkpt lat="45.25837" lon="6.13237">
        <ele>2261.6000976562</ele>
        <time>2012-05-17T11:55:08.000Z</time>
      </trkpt>
      <trkpt lat="45.25839" lon="6.1324">
        <ele>2262.3999023438</ele>
        <time>2012-05-17T11:55:14.000Z</time>
      </trkpt>
      <trkpt lat="45.2584" lon="6.13243">
        <ele>2263.1999511719</ele>
        <time>2012-05-17T11:55:29.000Z</time>
      </trkpt>
      <trkpt lat="45.25844" lon="6.13247">
        <ele>2264.1999511719</ele>
        <time>2012-05-17T11:55:36.000Z</time>
      </trkpt>
      <trkpt lat="45.25847" lon="6.1325">
        <ele>2265.6000976562</ele>
        <time>2012-05-17T11:55:44.000Z</time>
      </trkpt>
      <trkpt lat="45.25847" lon="6.1325">
        <ele>2265.8000488281</ele>
        <time>2012-05-17T11:55:45.000Z</time>
      </trkpt>
      <trkpt lat="45.25851" lon="6.13253">
        <ele>2266.8000488281</ele>
        <time>2012-05-17T11:55:54.000Z</time>
      </trkpt>
      <trkpt lat="45.25855" lon="6.13257">
        <ele>2268.1999511719</ele>
        <time>2012-05-17T11:56:03.000Z</time>
      </trkpt>
      <trkpt lat="45.25855" lon="6.13262">
        <ele>2268.6000976562</ele>
        <time>2012-05-17T11:56:06.000Z</time>
      </trkpt>
      <trkpt lat="45.25853" lon="6.13264">
        <ele>2268.8000488281</ele>
        <time>2012-05-17T11:56:10.000Z</time>
      </trkpt>
      <trkpt lat="45.25849" lon="6.13265">
        <ele>2270</ele>
        <time>2012-05-17T11:56:18.000Z</time>
      </trkpt>
      <trkpt lat="45.25845" lon="6.13266">
        <ele>2271</ele>
        <time>2012-05-17T11:56:25.000Z</time>
      </trkpt>
      <trkpt lat="45.25843" lon="6.13266">
        <ele>2271.6000976562</ele>
        <time>2012-05-17T11:56:30.000Z</time>
      </trkpt>
      <trkpt lat="45.25848" lon="6.1327">
        <ele>2272.6000976562</ele>
        <time>2012-05-17T11:56:40.000Z</time>
      </trkpt>
      <trkpt lat="45.25851" lon="6.13274">
        <ele>2273.8000488281</ele>
        <time>2012-05-17T11:56:47.000Z</time>
      </trkpt>
      <trkpt lat="45.25855" lon="6.13279">
        <ele>2275.6000976562</ele>
        <time>2012-05-17T11:56:57.000Z</time>
      </trkpt>
      <trkpt lat="45.25859" lon="6.13283">
        <ele>2277</ele>
        <time>2012-05-17T11:57:06.000Z</time>
      </trkpt>
      <trkpt lat="45.25862" lon="6.1329">
        <ele>2278.8000488281</ele>
        <time>2012-05-17T11:57:16.000Z</time>
      </trkpt>
      <trkpt lat="45.25864" lon="6.13296">
        <ele>2280.3999023438</ele>
        <time>2012-05-17T11:57:24.000Z</time>
      </trkpt>
      <trkpt lat="45.25866" lon="6.13299">
        <ele>2281.6000976562</ele>
        <time>2012-05-17T11:57:30.000Z</time>
      </trkpt>
      <trkpt lat="45.25869" lon="6.13304">
        <ele>2283.3999023438</ele>
        <time>2012-05-17T11:57:39.000Z</time>
      </trkpt>
      <trkpt lat="45.25871" lon="6.13308">
        <ele>2285</ele>
        <time>2012-05-17T11:57:47.000Z</time>
      </trkpt>
      <trkpt lat="45.25875" lon="6.13312">
        <ele>2286</ele>
        <time>2012-05-17T11:57:55.000Z</time>
      </trkpt>
      <trkpt lat="45.25878" lon="6.13315">
        <ele>2287.6000976562</ele>
        <time>2012-05-17T11:58:03.000Z</time>
      </trkpt>
      <trkpt lat="45.25878" lon="6.13318">
        <ele>2288.6000976562</ele>
        <time>2012-05-17T11:58:09.000Z</time>
      </trkpt>
      <trkpt lat="45.25877" lon="6.13321">
        <ele>2289.6000976562</ele>
        <time>2012-05-17T11:58:14.000Z</time>
      </trkpt>
      <trkpt lat="45.25874" lon="6.13326">
        <ele>2291.3999023438</ele>
        <time>2012-05-17T11:58:23.000Z</time>
      </trkpt>
      <trkpt lat="45.25873" lon="6.13328">
        <ele>2292.1999511719</ele>
        <time>2012-05-17T11:58:29.000Z</time>
      </trkpt>
      <trkpt lat="45.25868" lon="6.13332">
        <ele>2294.1999511719</ele>
        <time>2012-05-17T11:58:58.000Z</time>
      </trkpt>
      <trkpt lat="45.25864" lon="6.13337">
        <ele>2296.3999023438</ele>
        <time>2012-05-17T11:59:08.000Z</time>
      </trkpt>
      <trkpt lat="45.25861" lon="6.1334">
        <ele>2298.3999023438</ele>
        <time>2012-05-17T11:59:17.000Z</time>
      </trkpt>
      <trkpt lat="45.25858" lon="6.13343">
        <ele>2300</ele>
        <time>2012-05-17T11:59:24.000Z</time>
      </trkpt>
      <trkpt lat="45.25855" lon="6.13346">
        <ele>2301.8000488281</ele>
        <time>2012-05-17T11:59:32.000Z</time>
      </trkpt>
      <trkpt lat="45.25853" lon="6.13348">
        <ele>2302.8000488281</ele>
        <time>2012-05-17T11:59:39.000Z</time>
      </trkpt>
      <trkpt lat="45.2585" lon="6.1335">
        <ele>2304</ele>
        <time>2012-05-17T11:59:45.000Z</time>
      </trkpt>
      <trkpt lat="45.25848" lon="6.13353">
        <ele>2305.3999023438</ele>
        <time>2012-05-17T11:59:52.000Z</time>
      </trkpt>
      <trkpt lat="45.25843" lon="6.13357">
        <ele>2308</ele>
        <time>2012-05-17T12:00:04.000Z</time>
      </trkpt>
      <trkpt lat="45.25838" lon="6.1336">
        <ele>2310</ele>
        <time>2012-05-17T12:00:14.000Z</time>
      </trkpt>
      <trkpt lat="45.25835" lon="6.13363">
        <ele>2311.6000976562</ele>
        <time>2012-05-17T12:00:22.000Z</time>
      </trkpt>
      <trkpt lat="45.25832" lon="6.13365">
        <ele>2313</ele>
        <time>2012-05-17T12:00:29.000Z</time>
      </trkpt>
      <trkpt lat="45.25828" lon="6.13367">
        <ele>2314.6000976562</ele>
        <time>2012-05-17T12:00:37.000Z</time>
      </trkpt>
      <trkpt lat="45.25826" lon="6.1337">
        <ele>2316</ele>
        <time>2012-05-17T12:00:44.000Z</time>
      </trkpt>
      <trkpt lat="45.25822" lon="6.13372">
        <ele>2317.6000976562</ele>
        <time>2012-05-17T12:00:53.000Z</time>
      </trkpt>
      <trkpt lat="45.2582" lon="6.13374">
        <ele>2318.8000488281</ele>
        <time>2012-05-17T12:01:00.000Z</time>
      </trkpt>
      <trkpt lat="45.25817" lon="6.13377">
        <ele>2320</ele>
        <time>2012-05-17T12:01:07.000Z</time>
      </trkpt>
      <trkpt lat="45.25815" lon="6.13383">
        <ele>2321.8000488281</ele>
        <time>2012-05-17T12:01:16.000Z</time>
      </trkpt>
      <trkpt lat="45.25813" lon="6.13393">
        <ele>2324.6000976562</ele>
        <time>2012-05-17T12:01:31.000Z</time>
      </trkpt>
      <trkpt lat="45.25812" lon="6.134">
        <ele>2326.3999023438</ele>
        <time>2012-05-17T12:01:42.000Z</time>
      </trkpt>
      <trkpt lat="45.25811" lon="6.13404">
        <ele>2327.8000488281</ele>
        <time>2012-05-17T12:01:49.000Z</time>
      </trkpt>
      <trkpt lat="45.25811" lon="6.13409">
        <ele>2329</ele>
        <time>2012-05-17T12:01:56.000Z</time>
      </trkpt>
      <trkpt lat="45.2581" lon="6.13415">
        <ele>2330.8000488281</ele>
        <time>2012-05-17T12:02:04.000Z</time>
      </trkpt>
      <trkpt lat="45.25808" lon="6.13422">
        <ele>2332.6000976562</ele>
        <time>2012-05-17T12:02:14.000Z</time>
      </trkpt>
      <trkpt lat="45.25807" lon="6.1343">
        <ele>2334.6000976562</ele>
        <time>2012-05-17T12:02:25.000Z</time>
      </trkpt>
      <trkpt lat="45.25806" lon="6.13437">
        <ele>2336.1999511719</ele>
        <time>2012-05-17T12:02:35.000Z</time>
      </trkpt>
      <trkpt lat="45.25806" lon="6.13439">
        <ele>2337</ele>
        <time>2012-05-17T12:02:40.000Z</time>
      </trkpt>
      <trkpt lat="45.25806" lon="6.13442">
        <ele>2338</ele>
        <time>2012-05-17T12:02:46.000Z</time>
      </trkpt>
      <trkpt lat="45.25805" lon="6.13446">
        <ele>2339.3999023438</ele>
        <time>2012-05-17T12:02:57.000Z</time>
      </trkpt>
      <trkpt lat="45.25805" lon="6.13447">
        <ele>2339.3999023438</ele>
        <time>2012-05-17T12:02:58.000Z</time>
      </trkpt>
      <trkpt lat="45.25802" lon="6.13453">
        <ele>2341.1999511719</ele>
        <time>2012-05-17T12:03:07.000Z</time>
      </trkpt>
      <trkpt lat="45.258" lon="6.13459">
        <ele>2343.1999511719</ele>
        <time>2012-05-17T12:03:15.000Z</time>
      </trkpt>
      <trkpt lat="45.25798" lon="6.13465">
        <ele>2344.6000976562</ele>
        <time>2012-05-17T12:03:22.000Z</time>
      </trkpt>
      <trkpt lat="45.25797" lon="6.13469">
        <ele>2345.8000488281</ele>
        <time>2012-05-17T12:03:28.000Z</time>
      </trkpt>
      <trkpt lat="45.25796" lon="6.13473">
        <ele>2347</ele>
        <time>2012-05-17T12:03:34.000Z</time>
      </trkpt>
      <trkpt lat="45.25795" lon="6.13477">
        <ele>2348.6000976562</ele>
        <time>2012-05-17T12:03:41.000Z</time>
      </trkpt>
      <trkpt lat="45.25794" lon="6.13478">
        <ele>2349</ele>
        <time>2012-05-17T12:03:43.000Z</time>
      </trkpt>
      <trkpt lat="45.25793" lon="6.13482">
        <ele>2350.1999511719</ele>
        <time>2012-05-17T12:03:49.000Z</time>
      </trkpt>
      <trkpt lat="45.25793" lon="6.13485">
        <ele>2351.3999023438</ele>
        <time>2012-05-17T12:03:54.000Z</time>
      </trkpt>
      <trkpt lat="45.25792" lon="6.13487">
        <ele>2352</ele>
        <time>2012-05-17T12:03:57.000Z</time>
      </trkpt>
      <trkpt lat="45.25791" lon="6.13491">
        <ele>2353.1999511719</ele>
        <time>2012-05-17T12:04:04.000Z</time>
      </trkpt>
      <trkpt lat="45.25792" lon="6.13493">
        <ele>2354.8000488281</ele>
        <time>2012-05-17T12:04:10.000Z</time>
      </trkpt>
      <trkpt lat="45.25796" lon="6.135">
        <ele>2356.1999511719</ele>
        <time>2012-05-17T12:04:22.000Z</time>
      </trkpt>
      <trkpt lat="45.25797" lon="6.13506">
        <ele>2357.8000488281</ele>
        <time>2012-05-17T12:04:31.000Z</time>
      </trkpt>
      <trkpt lat="45.25799" lon="6.1351">
        <ele>2359.1999511719</ele>
        <time>2012-05-17T12:04:38.000Z</time>
      </trkpt>
      <trkpt lat="45.25799" lon="6.13512">
        <ele>2360.1999511719</ele>
        <time>2012-05-17T12:04:42.000Z</time>
      </trkpt>
      <trkpt lat="45.25797" lon="6.13515">
        <ele>2360.8000488281</ele>
        <time>2012-05-17T12:04:47.000Z</time>
      </trkpt>
      <trkpt lat="45.25794" lon="6.13518">
        <ele>2362.3999023438</ele>
        <time>2012-05-17T12:04:54.000Z</time>
      </trkpt>
      <trkpt lat="45.25791" lon="6.13521">
        <ele>2363.6000976562</ele>
        <time>2012-05-17T12:05:01.000Z</time>
      </trkpt>
      <trkpt lat="45.25788" lon="6.13525">
        <ele>2365.6000976562</ele>
        <time>2012-05-17T12:05:10.000Z</time>
      </trkpt>
      <trkpt lat="45.25786" lon="6.13528">
        <ele>2366.6000976562</ele>
        <time>2012-05-17T12:05:18.000Z</time>
      </trkpt>
      <trkpt lat="45.25787" lon="6.13532">
        <ele>2367.8000488281</ele>
        <time>2012-05-17T12:05:24.000Z</time>
      </trkpt>
      <trkpt lat="45.25789" lon="6.13535">
        <ele>2369</ele>
        <time>2012-05-17T12:05:31.000Z</time>
      </trkpt>
      <trkpt lat="45.2579" lon="6.13541">
        <ele>2370.1999511719</ele>
        <time>2012-05-17T12:05:38.000Z</time>
      </trkpt>
      <trkpt lat="45.25791" lon="6.13543">
        <ele>2370.6000976562</ele>
        <time>2012-05-17T12:05:41.000Z</time>
      </trkpt>
      <trkpt lat="45.25787" lon="6.13543">
        <ele>2371.8000488281</ele>
        <time>2012-05-17T12:05:54.000Z</time>
      </trkpt>
      <trkpt lat="45.25781" lon="6.13547">
        <ele>2373.8000488281</ele>
        <time>2012-05-17T12:06:04.000Z</time>
      </trkpt>
      <trkpt lat="45.25777" lon="6.13549">
        <ele>2375.3999023438</ele>
        <time>2012-05-17T12:06:13.000Z</time>
      </trkpt>
      <trkpt lat="45.25774" lon="6.13549">
        <ele>2376.3999023438</ele>
        <time>2012-05-17T12:06:20.000Z</time>
      </trkpt>
      <trkpt lat="45.25771" lon="6.13549">
        <ele>2377.3999023438</ele>
        <time>2012-05-17T12:06:27.000Z</time>
      </trkpt>
      <trkpt lat="45.25772" lon="6.13552">
        <ele>2378.3999023438</ele>
        <time>2012-05-17T12:06:32.000Z</time>
      </trkpt>
      <trkpt lat="45.25775" lon="6.13557">
        <ele>2379.8000488281</ele>
        <time>2012-05-17T12:06:40.000Z</time>
      </trkpt>
      <trkpt lat="45.25782" lon="6.13562">
        <ele>2381</ele>
        <time>2012-05-17T12:06:48.000Z</time>
      </trkpt>
      <trkpt lat="45.25785" lon="6.13563">
        <ele>2381.6000976562</ele>
        <time>2012-05-17T12:06:52.000Z</time>
      </trkpt>
      <trkpt lat="45.25789" lon="6.13567">
        <ele>2382.3999023438</ele>
        <time>2012-05-17T12:06:57.000Z</time>
      </trkpt>
      <trkpt lat="45.2579" lon="6.13567">
        <ele>2382.6000976562</ele>
        <time>2012-05-17T12:06:58.000Z</time>
      </trkpt>
      <trkpt lat="45.25786" lon="6.13569">
        <ele>2384</ele>
        <time>2012-05-17T12:07:09.000Z</time>
      </trkpt>
      <trkpt lat="45.25781" lon="6.13572">
        <ele>2385.8000488281</ele>
        <time>2012-05-17T12:07:20.000Z</time>
      </trkpt>
      <trkpt lat="45.25779" lon="6.13571">
        <ele>2386.6000976562</ele>
        <time>2012-05-17T12:07:25.000Z</time>
      </trkpt>
      <trkpt lat="45.25782" lon="6.13575">
        <ele>2387.6000976562</ele>
        <time>2012-05-17T12:07:34.000Z</time>
      </trkpt>
      <trkpt lat="45.25788" lon="6.13581">
        <ele>2388.8000488281</ele>
        <time>2012-05-17T12:07:43.000Z</time>
      </trkpt>
      <trkpt lat="45.25788" lon="6.13581">
        <ele>2389.1999511719</ele>
        <time>2012-05-17T12:07:45.000Z</time>
      </trkpt>
      <trkpt lat="45.25792" lon="6.13583">
        <ele>2390.6000976562</ele>
        <time>2012-05-17T12:07:53.000Z</time>
      </trkpt>
      <trkpt lat="45.25794" lon="6.13585">
        <ele>2391.1999511719</ele>
        <time>2012-05-17T12:07:58.000Z</time>
      </trkpt>
      <trkpt lat="45.25791" lon="6.13584">
        <ele>2392</ele>
        <time>2012-05-17T12:08:07.000Z</time>
      </trkpt>
      <trkpt lat="45.25787" lon="6.13587">
        <ele>2393.3999023438</ele>
        <time>2012-05-17T12:08:15.000Z</time>
      </trkpt>
      <trkpt lat="45.25782" lon="6.13589">
        <ele>2395.1999511719</ele>
        <time>2012-05-17T12:08:24.000Z</time>
      </trkpt>
      <trkpt lat="45.25778" lon="6.13591">
        <ele>2396.1999511719</ele>
        <time>2012-05-17T12:08:32.000Z</time>
      </trkpt>
      <trkpt lat="45.25774" lon="6.13594">
        <ele>2398</ele>
        <time>2012-05-17T12:08:41.000Z</time>
      </trkpt>
      <trkpt lat="45.2577" lon="6.13595">
        <ele>2399.1999511719</ele>
        <time>2012-05-17T12:08:49.000Z</time>
      </trkpt>
      <trkpt lat="45.25767" lon="6.13596">
        <ele>2400.3999023438</ele>
        <time>2012-05-17T12:08:57.000Z</time>
      </trkpt>
      <trkpt lat="45.25766" lon="6.13597">
        <ele>2400.8000488281</ele>
        <time>2012-05-17T12:09:00.000Z</time>
      </trkpt>
      <trkpt lat="45.25768" lon="6.13601">
        <ele>2401.8000488281</ele>
        <time>2012-05-17T12:09:16.000Z</time>
      </trkpt>
      <trkpt lat="45.25774" lon="6.13606">
        <ele>2402.6000976562</ele>
        <time>2012-05-17T12:09:24.000Z</time>
      </trkpt>
      <trkpt lat="45.25777" lon="6.13608">
        <ele>2403.8000488281</ele>
        <time>2012-05-17T12:09:32.000Z</time>
      </trkpt>
      <trkpt lat="45.2578" lon="6.13609">
        <ele>2404.8000488281</ele>
        <time>2012-05-17T12:09:39.000Z</time>
      </trkpt>
      <trkpt lat="45.25781" lon="6.1361">
        <ele>2405.3999023438</ele>
        <time>2012-05-17T12:09:43.000Z</time>
      </trkpt>
      <trkpt lat="45.25778" lon="6.13612">
        <ele>2406.3999023438</ele>
        <time>2012-05-17T12:09:51.000Z</time>
      </trkpt>
      <trkpt lat="45.25774" lon="6.13615">
        <ele>2407.3999023438</ele>
        <time>2012-05-17T12:09:58.000Z</time>
      </trkpt>
      <trkpt lat="45.2577" lon="6.13617">
        <ele>2408.6000976562</ele>
        <time>2012-05-17T12:10:07.000Z</time>
      </trkpt>
      <trkpt lat="45.25768" lon="6.13617">
        <ele>2409.1999511719</ele>
        <time>2012-05-17T12:10:11.000Z</time>
      </trkpt>
      <trkpt lat="45.2577" lon="6.13618">
        <ele>2410.1999511719</ele>
        <time>2012-05-17T12:10:22.000Z</time>
      </trkpt>
      <trkpt lat="45.25772" lon="6.1362">
        <ele>2411.8000488281</ele>
        <time>2012-05-17T12:10:29.000Z</time>
      </trkpt>
      <trkpt lat="45.25773" lon="6.1362">
        <ele>2412.1999511719</ele>
        <time>2012-05-17T12:10:31.000Z</time>
      </trkpt>
      <trkpt lat="45.25775" lon="6.13623">
        <ele>2413.3999023438</ele>
        <time>2012-05-17T12:10:39.000Z</time>
      </trkpt>
      <trkpt lat="45.25775" lon="6.13623">
        <ele>2413.3999023438</ele>
        <time>2012-05-17T12:10:40.000Z</time>
      </trkpt>
      <trkpt lat="45.25777" lon="6.13624">
        <ele>2414.1999511719</ele>
        <time>2012-05-17T12:10:46.000Z</time>
      </trkpt>
      <trkpt lat="45.25781" lon="6.13629">
        <ele>2416.3999023438</ele>
        <time>2012-05-17T12:11:31.000Z</time>
      </trkpt>
      <trkpt lat="45.25783" lon="6.13631">
        <ele>2417.3999023438</ele>
        <time>2012-05-17T12:11:36.000Z</time>
      </trkpt>
      <trkpt lat="45.25786" lon="6.13634">
        <ele>2418.6000976562</ele>
        <time>2012-05-17T12:11:43.000Z</time>
      </trkpt>
      <trkpt lat="45.25788" lon="6.13635">
        <ele>2419.6000976562</ele>
        <time>2012-05-17T12:11:48.000Z</time>
      </trkpt>
      <trkpt lat="45.25789" lon="6.13635">
        <ele>2420.1999511719</ele>
        <time>2012-05-17T12:11:51.000Z</time>
      </trkpt>
      <trkpt lat="45.25791" lon="6.13637">
        <ele>2420.8000488281</ele>
        <time>2012-05-17T12:11:57.000Z</time>
      </trkpt>
      <trkpt lat="45.25794" lon="6.13639">
        <ele>2422.8000488281</ele>
        <time>2012-05-17T12:12:06.000Z</time>
      </trkpt>
      <trkpt lat="45.25793" lon="6.13642">
        <ele>2423.8000488281</ele>
        <time>2012-05-17T12:12:21.000Z</time>
      </trkpt>
      <trkpt lat="45.25793" lon="6.13643">
        <ele>2423.8000488281</ele>
        <time>2012-05-17T12:12:22.000Z</time>
      </trkpt>
      <trkpt lat="45.25791" lon="6.13644">
        <ele>2424.6000976562</ele>
        <time>2012-05-17T12:12:27.000Z</time>
      </trkpt>
      <trkpt lat="45.2579" lon="6.13646">
        <ele>2425.1999511719</ele>
        <time>2012-05-17T12:12:31.000Z</time>
      </trkpt>
      <trkpt lat="45.25788" lon="6.13648">
        <ele>2425.8000488281</ele>
        <time>2012-05-17T12:12:37.000Z</time>
      </trkpt>
      <trkpt lat="45.25785" lon="6.13649">
        <ele>2426.6000976562</ele>
        <time>2012-05-17T12:12:43.000Z</time>
      </trkpt>
      <trkpt lat="45.25783" lon="6.1365">
        <ele>2427.6000976562</ele>
        <time>2012-05-17T12:12:49.000Z</time>
      </trkpt>
      <trkpt lat="45.25781" lon="6.13651">
        <ele>2428.6000976562</ele>
        <time>2012-05-17T12:12:54.000Z</time>
      </trkpt>
      <trkpt lat="45.25779" lon="6.13654">
        <ele>2429.3999023438</ele>
        <time>2012-05-17T12:13:00.000Z</time>
      </trkpt>
      <trkpt lat="45.25777" lon="6.13657">
        <ele>2430.1999511719</ele>
        <time>2012-05-17T12:13:06.000Z</time>
      </trkpt>
      <trkpt lat="45.25774" lon="6.1366">
        <ele>2431.1999511719</ele>
        <time>2012-05-17T12:13:13.000Z</time>
      </trkpt>
      <trkpt lat="45.25772" lon="6.13663">
        <ele>2432</ele>
        <time>2012-05-17T12:13:20.000Z</time>
      </trkpt>
      <trkpt lat="45.25771" lon="6.13663">
        <ele>2432.3999023438</ele>
        <time>2012-05-17T12:13:23.000Z</time>
      </trkpt>
      <trkpt lat="45.25769" lon="6.13665">
        <ele>2433</ele>
        <time>2012-05-17T12:13:28.000Z</time>
      </trkpt>
      <trkpt lat="45.25767" lon="6.13668">
        <ele>2433.6000976562</ele>
        <time>2012-05-17T12:13:35.000Z</time>
      </trkpt>
      <trkpt lat="45.25767" lon="6.13668">
        <ele>2433.8000488281</ele>
        <time>2012-05-17T12:13:36.000Z</time>
      </trkpt>
      <trkpt lat="45.25772" lon="6.13668">
        <ele>2434.8000488281</ele>
        <time>2012-05-17T12:13:50.000Z</time>
      </trkpt>
      <trkpt lat="45.25775" lon="6.13669">
        <ele>2436.1999511719</ele>
        <time>2012-05-17T12:13:57.000Z</time>
      </trkpt>
      <trkpt lat="45.25778" lon="6.1367">
        <ele>2437.3999023438</ele>
        <time>2012-05-17T12:14:03.000Z</time>
      </trkpt>
      <trkpt lat="45.25782" lon="6.13671">
        <ele>2439</ele>
        <time>2012-05-17T12:14:12.000Z</time>
      </trkpt>
      <trkpt lat="45.25786" lon="6.13673">
        <ele>2439.8000488281</ele>
        <time>2012-05-17T12:14:18.000Z</time>
      </trkpt>
      <trkpt lat="45.25787" lon="6.13674">
        <ele>2440.6000976562</ele>
        <time>2012-05-17T12:14:22.000Z</time>
      </trkpt>
      <trkpt lat="45.25785" lon="6.13673">
        <ele>2440.8000488281</ele>
        <time>2012-05-17T12:14:33.000Z</time>
      </trkpt>
      <trkpt lat="45.25785" lon="6.13674">
        <ele>2440.8000488281</ele>
        <time>2012-05-17T12:14:34.000Z</time>
      </trkpt>
      <trkpt lat="45.25781" lon="6.13676">
        <ele>2441.8000488281</ele>
        <time>2012-05-17T12:14:43.000Z</time>
      </trkpt>
      <trkpt lat="45.25778" lon="6.1368">
        <ele>2443.3999023438</ele>
        <time>2012-05-17T12:14:51.000Z</time>
      </trkpt>
      <trkpt lat="45.25773" lon="6.13685">
        <ele>2445.3999023438</ele>
        <time>2012-05-17T12:15:02.000Z</time>
      </trkpt>
      <trkpt lat="45.2577" lon="6.13686">
        <ele>2446</ele>
        <time>2012-05-17T12:15:08.000Z</time>
      </trkpt>
      <trkpt lat="45.25767" lon="6.13689">
        <ele>2447.1999511719</ele>
        <time>2012-05-17T12:15:15.000Z</time>
      </trkpt>
      <trkpt lat="45.25764" lon="6.13691">
        <ele>2448.3999023438</ele>
        <time>2012-05-17T12:15:21.000Z</time>
      </trkpt>
      <trkpt lat="45.25762" lon="6.13693">
        <ele>2449.1999511719</ele>
        <time>2012-05-17T12:15:27.000Z</time>
      </trkpt>
      <trkpt lat="45.25759" lon="6.13695">
        <ele>2450</ele>
        <time>2012-05-17T12:15:33.000Z</time>
      </trkpt>
      <trkpt lat="45.25757" lon="6.13697">
        <ele>2451.1999511719</ele>
        <time>2012-05-17T12:15:39.000Z</time>
      </trkpt>
      <trkpt lat="45.25754" lon="6.13698">
        <ele>2452</ele>
        <time>2012-05-17T12:15:45.000Z</time>
      </trkpt>
      <trkpt lat="45.25751" lon="6.137">
        <ele>2453.1999511719</ele>
        <time>2012-05-17T12:15:52.000Z</time>
      </trkpt>
      <trkpt lat="45.25749" lon="6.13702">
        <ele>2454</ele>
        <time>2012-05-17T12:15:58.000Z</time>
      </trkpt>
      <trkpt lat="45.25747" lon="6.13703">
        <ele>2454.6000976562</ele>
        <time>2012-05-17T12:16:03.000Z</time>
      </trkpt>
      <trkpt lat="45.25744" lon="6.13704">
        <ele>2456</ele>
        <time>2012-05-17T12:16:10.000Z</time>
      </trkpt>
      <trkpt lat="45.25744" lon="6.13704">
        <ele>2456</ele>
        <time>2012-05-17T12:16:11.000Z</time>
      </trkpt>
      <trkpt lat="45.25748" lon="6.13708">
        <ele>2457.1999511719</ele>
        <time>2012-05-17T12:16:25.000Z</time>
      </trkpt>
      <trkpt lat="45.25752" lon="6.13709">
        <ele>2458.3999023438</ele>
        <time>2012-05-17T12:16:32.000Z</time>
      </trkpt>
      <trkpt lat="45.25755" lon="6.13711">
        <ele>2459.3999023438</ele>
        <time>2012-05-17T12:16:38.000Z</time>
      </trkpt>
      <trkpt lat="45.2576" lon="6.13714">
        <ele>2460.6000976562</ele>
        <time>2012-05-17T12:16:47.000Z</time>
      </trkpt>
      <trkpt lat="45.25762" lon="6.13715">
        <ele>2461.3999023438</ele>
        <time>2012-05-17T12:16:54.000Z</time>
      </trkpt>
      <trkpt lat="45.25765" lon="6.13715">
        <ele>2462.6000976562</ele>
        <time>2012-05-17T12:17:00.000Z</time>
      </trkpt>
      <trkpt lat="45.2577" lon="6.13717">
        <ele>2464.1999511719</ele>
        <time>2012-05-17T12:17:10.000Z</time>
      </trkpt>
      <trkpt lat="45.25773" lon="6.13717">
        <ele>2465</ele>
        <time>2012-05-17T12:17:17.000Z</time>
      </trkpt>
      <trkpt lat="45.25777" lon="6.13717">
        <ele>2466.1999511719</ele>
        <time>2012-05-17T12:17:24.000Z</time>
      </trkpt>
      <trkpt lat="45.25779" lon="6.13717">
        <ele>2466.6000976562</ele>
        <time>2012-05-17T12:17:29.000Z</time>
      </trkpt>
      <trkpt lat="45.25781" lon="6.13718">
        <ele>2467</ele>
        <time>2012-05-17T12:17:33.000Z</time>
      </trkpt>
      <trkpt lat="45.25779" lon="6.1372">
        <ele>2467.6000976562</ele>
        <time>2012-05-17T12:17:49.000Z</time>
      </trkpt>
      <trkpt lat="45.25779" lon="6.1372">
        <ele>2468.1999511719</ele>
        <time>2012-05-17T12:17:52.000Z</time>
      </trkpt>
      <trkpt lat="45.25776" lon="6.13723">
        <ele>2468.8000488281</ele>
        <time>2012-05-17T12:17:59.000Z</time>
      </trkpt>
      <trkpt lat="45.25774" lon="6.13723">
        <ele>2469</ele>
        <time>2012-05-17T12:18:02.000Z</time>
      </trkpt>
      <trkpt lat="45.25778" lon="6.13725">
        <ele>2469.8000488281</ele>
        <time>2012-05-17T12:18:28.000Z</time>
      </trkpt>
      <trkpt lat="45.2578" lon="6.13725">
        <ele>2470.3999023438</ele>
        <time>2012-05-17T12:18:33.000Z</time>
      </trkpt>
      <trkpt lat="45.25781" lon="6.13725">
        <ele>2470.8000488281</ele>
        <time>2012-05-17T12:18:35.000Z</time>
      </trkpt>
      <trkpt lat="45.25789" lon="6.13724">
        <ele>2473.3999023438</ele>
        <time>2012-05-17T12:18:59.000Z</time>
      </trkpt>
      <trkpt lat="45.25791" lon="6.13725">
        <ele>2474.1999511719</ele>
        <time>2012-05-17T12:19:04.000Z</time>
      </trkpt>
      <trkpt lat="45.25794" lon="6.13726">
        <ele>2475.1999511719</ele>
        <time>2012-05-17T12:19:10.000Z</time>
      </trkpt>
      <trkpt lat="45.25798" lon="6.13728">
        <ele>2476.3999023438</ele>
        <time>2012-05-17T12:19:18.000Z</time>
      </trkpt>
      <trkpt lat="45.25802" lon="6.1373">
        <ele>2478.3999023438</ele>
        <time>2012-05-17T12:19:28.000Z</time>
      </trkpt>
      <trkpt lat="45.25801" lon="6.13734">
        <ele>2479.1999511719</ele>
        <time>2012-05-17T12:19:40.000Z</time>
      </trkpt>
      <trkpt lat="45.25801" lon="6.13735">
        <ele>2479.1999511719</ele>
        <time>2012-05-17T12:19:41.000Z</time>
      </trkpt>
      <trkpt lat="45.25799" lon="6.13738">
        <ele>2480.1999511719</ele>
        <time>2012-05-17T12:19:47.000Z</time>
      </trkpt>
      <trkpt lat="45.25796" lon="6.13743">
        <ele>2482.1999511719</ele>
        <time>2012-05-17T12:19:57.000Z</time>
      </trkpt>
      <trkpt lat="45.25794" lon="6.13748">
        <ele>2483.6000976562</ele>
        <time>2012-05-17T12:20:04.000Z</time>
      </trkpt>
      <trkpt lat="45.25795" lon="6.13749">
        <ele>2484</ele>
        <time>2012-05-17T12:20:08.000Z</time>
      </trkpt>
      <trkpt lat="45.25796" lon="6.13749">
        <ele>2484.3999023438</ele>
        <time>2012-05-17T12:20:12.000Z</time>
      </trkpt>
      <trkpt lat="45.25799" lon="6.13749">
        <ele>2485.3999023438</ele>
        <time>2012-05-17T12:20:18.000Z</time>
      </trkpt>
      <trkpt lat="45.25803" lon="6.13751">
        <ele>2486.3999023438</ele>
        <time>2012-05-17T12:20:25.000Z</time>
      </trkpt>
      <trkpt lat="45.25808" lon="6.13753">
        <ele>2488</ele>
        <time>2012-05-17T12:20:35.000Z</time>
      </trkpt>
      <trkpt lat="45.25808" lon="6.13757">
        <ele>2489</ele>
        <time>2012-05-17T12:20:41.000Z</time>
      </trkpt>
      <trkpt lat="45.25806" lon="6.13761">
        <ele>2490.1999511719</ele>
        <time>2012-05-17T12:20:47.000Z</time>
      </trkpt>
      <trkpt lat="45.25804" lon="6.13765">
        <ele>2491.1999511719</ele>
        <time>2012-05-17T12:20:53.000Z</time>
      </trkpt>
      <trkpt lat="45.25801" lon="6.13769">
        <ele>2492.8000488281</ele>
        <time>2012-05-17T12:21:00.000Z</time>
      </trkpt>
      <trkpt lat="45.25798" lon="6.13773">
        <ele>2494</ele>
        <time>2012-05-17T12:21:08.000Z</time>
      </trkpt>
      <trkpt lat="45.25795" lon="6.13777">
        <ele>2495.6000976562</ele>
        <time>2012-05-17T12:21:17.000Z</time>
      </trkpt>
      <trkpt lat="45.25794" lon="6.13778">
        <ele>2496</ele>
        <time>2012-05-17T12:21:19.000Z</time>
      </trkpt>
      <trkpt lat="45.25797" lon="6.1378">
        <ele>2496.6000976562</ele>
        <time>2012-05-17T12:21:30.000Z</time>
      </trkpt>
      <trkpt lat="45.25801" lon="6.13783">
        <ele>2498</ele>
        <time>2012-05-17T12:21:37.000Z</time>
      </trkpt>
      <trkpt lat="45.25806" lon="6.13787">
        <ele>2499.3999023438</ele>
        <time>2012-05-17T12:21:45.000Z</time>
      </trkpt>
      <trkpt lat="45.25809" lon="6.1379">
        <ele>2500.8000488281</ele>
        <time>2012-05-17T12:21:52.000Z</time>
      </trkpt>
      <trkpt lat="45.25812" lon="6.13794">
        <ele>2502.3999023438</ele>
        <time>2012-05-17T12:21:59.000Z</time>
      </trkpt>
      <trkpt lat="45.2581" lon="6.13799">
        <ele>2503.6000976562</ele>
        <time>2012-05-17T12:22:05.000Z</time>
      </trkpt>
      <trkpt lat="45.25805" lon="6.13803">
        <ele>2505.3999023438</ele>
        <time>2012-05-17T12:22:14.000Z</time>
      </trkpt>
      <trkpt lat="45.25801" lon="6.13806">
        <ele>2507.1999511719</ele>
        <time>2012-05-17T12:22:23.000Z</time>
      </trkpt>
      <trkpt lat="45.25799" lon="6.13808">
        <ele>2508</ele>
        <time>2012-05-17T12:22:28.000Z</time>
      </trkpt>
      <trkpt lat="45.25798" lon="6.13808">
        <ele>2508.1999511719</ele>
        <time>2012-05-17T12:22:29.000Z</time>
      </trkpt>
      <trkpt lat="45.25802" lon="6.13811">
        <ele>2509.6000976562</ele>
        <time>2012-05-17T12:22:50.000Z</time>
      </trkpt>
      <trkpt lat="45.25806" lon="6.13814">
        <ele>2511.1999511719</ele>
        <time>2012-05-17T12:22:58.000Z</time>
      </trkpt>
      <trkpt lat="45.2581" lon="6.13818">
        <ele>2512.8000488281</ele>
        <time>2012-05-17T12:23:07.000Z</time>
      </trkpt>
      <trkpt lat="45.2581" lon="6.13822">
        <ele>2513.6000976562</ele>
        <time>2012-05-17T12:23:12.000Z</time>
      </trkpt>
      <trkpt lat="45.25807" lon="6.13825">
        <ele>2514.6000976562</ele>
        <time>2012-05-17T12:23:18.000Z</time>
      </trkpt>
      <trkpt lat="45.25803" lon="6.13829">
        <ele>2516.3999023438</ele>
        <time>2012-05-17T12:23:27.000Z</time>
      </trkpt>
      <trkpt lat="45.25798" lon="6.13831">
        <ele>2517.8000488281</ele>
        <time>2012-05-17T12:23:35.000Z</time>
      </trkpt>
      <trkpt lat="45.25795" lon="6.13832">
        <ele>2519</ele>
        <time>2012-05-17T12:23:42.000Z</time>
      </trkpt>
      <trkpt lat="45.2579" lon="6.13832">
        <ele>2520.3999023438</ele>
        <time>2012-05-17T12:23:51.000Z</time>
      </trkpt>
      <trkpt lat="45.2579" lon="6.13832">
        <ele>2520.3999023438</ele>
        <time>2012-05-17T12:23:52.000Z</time>
      </trkpt>
      <trkpt lat="45.25794" lon="6.13836">
        <ele>2521.8000488281</ele>
        <time>2012-05-17T12:24:03.000Z</time>
      </trkpt>
      <trkpt lat="45.25798" lon="6.1384">
        <ele>2523.6000976562</ele>
        <time>2012-05-17T12:24:12.000Z</time>
      </trkpt>
      <trkpt lat="45.25802" lon="6.13844">
        <ele>2525.1999511719</ele>
        <time>2012-05-17T12:24:22.000Z</time>
      </trkpt>
      <trkpt lat="45.25804" lon="6.13845">
        <ele>2525.8000488281</ele>
        <time>2012-05-17T12:24:27.000Z</time>
      </trkpt>
      <trkpt lat="45.25808" lon="6.13849">
        <ele>2527.3999023438</ele>
        <time>2012-05-17T12:24:34.000Z</time>
      </trkpt>
      <trkpt lat="45.25809" lon="6.1385">
        <ele>2527.3999023438</ele>
        <time>2012-05-17T12:24:35.000Z</time>
      </trkpt>
      <trkpt lat="45.25804" lon="6.13854">
        <ele>2528.1999511719</ele>
        <time>2012-05-17T12:24:46.000Z</time>
      </trkpt>
      <trkpt lat="45.258" lon="6.13856">
        <ele>2529.6000976562</ele>
        <time>2012-05-17T12:24:53.000Z</time>
      </trkpt>
      <trkpt lat="45.25796" lon="6.13857">
        <ele>2531</ele>
        <time>2012-05-17T12:25:01.000Z</time>
      </trkpt>
      <trkpt lat="45.25792" lon="6.13859">
        <ele>2532.8000488281</ele>
        <time>2012-05-17T12:25:09.000Z</time>
      </trkpt>
      <trkpt lat="45.25789" lon="6.13859">
        <ele>2534.1999511719</ele>
        <time>2012-05-17T12:25:16.000Z</time>
      </trkpt>
      <trkpt lat="45.25793" lon="6.13865">
        <ele>2535.6000976562</ele>
        <time>2012-05-17T12:25:27.000Z</time>
      </trkpt>
      <trkpt lat="45.25795" lon="6.13867">
        <ele>2536.8000488281</ele>
        <time>2012-05-17T12:25:34.000Z</time>
      </trkpt>
      <trkpt lat="45.25798" lon="6.13869">
        <ele>2538</ele>
        <time>2012-05-17T12:25:42.000Z</time>
      </trkpt>
      <trkpt lat="45.258" lon="6.13871">
        <ele>2539.1999511719</ele>
        <time>2012-05-17T12:25:46.000Z</time>
      </trkpt>
      <trkpt lat="45.25798" lon="6.13875">
        <ele>2539.8000488281</ele>
        <time>2012-05-17T12:25:54.000Z</time>
      </trkpt>
      <trkpt lat="45.25796" lon="6.13877">
        <ele>2541</ele>
        <time>2012-05-17T12:26:00.000Z</time>
      </trkpt>
      <trkpt lat="45.25793" lon="6.13879">
        <ele>2542</ele>
        <time>2012-05-17T12:26:06.000Z</time>
      </trkpt>
      <trkpt lat="45.25791" lon="6.1388">
        <ele>2543</ele>
        <time>2012-05-17T12:26:11.000Z</time>
      </trkpt>
      <trkpt lat="45.25788" lon="6.13881">
        <ele>2544.1999511719</ele>
        <time>2012-05-17T12:26:17.000Z</time>
      </trkpt>
      <trkpt lat="45.25786" lon="6.13881">
        <ele>2545.1999511719</ele>
        <time>2012-05-17T12:26:23.000Z</time>
      </trkpt>
      <trkpt lat="45.25788" lon="6.13885">
        <ele>2546.1999511719</ele>
        <time>2012-05-17T12:26:34.000Z</time>
      </trkpt>
      <trkpt lat="45.25792" lon="6.13892">
        <ele>2547.8000488281</ele>
        <time>2012-05-17T12:26:43.000Z</time>
      </trkpt>
      <trkpt lat="45.25794" lon="6.13893">
        <ele>2548.6000976562</ele>
        <time>2012-05-17T12:26:48.000Z</time>
      </trkpt>
      <trkpt lat="45.25795" lon="6.13891">
        <ele>2547.8000488281</ele>
        <time>2012-05-17T12:26:52.000Z</time>
      </trkpt>
      <trkpt lat="45.25793" lon="6.13891">
        <ele>2548.1999511719</ele>
        <time>2012-05-17T12:27:13.000Z</time>
      </trkpt>
      <trkpt lat="45.25789" lon="6.13894">
        <ele>2549.6000976562</ele>
        <time>2012-05-17T12:27:20.000Z</time>
      </trkpt>
      <trkpt lat="45.25788" lon="6.13894">
        <ele>2550.1999511719</ele>
        <time>2012-05-17T12:27:23.000Z</time>
      </trkpt>
      <trkpt lat="45.25786" lon="6.13895">
        <ele>2551.3999023438</ele>
        <time>2012-05-17T12:27:27.000Z</time>
      </trkpt>
      <trkpt lat="45.25785" lon="6.13895">
        <ele>2552.1999511719</ele>
        <time>2012-05-17T12:27:30.000Z</time>
      </trkpt>
      <trkpt lat="45.25782" lon="6.13899">
        <ele>2554</ele>
        <time>2012-05-17T12:27:45.000Z</time>
      </trkpt>
      <trkpt lat="45.25786" lon="6.13905">
        <ele>2556</ele>
        <time>2012-05-17T12:27:56.000Z</time>
      </trkpt>
      <trkpt lat="45.25789" lon="6.13907">
        <ele>2557.3999023438</ele>
        <time>2012-05-17T12:28:04.000Z</time>
      </trkpt>
      <trkpt lat="45.25791" lon="6.13911">
        <ele>2557.3999023438</ele>
        <time>2012-05-17T12:28:09.000Z</time>
      </trkpt>
      <trkpt lat="45.25794" lon="6.13918">
        <ele>2557.6000976562</ele>
        <time>2012-05-17T12:28:18.000Z</time>
      </trkpt>
      <trkpt lat="45.25794" lon="6.13922">
        <ele>2557.3999023438</ele>
        <time>2012-05-17T12:28:25.000Z</time>
      </trkpt>
      <trkpt lat="45.25794" lon="6.13922">
        <ele>2557.3999023438</ele>
        <time>2012-05-17T12:28:27.000Z</time>
      </trkpt>
      <trkpt lat="45.25792" lon="6.13917">
        <ele>2556.3999023438</ele>
        <time>2012-05-17T12:42:31.000Z</time>
      </trkpt>
      <trkpt lat="45.25793" lon="6.13913">
        <ele>2556.6000976562</ele>
        <time>2012-05-17T12:42:36.000Z</time>
      </trkpt>
      <trkpt lat="45.25795" lon="6.13917">
        <ele>2556.3999023438</ele>
        <time>2012-05-17T12:42:51.000Z</time>
      </trkpt>
      <trkpt lat="45.25792" lon="6.13936">
        <ele>2554.8000488281</ele>
        <time>2012-05-17T12:43:33.000Z</time>
      </trkpt>
      <trkpt lat="45.25789" lon="6.13953">
        <ele>2551.6000976562</ele>
        <time>2012-05-17T12:43:37.000Z</time>
      </trkpt>
      <trkpt lat="45.2579" lon="6.13967">
        <ele>2547</ele>
        <time>2012-05-17T12:43:40.000Z</time>
      </trkpt>
      <trkpt lat="45.25793" lon="6.13988">
        <ele>2540.6000976562</ele>
        <time>2012-05-17T12:43:43.000Z</time>
      </trkpt>
      <trkpt lat="45.25796" lon="6.14006">
        <ele>2536</ele>
        <time>2012-05-17T12:43:45.000Z</time>
      </trkpt>
      <trkpt lat="45.25791" lon="6.1403">
        <ele>2530.1999511719</ele>
        <time>2012-05-17T12:43:48.000Z</time>
      </trkpt>
      <trkpt lat="45.25796" lon="6.14043">
        <ele>2527.1999511719</ele>
        <time>2012-05-17T12:43:50.000Z</time>
      </trkpt>
      <trkpt lat="45.25796" lon="6.14059">
        <ele>2523</ele>
        <time>2012-05-17T12:43:52.000Z</time>
      </trkpt>
      <trkpt lat="45.25798" lon="6.14073">
        <ele>2518.3999023438</ele>
        <time>2012-05-17T12:43:54.000Z</time>
      </trkpt>
      <trkpt lat="45.25794" lon="6.14079">
        <ele>2515.3999023438</ele>
        <time>2012-05-17T12:43:56.000Z</time>
      </trkpt>
      <trkpt lat="45.25795" lon="6.14079">
        <ele>2512.3999023438</ele>
        <time>2012-05-17T12:44:00.000Z</time>
      </trkpt>
      <trkpt lat="45.258" lon="6.14096">
        <ele>2509.6000976562</ele>
        <time>2012-05-17T12:44:08.000Z</time>
      </trkpt>
      <trkpt lat="45.25799" lon="6.141">
        <ele>2508</ele>
        <time>2012-05-17T12:44:09.000Z</time>
      </trkpt>
      <trkpt lat="45.25797" lon="6.14119">
        <ele>2501.6000976562</ele>
        <time>2012-05-17T12:44:13.000Z</time>
      </trkpt>
      <trkpt lat="45.25788" lon="6.14123">
        <ele>2498.6000976562</ele>
        <time>2012-05-17T12:44:15.000Z</time>
      </trkpt>
      <trkpt lat="45.2577" lon="6.14133">
        <ele>2492.8000488281</ele>
        <time>2012-05-17T12:44:19.000Z</time>
      </trkpt>
      <trkpt lat="45.2577" lon="6.14138">
        <ele>2492.3999023438</ele>
        <time>2012-05-17T12:44:20.000Z</time>
      </trkpt>
      <trkpt lat="45.25768" lon="6.14171">
        <ele>2485</ele>
        <time>2012-05-17T12:44:24.000Z</time>
      </trkpt>
      <trkpt lat="45.25775" lon="6.14183">
        <ele>2481.3999023438</ele>
        <time>2012-05-17T12:44:26.000Z</time>
      </trkpt>
      <trkpt lat="45.25775" lon="6.14196">
        <ele>2476.8000488281</ele>
        <time>2012-05-17T12:44:28.000Z</time>
      </trkpt>
      <trkpt lat="45.25758" lon="6.1422">
        <ele>2469.3999023438</ele>
        <time>2012-05-17T12:44:33.000Z</time>
      </trkpt>
      <trkpt lat="45.25755" lon="6.14231">
        <ele>2466</ele>
        <time>2012-05-17T12:44:35.000Z</time>
      </trkpt>
      <trkpt lat="45.25752" lon="6.14237">
        <ele>2463.1999511719</ele>
        <time>2012-05-17T12:44:37.000Z</time>
      </trkpt>
      <trkpt lat="45.25748" lon="6.14247">
        <ele>2457.8000488281</ele>
        <time>2012-05-17T12:44:40.000Z</time>
      </trkpt>
      <trkpt lat="45.25742" lon="6.14253">
        <ele>2453.6000976562</ele>
        <time>2012-05-17T12:44:43.000Z</time>
      </trkpt>
      <trkpt lat="45.25737" lon="6.14248">
        <ele>2450.6000976562</ele>
        <time>2012-05-17T12:44:46.000Z</time>
      </trkpt>
      <trkpt lat="45.25737" lon="6.14248">
        <ele>2450.1999511719</ele>
        <time>2012-05-17T12:44:47.000Z</time>
      </trkpt>
      <trkpt lat="45.25734" lon="6.14265">
        <ele>2446.8000488281</ele>
        <time>2012-05-17T12:45:00.000Z</time>
      </trkpt>
      <trkpt lat="45.2573" lon="6.14275">
        <ele>2442.1999511719</ele>
        <time>2012-05-17T12:45:03.000Z</time>
      </trkpt>
      <trkpt lat="45.2573" lon="6.14282">
        <ele>2438.8000488281</ele>
        <time>2012-05-17T12:45:05.000Z</time>
      </trkpt>
      <trkpt lat="45.25724" lon="6.14282">
        <ele>2435.1999511719</ele>
        <time>2012-05-17T12:45:09.000Z</time>
      </trkpt>
      <trkpt lat="45.25723" lon="6.14291">
        <ele>2431.8000488281</ele>
        <time>2012-05-17T12:45:12.000Z</time>
      </trkpt>
      <trkpt lat="45.25719" lon="6.14293">
        <ele>2429.1999511719</ele>
        <time>2012-05-17T12:45:14.000Z</time>
      </trkpt>
      <trkpt lat="45.25712" lon="6.14306">
        <ele>2424.6000976562</ele>
        <time>2012-05-17T12:45:17.000Z</time>
      </trkpt>
      <trkpt lat="45.25706" lon="6.14306">
        <ele>2420.3999023438</ele>
        <time>2012-05-17T12:45:20.000Z</time>
      </trkpt>
      <trkpt lat="45.25702" lon="6.14292">
        <ele>2416.6000976562</ele>
        <time>2012-05-17T12:45:23.000Z</time>
      </trkpt>
      <trkpt lat="45.25698" lon="6.14299">
        <ele>2414</ele>
        <time>2012-05-17T12:45:25.000Z</time>
      </trkpt>
      <trkpt lat="45.25687" lon="6.14306">
        <ele>2408</ele>
        <time>2012-05-17T12:45:28.000Z</time>
      </trkpt>
      <trkpt lat="45.25685" lon="6.14307">
        <ele>2405</ele>
        <time>2012-05-17T12:45:30.000Z</time>
      </trkpt>
      <trkpt lat="45.25686" lon="6.14308">
        <ele>2403.1999511719</ele>
        <time>2012-05-17T12:45:33.000Z</time>
      </trkpt>
      <trkpt lat="45.25672" lon="6.14335">
        <ele>2400.1999511719</ele>
        <time>2012-05-17T12:45:48.000Z</time>
      </trkpt>
      <trkpt lat="45.2563" lon="6.14391">
        <ele>2389.8000488281</ele>
        <time>2012-05-17T12:45:56.000Z</time>
      </trkpt>
      <trkpt lat="45.25605" lon="6.1444">
        <ele>2378.8000488281</ele>
        <time>2012-05-17T12:46:02.000Z</time>
      </trkpt>
      <trkpt lat="45.2559" lon="6.1447">
        <ele>2373.3999023438</ele>
        <time>2012-05-17T12:46:07.000Z</time>
      </trkpt>
      <trkpt lat="45.25583" lon="6.14484">
        <ele>2371.6000976562</ele>
        <time>2012-05-17T12:46:10.000Z</time>
      </trkpt>
      <trkpt lat="45.25572" lon="6.14506">
        <ele>2370</ele>
        <time>2012-05-17T12:46:16.000Z</time>
      </trkpt>
      <trkpt lat="45.25565" lon="6.14519">
        <ele>2368.8000488281</ele>
        <time>2012-05-17T12:46:20.000Z</time>
      </trkpt>
      <trkpt lat="45.25559" lon="6.14536">
        <ele>2366.3999023438</ele>
        <time>2012-05-17T12:46:24.000Z</time>
      </trkpt>
      <trkpt lat="45.25552" lon="6.14549">
        <ele>2363.8000488281</ele>
        <time>2012-05-17T12:46:27.000Z</time>
      </trkpt>
      <trkpt lat="45.25555" lon="6.14564">
        <ele>2360</ele>
        <time>2012-05-17T12:46:30.000Z</time>
      </trkpt>
      <trkpt lat="45.25561" lon="6.14588">
        <ele>2354.1999511719</ele>
        <time>2012-05-17T12:46:35.000Z</time>
      </trkpt>
      <trkpt lat="45.25555" lon="6.14591">
        <ele>2352</ele>
        <time>2012-05-17T12:46:37.000Z</time>
      </trkpt>
      <trkpt lat="45.2555" lon="6.14604">
        <ele>2347.1999511719</ele>
        <time>2012-05-17T12:46:40.000Z</time>
      </trkpt>
      <trkpt lat="45.25538" lon="6.14606">
        <ele>2342.8000488281</ele>
        <time>2012-05-17T12:46:43.000Z</time>
      </trkpt>
      <trkpt lat="45.25538" lon="6.14621">
        <ele>2339.1999511719</ele>
        <time>2012-05-17T12:46:45.000Z</time>
      </trkpt>
      <trkpt lat="45.25529" lon="6.14635">
        <ele>2333.3999023438</ele>
        <time>2012-05-17T12:46:49.000Z</time>
      </trkpt>
      <trkpt lat="45.25521" lon="6.14654">
        <ele>2327.8000488281</ele>
        <time>2012-05-17T12:46:52.000Z</time>
      </trkpt>
      <trkpt lat="45.25522" lon="6.14661">
        <ele>2325.8000488281</ele>
        <time>2012-05-17T12:46:53.000Z</time>
      </trkpt>
      <trkpt lat="45.25523" lon="6.14673">
        <ele>2323.6000976562</ele>
        <time>2012-05-17T12:46:55.000Z</time>
      </trkpt>
      <trkpt lat="45.25507" lon="6.14679">
        <ele>2316.1999511719</ele>
        <time>2012-05-17T12:46:59.000Z</time>
      </trkpt>
      <trkpt lat="45.25495" lon="6.14691">
        <ele>2310.3999023438</ele>
        <time>2012-05-17T12:47:02.000Z</time>
      </trkpt>
      <trkpt lat="45.25491" lon="6.14707">
        <ele>2306</ele>
        <time>2012-05-17T12:47:04.000Z</time>
      </trkpt>
      <trkpt lat="45.2548" lon="6.14729">
        <ele>2300</ele>
        <time>2012-05-17T12:47:08.000Z</time>
      </trkpt>
      <trkpt lat="45.25468" lon="6.14745">
        <ele>2294.8000488281</ele>
        <time>2012-05-17T12:47:11.000Z</time>
      </trkpt>
      <trkpt lat="45.25451" lon="6.14759">
        <ele>2289.3999023438</ele>
        <time>2012-05-17T12:47:14.000Z</time>
      </trkpt>
      <trkpt lat="45.25431" lon="6.14795">
        <ele>2279.8000488281</ele>
        <time>2012-05-17T12:47:19.000Z</time>
      </trkpt>
      <trkpt lat="45.25418" lon="6.14803">
        <ele>2273.3999023438</ele>
        <time>2012-05-17T12:47:24.000Z</time>
      </trkpt>
      <trkpt lat="45.25419" lon="6.14803">
        <ele>2272.8000488281</ele>
        <time>2012-05-17T12:47:26.000Z</time>
      </trkpt>
      <trkpt lat="45.25403" lon="6.14818">
        <ele>2270.6000976562</ele>
        <time>2012-05-17T12:47:32.000Z</time>
      </trkpt>
      <trkpt lat="45.25393" lon="6.14832">
        <ele>2266.1999511719</ele>
        <time>2012-05-17T12:47:34.000Z</time>
      </trkpt>
      <trkpt lat="45.25371" lon="6.14877">
        <ele>2254.1999511719</ele>
        <time>2012-05-17T12:47:39.000Z</time>
      </trkpt>
      <trkpt lat="45.25361" lon="6.14902">
        <ele>2249.3999023438</ele>
        <time>2012-05-17T12:47:43.000Z</time>
      </trkpt>
      <trkpt lat="45.25355" lon="6.14912">
        <ele>2248</ele>
        <time>2012-05-17T12:47:46.000Z</time>
      </trkpt>
      <trkpt lat="45.25343" lon="6.14926">
        <ele>2246.1999511719</ele>
        <time>2012-05-17T12:47:50.000Z</time>
      </trkpt>
      <trkpt lat="45.25332" lon="6.14959">
        <ele>2240.3999023438</ele>
        <time>2012-05-17T12:47:54.000Z</time>
      </trkpt>
      <trkpt lat="45.25321" lon="6.15014">
        <ele>2232.6000976562</ele>
        <time>2012-05-17T12:48:00.000Z</time>
      </trkpt>
      <trkpt lat="45.25318" lon="6.15023">
        <ele>2230.8000488281</ele>
        <time>2012-05-17T12:48:01.000Z</time>
      </trkpt>
      <trkpt lat="45.25303" lon="6.15042">
        <ele>2225.6000976562</ele>
        <time>2012-05-17T12:48:05.000Z</time>
      </trkpt>
      <trkpt lat="45.25291" lon="6.15055">
        <ele>2223</ele>
        <time>2012-05-17T12:48:08.000Z</time>
      </trkpt>
      <trkpt lat="45.25281" lon="6.1507">
        <ele>2221</ele>
        <time>2012-05-17T12:48:11.000Z</time>
      </trkpt>
      <trkpt lat="45.25261" lon="6.15117">
        <ele>2214.6000976562</ele>
        <time>2012-05-17T12:48:18.000Z</time>
      </trkpt>
      <trkpt lat="45.25251" lon="6.15147">
        <ele>2210.1999511719</ele>
        <time>2012-05-17T12:48:24.000Z</time>
      </trkpt>
      <trkpt lat="45.25249" lon="6.15151">
        <ele>2209.3999023438</ele>
        <time>2012-05-17T12:48:25.000Z</time>
      </trkpt>
      <trkpt lat="45.2524" lon="6.15184">
        <ele>2206</ele>
        <time>2012-05-17T12:48:31.000Z</time>
      </trkpt>
      <trkpt lat="45.25237" lon="6.15217">
        <ele>2203</ele>
        <time>2012-05-17T12:48:38.000Z</time>
      </trkpt>
      <trkpt lat="45.25236" lon="6.15227">
        <ele>2202</ele>
        <time>2012-05-17T12:48:40.000Z</time>
      </trkpt>
      <trkpt lat="45.25232" lon="6.15253">
        <ele>2200</ele>
        <time>2012-05-17T12:48:46.000Z</time>
      </trkpt>
      <trkpt lat="45.25226" lon="6.15279">
        <ele>2198</ele>
        <time>2012-05-17T12:48:52.000Z</time>
      </trkpt>
      <trkpt lat="45.25221" lon="6.15313">
        <ele>2195.6000976562</ele>
        <time>2012-05-17T12:49:00.000Z</time>
      </trkpt>
      <trkpt lat="45.25218" lon="6.15339">
        <ele>2194.3999023438</ele>
        <time>2012-05-17T12:49:09.000Z</time>
      </trkpt>
      <trkpt lat="45.25209" lon="6.15372">
        <ele>2192</ele>
        <time>2012-05-17T12:49:18.000Z</time>
      </trkpt>
      <trkpt lat="45.25206" lon="6.15393">
        <ele>2190.1999511719</ele>
        <time>2012-05-17T12:49:23.000Z</time>
      </trkpt>
      <trkpt lat="45.25205" lon="6.15437">
        <ele>2186.3999023438</ele>
        <time>2012-05-17T12:49:30.000Z</time>
      </trkpt>
      <trkpt lat="45.25201" lon="6.15456">
        <ele>2183.8000488281</ele>
        <time>2012-05-17T12:49:35.000Z</time>
      </trkpt>
      <trkpt lat="45.25191" lon="6.15477">
        <ele>2182</ele>
        <time>2012-05-17T12:49:42.000Z</time>
      </trkpt>
      <trkpt lat="45.25185" lon="6.1549">
        <ele>2180.8000488281</ele>
        <time>2012-05-17T12:49:45.000Z</time>
      </trkpt>
      <trkpt lat="45.25175" lon="6.15543">
        <ele>2173.6000976562</ele>
        <time>2012-05-17T12:49:51.000Z</time>
      </trkpt>
      <trkpt lat="45.25167" lon="6.15589">
        <ele>2168</ele>
        <time>2012-05-17T12:49:57.000Z</time>
      </trkpt>
      <trkpt lat="45.25157" lon="6.15631">
        <ele>2163.6000976562</ele>
        <time>2012-05-17T12:50:03.000Z</time>
      </trkpt>
      <trkpt lat="45.25145" lon="6.15673">
        <ele>2158.8000488281</ele>
        <time>2012-05-17T12:50:09.000Z</time>
      </trkpt>
      <trkpt lat="45.2514" lon="6.15709">
        <ele>2156.3999023438</ele>
        <time>2012-05-17T12:50:14.000Z</time>
      </trkpt>
      <trkpt lat="45.25136" lon="6.15732">
        <ele>2154.6000976562</ele>
        <time>2012-05-17T12:50:18.000Z</time>
      </trkpt>
      <trkpt lat="45.25122" lon="6.15769">
        <ele>2151.6000976562</ele>
        <time>2012-05-17T12:50:25.000Z</time>
      </trkpt>
      <trkpt lat="45.25099" lon="6.15807">
        <ele>2147</ele>
        <time>2012-05-17T12:50:32.000Z</time>
      </trkpt>
      <trkpt lat="45.25071" lon="6.15855">
        <ele>2140.8000488281</ele>
        <time>2012-05-17T12:50:39.000Z</time>
      </trkpt>
      <trkpt lat="45.25045" lon="6.15901">
        <ele>2136</ele>
        <time>2012-05-17T12:50:46.000Z</time>
      </trkpt>
      <trkpt lat="45.25041" lon="6.15908">
        <ele>2135.3999023438</ele>
        <time>2012-05-17T12:50:47.000Z</time>
      </trkpt>
      <trkpt lat="45.25019" lon="6.15934">
        <ele>2132.1999511719</ele>
        <time>2012-05-17T12:50:53.000Z</time>
      </trkpt>
      <trkpt lat="45.24998" lon="6.15955">
        <ele>2129</ele>
        <time>2012-05-17T12:50:58.000Z</time>
      </trkpt>
      <trkpt lat="45.24978" lon="6.15985">
        <ele>2125.1999511719</ele>
        <time>2012-05-17T12:51:04.000Z</time>
      </trkpt>
      <trkpt lat="45.24967" lon="6.15999">
        <ele>2123.6000976562</ele>
        <time>2012-05-17T12:51:08.000Z</time>
      </trkpt>
      <trkpt lat="45.24944" lon="6.16031">
        <ele>2118.6000976562</ele>
        <time>2012-05-17T12:51:14.000Z</time>
      </trkpt>
      <trkpt lat="45.24928" lon="6.16062">
        <ele>2115.8000488281</ele>
        <time>2012-05-17T12:51:20.000Z</time>
      </trkpt>
      <trkpt lat="45.24922" lon="6.16086">
        <ele>2113.8000488281</ele>
        <time>2012-05-17T12:51:25.000Z</time>
      </trkpt>
      <trkpt lat="45.24919" lon="6.1612">
        <ele>2111.1999511719</ele>
        <time>2012-05-17T12:51:30.000Z</time>
      </trkpt>
      <trkpt lat="45.24915" lon="6.16146">
        <ele>2108.6000976562</ele>
        <time>2012-05-17T12:51:35.000Z</time>
      </trkpt>
      <trkpt lat="45.24909" lon="6.16174">
        <ele>2107.6000976562</ele>
        <time>2012-05-17T12:51:43.000Z</time>
      </trkpt>
      <trkpt lat="45.24901" lon="6.162">
        <ele>2106.3999023438</ele>
        <time>2012-05-17T12:51:51.000Z</time>
      </trkpt>
      <trkpt lat="45.24888" lon="6.16234">
        <ele>2104.1999511719</ele>
        <time>2012-05-17T12:51:59.000Z</time>
      </trkpt>
      <trkpt lat="45.24877" lon="6.16248">
        <ele>2103</ele>
        <time>2012-05-17T12:52:05.000Z</time>
      </trkpt>
      <trkpt lat="45.24862" lon="6.16261">
        <ele>2100.8000488281</ele>
        <time>2012-05-17T12:52:11.000Z</time>
      </trkpt>
      <trkpt lat="45.24853" lon="6.16269">
        <ele>2099.3999023438</ele>
        <time>2012-05-17T12:52:14.000Z</time>
      </trkpt>
      <trkpt lat="45.24849" lon="6.16273">
        <ele>2098.3999023438</ele>
        <time>2012-05-17T12:52:18.000Z</time>
      </trkpt>
      <trkpt lat="45.24848" lon="6.16272">
        <ele>2098.3999023438</ele>
        <time>2012-05-17T12:52:19.000Z</time>
      </trkpt>
      <trkpt lat="45.24845" lon="6.16277">
        <ele>2096.3999023438</ele>
        <time>2012-05-17T12:53:09.000Z</time>
      </trkpt>
      <trkpt lat="45.24845" lon="6.16277">
        <ele>2096</ele>
        <time>2012-05-17T12:53:11.000Z</time>
      </trkpt>
      <trkpt lat="45.24841" lon="6.16284">
        <ele>2094.6000976562</ele>
        <time>2012-05-17T12:53:44.000Z</time>
      </trkpt>
      <trkpt lat="45.24829" lon="6.16297">
        <ele>2090.1999511719</ele>
        <time>2012-05-17T12:53:47.000Z</time>
      </trkpt>
      <trkpt lat="45.24806" lon="6.16312">
        <ele>2084.1999511719</ele>
        <time>2012-05-17T12:53:52.000Z</time>
      </trkpt>
      <trkpt lat="45.24803" lon="6.16314">
        <ele>2084</ele>
        <time>2012-05-17T12:53:53.000Z</time>
      </trkpt>
      <trkpt lat="45.24794" lon="6.16322">
        <ele>2083.6000976562</ele>
        <time>2012-05-17T12:53:58.000Z</time>
      </trkpt>
      <trkpt lat="45.24779" lon="6.16338">
        <ele>2082</ele>
        <time>2012-05-17T12:54:06.000Z</time>
      </trkpt>
      <trkpt lat="45.24773" lon="6.16345">
        <ele>2080.6000976562</ele>
        <time>2012-05-17T12:54:11.000Z</time>
      </trkpt>
      <trkpt lat="45.24765" lon="6.16354">
        <ele>2079.1999511719</ele>
        <time>2012-05-17T12:54:14.000Z</time>
      </trkpt>
      <trkpt lat="45.24751" lon="6.16371">
        <ele>2074.8000488281</ele>
        <time>2012-05-17T12:54:18.000Z</time>
      </trkpt>
      <trkpt lat="45.24741" lon="6.16389">
        <ele>2070.8000488281</ele>
        <time>2012-05-17T12:54:21.000Z</time>
      </trkpt>
      <trkpt lat="45.24733" lon="6.16411">
        <ele>2064.3999023438</ele>
        <time>2012-05-17T12:54:25.000Z</time>
      </trkpt>
      <trkpt lat="45.24726" lon="6.16429">
        <ele>2058.3999023438</ele>
        <time>2012-05-17T12:54:28.000Z</time>
      </trkpt>
      <trkpt lat="45.24722" lon="6.16434">
        <ele>2056.6000976562</ele>
        <time>2012-05-17T12:54:29.000Z</time>
      </trkpt>
      <trkpt lat="45.24693" lon="6.16459">
        <ele>2050.3999023438</ele>
        <time>2012-05-17T12:54:35.000Z</time>
      </trkpt>
      <trkpt lat="45.24682" lon="6.16468">
        <ele>2048.8000488281</ele>
        <time>2012-05-17T12:54:38.000Z</time>
      </trkpt>
      <trkpt lat="45.2467" lon="6.16473">
        <ele>2047.4000244141</ele>
        <time>2012-05-17T12:54:42.000Z</time>
      </trkpt>
      <trkpt lat="45.24668" lon="6.16473">
        <ele>2047</ele>
        <time>2012-05-17T12:54:43.000Z</time>
      </trkpt>
      <trkpt lat="45.24662" lon="6.16474">
        <ele>2047</ele>
        <time>2012-05-17T12:54:51.000Z</time>
      </trkpt>
      <trkpt lat="45.24654" lon="6.16477">
        <ele>2047.1999511719</ele>
        <time>2012-05-17T12:54:58.000Z</time>
      </trkpt>
      <trkpt lat="45.24647" lon="6.16482">
        <ele>2047</ele>
        <time>2012-05-17T12:55:04.000Z</time>
      </trkpt>
      <trkpt lat="45.24642" lon="6.16487">
        <ele>2047.1999511719</ele>
        <time>2012-05-17T12:55:11.000Z</time>
      </trkpt>
      <trkpt lat="45.24637" lon="6.16493">
        <ele>2047.8000488281</ele>
        <time>2012-05-17T12:55:21.000Z</time>
      </trkpt>
      <trkpt lat="45.2463" lon="6.16497">
        <ele>2048.1999511719</ele>
        <time>2012-05-17T12:55:29.000Z</time>
      </trkpt>
      <trkpt lat="45.24623" lon="6.16503">
        <ele>2048</ele>
        <time>2012-05-17T12:55:34.000Z</time>
      </trkpt>
      <trkpt lat="45.24613" lon="6.16509">
        <ele>2047.4000244141</ele>
        <time>2012-05-17T12:55:41.000Z</time>
      </trkpt>
      <trkpt lat="45.24603" lon="6.16515">
        <ele>2046</ele>
        <time>2012-05-17T12:55:45.000Z</time>
      </trkpt>
      <trkpt lat="45.24596" lon="6.16517">
        <ele>2044</ele>
        <time>2012-05-17T12:55:48.000Z</time>
      </trkpt>
      <trkpt lat="45.24596" lon="6.16517">
        <ele>2043.1999511719</ele>
        <time>2012-05-17T12:55:50.000Z</time>
      </trkpt>
      <trkpt lat="45.2459" lon="6.16519">
        <ele>2042</ele>
        <time>2012-05-17T12:56:23.000Z</time>
      </trkpt>
      <trkpt lat="45.24587" lon="6.1652">
        <ele>2040.8000488281</ele>
        <time>2012-05-17T12:56:27.000Z</time>
      </trkpt>
      <trkpt lat="45.24587" lon="6.16521">
        <ele>2039.8000488281</ele>
        <time>2012-05-17T12:56:30.000Z</time>
      </trkpt>
      <trkpt lat="45.24587" lon="6.16521">
        <ele>2038.8000488281</ele>
        <time>2012-05-17T12:57:26.000Z</time>
      </trkpt>
      <trkpt lat="45.24584" lon="6.16521">
        <ele>2039</ele>
        <time>2012-05-17T12:57:35.000Z</time>
      </trkpt>
      <trkpt lat="45.24578" lon="6.1652">
        <ele>2039.8000488281</ele>
        <time>2012-05-17T12:57:42.000Z</time>
      </trkpt>
      <trkpt lat="45.24576" lon="6.16516">
        <ele>2040.8000488281</ele>
        <time>2012-05-17T12:57:48.000Z</time>
      </trkpt>
      <trkpt lat="45.24569" lon="6.16516">
        <ele>2040.8000488281</ele>
        <time>2012-05-17T12:57:56.000Z</time>
      </trkpt>
      <trkpt lat="45.24565" lon="6.16514">
        <ele>2041</ele>
        <time>2012-05-17T12:58:03.000Z</time>
      </trkpt>
      <trkpt lat="45.24564" lon="6.16513">
        <ele>2041</ele>
        <time>2012-05-17T12:58:06.000Z</time>
      </trkpt>
      <trkpt lat="45.24562" lon="6.16514">
        <ele>2041</ele>
        <time>2012-05-17T12:58:09.000Z</time>
      </trkpt>
      <trkpt lat="45.24556" lon="6.16518">
        <ele>2038.4000244141</ele>
        <time>2012-05-17T12:58:19.000Z</time>
      </trkpt>
      <trkpt lat="45.24551" lon="6.16521">
        <ele>2037.4000244141</ele>
        <time>2012-05-17T12:58:25.000Z</time>
      </trkpt>
      <trkpt lat="45.24545" lon="6.16523">
        <ele>2036.8000488281</ele>
        <time>2012-05-17T12:58:32.000Z</time>
      </trkpt>
      <trkpt lat="45.24541" lon="6.16523">
        <ele>2036.8000488281</ele>
        <time>2012-05-17T12:58:36.000Z</time>
      </trkpt>
      <trkpt lat="45.24538" lon="6.16524">
        <ele>2036.1999511719</ele>
        <time>2012-05-17T12:58:41.000Z</time>
      </trkpt>
      <trkpt lat="45.24532" lon="6.16522">
        <ele>2036.4000244141</ele>
        <time>2012-05-17T12:58:48.000Z</time>
      </trkpt>
      <trkpt lat="45.24529" lon="6.16521">
        <ele>2036.4000244141</ele>
        <time>2012-05-17T12:58:52.000Z</time>
      </trkpt>
      <trkpt lat="45.24525" lon="6.16523">
        <ele>2035.5999755859</ele>
        <time>2012-05-17T12:59:00.000Z</time>
      </trkpt>
      <trkpt lat="45.24522" lon="6.16527">
        <ele>2034.8000488281</ele>
        <time>2012-05-17T12:59:06.000Z</time>
      </trkpt>
      <trkpt lat="45.24518" lon="6.1653">
        <ele>2034</ele>
        <time>2012-05-17T12:59:12.000Z</time>
      </trkpt>
      <trkpt lat="45.24511" lon="6.16529">
        <ele>2034.4000244141</ele>
        <time>2012-05-17T12:59:20.000Z</time>
      </trkpt>
      <trkpt lat="45.2451" lon="6.1653">
        <ele>2034.1999511719</ele>
        <time>2012-05-17T12:59:22.000Z</time>
      </trkpt>
      <trkpt lat="45.24507" lon="6.16532">
        <ele>2033.1999511719</ele>
        <time>2012-05-17T12:59:27.000Z</time>
      </trkpt>
      <trkpt lat="45.24504" lon="6.16533">
        <ele>2032.5999755859</ele>
        <time>2012-05-17T12:59:31.000Z</time>
      </trkpt>
      <trkpt lat="45.24497" lon="6.16528">
        <ele>2032.5999755859</ele>
        <time>2012-05-17T12:59:40.000Z</time>
      </trkpt>
      <trkpt lat="45.24492" lon="6.16523">
        <ele>2032.8000488281</ele>
        <time>2012-05-17T12:59:47.000Z</time>
      </trkpt>
      <trkpt lat="45.24484" lon="6.16523">
        <ele>2030.5999755859</ele>
        <time>2012-05-17T12:59:54.000Z</time>
      </trkpt>
      <trkpt lat="45.24481" lon="6.16525">
        <ele>2030.4000244141</ele>
        <time>2012-05-17T12:59:58.000Z</time>
      </trkpt>
      <trkpt lat="45.24478" lon="6.16525">
        <ele>2030.4000244141</ele>
        <time>2012-05-17T13:00:03.000Z</time>
      </trkpt>
      <trkpt lat="45.24476" lon="6.16524">
        <ele>2030.5999755859</ele>
        <time>2012-05-17T13:00:10.000Z</time>
      </trkpt>
      <trkpt lat="45.24475" lon="6.16524">
        <ele>2030.1999511719</ele>
        <time>2012-05-17T13:00:12.000Z</time>
      </trkpt>
      <trkpt lat="45.24471" lon="6.16521">
        <ele>2029.5999755859</ele>
        <time>2012-05-17T13:00:16.000Z</time>
      </trkpt>
      <trkpt lat="45.24468" lon="6.16517">
        <ele>2028.5999755859</ele>
        <time>2012-05-17T13:00:20.000Z</time>
      </trkpt>
      <trkpt lat="45.2446" lon="6.16515">
        <ele>2025.8000488281</ele>
        <time>2012-05-17T13:00:27.000Z</time>
      </trkpt>
      <trkpt lat="45.24459" lon="6.16514">
        <ele>2025.4000244141</ele>
        <time>2012-05-17T13:00:28.000Z</time>
      </trkpt>
      <trkpt lat="45.24456" lon="6.16512">
        <ele>2024.8000488281</ele>
        <time>2012-05-17T13:00:30.000Z</time>
      </trkpt>
      <trkpt lat="45.24445" lon="6.16511">
        <ele>2024</ele>
        <time>2012-05-17T13:00:39.000Z</time>
      </trkpt>
      <trkpt lat="45.24441" lon="6.16509">
        <ele>2022.8000488281</ele>
        <time>2012-05-17T13:00:43.000Z</time>
      </trkpt>
      <trkpt lat="45.24431" lon="6.16502">
        <ele>2020.8000488281</ele>
        <time>2012-05-17T13:00:52.000Z</time>
      </trkpt>
      <trkpt lat="45.24424" lon="6.16492">
        <ele>2018</ele>
        <time>2012-05-17T13:01:00.000Z</time>
      </trkpt>
      <trkpt lat="45.2442" lon="6.16488">
        <ele>2017.4000244141</ele>
        <time>2012-05-17T13:01:06.000Z</time>
      </trkpt>
      <trkpt lat="45.24419" lon="6.16488">
        <ele>2017.4000244141</ele>
        <time>2012-05-17T13:01:08.000Z</time>
      </trkpt>
      <trkpt lat="45.24412" lon="6.16487">
        <ele>2016.4000244141</ele>
        <time>2012-05-17T13:01:17.000Z</time>
      </trkpt>
      <trkpt lat="45.24409" lon="6.16488">
        <ele>2015</ele>
        <time>2012-05-17T13:01:28.000Z</time>
      </trkpt>
      <trkpt lat="45.24408" lon="6.16488">
        <ele>2015</ele>
        <time>2012-05-17T13:01:29.000Z</time>
      </trkpt>
      <trkpt lat="45.24408" lon="6.16488">
        <ele>2014.8000488281</ele>
        <time>2012-05-17T13:01:30.000Z</time>
      </trkpt>
      <trkpt lat="45.24397" lon="6.16489">
        <ele>2013.8000488281</ele>
        <time>2012-05-17T13:01:38.000Z</time>
      </trkpt>
      <trkpt lat="45.24389" lon="6.16487">
        <ele>2012</ele>
        <time>2012-05-17T13:01:45.000Z</time>
      </trkpt>
      <trkpt lat="45.24384" lon="6.16488">
        <ele>2009.4000244141</ele>
        <time>2012-05-17T13:01:50.000Z</time>
      </trkpt>
      <trkpt lat="45.24378" lon="6.16486">
        <ele>2007.8000488281</ele>
        <time>2012-05-17T13:01:56.000Z</time>
      </trkpt>
      <trkpt lat="45.24374" lon="6.16484">
        <ele>2007.5999755859</ele>
        <time>2012-05-17T13:02:00.000Z</time>
      </trkpt>
      <trkpt lat="45.2437" lon="6.16478">
        <ele>2006.8000488281</ele>
        <time>2012-05-17T13:02:05.000Z</time>
      </trkpt>
      <trkpt lat="45.24364" lon="6.16481">
        <ele>2004.8000488281</ele>
        <time>2012-05-17T13:02:11.000Z</time>
      </trkpt>
      <trkpt lat="45.24358" lon="6.16479">
        <ele>2004.5999755859</ele>
        <time>2012-05-17T13:02:17.000Z</time>
      </trkpt>
      <trkpt lat="45.24357" lon="6.16479">
        <ele>2004.4000244141</ele>
        <time>2012-05-17T13:02:18.000Z</time>
      </trkpt>
      <trkpt lat="45.24348" lon="6.16473">
        <ele>2000.8000488281</ele>
        <time>2012-05-17T13:02:25.000Z</time>
      </trkpt>
      <trkpt lat="45.24346" lon="6.16472">
        <ele>1999.8000488281</ele>
        <time>2012-05-17T13:02:27.000Z</time>
      </trkpt>
      <trkpt lat="45.24341" lon="6.16465">
        <ele>1997.8000488281</ele>
        <time>2012-05-17T13:02:34.000Z</time>
      </trkpt>
      <trkpt lat="45.24334" lon="6.16465">
        <ele>1996.5999755859</ele>
        <time>2012-05-17T13:02:41.000Z</time>
      </trkpt>
      <trkpt lat="45.24326" lon="6.16468">
        <ele>1996</ele>
        <time>2012-05-17T13:02:50.000Z</time>
      </trkpt>
      <trkpt lat="45.2432" lon="6.16472">
        <ele>1995.1999511719</ele>
        <time>2012-05-17T13:02:57.000Z</time>
      </trkpt>
      <trkpt lat="45.24315" lon="6.16478">
        <ele>1994.4000244141</ele>
        <time>2012-05-17T13:03:05.000Z</time>
      </trkpt>
      <trkpt lat="45.24311" lon="6.1648">
        <ele>1995.1999511719</ele>
        <time>2012-05-17T13:03:12.000Z</time>
      </trkpt>
      <trkpt lat="45.24309" lon="6.16481">
        <ele>1995.5999755859</ele>
        <time>2012-05-17T13:03:16.000Z</time>
      </trkpt>
      <trkpt lat="45.24307" lon="6.16481">
        <ele>1996.8000488281</ele>
        <time>2012-05-17T13:03:21.000Z</time>
      </trkpt>
      <trkpt lat="45.24304" lon="6.16482">
        <ele>1997.5999755859</ele>
        <time>2012-05-17T13:03:26.000Z</time>
      </trkpt>
      <trkpt lat="45.243" lon="6.16482">
        <ele>1998.4000244141</ele>
        <time>2012-05-17T13:03:33.000Z</time>
      </trkpt>
      <trkpt lat="45.24295" lon="6.16479">
        <ele>1998.1999511719</ele>
        <time>2012-05-17T13:03:39.000Z</time>
      </trkpt>
      <trkpt lat="45.24294" lon="6.16478">
        <ele>1997.8000488281</ele>
        <time>2012-05-17T13:03:42.000Z</time>
      </trkpt>
      <trkpt lat="45.2428" lon="6.1648">
        <ele>1996.4000244141</ele>
        <time>2012-05-17T13:05:02.000Z</time>
      </trkpt>
      <trkpt lat="45.24277" lon="6.16482">
        <ele>1996</ele>
        <time>2012-05-17T13:05:03.000Z</time>
      </trkpt>
      <trkpt lat="45.24279" lon="6.16498">
        <ele>1992.4000244141</ele>
        <time>2012-05-17T13:05:06.000Z</time>
      </trkpt>
      <trkpt lat="45.24276" lon="6.16511">
        <ele>1986.4000244141</ele>
        <time>2012-05-17T13:05:09.000Z</time>
      </trkpt>
      <trkpt lat="45.24277" lon="6.16521">
        <ele>1981.1999511719</ele>
        <time>2012-05-17T13:05:11.000Z</time>
      </trkpt>
      <trkpt lat="45.24275" lon="6.16537">
        <ele>1975.1999511719</ele>
        <time>2012-05-17T13:05:14.000Z</time>
      </trkpt>
      <trkpt lat="45.24275" lon="6.16553">
        <ele>1967.8000488281</ele>
        <time>2012-05-17T13:05:17.000Z</time>
      </trkpt>
      <trkpt lat="45.24267" lon="6.16557">
        <ele>1965.4000244141</ele>
        <time>2012-05-17T13:05:19.000Z</time>
      </trkpt>
      <trkpt lat="45.24248" lon="6.1656">
        <ele>1962.4000244141</ele>
        <time>2012-05-17T13:05:25.000Z</time>
      </trkpt>
      <trkpt lat="45.24243" lon="6.1658">
        <ele>1957.1999511719</ele>
        <time>2012-05-17T13:05:29.000Z</time>
      </trkpt>
      <trkpt lat="45.24245" lon="6.16594">
        <ele>1952</ele>
        <time>2012-05-17T13:05:31.000Z</time>
      </trkpt>
      <trkpt lat="45.24243" lon="6.1662">
        <ele>1944.4000244141</ele>
        <time>2012-05-17T13:05:34.000Z</time>
      </trkpt>
      <trkpt lat="45.24233" lon="6.16645">
        <ele>1936.4000244141</ele>
        <time>2012-05-17T13:05:37.000Z</time>
      </trkpt>
      <trkpt lat="45.24229" lon="6.16658">
        <ele>1931</ele>
        <time>2012-05-17T13:05:39.000Z</time>
      </trkpt>
      <trkpt lat="45.24238" lon="6.16689">
        <ele>1919.5999755859</ele>
        <time>2012-05-17T13:05:44.000Z</time>
      </trkpt>
      <trkpt lat="45.24238" lon="6.16694">
        <ele>1918.5999755859</ele>
        <time>2012-05-17T13:05:45.000Z</time>
      </trkpt>
      <trkpt lat="45.24237" lon="6.1671">
        <ele>1914.1999511719</ele>
        <time>2012-05-17T13:05:48.000Z</time>
      </trkpt>
      <trkpt lat="45.24241" lon="6.16719">
        <ele>1911</ele>
        <time>2012-05-17T13:05:51.000Z</time>
      </trkpt>
      <trkpt lat="45.24245" lon="6.16718">
        <ele>1909.4000244141</ele>
        <time>2012-05-17T13:05:52.000Z</time>
      </trkpt>
      <trkpt lat="45.24253" lon="6.16724">
        <ele>1904.1999511719</ele>
        <time>2012-05-17T13:05:56.000Z</time>
      </trkpt>
      <trkpt lat="45.24261" lon="6.16728">
        <ele>1900.4000244141</ele>
        <time>2012-05-17T13:05:58.000Z</time>
      </trkpt>
      <trkpt lat="45.24264" lon="6.16732">
        <ele>1896.8000488281</ele>
        <time>2012-05-17T13:06:00.000Z</time>
      </trkpt>
      <trkpt lat="45.24268" lon="6.16747">
        <ele>1888.1999511719</ele>
        <time>2012-05-17T13:06:04.000Z</time>
      </trkpt>
      <trkpt lat="45.24268" lon="6.16752">
        <ele>1887</ele>
        <time>2012-05-17T13:06:05.000Z</time>
      </trkpt>
      <trkpt lat="45.24271" lon="6.16774">
        <ele>1877.4000244141</ele>
        <time>2012-05-17T13:06:10.000Z</time>
      </trkpt>
      <trkpt lat="45.2427" lon="6.16783">
        <ele>1872.8000488281</ele>
        <time>2012-05-17T13:06:13.000Z</time>
      </trkpt>
      <trkpt lat="45.24277" lon="6.16789">
        <ele>1869</ele>
        <time>2012-05-17T13:06:16.000Z</time>
      </trkpt>
      <trkpt lat="45.24284" lon="6.16805">
        <ele>1862.4000244141</ele>
        <time>2012-05-17T13:06:19.000Z</time>
      </trkpt>
      <trkpt lat="45.24289" lon="6.16807">
        <ele>1861.4000244141</ele>
        <time>2012-05-17T13:06:20.000Z</time>
      </trkpt>
      <trkpt lat="45.24298" lon="6.16809">
        <ele>1856.4000244141</ele>
        <time>2012-05-17T13:06:24.000Z</time>
      </trkpt>
      <trkpt lat="45.24288" lon="6.16825">
        <ele>1853</ele>
        <time>2012-05-17T13:06:35.000Z</time>
      </trkpt>
      <trkpt lat="45.2429" lon="6.16834">
        <ele>1850.1999511719</ele>
        <time>2012-05-17T13:06:37.000Z</time>
      </trkpt>
      <trkpt lat="45.24292" lon="6.16848">
        <ele>1847.1999511719</ele>
        <time>2012-05-17T13:06:40.000Z</time>
      </trkpt>
      <trkpt lat="45.24294" lon="6.16862">
        <ele>1842.8000488281</ele>
        <time>2012-05-17T13:06:43.000Z</time>
      </trkpt>
      <trkpt lat="45.24294" lon="6.16872">
        <ele>1840.4000244141</ele>
        <time>2012-05-17T13:06:45.000Z</time>
      </trkpt>
      <trkpt lat="45.24297" lon="6.16889">
        <ele>1835.5999755859</ele>
        <time>2012-05-17T13:06:48.000Z</time>
      </trkpt>
      <trkpt lat="45.24295" lon="6.16901">
        <ele>1833</ele>
        <time>2012-05-17T13:06:50.000Z</time>
      </trkpt>
      <trkpt lat="45.24295" lon="6.16912">
        <ele>1829.4000244141</ele>
        <time>2012-05-17T13:06:52.000Z</time>
      </trkpt>
      <trkpt lat="45.243" lon="6.16916">
        <ele>1825.5999755859</ele>
        <time>2012-05-17T13:06:55.000Z</time>
      </trkpt>
      <trkpt lat="45.243" lon="6.16916">
        <ele>1825.1999511719</ele>
        <time>2012-05-17T13:06:56.000Z</time>
      </trkpt>
      <trkpt lat="45.24287" lon="6.16937">
        <ele>1820.4000244141</ele>
        <time>2012-05-17T13:07:08.000Z</time>
      </trkpt>
      <trkpt lat="45.24286" lon="6.16945">
        <ele>1818.4000244141</ele>
        <time>2012-05-17T13:07:10.000Z</time>
      </trkpt>
      <trkpt lat="45.24284" lon="6.16946">
        <ele>1817.1999511719</ele>
        <time>2012-05-17T13:07:11.000Z</time>
      </trkpt>
      <trkpt lat="45.24279" lon="6.16951">
        <ele>1814.4000244141</ele>
        <time>2012-05-17T13:07:15.000Z</time>
      </trkpt>
      <trkpt lat="45.24277" lon="6.16952">
        <ele>1813</ele>
        <time>2012-05-17T13:07:18.000Z</time>
      </trkpt>
      <trkpt lat="45.24272" lon="6.16955">
        <ele>1812</ele>
        <time>2012-05-17T13:07:27.000Z</time>
      </trkpt>
      <trkpt lat="45.24269" lon="6.16957">
        <ele>1811.4000244141</ele>
        <time>2012-05-17T13:07:29.000Z</time>
      </trkpt>
      <trkpt lat="45.24265" lon="6.16966">
        <ele>1810.5999755859</ele>
        <time>2012-05-17T13:07:33.000Z</time>
      </trkpt>
      <trkpt lat="45.24255" lon="6.16996">
        <ele>1807.8000488281</ele>
        <time>2012-05-17T13:07:42.000Z</time>
      </trkpt>
      <trkpt lat="45.24253" lon="6.17003">
        <ele>1806.5999755859</ele>
        <time>2012-05-17T13:07:46.000Z</time>
      </trkpt>
      <trkpt lat="45.24253" lon="6.17005">
        <ele>1806.1999511719</ele>
        <time>2012-05-17T13:07:49.000Z</time>
      </trkpt>
      <trkpt lat="45.24257" lon="6.17026">
        <ele>1803.4000244141</ele>
        <time>2012-05-17T13:08:01.000Z</time>
      </trkpt>
      <trkpt lat="45.24258" lon="6.17041">
        <ele>1802</ele>
        <time>2012-05-17T13:08:04.000Z</time>
      </trkpt>
      <trkpt lat="45.24256" lon="6.17074">
        <ele>1800.1999511719</ele>
        <time>2012-05-17T13:08:11.000Z</time>
      </trkpt>
      <trkpt lat="45.24256" lon="6.17096">
        <ele>1798.4000244141</ele>
        <time>2012-05-17T13:08:16.000Z</time>
      </trkpt>
      <trkpt lat="45.2426" lon="6.17131">
        <ele>1795.4000244141</ele>
        <time>2012-05-17T13:08:22.000Z</time>
      </trkpt>
      <trkpt lat="45.24263" lon="6.1715">
        <ele>1793.8000488281</ele>
        <time>2012-05-17T13:08:25.000Z</time>
      </trkpt>
      <trkpt lat="45.24267" lon="6.17173">
        <ele>1791.4000244141</ele>
        <time>2012-05-17T13:08:29.000Z</time>
      </trkpt>
      <trkpt lat="45.24278" lon="6.17224">
        <ele>1787.4000244141</ele>
        <time>2012-05-17T13:08:39.000Z</time>
      </trkpt>
      <trkpt lat="45.2429" lon="6.17267">
        <ele>1782.8000488281</ele>
        <time>2012-05-17T13:08:47.000Z</time>
      </trkpt>
      <trkpt lat="45.24301" lon="6.17293">
        <ele>1781.1999511719</ele>
        <time>2012-05-17T13:08:52.000Z</time>
      </trkpt>
      <trkpt lat="45.24314" lon="6.17322">
        <ele>1777.5999755859</ele>
        <time>2012-05-17T13:08:57.000Z</time>
      </trkpt>
      <trkpt lat="45.24318" lon="6.17332">
        <ele>1776.8000488281</ele>
        <time>2012-05-17T13:08:59.000Z</time>
      </trkpt>
      <trkpt lat="45.24328" lon="6.17355">
        <ele>1774.5999755859</ele>
        <time>2012-05-17T13:09:04.000Z</time>
      </trkpt>
      <trkpt lat="45.24332" lon="6.17363">
        <ele>1773.5999755859</ele>
        <time>2012-05-17T13:09:06.000Z</time>
      </trkpt>
      <trkpt lat="45.24357" lon="6.17383">
        <ele>1770</ele>
        <time>2012-05-17T13:09:13.000Z</time>
      </trkpt>
      <trkpt lat="45.24361" lon="6.17385">
        <ele>1769.8000488281</ele>
        <time>2012-05-17T13:09:14.000Z</time>
      </trkpt>
      <trkpt lat="45.24377" lon="6.17406">
        <ele>1767.1999511719</ele>
        <time>2012-05-17T13:09:20.000Z</time>
      </trkpt>
      <trkpt lat="45.24393" lon="6.17438">
        <ele>1764.4000244141</ele>
        <time>2012-05-17T13:09:27.000Z</time>
      </trkpt>
      <trkpt lat="45.24398" lon="6.17451">
        <ele>1763.1999511719</ele>
        <time>2012-05-17T13:09:30.000Z</time>
      </trkpt>
      <trkpt lat="45.24401" lon="6.17461">
        <ele>1762.4000244141</ele>
        <time>2012-05-17T13:09:32.000Z</time>
      </trkpt>
      <trkpt lat="45.24409" lon="6.17474">
        <ele>1761.1999511719</ele>
        <time>2012-05-17T13:09:35.000Z</time>
      </trkpt>
      <trkpt lat="45.24413" lon="6.17481">
        <ele>1760</ele>
        <time>2012-05-17T13:09:37.000Z</time>
      </trkpt>
      <trkpt lat="45.24426" lon="6.17489">
        <ele>1757.5999755859</ele>
        <time>2012-05-17T13:09:43.000Z</time>
      </trkpt>
      <trkpt lat="45.24445" lon="6.17504">
        <ele>1754.8000488281</ele>
        <time>2012-05-17T13:09:50.000Z</time>
      </trkpt>
      <trkpt lat="45.24448" lon="6.17507">
        <ele>1753.5999755859</ele>
        <time>2012-05-17T13:09:53.000Z</time>
      </trkpt>
      <trkpt lat="45.24448" lon="6.17507">
        <ele>1753.4000244141</ele>
        <time>2012-05-17T13:09:54.000Z</time>
      </trkpt>
      <trkpt lat="45.24451" lon="6.1751">
        <ele>1752.5999755859</ele>
        <time>2012-05-17T13:10:04.000Z</time>
      </trkpt>
      <trkpt lat="45.2446" lon="6.17517">
        <ele>1752</ele>
        <time>2012-05-17T13:10:11.000Z</time>
      </trkpt>
      <trkpt lat="45.24472" lon="6.17533">
        <ele>1750.8000488281</ele>
        <time>2012-05-17T13:10:18.000Z</time>
      </trkpt>
      <trkpt lat="45.24483" lon="6.1756">
        <ele>1749</ele>
        <time>2012-05-17T13:10:25.000Z</time>
      </trkpt>
      <trkpt lat="45.24492" lon="6.17577">
        <ele>1747.1999511719</ele>
        <time>2012-05-17T13:10:29.000Z</time>
      </trkpt>
      <trkpt lat="45.24496" lon="6.17581">
        <ele>1746.5999755859</ele>
        <time>2012-05-17T13:10:30.000Z</time>
      </trkpt>
      <trkpt lat="45.24512" lon="6.17591">
        <ele>1744.1999511719</ele>
        <time>2012-05-17T13:10:34.000Z</time>
      </trkpt>
      <trkpt lat="45.24524" lon="6.17604">
        <ele>1741.5999755859</ele>
        <time>2012-05-17T13:10:38.000Z</time>
      </trkpt>
      <trkpt lat="45.2454" lon="6.17622">
        <ele>1739.4000244141</ele>
        <time>2012-05-17T13:10:44.000Z</time>
      </trkpt>
      <trkpt lat="45.24559" lon="6.17635">
        <ele>1736.4000244141</ele>
        <time>2012-05-17T13:10:49.000Z</time>
      </trkpt>
      <trkpt lat="45.24562" lon="6.17639">
        <ele>1736</ele>
        <time>2012-05-17T13:10:50.000Z</time>
      </trkpt>
      <trkpt lat="45.24578" lon="6.17653">
        <ele>1733.8000488281</ele>
        <time>2012-05-17T13:10:55.000Z</time>
      </trkpt>
      <trkpt lat="45.24595" lon="6.17662">
        <ele>1732</ele>
        <time>2012-05-17T13:11:01.000Z</time>
      </trkpt>
      <trkpt lat="45.24596" lon="6.17665">
        <ele>1731.1999511719</ele>
        <time>2012-05-17T13:11:05.000Z</time>
      </trkpt>
      <trkpt lat="45.24599" lon="6.1766">
        <ele>1730</ele>
        <time>2012-05-17T13:11:19.000Z</time>
      </trkpt>
      <trkpt lat="45.24599" lon="6.1766">
        <ele>1730.1999511719</ele>
        <time>2012-05-17T13:11:20.000Z</time>
      </trkpt>
      <trkpt lat="45.24613" lon="6.17649">
        <ele>1726.5999755859</ele>
        <time>2012-05-17T13:11:28.000Z</time>
      </trkpt>
      <trkpt lat="45.24625" lon="6.17639">
        <ele>1723.1999511719</ele>
        <time>2012-05-17T13:11:31.000Z</time>
      </trkpt>
      <trkpt lat="45.24633" lon="6.17626">
        <ele>1718.4000244141</ele>
        <time>2012-05-17T13:11:34.000Z</time>
      </trkpt>
      <trkpt lat="45.24644" lon="6.17617">
        <ele>1713.8000488281</ele>
        <time>2012-05-17T13:11:37.000Z</time>
      </trkpt>
      <trkpt lat="45.24652" lon="6.17616">
        <ele>1710.1999511719</ele>
        <time>2012-05-17T13:11:40.000Z</time>
      </trkpt>
      <trkpt lat="45.24654" lon="6.17615">
        <ele>1708.5999755859</ele>
        <time>2012-05-17T13:11:43.000Z</time>
      </trkpt>
      <trkpt lat="45.24653" lon="6.17614">
        <ele>1708.1999511719</ele>
        <time>2012-05-17T13:11:44.000Z</time>
      </trkpt>
      <trkpt lat="45.24654" lon="6.17613">
        <ele>1706.4000244141</ele>
        <time>2012-05-17T13:13:45.000Z</time>
      </trkpt>
      <trkpt lat="45.24659" lon="6.17609">
        <ele>1705.5999755859</ele>
        <time>2012-05-17T13:13:52.000Z</time>
      </trkpt>
      <trkpt lat="45.24659" lon="6.17601">
        <ele>1705</ele>
        <time>2012-05-17T13:14:00.000Z</time>
      </trkpt>
      <trkpt lat="45.24659" lon="6.17602">
        <ele>1705</ele>
        <time>2012-05-17T13:14:01.000Z</time>
      </trkpt>
      <trkpt lat="45.24659" lon="6.17589">
        <ele>1703.4000244141</ele>
        <time>2012-05-17T13:14:17.000Z</time>
      </trkpt>
      <trkpt lat="45.24661" lon="6.17589">
        <ele>1702.8000488281</ele>
        <time>2012-05-17T13:14:22.000Z</time>
      </trkpt>
      <trkpt lat="45.24664" lon="6.17588">
        <ele>1702.4000244141</ele>
        <time>2012-05-17T13:14:45.000Z</time>
      </trkpt>
      <trkpt lat="45.24674" lon="6.17586">
        <ele>1699.5999755859</ele>
        <time>2012-05-17T13:14:53.000Z</time>
      </trkpt>
      <trkpt lat="45.24682" lon="6.17585">
        <ele>1697.5999755859</ele>
        <time>2012-05-17T13:15:00.000Z</time>
      </trkpt>
      <trkpt lat="45.24691" lon="6.17589">
        <ele>1695.5999755859</ele>
        <time>2012-05-17T13:15:07.000Z</time>
      </trkpt>
      <trkpt lat="45.24701" lon="6.17593">
        <ele>1694.4000244141</ele>
        <time>2012-05-17T13:15:15.000Z</time>
      </trkpt>
      <trkpt lat="45.24711" lon="6.17599">
        <ele>1692</ele>
        <time>2012-05-17T13:15:23.000Z</time>
      </trkpt>
      <trkpt lat="45.24719" lon="6.17609">
        <ele>1690.1999511719</ele>
        <time>2012-05-17T13:15:31.000Z</time>
      </trkpt>
      <trkpt lat="45.24721" lon="6.17615">
        <ele>1689.1999511719</ele>
        <time>2012-05-17T13:15:37.000Z</time>
      </trkpt>
      <trkpt lat="45.24723" lon="6.1762">
        <ele>1688.8000488281</ele>
        <time>2012-05-17T13:15:48.000Z</time>
      </trkpt>
      <trkpt lat="45.24723" lon="6.17624">
        <ele>1688.8000488281</ele>
        <time>2012-05-17T13:15:53.000Z</time>
      </trkpt>
      <trkpt lat="45.24733" lon="6.17621">
        <ele>1687.1999511719</ele>
        <time>2012-05-17T13:16:04.000Z</time>
      </trkpt>
      <trkpt lat="45.24736" lon="6.1762">
        <ele>1686.4000244141</ele>
        <time>2012-05-17T13:16:06.000Z</time>
      </trkpt>
      <trkpt lat="45.24741" lon="6.17621">
        <ele>1685.5999755859</ele>
        <time>2012-05-17T13:16:10.000Z</time>
      </trkpt>
      <trkpt lat="45.24749" lon="6.17632">
        <ele>1683.8000488281</ele>
        <time>2012-05-17T13:16:20.000Z</time>
      </trkpt>
      <trkpt lat="45.24757" lon="6.17639">
        <ele>1683.8000488281</ele>
        <time>2012-05-17T13:16:33.000Z</time>
      </trkpt>
      <trkpt lat="45.24769" lon="6.17654">
        <ele>1681.8000488281</ele>
        <time>2012-05-17T13:16:45.000Z</time>
      </trkpt>
      <trkpt lat="45.2478" lon="6.17669">
        <ele>1680</ele>
        <time>2012-05-17T13:16:57.000Z</time>
      </trkpt>
      <trkpt lat="45.24791" lon="6.17686">
        <ele>1678</ele>
        <time>2012-05-17T13:17:09.000Z</time>
      </trkpt>
      <trkpt lat="45.24798" lon="6.17702">
        <ele>1676.1999511719</ele>
        <time>2012-05-17T13:17:19.000Z</time>
      </trkpt>
      <trkpt lat="45.24806" lon="6.17717">
        <ele>1674.5999755859</ele>
        <time>2012-05-17T13:17:29.000Z</time>
      </trkpt>
      <trkpt lat="45.24814" lon="6.17736">
        <ele>1673.4000244141</ele>
        <time>2012-05-17T13:17:40.000Z</time>
      </trkpt>
      <trkpt lat="45.2482" lon="6.17754">
        <ele>1672</ele>
        <time>2012-05-17T13:17:50.000Z</time>
      </trkpt>
      <trkpt lat="45.24827" lon="6.17771">
        <ele>1670</ele>
        <time>2012-05-17T13:18:00.000Z</time>
      </trkpt>
      <trkpt lat="45.24834" lon="6.17788">
        <ele>1668.5999755859</ele>
        <time>2012-05-17T13:18:10.000Z</time>
      </trkpt>
      <trkpt lat="45.24845" lon="6.17803">
        <ele>1667.1999511719</ele>
        <time>2012-05-17T13:18:21.000Z</time>
      </trkpt>
      <trkpt lat="45.24857" lon="6.17814">
        <ele>1666.1999511719</ele>
        <time>2012-05-17T13:18:31.000Z</time>
      </trkpt>
      <trkpt lat="45.24868" lon="6.17821">
        <ele>1665.1999511719</ele>
        <time>2012-05-17T13:18:41.000Z</time>
      </trkpt>
      <trkpt lat="45.24881" lon="6.17829">
        <ele>1664</ele>
        <time>2012-05-17T13:18:52.000Z</time>
      </trkpt>
      <trkpt lat="45.24898" lon="6.17841">
        <ele>1662.5999755859</ele>
        <time>2012-05-17T13:19:06.000Z</time>
      </trkpt>
      <trkpt lat="45.24912" lon="6.17854">
        <ele>1661.4000244141</ele>
        <time>2012-05-17T13:19:18.000Z</time>
      </trkpt>
      <trkpt lat="45.24926" lon="6.17867">
        <ele>1660</ele>
        <time>2012-05-17T13:19:30.000Z</time>
      </trkpt>
      <trkpt lat="45.24935" lon="6.1788">
        <ele>1659.1999511719</ele>
        <time>2012-05-17T13:19:40.000Z</time>
      </trkpt>
      <trkpt lat="45.24942" lon="6.17897">
        <ele>1658.5999755859</ele>
        <time>2012-05-17T13:19:50.000Z</time>
      </trkpt>
      <trkpt lat="45.24947" lon="6.17913">
        <ele>1658</ele>
        <time>2012-05-17T13:19:59.000Z</time>
      </trkpt>
      <trkpt lat="45.24952" lon="6.17931">
        <ele>1657.1999511719</ele>
        <time>2012-05-17T13:20:09.000Z</time>
      </trkpt>
      <trkpt lat="45.24958" lon="6.1795">
        <ele>1655.8000488281</ele>
        <time>2012-05-17T13:20:19.000Z</time>
      </trkpt>
      <trkpt lat="45.24962" lon="6.17966">
        <ele>1654.8000488281</ele>
        <time>2012-05-17T13:20:28.000Z</time>
      </trkpt>
      <trkpt lat="45.24965" lon="6.17976">
        <ele>1654</ele>
        <time>2012-05-17T13:20:34.000Z</time>
      </trkpt>
      <trkpt lat="45.24975" lon="6.17997">
        <ele>1653</ele>
        <time>2012-05-17T13:20:47.000Z</time>
      </trkpt>
      <trkpt lat="45.24984" lon="6.18012">
        <ele>1651.1999511719</ele>
        <time>2012-05-17T13:20:58.000Z</time>
      </trkpt>
      <trkpt lat="45.24991" lon="6.18022">
        <ele>1650.5999755859</ele>
        <time>2012-05-17T13:21:05.000Z</time>
      </trkpt>
      <trkpt lat="45.25003" lon="6.18037">
        <ele>1649.4000244141</ele>
        <time>2012-05-17T13:21:17.000Z</time>
      </trkpt>
      <trkpt lat="45.25014" lon="6.18052">
        <ele>1648.4000244141</ele>
        <time>2012-05-17T13:21:28.000Z</time>
      </trkpt>
      <trkpt lat="45.25026" lon="6.18067">
        <ele>1647.1999511719</ele>
        <time>2012-05-17T13:21:39.000Z</time>
      </trkpt>
      <trkpt lat="45.2504" lon="6.18087">
        <ele>1645.1999511719</ele>
        <time>2012-05-17T13:21:53.000Z</time>
      </trkpt>
      <trkpt lat="45.25049" lon="6.18101">
        <ele>1644.4000244141</ele>
        <time>2012-05-17T13:22:03.000Z</time>
      </trkpt>
      <trkpt lat="45.25057" lon="6.18118">
        <ele>1643</ele>
        <time>2012-05-17T13:22:14.000Z</time>
      </trkpt>
      <trkpt lat="45.25064" lon="6.18136">
        <ele>1641.8000488281</ele>
        <time>2012-05-17T13:22:25.000Z</time>
      </trkpt>
      <trkpt lat="45.25069" lon="6.18151">
        <ele>1640.5999755859</ele>
        <time>2012-05-17T13:22:35.000Z</time>
      </trkpt>
      <trkpt lat="45.25074" lon="6.18162">
        <ele>1640.1999511719</ele>
        <time>2012-05-17T13:22:42.000Z</time>
      </trkpt>
      <trkpt lat="45.25084" lon="6.1817">
        <ele>1639.1999511719</ele>
        <time>2012-05-17T13:22:51.000Z</time>
      </trkpt>
      <trkpt lat="45.25096" lon="6.18176">
        <ele>1638.5999755859</ele>
        <time>2012-05-17T13:23:01.000Z</time>
      </trkpt>
      <trkpt lat="45.25108" lon="6.18183">
        <ele>1637.5999755859</ele>
        <time>2012-05-17T13:23:10.000Z</time>
      </trkpt>
      <trkpt lat="45.25121" lon="6.18192">
        <ele>1636.5999755859</ele>
        <time>2012-05-17T13:23:21.000Z</time>
      </trkpt>
      <trkpt lat="45.25134" lon="6.18203">
        <ele>1636.1999511719</ele>
        <time>2012-05-17T13:23:33.000Z</time>
      </trkpt>
      <trkpt lat="45.25135" lon="6.18206">
        <ele>1636</ele>
        <time>2012-05-17T13:23:37.000Z</time>
      </trkpt>
      <trkpt lat="45.25136" lon="6.18212">
        <ele>1636.5999755859</ele>
        <time>2012-05-17T13:23:45.000Z</time>
      </trkpt>
      <trkpt lat="45.25137" lon="6.18213">
        <ele>1636.4000244141</ele>
        <time>2012-05-17T13:23:46.000Z</time>
      </trkpt>
      <trkpt lat="45.2514" lon="6.18218">
        <ele>1636.1999511719</ele>
        <time>2012-05-17T13:23:52.000Z</time>
      </trkpt>
      <trkpt lat="45.25145" lon="6.18223">
        <ele>1636</ele>
        <time>2012-05-17T13:23:59.000Z</time>
      </trkpt>
      <trkpt lat="45.25149" lon="6.18221">
        <ele>1635.5999755859</ele>
        <time>2012-05-17T13:24:05.000Z</time>
      </trkpt>
      <trkpt lat="45.25153" lon="6.18222">
        <ele>1635.8000488281</ele>
        <time>2012-05-17T13:24:11.000Z</time>
      </trkpt>
      <trkpt lat="45.25158" lon="6.18222">
        <ele>1635.1999511719</ele>
        <time>2012-05-17T13:24:17.000Z</time>
      </trkpt>
      <trkpt lat="45.25159" lon="6.18223">
        <ele>1635</ele>
        <time>2012-05-17T13:24:18.000Z</time>
      </trkpt>
      <trkpt lat="45.25161" lon="6.18222">
        <ele>1634.8000488281</ele>
        <time>2012-05-17T13:24:20.000Z</time>
      </trkpt>
      <trkpt lat="45.25171" lon="6.18228">
        <ele>1634</ele>
        <time>2012-05-17T13:24:29.000Z</time>
      </trkpt>
      <trkpt lat="45.25177" lon="6.18234">
        <ele>1633.1999511719</ele>
        <time>2012-05-17T13:24:38.000Z</time>
      </trkpt>
    </trkseg>
  </trk>
</gpx>